<?xml version='1.0' encoding='UTF-8'?>
<gpx version="1.1" creator="https://www.komoot.de" xmlns="http://www.topografix.com/GPX/1/1" xmlns:xsi="http://www.w3.org/2001/XMLSchema-instance" xsi:schemaLocation="http://www.topografix.com/GPX/1/1 http://www.topografix.com/GPX/1/1/gpx.xsd">
  <metadata>
    <name>Radtour 11, Schloss Niederabsdorf - Vogelschauplatz Hohenau - Erdmuseum Althöflein</name>
    <author>
      <link href="https://www.komoot.de">
        <text>komoot</text>
        <type>text/html</type>
      </link>
    </author>
  </metadata>
  <trk>
    <name>Radtour 11, Schloss Niederabsdorf - Vogelschauplatz Hohenau - Erdmuseum Althöflein</name>
    <trkseg>
      <trkpt lat="48.583902" lon="16.649187">
        <ele>224.744562</ele>
        <time>2020-07-27T03:47:28.385Z</time>
      </trkpt>
      <trkpt lat="48.583981" lon="16.649060">
        <ele>224.744562</ele>
        <time>2020-07-27T03:47:47.792Z</time>
      </trkpt>
      <trkpt lat="48.584065" lon="16.648966">
        <ele>224.744562</ele>
        <time>2020-07-27T03:47:50.792Z</time>
      </trkpt>
      <trkpt lat="48.584172" lon="16.648866">
        <ele>224.744562</ele>
        <time>2020-07-27T03:47:53.796Z</time>
      </trkpt>
      <trkpt lat="48.584283" lon="16.648755">
        <ele>224.744562</ele>
        <time>2020-07-27T03:47:56.786Z</time>
      </trkpt>
      <trkpt lat="48.584401" lon="16.648696">
        <ele>224.744562</ele>
        <time>2020-07-27T03:47:59.790Z</time>
      </trkpt>
      <trkpt lat="48.584479" lon="16.648765">
        <ele>224.744562</ele>
        <time>2020-07-27T03:48:01.796Z</time>
      </trkpt>
      <trkpt lat="48.584542" lon="16.648867">
        <ele>224.744562</ele>
        <time>2020-07-27T03:48:03.806Z</time>
      </trkpt>
      <trkpt lat="48.584636" lon="16.649011">
        <ele>224.739408</ele>
        <time>2020-07-27T03:48:06.792Z</time>
      </trkpt>
      <trkpt lat="48.584701" lon="16.649119">
        <ele>224.714767</ele>
        <time>2020-07-27T03:48:08.809Z</time>
      </trkpt>
      <trkpt lat="48.584767" lon="16.649225">
        <ele>224.690201</ele>
        <time>2020-07-27T03:48:10.789Z</time>
      </trkpt>
      <trkpt lat="48.584842" lon="16.649329">
        <ele>224.664237</ele>
        <time>2020-07-27T03:48:12.798Z</time>
      </trkpt>
      <trkpt lat="48.584921" lon="16.649431">
        <ele>224.637732</ele>
        <time>2020-07-27T03:48:14.792Z</time>
      </trkpt>
      <trkpt lat="48.585008" lon="16.649527">
        <ele>224.610254</ele>
        <time>2020-07-27T03:48:16.806Z</time>
      </trkpt>
      <trkpt lat="48.585097" lon="16.649624">
        <ele>224.582263</ele>
        <time>2020-07-27T03:48:18.809Z</time>
      </trkpt>
      <trkpt lat="48.585187" lon="16.649719">
        <ele>224.554259</ele>
        <time>2020-07-27T03:48:20.796Z</time>
      </trkpt>
      <trkpt lat="48.585281" lon="16.649813">
        <ele>224.525506</ele>
        <time>2020-07-27T03:48:22.821Z</time>
      </trkpt>
      <trkpt lat="48.585383" lon="16.649896">
        <ele>224.495954</ele>
        <time>2020-07-27T03:48:24.793Z</time>
      </trkpt>
      <trkpt lat="48.585489" lon="16.649988">
        <ele>224.464772</ele>
        <time>2020-07-27T03:48:26.796Z</time>
      </trkpt>
      <trkpt lat="48.585600" lon="16.650078">
        <ele>224.432639</ele>
        <time>2020-07-27T03:48:28.805Z</time>
      </trkpt>
      <trkpt lat="48.585714" lon="16.650165">
        <ele>224.400060</ele>
        <time>2020-07-27T03:48:30.795Z</time>
      </trkpt>
      <trkpt lat="48.585825" lon="16.650251">
        <ele>224.368240</ele>
        <time>2020-07-27T03:48:32.806Z</time>
      </trkpt>
      <trkpt lat="48.585936" lon="16.650333">
        <ele>224.336722</ele>
        <time>2020-07-27T03:48:34.805Z</time>
      </trkpt>
      <trkpt lat="48.586046" lon="16.650415">
        <ele>224.305433</ele>
        <time>2020-07-27T03:48:36.793Z</time>
      </trkpt>
      <trkpt lat="48.586155" lon="16.650503">
        <ele>224.285289</ele>
        <time>2020-07-27T03:48:38.810Z</time>
      </trkpt>
      <trkpt lat="48.586262" lon="16.650596">
        <ele>224.284182</ele>
        <time>2020-07-27T03:48:40.797Z</time>
      </trkpt>
      <trkpt lat="48.586368" lon="16.650694">
        <ele>224.283068</ele>
        <time>2020-07-27T03:48:42.812Z</time>
      </trkpt>
      <trkpt lat="48.586471" lon="16.650798">
        <ele>224.281957</ele>
        <time>2020-07-27T03:48:44.789Z</time>
      </trkpt>
      <trkpt lat="48.586570" lon="16.650906">
        <ele>224.280863</ele>
        <time>2020-07-27T03:48:46.824Z</time>
      </trkpt>
      <trkpt lat="48.586664" lon="16.651021">
        <ele>224.279778</ele>
        <time>2020-07-27T03:48:48.801Z</time>
      </trkpt>
      <trkpt lat="48.586756" lon="16.651147">
        <ele>224.278665</ele>
        <time>2020-07-27T03:48:50.798Z</time>
      </trkpt>
      <trkpt lat="48.586844" lon="16.651279">
        <ele>224.277553</ele>
        <time>2020-07-27T03:48:52.792Z</time>
      </trkpt>
      <trkpt lat="48.586928" lon="16.651417">
        <ele>224.276441</ele>
        <time>2020-07-27T03:48:54.813Z</time>
      </trkpt>
      <trkpt lat="48.587015" lon="16.651553">
        <ele>224.275319</ele>
        <time>2020-07-27T03:48:56.813Z</time>
      </trkpt>
      <trkpt lat="48.587099" lon="16.651685">
        <ele>224.274232</ele>
        <time>2020-07-27T03:48:58.801Z</time>
      </trkpt>
      <trkpt lat="48.587179" lon="16.651814">
        <ele>224.273184</ele>
        <time>2020-07-27T03:49:00.819Z</time>
      </trkpt>
      <trkpt lat="48.587258" lon="16.651941">
        <ele>224.272149</ele>
        <time>2020-07-27T03:49:02.834Z</time>
      </trkpt>
      <trkpt lat="48.587332" lon="16.652070">
        <ele>224.271137</ele>
        <time>2020-07-27T03:49:04.774Z</time>
      </trkpt>
      <trkpt lat="48.587407" lon="16.652193">
        <ele>224.270144</ele>
        <time>2020-07-27T03:49:06.809Z</time>
      </trkpt>
      <trkpt lat="48.587483" lon="16.652315">
        <ele>224.308373</ele>
        <time>2020-07-27T03:49:08.782Z</time>
      </trkpt>
      <trkpt lat="48.587559" lon="16.652438">
        <ele>224.399598</ele>
        <time>2020-07-27T03:49:10.790Z</time>
      </trkpt>
      <trkpt lat="48.587635" lon="16.652560">
        <ele>224.490427</ele>
        <time>2020-07-27T03:49:12.791Z</time>
      </trkpt>
      <trkpt lat="48.587712" lon="16.652681">
        <ele>224.581428</ele>
        <time>2020-07-27T03:49:14.786Z</time>
      </trkpt>
      <trkpt lat="48.587789" lon="16.652796">
        <ele>224.670115</ele>
        <time>2020-07-27T03:49:16.817Z</time>
      </trkpt>
      <trkpt lat="48.587862" lon="16.652904">
        <ele>224.753804</ele>
        <time>2020-07-27T03:49:18.805Z</time>
      </trkpt>
      <trkpt lat="48.587950" lon="16.653021">
        <ele>224.849825</ele>
        <time>2020-07-27T03:49:20.788Z</time>
      </trkpt>
      <trkpt lat="48.588016" lon="16.653137">
        <ele>224.932754</ele>
        <time>2020-07-27T03:49:22.796Z</time>
      </trkpt>
      <trkpt lat="48.588079" lon="16.653272">
        <ele>225.022298</ele>
        <time>2020-07-27T03:49:24.808Z</time>
      </trkpt>
      <trkpt lat="48.588137" lon="16.653434">
        <ele>225.122135</ele>
        <time>2020-07-27T03:49:26.782Z</time>
      </trkpt>
      <trkpt lat="48.588197" lon="16.653592">
        <ele>225.220876</ele>
        <time>2020-07-27T03:49:28.781Z</time>
      </trkpt>
      <trkpt lat="48.588246" lon="16.653758">
        <ele>225.319397</ele>
        <time>2020-07-27T03:49:30.803Z</time>
      </trkpt>
      <trkpt lat="48.588293" lon="16.653938">
        <ele>225.424279</ele>
        <time>2020-07-27T03:49:32.804Z</time>
      </trkpt>
      <trkpt lat="48.588328" lon="16.654123">
        <ele>225.528566</ele>
        <time>2020-07-27T03:49:34.808Z</time>
      </trkpt>
      <trkpt lat="48.588364" lon="16.654295">
        <ele>225.626342</ele>
        <time>2020-07-27T03:49:36.813Z</time>
      </trkpt>
      <trkpt lat="48.588389" lon="16.654465">
        <ele>225.720728</ele>
        <time>2020-07-27T03:49:38.790Z</time>
      </trkpt>
      <trkpt lat="48.588407" lon="16.654638">
        <ele>225.760620</ele>
        <time>2020-07-27T03:49:40.783Z</time>
      </trkpt>
      <trkpt lat="48.588425" lon="16.654814">
        <ele>225.783711</ele>
        <time>2020-07-27T03:49:42.798Z</time>
      </trkpt>
      <trkpt lat="48.588437" lon="16.654993">
        <ele>225.807039</ele>
        <time>2020-07-27T03:49:44.800Z</time>
      </trkpt>
      <trkpt lat="48.588445" lon="16.655173">
        <ele>225.830430</ele>
        <time>2020-07-27T03:49:46.805Z</time>
      </trkpt>
      <trkpt lat="48.588450" lon="16.655350">
        <ele>225.853401</ele>
        <time>2020-07-27T03:49:48.791Z</time>
      </trkpt>
      <trkpt lat="48.588460" lon="16.655530">
        <ele>225.876821</ele>
        <time>2020-07-27T03:49:50.804Z</time>
      </trkpt>
      <trkpt lat="48.588466" lon="16.655707">
        <ele>225.899801</ele>
        <time>2020-07-27T03:49:52.802Z</time>
      </trkpt>
      <trkpt lat="48.588474" lon="16.655888">
        <ele>225.923322</ele>
        <time>2020-07-27T03:49:54.794Z</time>
      </trkpt>
      <trkpt lat="48.588485" lon="16.656070">
        <ele>225.947018</ele>
        <time>2020-07-27T03:49:56.797Z</time>
      </trkpt>
      <trkpt lat="48.588490" lon="16.656253">
        <ele>225.970766</ele>
        <time>2020-07-27T03:49:58.799Z</time>
      </trkpt>
      <trkpt lat="48.588498" lon="16.656430">
        <ele>225.993769</ele>
        <time>2020-07-27T03:50:00.816Z</time>
      </trkpt>
      <trkpt lat="48.588507" lon="16.656609">
        <ele>226.017045</ele>
        <time>2020-07-27T03:50:02.793Z</time>
      </trkpt>
      <trkpt lat="48.588516" lon="16.656787">
        <ele>226.040191</ele>
        <time>2020-07-27T03:50:04.810Z</time>
      </trkpt>
      <trkpt lat="48.588529" lon="16.656963">
        <ele>226.063153</ele>
        <time>2020-07-27T03:50:06.812Z</time>
      </trkpt>
      <trkpt lat="48.588540" lon="16.657141">
        <ele>226.086333</ele>
        <time>2020-07-27T03:50:08.813Z</time>
      </trkpt>
      <trkpt lat="48.588548" lon="16.657320">
        <ele>226.090958</ele>
        <time>2020-07-27T03:50:10.785Z</time>
      </trkpt>
      <trkpt lat="48.588554" lon="16.657498">
        <ele>226.082655</ele>
        <time>2020-07-27T03:50:12.803Z</time>
      </trkpt>
      <trkpt lat="48.588568" lon="16.657674">
        <ele>226.074398</ele>
        <time>2020-07-27T03:50:14.833Z</time>
      </trkpt>
      <trkpt lat="48.588591" lon="16.657848">
        <ele>226.066132</ele>
        <time>2020-07-27T03:50:16.796Z</time>
      </trkpt>
      <trkpt lat="48.588614" lon="16.658019">
        <ele>226.058003</ele>
        <time>2020-07-27T03:50:18.799Z</time>
      </trkpt>
      <trkpt lat="48.588645" lon="16.658186">
        <ele>226.049923</ele>
        <time>2020-07-27T03:50:20.795Z</time>
      </trkpt>
      <trkpt lat="48.588675" lon="16.658355">
        <ele>226.041772</ele>
        <time>2020-07-27T03:50:22.799Z</time>
      </trkpt>
      <trkpt lat="48.588708" lon="16.658522">
        <ele>226.033653</ele>
        <time>2020-07-27T03:50:24.801Z</time>
      </trkpt>
      <trkpt lat="48.588743" lon="16.658693">
        <ele>226.025314</ele>
        <time>2020-07-27T03:50:26.792Z</time>
      </trkpt>
      <trkpt lat="48.588784" lon="16.658861">
        <ele>226.016973</ele>
        <time>2020-07-27T03:50:28.790Z</time>
      </trkpt>
      <trkpt lat="48.588825" lon="16.659024">
        <ele>226.008849</ele>
        <time>2020-07-27T03:50:30.790Z</time>
      </trkpt>
      <trkpt lat="48.588872" lon="16.659182">
        <ele>226.000779</ele>
        <time>2020-07-27T03:50:32.798Z</time>
      </trkpt>
      <trkpt lat="48.588923" lon="16.659336">
        <ele>225.992756</ele>
        <time>2020-07-27T03:50:34.799Z</time>
      </trkpt>
      <trkpt lat="48.588979" lon="16.659483">
        <ele>225.984854</ele>
        <time>2020-07-27T03:50:36.795Z</time>
      </trkpt>
      <trkpt lat="48.589037" lon="16.659625">
        <ele>225.977079</ele>
        <time>2020-07-27T03:50:38.795Z</time>
      </trkpt>
      <trkpt lat="48.589099" lon="16.659766">
        <ele>225.969325</ele>
        <time>2020-07-27T03:50:40.795Z</time>
      </trkpt>
      <trkpt lat="48.589159" lon="16.659905">
        <ele>226.009115</ele>
        <time>2020-07-27T03:50:42.796Z</time>
      </trkpt>
      <trkpt lat="48.589220" lon="16.660046">
        <ele>226.049504</ele>
        <time>2020-07-27T03:50:44.822Z</time>
      </trkpt>
      <trkpt lat="48.589286" lon="16.660183">
        <ele>226.090134</ele>
        <time>2020-07-27T03:50:46.813Z</time>
      </trkpt>
      <trkpt lat="48.589356" lon="16.660310">
        <ele>226.129763</ele>
        <time>2020-07-27T03:50:48.834Z</time>
      </trkpt>
      <trkpt lat="48.589429" lon="16.660433">
        <ele>226.169379</ele>
        <time>2020-07-27T03:50:50.799Z</time>
      </trkpt>
      <trkpt lat="48.589504" lon="16.660550">
        <ele>226.208437</ele>
        <time>2020-07-27T03:50:52.805Z</time>
      </trkpt>
      <trkpt lat="48.589571" lon="16.660660">
        <ele>226.244283</ele>
        <time>2020-07-27T03:50:54.791Z</time>
      </trkpt>
      <trkpt lat="48.589634" lon="16.660782">
        <ele>226.281387</ele>
        <time>2020-07-27T03:50:57.797Z</time>
      </trkpt>
      <trkpt lat="48.589681" lon="16.660942">
        <ele>226.323355</ele>
        <time>2020-07-27T03:51:01.841Z</time>
      </trkpt>
      <trkpt lat="48.589660" lon="16.661115">
        <ele>226.365520</ele>
        <time>2020-07-27T03:51:04.791Z</time>
      </trkpt>
      <trkpt lat="48.589631" lon="16.661308">
        <ele>226.412965</ele>
        <time>2020-07-27T03:51:07.820Z</time>
      </trkpt>
      <trkpt lat="48.589612" lon="16.661496">
        <ele>226.458556</ele>
        <time>2020-07-27T03:51:10.793Z</time>
      </trkpt>
      <trkpt lat="48.589631" lon="16.661699">
        <ele>226.507705</ele>
        <time>2020-07-27T03:51:13.820Z</time>
      </trkpt>
      <trkpt lat="48.589652" lon="16.661857">
        <ele>226.546338</ele>
        <time>2020-07-27T03:51:15.806Z</time>
      </trkpt>
      <trkpt lat="48.589676" lon="16.662032">
        <ele>226.589182</ele>
        <time>2020-07-27T03:51:17.805Z</time>
      </trkpt>
      <trkpt lat="48.589712" lon="16.662209">
        <ele>226.631239</ele>
        <time>2020-07-27T03:51:19.798Z</time>
      </trkpt>
      <trkpt lat="48.589757" lon="16.662394">
        <ele>226.669659</ele>
        <time>2020-07-27T03:51:21.793Z</time>
      </trkpt>
      <trkpt lat="48.589804" lon="16.662578">
        <ele>226.708105</ele>
        <time>2020-07-27T03:51:23.797Z</time>
      </trkpt>
      <trkpt lat="48.589859" lon="16.662749">
        <ele>226.745167</ele>
        <time>2020-07-27T03:51:25.812Z</time>
      </trkpt>
      <trkpt lat="48.589911" lon="16.662918">
        <ele>226.781497</ele>
        <time>2020-07-27T03:51:27.804Z</time>
      </trkpt>
      <trkpt lat="48.589964" lon="16.663086">
        <ele>226.817777</ele>
        <time>2020-07-27T03:51:29.810Z</time>
      </trkpt>
      <trkpt lat="48.590012" lon="16.663255">
        <ele>226.853626</ele>
        <time>2020-07-27T03:51:31.806Z</time>
      </trkpt>
      <trkpt lat="48.590061" lon="16.663426">
        <ele>226.889950</ele>
        <time>2020-07-27T03:51:33.812Z</time>
      </trkpt>
      <trkpt lat="48.590108" lon="16.663591">
        <ele>226.924966</ele>
        <time>2020-07-27T03:51:35.801Z</time>
      </trkpt>
      <trkpt lat="48.590153" lon="16.663754">
        <ele>226.959394</ele>
        <time>2020-07-27T03:51:37.808Z</time>
      </trkpt>
      <trkpt lat="48.590197" lon="16.663916">
        <ele>226.993528</ele>
        <time>2020-07-27T03:51:39.809Z</time>
      </trkpt>
      <trkpt lat="48.590243" lon="16.664079">
        <ele>227.028070</ele>
        <time>2020-07-27T03:51:41.801Z</time>
      </trkpt>
      <trkpt lat="48.590291" lon="16.664241">
        <ele>227.062669</ele>
        <time>2020-07-27T03:51:43.803Z</time>
      </trkpt>
      <trkpt lat="48.590342" lon="16.664400">
        <ele>227.097112</ele>
        <time>2020-07-27T03:51:45.808Z</time>
      </trkpt>
      <trkpt lat="48.590393" lon="16.664555">
        <ele>227.130856</ele>
        <time>2020-07-27T03:51:47.815Z</time>
      </trkpt>
      <trkpt lat="48.590443" lon="16.664714">
        <ele>227.182742</ele>
        <time>2020-07-27T03:51:49.808Z</time>
      </trkpt>
      <trkpt lat="48.590513" lon="16.664868">
        <ele>227.264672</ele>
        <time>2020-07-27T03:51:51.801Z</time>
      </trkpt>
      <trkpt lat="48.590569" lon="16.665024">
        <ele>227.342496</ele>
        <time>2020-07-27T03:51:53.806Z</time>
      </trkpt>
      <trkpt lat="48.590617" lon="16.665177">
        <ele>227.416744</ele>
        <time>2020-07-27T03:51:55.798Z</time>
      </trkpt>
      <trkpt lat="48.590663" lon="16.665321">
        <ele>227.486860</ele>
        <time>2020-07-27T03:51:57.810Z</time>
      </trkpt>
      <trkpt lat="48.590706" lon="16.665460">
        <ele>227.554142</ele>
        <time>2020-07-27T03:51:59.839Z</time>
      </trkpt>
      <trkpt lat="48.590747" lon="16.665597">
        <ele>227.620074</ele>
        <time>2020-07-27T03:52:01.801Z</time>
      </trkpt>
      <trkpt lat="48.590785" lon="16.665727">
        <ele>227.682391</ele>
        <time>2020-07-27T03:52:03.807Z</time>
      </trkpt>
      <trkpt lat="48.590827" lon="16.665857">
        <ele>227.745827</ele>
        <time>2020-07-27T03:52:05.813Z</time>
      </trkpt>
      <trkpt lat="48.590861" lon="16.665982">
        <ele>227.805087</ele>
        <time>2020-07-27T03:52:07.782Z</time>
      </trkpt>
      <trkpt lat="48.590899" lon="16.666106">
        <ele>227.865008</ele>
        <time>2020-07-27T03:52:09.811Z</time>
      </trkpt>
      <trkpt lat="48.590959" lon="16.666285">
        <ele>227.952995</ele>
        <time>2020-07-27T03:52:12.789Z</time>
      </trkpt>
      <trkpt lat="48.591016" lon="16.666457">
        <ele>228.037345</ele>
        <time>2020-07-27T03:52:15.798Z</time>
      </trkpt>
      <trkpt lat="48.591090" lon="16.666617">
        <ele>228.122948</ele>
        <time>2020-07-27T03:52:18.789Z</time>
      </trkpt>
      <trkpt lat="48.591177" lon="16.666752">
        <ele>228.205589</ele>
        <time>2020-07-27T03:52:21.808Z</time>
      </trkpt>
      <trkpt lat="48.591289" lon="16.666856">
        <ele>228.292718</ele>
        <time>2020-07-27T03:52:24.793Z</time>
      </trkpt>
      <trkpt lat="48.591384" lon="16.666922">
        <ele>228.350103</ele>
        <time>2020-07-27T03:52:26.796Z</time>
      </trkpt>
      <trkpt lat="48.591470" lon="16.666992">
        <ele>228.373373</ele>
        <time>2020-07-27T03:52:28.819Z</time>
      </trkpt>
      <trkpt lat="48.591587" lon="16.667080">
        <ele>228.404508</ele>
        <time>2020-07-27T03:52:31.826Z</time>
      </trkpt>
      <trkpt lat="48.591667" lon="16.667144">
        <ele>228.426072</ele>
        <time>2020-07-27T03:52:33.795Z</time>
      </trkpt>
      <trkpt lat="48.591745" lon="16.667217">
        <ele>228.447928</ele>
        <time>2020-07-27T03:52:35.814Z</time>
      </trkpt>
      <trkpt lat="48.591832" lon="16.667306">
        <ele>228.472955</ele>
        <time>2020-07-27T03:52:37.812Z</time>
      </trkpt>
      <trkpt lat="48.591927" lon="16.667409">
        <ele>228.500807</ele>
        <time>2020-07-27T03:52:39.817Z</time>
      </trkpt>
      <trkpt lat="48.592033" lon="16.667519">
        <ele>228.531439</ele>
        <time>2020-07-27T03:52:41.816Z</time>
      </trkpt>
      <trkpt lat="48.592148" lon="16.667624">
        <ele>228.563446</ele>
        <time>2020-07-27T03:52:43.807Z</time>
      </trkpt>
      <trkpt lat="48.592257" lon="16.667731">
        <ele>228.594410</ele>
        <time>2020-07-27T03:52:45.792Z</time>
      </trkpt>
      <trkpt lat="48.592356" lon="16.667838">
        <ele>228.623404</ele>
        <time>2020-07-27T03:52:47.800Z</time>
      </trkpt>
      <trkpt lat="48.592440" lon="16.667945">
        <ele>228.649573</ele>
        <time>2020-07-27T03:52:49.830Z</time>
      </trkpt>
      <trkpt lat="48.592504" lon="16.668073">
        <ele>228.674859</ele>
        <time>2020-07-27T03:52:51.811Z</time>
      </trkpt>
      <trkpt lat="48.592558" lon="16.668195">
        <ele>228.697991</ele>
        <time>2020-07-27T03:52:53.790Z</time>
      </trkpt>
      <trkpt lat="48.592614" lon="16.668365">
        <ele>228.727919</ele>
        <time>2020-07-27T03:52:56.804Z</time>
      </trkpt>
      <trkpt lat="48.592657" lon="16.668490">
        <ele>228.750122</ele>
        <time>2020-07-27T03:52:58.801Z</time>
      </trkpt>
      <trkpt lat="48.592703" lon="16.668614">
        <ele>228.770390</ele>
        <time>2020-07-27T03:53:00.797Z</time>
      </trkpt>
      <trkpt lat="48.592778" lon="16.668794">
        <ele>228.680337</ele>
        <time>2020-07-27T03:53:03.799Z</time>
      </trkpt>
      <trkpt lat="48.592841" lon="16.668929">
        <ele>228.610399</ele>
        <time>2020-07-27T03:53:05.793Z</time>
      </trkpt>
      <trkpt lat="48.592899" lon="16.669074">
        <ele>228.538669</ele>
        <time>2020-07-27T03:53:07.820Z</time>
      </trkpt>
      <trkpt lat="48.592953" lon="16.669236">
        <ele>228.461878</ele>
        <time>2020-07-27T03:53:09.783Z</time>
      </trkpt>
      <trkpt lat="48.593000" lon="16.669389">
        <ele>228.390469</ele>
        <time>2020-07-27T03:53:11.792Z</time>
      </trkpt>
      <trkpt lat="48.593060" lon="16.669564">
        <ele>228.307031</ele>
        <time>2020-07-27T03:53:13.794Z</time>
      </trkpt>
      <trkpt lat="48.593135" lon="16.669752">
        <ele>228.214096</ele>
        <time>2020-07-27T03:53:15.794Z</time>
      </trkpt>
      <trkpt lat="48.593216" lon="16.669921">
        <ele>228.125750</ele>
        <time>2020-07-27T03:53:17.793Z</time>
      </trkpt>
      <trkpt lat="48.593295" lon="16.670093">
        <ele>228.037110</ele>
        <time>2020-07-27T03:53:19.804Z</time>
      </trkpt>
      <trkpt lat="48.593373" lon="16.670271">
        <ele>227.946727</ele>
        <time>2020-07-27T03:53:21.805Z</time>
      </trkpt>
      <trkpt lat="48.593447" lon="16.670458">
        <ele>227.854484</ele>
        <time>2020-07-27T03:53:23.825Z</time>
      </trkpt>
      <trkpt lat="48.593507" lon="16.670647">
        <ele>227.765743</ele>
        <time>2020-07-27T03:53:25.795Z</time>
      </trkpt>
      <trkpt lat="48.593547" lon="16.670844">
        <ele>227.678513</ele>
        <time>2020-07-27T03:53:27.776Z</time>
      </trkpt>
      <trkpt lat="48.593573" lon="16.671035">
        <ele>227.626614</ele>
        <time>2020-07-27T03:53:29.796Z</time>
      </trkpt>
      <trkpt lat="48.593580" lon="16.671215">
        <ele>227.644424</ele>
        <time>2020-07-27T03:53:31.815Z</time>
      </trkpt>
      <trkpt lat="48.593591" lon="16.671372">
        <ele>227.660018</ele>
        <time>2020-07-27T03:53:33.794Z</time>
      </trkpt>
      <trkpt lat="48.593618" lon="16.671526">
        <ele>227.675755</ele>
        <time>2020-07-27T03:53:35.799Z</time>
      </trkpt>
      <trkpt lat="48.593646" lon="16.671678">
        <ele>227.691340</ele>
        <time>2020-07-27T03:53:37.794Z</time>
      </trkpt>
      <trkpt lat="48.593674" lon="16.671828">
        <ele>227.706735</ele>
        <time>2020-07-27T03:53:39.795Z</time>
      </trkpt>
      <trkpt lat="48.593699" lon="16.671977">
        <ele>227.721918</ele>
        <time>2020-07-27T03:53:41.790Z</time>
      </trkpt>
      <trkpt lat="48.593721" lon="16.672123">
        <ele>227.736709</ele>
        <time>2020-07-27T03:53:43.808Z</time>
      </trkpt>
      <trkpt lat="48.593744" lon="16.672271">
        <ele>227.751725</ele>
        <time>2020-07-27T03:53:45.801Z</time>
      </trkpt>
      <trkpt lat="48.593742" lon="16.672417">
        <ele>227.766149</ele>
        <time>2020-07-27T03:53:47.806Z</time>
      </trkpt>
      <trkpt lat="48.593706" lon="16.672565">
        <ele>227.781725</ele>
        <time>2020-07-27T03:53:49.904Z</time>
      </trkpt>
      <trkpt lat="48.593700" lon="16.672713">
        <ele>227.796371</ele>
        <time>2020-07-27T03:53:51.778Z</time>
      </trkpt>
      <trkpt lat="48.593715" lon="16.672868">
        <ele>227.811844</ele>
        <time>2020-07-27T03:53:53.785Z</time>
      </trkpt>
      <trkpt lat="48.593726" lon="16.673030">
        <ele>227.827929</ele>
        <time>2020-07-27T03:53:55.792Z</time>
      </trkpt>
      <trkpt lat="48.593741" lon="16.673187">
        <ele>227.843598</ele>
        <time>2020-07-27T03:53:57.791Z</time>
      </trkpt>
      <trkpt lat="48.593763" lon="16.673341">
        <ele>227.859160</ele>
        <time>2020-07-27T03:53:59.810Z</time>
      </trkpt>
      <trkpt lat="48.593793" lon="16.673496">
        <ele>227.875112</ele>
        <time>2020-07-27T03:54:01.806Z</time>
      </trkpt>
      <trkpt lat="48.593825" lon="16.673654">
        <ele>227.893316</ele>
        <time>2020-07-27T03:54:03.791Z</time>
      </trkpt>
      <trkpt lat="48.593864" lon="16.673805">
        <ele>227.924366</ele>
        <time>2020-07-27T03:54:05.808Z</time>
      </trkpt>
      <trkpt lat="48.593899" lon="16.673948">
        <ele>227.953572</ele>
        <time>2020-07-27T03:54:07.805Z</time>
      </trkpt>
      <trkpt lat="48.593926" lon="16.674097">
        <ele>227.983164</ele>
        <time>2020-07-27T03:54:09.800Z</time>
      </trkpt>
      <trkpt lat="48.593953" lon="16.674252">
        <ele>228.013865</ele>
        <time>2020-07-27T03:54:11.801Z</time>
      </trkpt>
      <trkpt lat="48.593976" lon="16.674405">
        <ele>228.043919</ele>
        <time>2020-07-27T03:54:13.823Z</time>
      </trkpt>
      <trkpt lat="48.594006" lon="16.674565">
        <ele>228.075773</ele>
        <time>2020-07-27T03:54:15.832Z</time>
      </trkpt>
      <trkpt lat="48.594033" lon="16.674720">
        <ele>228.106475</ele>
        <time>2020-07-27T03:54:17.783Z</time>
      </trkpt>
      <trkpt lat="48.594060" lon="16.674868">
        <ele>228.135881</ele>
        <time>2020-07-27T03:54:19.793Z</time>
      </trkpt>
      <trkpt lat="48.594089" lon="16.675032">
        <ele>228.168398</ele>
        <time>2020-07-27T03:54:21.799Z</time>
      </trkpt>
      <trkpt lat="48.594115" lon="16.675195">
        <ele>228.200514</ele>
        <time>2020-07-27T03:54:23.798Z</time>
      </trkpt>
      <trkpt lat="48.594136" lon="16.675345">
        <ele>228.229882</ele>
        <time>2020-07-27T03:54:25.806Z</time>
      </trkpt>
      <trkpt lat="48.594152" lon="16.675541">
        <ele>228.267709</ele>
        <time>2020-07-27T03:54:28.810Z</time>
      </trkpt>
      <trkpt lat="48.594167" lon="16.675691">
        <ele>228.296767</ele>
        <time>2020-07-27T03:54:30.805Z</time>
      </trkpt>
      <trkpt lat="48.594183" lon="16.675839">
        <ele>228.325491</ele>
        <time>2020-07-27T03:54:32.788Z</time>
      </trkpt>
      <trkpt lat="48.594200" lon="16.675986">
        <ele>228.354075</ele>
        <time>2020-07-27T03:54:34.808Z</time>
      </trkpt>
      <trkpt lat="48.594218" lon="16.676124">
        <ele>228.381016</ele>
        <time>2020-07-27T03:54:36.789Z</time>
      </trkpt>
      <trkpt lat="48.594243" lon="16.676276">
        <ele>228.412629</ele>
        <time>2020-07-27T03:54:38.797Z</time>
      </trkpt>
      <trkpt lat="48.594268" lon="16.676425">
        <ele>228.510568</ele>
        <time>2020-07-27T03:54:40.795Z</time>
      </trkpt>
      <trkpt lat="48.594284" lon="16.676584">
        <ele>228.613036</ele>
        <time>2020-07-27T03:54:42.824Z</time>
      </trkpt>
      <trkpt lat="48.594299" lon="16.676755">
        <ele>228.722938</ele>
        <time>2020-07-27T03:54:44.832Z</time>
      </trkpt>
      <trkpt lat="48.594307" lon="16.676935">
        <ele>228.837879</ele>
        <time>2020-07-27T03:54:46.809Z</time>
      </trkpt>
      <trkpt lat="48.594313" lon="16.677117">
        <ele>228.953979</ele>
        <time>2020-07-27T03:54:48.807Z</time>
      </trkpt>
      <trkpt lat="48.594313" lon="16.677305">
        <ele>229.073758</ele>
        <time>2020-07-27T03:54:50.804Z</time>
      </trkpt>
      <trkpt lat="48.594313" lon="16.677481">
        <ele>229.185891</ele>
        <time>2020-07-27T03:54:52.803Z</time>
      </trkpt>
      <trkpt lat="48.594307" lon="16.677649">
        <ele>229.293084</ele>
        <time>2020-07-27T03:54:54.814Z</time>
      </trkpt>
      <trkpt lat="48.594309" lon="16.677817">
        <ele>229.400138</ele>
        <time>2020-07-27T03:54:56.812Z</time>
      </trkpt>
      <trkpt lat="48.594316" lon="16.677989">
        <ele>229.509930</ele>
        <time>2020-07-27T03:54:58.822Z</time>
      </trkpt>
      <trkpt lat="48.594327" lon="16.678171">
        <ele>229.626369</ele>
        <time>2020-07-27T03:55:00.792Z</time>
      </trkpt>
      <trkpt lat="48.594346" lon="16.678344">
        <ele>229.738101</ele>
        <time>2020-07-27T03:55:02.826Z</time>
      </trkpt>
      <trkpt lat="48.594369" lon="16.678524">
        <ele>229.854903</ele>
        <time>2020-07-27T03:55:04.789Z</time>
      </trkpt>
      <trkpt lat="48.594390" lon="16.678694">
        <ele>229.965087</ele>
        <time>2020-07-27T03:55:06.808Z</time>
      </trkpt>
      <trkpt lat="48.594420" lon="16.678853">
        <ele>230.070431</ele>
        <time>2020-07-27T03:55:08.796Z</time>
      </trkpt>
      <trkpt lat="48.594451" lon="16.679004">
        <ele>230.149567</ele>
        <time>2020-07-27T03:55:10.816Z</time>
      </trkpt>
      <trkpt lat="48.594482" lon="16.679154">
        <ele>230.172962</ele>
        <time>2020-07-27T03:55:12.793Z</time>
      </trkpt>
      <trkpt lat="48.594516" lon="16.679305">
        <ele>230.196709</ele>
        <time>2020-07-27T03:55:14.792Z</time>
      </trkpt>
      <trkpt lat="48.594552" lon="16.679455">
        <ele>230.220465</ele>
        <time>2020-07-27T03:55:16.792Z</time>
      </trkpt>
      <trkpt lat="48.594594" lon="16.679615">
        <ele>230.246092</ele>
        <time>2020-07-27T03:55:18.798Z</time>
      </trkpt>
      <trkpt lat="48.594642" lon="16.679778">
        <ele>230.272654</ele>
        <time>2020-07-27T03:55:20.798Z</time>
      </trkpt>
      <trkpt lat="48.594681" lon="16.679923">
        <ele>230.295957</ele>
        <time>2020-07-27T03:55:22.787Z</time>
      </trkpt>
      <trkpt lat="48.594704" lon="16.680095">
        <ele>230.322081</ele>
        <time>2020-07-27T03:55:24.795Z</time>
      </trkpt>
      <trkpt lat="48.594715" lon="16.680258">
        <ele>230.346473</ele>
        <time>2020-07-27T03:55:26.813Z</time>
      </trkpt>
      <trkpt lat="48.594722" lon="16.680416">
        <ele>230.370048</ele>
        <time>2020-07-27T03:55:28.817Z</time>
      </trkpt>
      <trkpt lat="48.594732" lon="16.680577">
        <ele>230.394122</ele>
        <time>2020-07-27T03:55:30.792Z</time>
      </trkpt>
      <trkpt lat="48.594744" lon="16.680742">
        <ele>230.418833</ele>
        <time>2020-07-27T03:55:32.805Z</time>
      </trkpt>
      <trkpt lat="48.594750" lon="16.680911">
        <ele>230.444029</ele>
        <time>2020-07-27T03:55:34.814Z</time>
      </trkpt>
      <trkpt lat="48.594761" lon="16.681064">
        <ele>230.466940</ele>
        <time>2020-07-27T03:55:36.800Z</time>
      </trkpt>
      <trkpt lat="48.594774" lon="16.681222">
        <ele>230.490643</ele>
        <time>2020-07-27T03:55:38.809Z</time>
      </trkpt>
      <trkpt lat="48.594787" lon="16.681377">
        <ele>230.513903</ele>
        <time>2020-07-27T03:55:40.788Z</time>
      </trkpt>
      <trkpt lat="48.594800" lon="16.681530">
        <ele>230.536867</ele>
        <time>2020-07-27T03:55:42.803Z</time>
      </trkpt>
      <trkpt lat="48.594813" lon="16.681675">
        <ele>230.548814</ele>
        <time>2020-07-27T03:55:44.808Z</time>
      </trkpt>
      <trkpt lat="48.594831" lon="16.681809">
        <ele>230.550646</ele>
        <time>2020-07-27T03:55:46.821Z</time>
      </trkpt>
      <trkpt lat="48.594861" lon="16.681940">
        <ele>230.552503</ele>
        <time>2020-07-27T03:55:48.792Z</time>
      </trkpt>
      <trkpt lat="48.594896" lon="16.682079">
        <ele>230.554495</ele>
        <time>2020-07-27T03:55:50.805Z</time>
      </trkpt>
      <trkpt lat="48.594955" lon="16.682221">
        <ele>230.556742</ele>
        <time>2020-07-27T03:55:52.817Z</time>
      </trkpt>
      <trkpt lat="48.595003" lon="16.682379">
        <ele>230.559071</ele>
        <time>2020-07-27T03:55:54.823Z</time>
      </trkpt>
      <trkpt lat="48.595055" lon="16.682540">
        <ele>230.561472</ele>
        <time>2020-07-27T03:55:56.787Z</time>
      </trkpt>
      <trkpt lat="48.595103" lon="16.682697">
        <ele>230.563789</ele>
        <time>2020-07-27T03:55:58.803Z</time>
      </trkpt>
      <trkpt lat="48.595148" lon="16.682866">
        <ele>230.566230</ele>
        <time>2020-07-27T03:56:00.821Z</time>
      </trkpt>
      <trkpt lat="48.595183" lon="16.683036">
        <ele>230.568615</ele>
        <time>2020-07-27T03:56:02.785Z</time>
      </trkpt>
      <trkpt lat="48.595208" lon="16.683203">
        <ele>230.570909</ele>
        <time>2020-07-27T03:56:04.816Z</time>
      </trkpt>
      <trkpt lat="48.595228" lon="16.683362">
        <ele>230.573077</ele>
        <time>2020-07-27T03:56:06.807Z</time>
      </trkpt>
      <trkpt lat="48.595236" lon="16.683535">
        <ele>230.575400</ele>
        <time>2020-07-27T03:56:08.807Z</time>
      </trkpt>
      <trkpt lat="48.595237" lon="16.683697">
        <ele>230.577571</ele>
        <time>2020-07-27T03:56:10.814Z</time>
      </trkpt>
      <trkpt lat="48.595234" lon="16.683873">
        <ele>230.579929</ele>
        <time>2020-07-27T03:56:12.794Z</time>
      </trkpt>
      <trkpt lat="48.595227" lon="16.684046">
        <ele>230.582251</ele>
        <time>2020-07-27T03:56:14.792Z</time>
      </trkpt>
      <trkpt lat="48.595215" lon="16.684214">
        <ele>230.583397</ele>
        <time>2020-07-27T03:56:16.805Z</time>
      </trkpt>
      <trkpt lat="48.595209" lon="16.684372">
        <ele>230.575665</ele>
        <time>2020-07-27T03:56:18.789Z</time>
      </trkpt>
      <trkpt lat="48.595205" lon="16.684542">
        <ele>230.567354</ele>
        <time>2020-07-27T03:56:20.814Z</time>
      </trkpt>
      <trkpt lat="48.595201" lon="16.684689">
        <ele>230.560166</ele>
        <time>2020-07-27T03:56:22.792Z</time>
      </trkpt>
      <trkpt lat="48.595191" lon="16.684845">
        <ele>230.552508</ele>
        <time>2020-07-27T03:56:24.809Z</time>
      </trkpt>
      <trkpt lat="48.595186" lon="16.684998">
        <ele>230.545024</ele>
        <time>2020-07-27T03:56:26.794Z</time>
      </trkpt>
      <trkpt lat="48.595186" lon="16.685149">
        <ele>230.537646</ele>
        <time>2020-07-27T03:56:28.791Z</time>
      </trkpt>
      <trkpt lat="48.595186" lon="16.685300">
        <ele>230.530269</ele>
        <time>2020-07-27T03:56:30.798Z</time>
      </trkpt>
      <trkpt lat="48.595184" lon="16.685442">
        <ele>230.523329</ele>
        <time>2020-07-27T03:56:32.821Z</time>
      </trkpt>
      <trkpt lat="48.595188" lon="16.685586">
        <ele>230.516288</ele>
        <time>2020-07-27T03:56:34.790Z</time>
      </trkpt>
      <trkpt lat="48.595195" lon="16.685727">
        <ele>230.509379</ele>
        <time>2020-07-27T03:56:36.791Z</time>
      </trkpt>
      <trkpt lat="48.595219" lon="16.685868">
        <ele>230.502266</ele>
        <time>2020-07-27T03:56:38.789Z</time>
      </trkpt>
      <trkpt lat="48.595251" lon="16.686018">
        <ele>230.494566</ele>
        <time>2020-07-27T03:56:40.785Z</time>
      </trkpt>
      <trkpt lat="48.595285" lon="16.686173">
        <ele>230.486587</ele>
        <time>2020-07-27T03:56:42.808Z</time>
      </trkpt>
      <trkpt lat="48.595321" lon="16.686337">
        <ele>230.478145</ele>
        <time>2020-07-27T03:56:44.819Z</time>
      </trkpt>
      <trkpt lat="48.595355" lon="16.686498">
        <ele>230.469887</ele>
        <time>2020-07-27T03:56:46.799Z</time>
      </trkpt>
      <trkpt lat="48.595392" lon="16.686644">
        <ele>230.462249</ele>
        <time>2020-07-27T03:56:48.813Z</time>
      </trkpt>
      <trkpt lat="48.595436" lon="16.686780">
        <ele>230.454852</ele>
        <time>2020-07-27T03:56:50.791Z</time>
      </trkpt>
      <trkpt lat="48.595481" lon="16.686906">
        <ele>230.445081</ele>
        <time>2020-07-27T03:56:52.802Z</time>
      </trkpt>
      <trkpt lat="48.595526" lon="16.687028">
        <ele>230.432921</ele>
        <time>2020-07-27T03:56:54.796Z</time>
      </trkpt>
      <trkpt lat="48.595574" lon="16.687144">
        <ele>230.421010</ele>
        <time>2020-07-27T03:56:56.815Z</time>
      </trkpt>
      <trkpt lat="48.595624" lon="16.687268">
        <ele>230.408368</ele>
        <time>2020-07-27T03:56:58.792Z</time>
      </trkpt>
      <trkpt lat="48.595676" lon="16.687397">
        <ele>230.395217</ele>
        <time>2020-07-27T03:57:00.814Z</time>
      </trkpt>
      <trkpt lat="48.595732" lon="16.687533">
        <ele>230.381271</ele>
        <time>2020-07-27T03:57:02.795Z</time>
      </trkpt>
      <trkpt lat="48.595788" lon="16.687671">
        <ele>230.367178</ele>
        <time>2020-07-27T03:57:04.793Z</time>
      </trkpt>
      <trkpt lat="48.595844" lon="16.687822">
        <ele>230.352108</ele>
        <time>2020-07-27T03:57:06.792Z</time>
      </trkpt>
      <trkpt lat="48.595903" lon="16.687983">
        <ele>230.336085</ele>
        <time>2020-07-27T03:57:08.799Z</time>
      </trkpt>
      <trkpt lat="48.595960" lon="16.688147">
        <ele>230.319958</ele>
        <time>2020-07-27T03:57:10.791Z</time>
      </trkpt>
      <trkpt lat="48.596019" lon="16.688310">
        <ele>230.303783</ele>
        <time>2020-07-27T03:57:12.805Z</time>
      </trkpt>
      <trkpt lat="48.596081" lon="16.688473">
        <ele>230.287415</ele>
        <time>2020-07-27T03:57:14.811Z</time>
      </trkpt>
      <trkpt lat="48.596146" lon="16.688632">
        <ele>230.271144</ele>
        <time>2020-07-27T03:57:16.798Z</time>
      </trkpt>
      <trkpt lat="48.596209" lon="16.688791">
        <ele>230.255009</ele>
        <time>2020-07-27T03:57:18.802Z</time>
      </trkpt>
      <trkpt lat="48.596270" lon="16.688948">
        <ele>230.239159</ele>
        <time>2020-07-27T03:57:20.794Z</time>
      </trkpt>
      <trkpt lat="48.596324" lon="16.689089">
        <ele>230.224975</ele>
        <time>2020-07-27T03:57:22.804Z</time>
      </trkpt>
      <trkpt lat="48.596376" lon="16.689270">
        <ele>230.210211</ele>
        <time>2020-07-27T03:57:24.785Z</time>
      </trkpt>
      <trkpt lat="48.596420" lon="16.689451">
        <ele>230.199321</ele>
        <time>2020-07-27T03:57:26.798Z</time>
      </trkpt>
      <trkpt lat="48.596456" lon="16.689631">
        <ele>230.188702</ele>
        <time>2020-07-27T03:57:28.808Z</time>
      </trkpt>
      <trkpt lat="48.596479" lon="16.689813">
        <ele>230.178238</ele>
        <time>2020-07-27T03:57:30.819Z</time>
      </trkpt>
      <trkpt lat="48.596498" lon="16.689991">
        <ele>230.168057</ele>
        <time>2020-07-27T03:57:32.800Z</time>
      </trkpt>
      <trkpt lat="48.596514" lon="16.690158">
        <ele>230.158528</ele>
        <time>2020-07-27T03:57:34.805Z</time>
      </trkpt>
      <trkpt lat="48.596528" lon="16.690319">
        <ele>230.149358</ele>
        <time>2020-07-27T03:57:36.813Z</time>
      </trkpt>
      <trkpt lat="48.596543" lon="16.690475">
        <ele>230.140456</ele>
        <time>2020-07-27T03:57:38.802Z</time>
      </trkpt>
      <trkpt lat="48.596558" lon="16.690627">
        <ele>230.131778</ele>
        <time>2020-07-27T03:57:40.822Z</time>
      </trkpt>
      <trkpt lat="48.596558" lon="16.690781">
        <ele>230.123081</ele>
        <time>2020-07-27T03:57:42.781Z</time>
      </trkpt>
      <trkpt lat="48.596542" lon="16.690926">
        <ele>230.114780</ele>
        <time>2020-07-27T03:57:44.834Z</time>
      </trkpt>
      <trkpt lat="48.596518" lon="16.691062">
        <ele>230.106832</ele>
        <time>2020-07-27T03:57:46.794Z</time>
      </trkpt>
      <trkpt lat="48.596491" lon="16.691198">
        <ele>230.098813</ele>
        <time>2020-07-27T03:57:48.807Z</time>
      </trkpt>
      <trkpt lat="48.596466" lon="16.691333">
        <ele>230.090897</ele>
        <time>2020-07-27T03:57:50.793Z</time>
      </trkpt>
      <trkpt lat="48.596443" lon="16.691467">
        <ele>230.083079</ele>
        <time>2020-07-27T03:57:52.800Z</time>
      </trkpt>
      <trkpt lat="48.596416" lon="16.691660">
        <ele>230.071939</ele>
        <time>2020-07-27T03:57:55.823Z</time>
      </trkpt>
      <trkpt lat="48.596404" lon="16.691829">
        <ele>230.062341</ele>
        <time>2020-07-27T03:57:58.802Z</time>
      </trkpt>
      <trkpt lat="48.596398" lon="16.691984">
        <ele>230.139704</ele>
        <time>2020-07-27T03:58:01.808Z</time>
      </trkpt>
      <trkpt lat="48.596395" lon="16.692121">
        <ele>230.220643</ele>
        <time>2020-07-27T03:58:03.788Z</time>
      </trkpt>
      <trkpt lat="48.596391" lon="16.692269">
        <ele>230.308107</ele>
        <time>2020-07-27T03:58:05.789Z</time>
      </trkpt>
      <trkpt lat="48.596394" lon="16.692411">
        <ele>230.391997</ele>
        <time>2020-07-27T03:58:07.788Z</time>
      </trkpt>
      <trkpt lat="48.596407" lon="16.692559">
        <ele>230.480155</ele>
        <time>2020-07-27T03:58:09.794Z</time>
      </trkpt>
      <trkpt lat="48.596431" lon="16.692725">
        <ele>230.580488</ele>
        <time>2020-07-27T03:58:11.801Z</time>
      </trkpt>
      <trkpt lat="48.596474" lon="16.692884">
        <ele>230.681920</ele>
        <time>2020-07-27T03:58:13.803Z</time>
      </trkpt>
      <trkpt lat="48.596524" lon="16.693027">
        <ele>230.777432</ele>
        <time>2020-07-27T03:58:15.784Z</time>
      </trkpt>
      <trkpt lat="48.596598" lon="16.693112">
        <ele>230.860403</ele>
        <time>2020-07-27T03:58:17.798Z</time>
      </trkpt>
      <trkpt lat="48.596685" lon="16.693176">
        <ele>230.946783</ele>
        <time>2020-07-27T03:58:19.797Z</time>
      </trkpt>
      <trkpt lat="48.596776" lon="16.693216">
        <ele>231.031394</ele>
        <time>2020-07-27T03:58:21.809Z</time>
      </trkpt>
      <trkpt lat="48.596869" lon="16.693246">
        <ele>231.116295</ele>
        <time>2020-07-27T03:58:23.803Z</time>
      </trkpt>
      <trkpt lat="48.596970" lon="16.693268">
        <ele>231.207400</ele>
        <time>2020-07-27T03:58:25.806Z</time>
      </trkpt>
      <trkpt lat="48.597063" lon="16.693310">
        <ele>231.294057</ele>
        <time>2020-07-27T03:58:27.797Z</time>
      </trkpt>
      <trkpt lat="48.597162" lon="16.693380">
        <ele>231.391633</ele>
        <time>2020-07-27T03:58:29.796Z</time>
      </trkpt>
      <trkpt lat="48.597252" lon="16.693481">
        <ele>231.491700</ele>
        <time>2020-07-27T03:58:31.805Z</time>
      </trkpt>
      <trkpt lat="48.597339" lon="16.693593">
        <ele>231.593714</ele>
        <time>2020-07-27T03:58:33.800Z</time>
      </trkpt>
      <trkpt lat="48.597424" lon="16.693702">
        <ele>231.680329</ele>
        <time>2020-07-27T03:58:35.805Z</time>
      </trkpt>
      <trkpt lat="48.597506" lon="16.693809">
        <ele>231.729562</ele>
        <time>2020-07-27T03:58:37.804Z</time>
      </trkpt>
      <trkpt lat="48.597578" lon="16.693914">
        <ele>231.775030</ele>
        <time>2020-07-27T03:58:39.791Z</time>
      </trkpt>
      <trkpt lat="48.597652" lon="16.694022">
        <ele>231.821778</ele>
        <time>2020-07-27T03:58:41.844Z</time>
      </trkpt>
      <trkpt lat="48.597718" lon="16.694124">
        <ele>231.864675</ele>
        <time>2020-07-27T03:58:43.790Z</time>
      </trkpt>
      <trkpt lat="48.597786" lon="16.694274">
        <ele>231.919343</ele>
        <time>2020-07-27T03:58:46.792Z</time>
      </trkpt>
      <trkpt lat="48.597838" lon="16.694433">
        <ele>231.972665</ele>
        <time>2020-07-27T03:58:49.831Z</time>
      </trkpt>
      <trkpt lat="48.597878" lon="16.694617">
        <ele>232.030888</ele>
        <time>2020-07-27T03:58:52.809Z</time>
      </trkpt>
      <trkpt lat="48.597904" lon="16.694750">
        <ele>232.072579</ele>
        <time>2020-07-27T03:58:54.808Z</time>
      </trkpt>
      <trkpt lat="48.597941" lon="16.694875">
        <ele>232.113747</ele>
        <time>2020-07-27T03:58:56.821Z</time>
      </trkpt>
      <trkpt lat="48.597976" lon="16.695001">
        <ele>232.154829</ele>
        <time>2020-07-27T03:58:58.802Z</time>
      </trkpt>
      <trkpt lat="48.598027" lon="16.695189">
        <ele>232.215913</ele>
        <time>2020-07-27T03:59:01.784Z</time>
      </trkpt>
      <trkpt lat="48.598079" lon="16.695379">
        <ele>232.277726</ele>
        <time>2020-07-27T03:59:04.788Z</time>
      </trkpt>
      <trkpt lat="48.598126" lon="16.695541">
        <ele>232.330904</ele>
        <time>2020-07-27T03:59:06.783Z</time>
      </trkpt>
      <trkpt lat="48.598168" lon="16.695710">
        <ele>232.385175</ele>
        <time>2020-07-27T03:59:08.791Z</time>
      </trkpt>
      <trkpt lat="48.598215" lon="16.695886">
        <ele>232.442232</ele>
        <time>2020-07-27T03:59:10.791Z</time>
      </trkpt>
      <trkpt lat="48.598265" lon="16.696050">
        <ele>232.485181</ele>
        <time>2020-07-27T03:59:12.825Z</time>
      </trkpt>
      <trkpt lat="48.598330" lon="16.696205">
        <ele>232.488219</ele>
        <time>2020-07-27T03:59:14.792Z</time>
      </trkpt>
      <trkpt lat="48.598406" lon="16.696344">
        <ele>232.491205</ele>
        <time>2020-07-27T03:59:16.774Z</time>
      </trkpt>
      <trkpt lat="48.598481" lon="16.696496">
        <ele>232.494344</ele>
        <time>2020-07-27T03:59:18.797Z</time>
      </trkpt>
      <trkpt lat="48.598558" lon="16.696628">
        <ele>232.497258</ele>
        <time>2020-07-27T03:59:20.801Z</time>
      </trkpt>
      <trkpt lat="48.598663" lon="16.696737">
        <ele>232.500446</ele>
        <time>2020-07-27T03:59:22.805Z</time>
      </trkpt>
      <trkpt lat="48.598722" lon="16.696878">
        <ele>232.503209</ele>
        <time>2020-07-27T03:59:24.793Z</time>
      </trkpt>
      <trkpt lat="48.598723" lon="16.697056">
        <ele>232.506155</ele>
        <time>2020-07-27T03:59:26.794Z</time>
      </trkpt>
      <trkpt lat="48.598755" lon="16.697199">
        <ele>232.508654</ele>
        <time>2020-07-27T03:59:28.782Z</time>
      </trkpt>
      <trkpt lat="48.598794" lon="16.697351">
        <ele>232.511353</ele>
        <time>2020-07-27T03:59:30.800Z</time>
      </trkpt>
      <trkpt lat="48.598820" lon="16.697486">
        <ele>232.513681</ele>
        <time>2020-07-27T03:59:32.786Z</time>
      </trkpt>
      <trkpt lat="48.598818" lon="16.697674">
        <ele>232.516794</ele>
        <time>2020-07-27T03:59:35.791Z</time>
      </trkpt>
      <trkpt lat="48.598805" lon="16.697829">
        <ele>232.519380</ele>
        <time>2020-07-27T03:59:38.785Z</time>
      </trkpt>
      <trkpt lat="48.598792" lon="16.697989">
        <ele>232.522049</ele>
        <time>2020-07-27T03:59:42.813Z</time>
      </trkpt>
      <trkpt lat="48.598768" lon="16.698124">
        <ele>232.524363</ele>
        <time>2020-07-27T03:59:47.803Z</time>
      </trkpt>
      <trkpt lat="48.598744" lon="16.698261">
        <ele>232.526709</ele>
        <time>2020-07-27T03:59:51.798Z</time>
      </trkpt>
      <trkpt lat="48.598720" lon="16.698392">
        <ele>232.528960</ele>
        <time>2020-07-27T03:59:54.789Z</time>
      </trkpt>
      <trkpt lat="48.598700" lon="16.698525">
        <ele>232.522693</ele>
        <time>2020-07-27T03:59:57.835Z</time>
      </trkpt>
      <trkpt lat="48.598681" lon="16.698659">
        <ele>232.513405</ele>
        <time>2020-07-27T04:00:00.818Z</time>
      </trkpt>
      <trkpt lat="48.598652" lon="16.698791">
        <ele>232.503979</ele>
        <time>2020-07-27T04:00:03.796Z</time>
      </trkpt>
      <trkpt lat="48.598587" lon="16.698939">
        <ele>232.491938</ele>
        <time>2020-07-27T04:00:07.814Z</time>
      </trkpt>
      <trkpt lat="48.598530" lon="16.699072">
        <ele>232.481198</ele>
        <time>2020-07-27T04:00:11.840Z</time>
      </trkpt>
      <trkpt lat="48.598477" lon="16.699211">
        <ele>232.470324</ele>
        <time>2020-07-27T04:00:14.800Z</time>
      </trkpt>
      <trkpt lat="48.598424" lon="16.699353">
        <ele>232.459274</ele>
        <time>2020-07-27T04:00:17.788Z</time>
      </trkpt>
      <trkpt lat="48.598355" lon="16.699520">
        <ele>232.445929</ele>
        <time>2020-07-27T04:00:20.808Z</time>
      </trkpt>
      <trkpt lat="48.598308" lon="16.699646">
        <ele>232.436125</ele>
        <time>2020-07-27T04:00:22.806Z</time>
      </trkpt>
      <trkpt lat="48.598275" lon="16.699787">
        <ele>232.425988</ele>
        <time>2020-07-27T04:00:24.796Z</time>
      </trkpt>
      <trkpt lat="48.598249" lon="16.699949">
        <ele>232.414691</ele>
        <time>2020-07-27T04:00:26.781Z</time>
      </trkpt>
      <trkpt lat="48.598219" lon="16.700138">
        <ele>232.401518</ele>
        <time>2020-07-27T04:00:28.799Z</time>
      </trkpt>
      <trkpt lat="48.598192" lon="16.700358">
        <ele>232.386354</ele>
        <time>2020-07-27T04:00:30.788Z</time>
      </trkpt>
      <trkpt lat="48.598178" lon="16.700608">
        <ele>232.369350</ele>
        <time>2020-07-27T04:00:32.819Z</time>
      </trkpt>
      <trkpt lat="48.598178" lon="16.700865">
        <ele>232.351933</ele>
        <time>2020-07-27T04:00:34.797Z</time>
      </trkpt>
      <trkpt lat="48.598181" lon="16.701098">
        <ele>232.239079</ele>
        <time>2020-07-27T04:00:36.806Z</time>
      </trkpt>
      <trkpt lat="48.598181" lon="16.701293">
        <ele>232.084688</ele>
        <time>2020-07-27T04:00:38.834Z</time>
      </trkpt>
      <trkpt lat="48.598182" lon="16.701461">
        <ele>231.951670</ele>
        <time>2020-07-27T04:00:40.805Z</time>
      </trkpt>
      <trkpt lat="48.598182" lon="16.701614">
        <ele>231.830533</ele>
        <time>2020-07-27T04:00:42.797Z</time>
      </trkpt>
      <trkpt lat="48.598180" lon="16.701768">
        <ele>231.708581</ele>
        <time>2020-07-27T04:00:44.802Z</time>
      </trkpt>
      <trkpt lat="48.598177" lon="16.701949">
        <ele>231.565230</ele>
        <time>2020-07-27T04:00:46.791Z</time>
      </trkpt>
      <trkpt lat="48.598168" lon="16.702149">
        <ele>231.406515</ele>
        <time>2020-07-27T04:00:48.796Z</time>
      </trkpt>
      <trkpt lat="48.598160" lon="16.702369">
        <ele>231.232068</ele>
        <time>2020-07-27T04:00:50.787Z</time>
      </trkpt>
      <trkpt lat="48.598170" lon="16.702587">
        <ele>231.059053</ele>
        <time>2020-07-27T04:00:52.817Z</time>
      </trkpt>
      <trkpt lat="48.598190" lon="16.702774">
        <ele>230.909073</ele>
        <time>2020-07-27T04:00:54.818Z</time>
      </trkpt>
      <trkpt lat="48.598208" lon="16.702946">
        <ele>230.771199</ele>
        <time>2020-07-27T04:00:56.800Z</time>
      </trkpt>
      <trkpt lat="48.598210" lon="16.703096">
        <ele>230.652413</ele>
        <time>2020-07-27T04:00:58.799Z</time>
      </trkpt>
      <trkpt lat="48.598209" lon="16.703287">
        <ele>230.501185</ele>
        <time>2020-07-27T04:01:01.810Z</time>
      </trkpt>
      <trkpt lat="48.598212" lon="16.703436">
        <ele>230.383161</ele>
        <time>2020-07-27T04:01:03.789Z</time>
      </trkpt>
      <trkpt lat="48.598223" lon="16.703581">
        <ele>230.267605</ele>
        <time>2020-07-27T04:01:05.792Z</time>
      </trkpt>
      <trkpt lat="48.598238" lon="16.703759">
        <ele>230.116905</ele>
        <time>2020-07-27T04:01:07.819Z</time>
      </trkpt>
      <trkpt lat="48.598261" lon="16.703959">
        <ele>229.935283</ele>
        <time>2020-07-27T04:01:09.790Z</time>
      </trkpt>
      <trkpt lat="48.598338" lon="16.704188">
        <ele>229.705439</ele>
        <time>2020-07-27T04:01:11.824Z</time>
      </trkpt>
      <trkpt lat="48.598416" lon="16.704434">
        <ele>229.461358</ele>
        <time>2020-07-27T04:01:13.809Z</time>
      </trkpt>
      <trkpt lat="48.598445" lon="16.704570">
        <ele>229.333513</ele>
        <time>2020-07-27T04:01:14.795Z</time>
      </trkpt>
      <trkpt lat="48.598469" lon="16.704707">
        <ele>229.206714</ele>
        <time>2020-07-27T04:01:15.816Z</time>
      </trkpt>
      <trkpt lat="48.598491" lon="16.704840">
        <ele>229.084055</ele>
        <time>2020-07-27T04:01:16.797Z</time>
      </trkpt>
      <trkpt lat="48.598540" lon="16.705094">
        <ele>228.847335</ele>
        <time>2020-07-27T04:01:18.781Z</time>
      </trkpt>
      <trkpt lat="48.598591" lon="16.705332">
        <ele>228.623502</ele>
        <time>2020-07-27T04:01:20.795Z</time>
      </trkpt>
      <trkpt lat="48.598636" lon="16.705562">
        <ele>228.408909</ele>
        <time>2020-07-27T04:01:22.802Z</time>
      </trkpt>
      <trkpt lat="48.598670" lon="16.705790">
        <ele>228.199801</ele>
        <time>2020-07-27T04:01:24.812Z</time>
      </trkpt>
      <trkpt lat="48.598685" lon="16.706017">
        <ele>227.995698</ele>
        <time>2020-07-27T04:01:26.786Z</time>
      </trkpt>
      <trkpt lat="48.598697" lon="16.706231">
        <ele>227.803550</ele>
        <time>2020-07-27T04:01:28.800Z</time>
      </trkpt>
      <trkpt lat="48.598709" lon="16.706430">
        <ele>227.669821</ele>
        <time>2020-07-27T04:01:30.785Z</time>
      </trkpt>
      <trkpt lat="48.598733" lon="16.706613">
        <ele>227.559088</ele>
        <time>2020-07-27T04:01:32.789Z</time>
      </trkpt>
      <trkpt lat="48.598768" lon="16.706793">
        <ele>227.447729</ele>
        <time>2020-07-27T04:01:34.813Z</time>
      </trkpt>
      <trkpt lat="48.598808" lon="16.706974">
        <ele>227.334459</ele>
        <time>2020-07-27T04:01:36.799Z</time>
      </trkpt>
      <trkpt lat="48.598851" lon="16.707161">
        <ele>227.216949</ele>
        <time>2020-07-27T04:01:38.792Z</time>
      </trkpt>
      <trkpt lat="48.598891" lon="16.707364">
        <ele>227.091227</ele>
        <time>2020-07-27T04:01:40.814Z</time>
      </trkpt>
      <trkpt lat="48.598924" lon="16.707580">
        <ele>226.959646</ele>
        <time>2020-07-27T04:01:42.809Z</time>
      </trkpt>
      <trkpt lat="48.598951" lon="16.707799">
        <ele>226.827422</ele>
        <time>2020-07-27T04:01:44.792Z</time>
      </trkpt>
      <trkpt lat="48.598994" lon="16.708009">
        <ele>226.696942</ele>
        <time>2020-07-27T04:01:46.793Z</time>
      </trkpt>
      <trkpt lat="48.599056" lon="16.708206">
        <ele>226.567450</ele>
        <time>2020-07-27T04:01:48.788Z</time>
      </trkpt>
      <trkpt lat="48.599118" lon="16.708399">
        <ele>226.440098</ele>
        <time>2020-07-27T04:01:50.793Z</time>
      </trkpt>
      <trkpt lat="48.599179" lon="16.708589">
        <ele>226.314739</ele>
        <time>2020-07-27T04:01:52.793Z</time>
      </trkpt>
      <trkpt lat="48.599238" lon="16.708775">
        <ele>226.192300</ele>
        <time>2020-07-27T04:01:54.820Z</time>
      </trkpt>
      <trkpt lat="48.599285" lon="16.708963">
        <ele>226.091529</ele>
        <time>2020-07-27T04:01:56.810Z</time>
      </trkpt>
      <trkpt lat="48.599322" lon="16.709150">
        <ele>226.005756</ele>
        <time>2020-07-27T04:01:58.798Z</time>
      </trkpt>
      <trkpt lat="48.599354" lon="16.709337">
        <ele>225.920876</ele>
        <time>2020-07-27T04:02:00.797Z</time>
      </trkpt>
      <trkpt lat="48.599371" lon="16.709520">
        <ele>225.839671</ele>
        <time>2020-07-27T04:02:02.805Z</time>
      </trkpt>
      <trkpt lat="48.599386" lon="16.709700">
        <ele>225.759948</ele>
        <time>2020-07-27T04:02:04.792Z</time>
      </trkpt>
      <trkpt lat="48.599402" lon="16.709875">
        <ele>225.682316</ele>
        <time>2020-07-27T04:02:06.787Z</time>
      </trkpt>
      <trkpt lat="48.599420" lon="16.710044">
        <ele>225.607095</ele>
        <time>2020-07-27T04:02:08.800Z</time>
      </trkpt>
      <trkpt lat="48.599432" lon="16.710210">
        <ele>225.533715</ele>
        <time>2020-07-27T04:02:10.794Z</time>
      </trkpt>
      <trkpt lat="48.599443" lon="16.710376">
        <ele>225.460404</ele>
        <time>2020-07-27T04:02:12.797Z</time>
      </trkpt>
      <trkpt lat="48.599453" lon="16.710538">
        <ele>225.388907</ele>
        <time>2020-07-27T04:02:14.806Z</time>
      </trkpt>
      <trkpt lat="48.599463" lon="16.710699">
        <ele>225.317847</ele>
        <time>2020-07-27T04:02:16.813Z</time>
      </trkpt>
      <trkpt lat="48.599473" lon="16.710863">
        <ele>225.245475</ele>
        <time>2020-07-27T04:02:18.778Z</time>
      </trkpt>
      <trkpt lat="48.599482" lon="16.711027">
        <ele>225.173161</ele>
        <time>2020-07-27T04:02:20.818Z</time>
      </trkpt>
      <trkpt lat="48.599489" lon="16.711186">
        <ele>225.103137</ele>
        <time>2020-07-27T04:02:22.799Z</time>
      </trkpt>
      <trkpt lat="48.599492" lon="16.711341">
        <ele>225.034996</ele>
        <time>2020-07-27T04:02:24.798Z</time>
      </trkpt>
      <trkpt lat="48.599494" lon="16.711497">
        <ele>224.966432</ele>
        <time>2020-07-27T04:02:26.804Z</time>
      </trkpt>
      <trkpt lat="48.599498" lon="16.711645">
        <ele>224.956113</ele>
        <time>2020-07-27T04:02:28.789Z</time>
      </trkpt>
      <trkpt lat="48.599503" lon="16.711789">
        <ele>224.965287</ele>
        <time>2020-07-27T04:02:30.821Z</time>
      </trkpt>
      <trkpt lat="48.599513" lon="16.711977">
        <ele>224.977285</ele>
        <time>2020-07-27T04:02:33.793Z</time>
      </trkpt>
      <trkpt lat="48.599517" lon="16.712145">
        <ele>224.987979</ele>
        <time>2020-07-27T04:02:36.808Z</time>
      </trkpt>
      <trkpt lat="48.599529" lon="16.712280">
        <ele>224.996644</ele>
        <time>2020-07-27T04:02:38.798Z</time>
      </trkpt>
      <trkpt lat="48.599545" lon="16.712428">
        <ele>225.006184</ele>
        <time>2020-07-27T04:02:40.802Z</time>
      </trkpt>
      <trkpt lat="48.599571" lon="16.712574">
        <ele>225.015802</ele>
        <time>2020-07-27T04:02:42.811Z</time>
      </trkpt>
      <trkpt lat="48.599612" lon="16.712718">
        <ele>225.025775</ele>
        <time>2020-07-27T04:02:44.795Z</time>
      </trkpt>
      <trkpt lat="48.599656" lon="16.712869">
        <ele>225.036272</ele>
        <time>2020-07-27T04:02:46.804Z</time>
      </trkpt>
      <trkpt lat="48.599698" lon="16.713024">
        <ele>225.046928</ele>
        <time>2020-07-27T04:02:48.805Z</time>
      </trkpt>
      <trkpt lat="48.599738" lon="16.713176">
        <ele>225.057335</ele>
        <time>2020-07-27T04:02:50.798Z</time>
      </trkpt>
      <trkpt lat="48.599779" lon="16.713333">
        <ele>225.068072</ele>
        <time>2020-07-27T04:02:52.813Z</time>
      </trkpt>
      <trkpt lat="48.599813" lon="16.713488">
        <ele>225.078461</ele>
        <time>2020-07-27T04:02:54.793Z</time>
      </trkpt>
      <trkpt lat="48.599830" lon="16.713668">
        <ele>225.090027</ele>
        <time>2020-07-27T04:02:56.785Z</time>
      </trkpt>
      <trkpt lat="48.599861" lon="16.713838">
        <ele>225.101245</ele>
        <time>2020-07-27T04:02:58.803Z</time>
      </trkpt>
      <trkpt lat="48.599899" lon="16.713997">
        <ele>225.112000</ele>
        <time>2020-07-27T04:03:00.800Z</time>
      </trkpt>
      <trkpt lat="48.599927" lon="16.714169">
        <ele>225.122088</ele>
        <time>2020-07-27T04:03:02.799Z</time>
      </trkpt>
      <trkpt lat="48.599948" lon="16.714339">
        <ele>225.120899</ele>
        <time>2020-07-27T04:03:04.805Z</time>
      </trkpt>
      <trkpt lat="48.599969" lon="16.714497">
        <ele>225.119791</ele>
        <time>2020-07-27T04:03:06.802Z</time>
      </trkpt>
      <trkpt lat="48.599989" lon="16.714654">
        <ele>225.118691</ele>
        <time>2020-07-27T04:03:08.816Z</time>
      </trkpt>
      <trkpt lat="48.600011" lon="16.714835">
        <ele>225.117426</ele>
        <time>2020-07-27T04:03:10.792Z</time>
      </trkpt>
      <trkpt lat="48.600034" lon="16.715015">
        <ele>225.116165</ele>
        <time>2020-07-27T04:03:12.792Z</time>
      </trkpt>
      <trkpt lat="48.600049" lon="16.715188">
        <ele>225.114965</ele>
        <time>2020-07-27T04:03:14.794Z</time>
      </trkpt>
      <trkpt lat="48.600057" lon="16.715368">
        <ele>225.113724</ele>
        <time>2020-07-27T04:03:16.825Z</time>
      </trkpt>
      <trkpt lat="48.600066" lon="16.715544">
        <ele>225.112510</ele>
        <time>2020-07-27T04:03:18.783Z</time>
      </trkpt>
      <trkpt lat="48.600074" lon="16.715715">
        <ele>225.111332</ele>
        <time>2020-07-27T04:03:20.784Z</time>
      </trkpt>
      <trkpt lat="48.600066" lon="16.715887">
        <ele>225.110146</ele>
        <time>2020-07-27T04:03:22.792Z</time>
      </trkpt>
      <trkpt lat="48.600052" lon="16.716063">
        <ele>225.108927</ele>
        <time>2020-07-27T04:03:24.783Z</time>
      </trkpt>
      <trkpt lat="48.600024" lon="16.716228">
        <ele>225.107755</ele>
        <time>2020-07-27T04:03:26.793Z</time>
      </trkpt>
      <trkpt lat="48.599989" lon="16.716400">
        <ele>225.106518</ele>
        <time>2020-07-27T04:03:28.783Z</time>
      </trkpt>
      <trkpt lat="48.599995" lon="16.716553">
        <ele>225.105464</ele>
        <time>2020-07-27T04:03:30.786Z</time>
      </trkpt>
      <trkpt lat="48.600014" lon="16.716718">
        <ele>225.104312</ele>
        <time>2020-07-27T04:03:32.787Z</time>
      </trkpt>
      <trkpt lat="48.600025" lon="16.716871">
        <ele>225.108239</ele>
        <time>2020-07-27T04:03:34.788Z</time>
      </trkpt>
      <trkpt lat="48.600004" lon="16.717030">
        <ele>225.129723</ele>
        <time>2020-07-27T04:03:36.786Z</time>
      </trkpt>
      <trkpt lat="48.599967" lon="16.717177">
        <ele>225.150565</ele>
        <time>2020-07-27T04:03:38.802Z</time>
      </trkpt>
      <trkpt lat="48.599930" lon="16.717306">
        <ele>225.169197</ele>
        <time>2020-07-27T04:03:40.803Z</time>
      </trkpt>
      <trkpt lat="48.599890" lon="16.717439">
        <ele>225.188558</ele>
        <time>2020-07-27T04:03:42.795Z</time>
      </trkpt>
      <trkpt lat="48.599857" lon="16.717586">
        <ele>225.209128</ele>
        <time>2020-07-27T04:03:44.799Z</time>
      </trkpt>
      <trkpt lat="48.599841" lon="16.717737">
        <ele>225.229392</ele>
        <time>2020-07-27T04:03:46.791Z</time>
      </trkpt>
      <trkpt lat="48.599836" lon="16.717886">
        <ele>225.249161</ele>
        <time>2020-07-27T04:03:48.798Z</time>
      </trkpt>
      <trkpt lat="48.599832" lon="16.718037">
        <ele>225.269186</ele>
        <time>2020-07-27T04:03:50.802Z</time>
      </trkpt>
      <trkpt lat="48.599836" lon="16.718185">
        <ele>225.288814</ele>
        <time>2020-07-27T04:03:52.801Z</time>
      </trkpt>
      <trkpt lat="48.599831" lon="16.718389">
        <ele>225.315864</ele>
        <time>2020-07-27T04:03:55.822Z</time>
      </trkpt>
      <trkpt lat="48.599827" lon="16.718582">
        <ele>225.341450</ele>
        <time>2020-07-27T04:03:58.831Z</time>
      </trkpt>
      <trkpt lat="48.599826" lon="16.718727">
        <ele>225.360665</ele>
        <time>2020-07-27T04:04:00.802Z</time>
      </trkpt>
      <trkpt lat="48.599816" lon="16.718871">
        <ele>225.379851</ele>
        <time>2020-07-27T04:04:02.819Z</time>
      </trkpt>
      <trkpt lat="48.599808" lon="16.719025">
        <ele>225.400320</ele>
        <time>2020-07-27T04:04:04.808Z</time>
      </trkpt>
      <trkpt lat="48.599807" lon="16.719187">
        <ele>225.421788</ele>
        <time>2020-07-27T04:04:06.782Z</time>
      </trkpt>
      <trkpt lat="48.599811" lon="16.719346">
        <ele>225.442872</ele>
        <time>2020-07-27T04:04:08.815Z</time>
      </trkpt>
      <trkpt lat="48.599819" lon="16.719502">
        <ele>225.463605</ele>
        <time>2020-07-27T04:04:10.779Z</time>
      </trkpt>
      <trkpt lat="48.599831" lon="16.719638">
        <ele>225.485695</ele>
        <time>2020-07-27T04:04:12.793Z</time>
      </trkpt>
      <trkpt lat="48.599850" lon="16.719784">
        <ele>225.509720</ele>
        <time>2020-07-27T04:04:14.787Z</time>
      </trkpt>
      <trkpt lat="48.599864" lon="16.719938">
        <ele>225.534819</ele>
        <time>2020-07-27T04:04:16.805Z</time>
      </trkpt>
      <trkpt lat="48.599873" lon="16.720086">
        <ele>225.558816</ele>
        <time>2020-07-27T04:04:18.805Z</time>
      </trkpt>
      <trkpt lat="48.599879" lon="16.720236">
        <ele>225.583079</ele>
        <time>2020-07-27T04:04:20.796Z</time>
      </trkpt>
      <trkpt lat="48.599879" lon="16.720392">
        <ele>225.608267</ele>
        <time>2020-07-27T04:04:22.814Z</time>
      </trkpt>
      <trkpt lat="48.599879" lon="16.720537">
        <ele>225.631679</ele>
        <time>2020-07-27T04:04:24.813Z</time>
      </trkpt>
      <trkpt lat="48.599882" lon="16.720688">
        <ele>225.656070</ele>
        <time>2020-07-27T04:04:26.806Z</time>
      </trkpt>
      <trkpt lat="48.599887" lon="16.720833">
        <ele>225.679514</ele>
        <time>2020-07-27T04:04:28.787Z</time>
      </trkpt>
      <trkpt lat="48.599896" lon="16.720979">
        <ele>225.703189</ele>
        <time>2020-07-27T04:04:30.800Z</time>
      </trkpt>
      <trkpt lat="48.599904" lon="16.721125">
        <ele>225.726843</ele>
        <time>2020-07-27T04:04:32.780Z</time>
      </trkpt>
      <trkpt lat="48.599914" lon="16.721268">
        <ele>225.750061</ele>
        <time>2020-07-27T04:04:34.802Z</time>
      </trkpt>
      <trkpt lat="48.599924" lon="16.721411">
        <ele>225.773278</ele>
        <time>2020-07-27T04:04:36.802Z</time>
      </trkpt>
      <trkpt lat="48.599935" lon="16.721554">
        <ele>225.796523</ele>
        <time>2020-07-27T04:04:38.797Z</time>
      </trkpt>
      <trkpt lat="48.599960" lon="16.721693">
        <ele>225.819781</ele>
        <time>2020-07-27T04:04:40.815Z</time>
      </trkpt>
      <trkpt lat="48.599996" lon="16.721819">
        <ele>225.841943</ele>
        <time>2020-07-27T04:04:42.797Z</time>
      </trkpt>
      <trkpt lat="48.600044" lon="16.721945">
        <ele>225.865421</ele>
        <time>2020-07-27T04:04:44.802Z</time>
      </trkpt>
      <trkpt lat="48.600072" lon="16.722110">
        <ele>225.892925</ele>
        <time>2020-07-27T04:04:46.795Z</time>
      </trkpt>
      <trkpt lat="48.600117" lon="16.722274">
        <ele>225.898650</ele>
        <time>2020-07-27T04:04:48.796Z</time>
      </trkpt>
      <trkpt lat="48.600172" lon="16.722442">
        <ele>225.891495</ele>
        <time>2020-07-27T04:04:50.780Z</time>
      </trkpt>
      <trkpt lat="48.600240" lon="16.722624">
        <ele>225.883517</ele>
        <time>2020-07-27T04:04:52.818Z</time>
      </trkpt>
      <trkpt lat="48.600279" lon="16.722819">
        <ele>225.875741</ele>
        <time>2020-07-27T04:04:54.804Z</time>
      </trkpt>
      <trkpt lat="48.600316" lon="16.723014">
        <ele>225.867999</ele>
        <time>2020-07-27T04:04:56.800Z</time>
      </trkpt>
      <trkpt lat="48.600351" lon="16.723207">
        <ele>225.860361</ele>
        <time>2020-07-27T04:04:58.810Z</time>
      </trkpt>
      <trkpt lat="48.600390" lon="16.723399">
        <ele>225.852695</ele>
        <time>2020-07-27T04:05:00.793Z</time>
      </trkpt>
      <trkpt lat="48.600420" lon="16.723597">
        <ele>225.844942</ele>
        <time>2020-07-27T04:05:02.788Z</time>
      </trkpt>
      <trkpt lat="48.600441" lon="16.723799">
        <ele>225.837138</ele>
        <time>2020-07-27T04:05:04.809Z</time>
      </trkpt>
      <trkpt lat="48.600460" lon="16.723994">
        <ele>225.829615</ele>
        <time>2020-07-27T04:05:06.831Z</time>
      </trkpt>
      <trkpt lat="48.600477" lon="16.724181">
        <ele>225.822411</ele>
        <time>2020-07-27T04:05:08.785Z</time>
      </trkpt>
      <trkpt lat="48.600499" lon="16.724363">
        <ele>225.815349</ele>
        <time>2020-07-27T04:05:10.805Z</time>
      </trkpt>
      <trkpt lat="48.600520" lon="16.724539">
        <ele>225.808524</ele>
        <time>2020-07-27T04:05:12.799Z</time>
      </trkpt>
      <trkpt lat="48.600536" lon="16.724698">
        <ele>225.802385</ele>
        <time>2020-07-27T04:05:14.802Z</time>
      </trkpt>
      <trkpt lat="48.600563" lon="16.724855">
        <ele>225.792442</ele>
        <time>2020-07-27T04:05:16.798Z</time>
      </trkpt>
      <trkpt lat="48.600592" lon="16.725016">
        <ele>225.778204</ele>
        <time>2020-07-27T04:05:18.800Z</time>
      </trkpt>
      <trkpt lat="48.600621" lon="16.725171">
        <ele>225.764459</ele>
        <time>2020-07-27T04:05:20.796Z</time>
      </trkpt>
      <trkpt lat="48.600664" lon="16.725315">
        <ele>225.750977</ele>
        <time>2020-07-27T04:05:22.814Z</time>
      </trkpt>
      <trkpt lat="48.600713" lon="16.725455">
        <ele>225.737461</ele>
        <time>2020-07-27T04:05:24.796Z</time>
      </trkpt>
      <trkpt lat="48.600755" lon="16.725596">
        <ele>225.724265</ele>
        <time>2020-07-27T04:05:26.797Z</time>
      </trkpt>
      <trkpt lat="48.600796" lon="16.725730">
        <ele>225.711667</ele>
        <time>2020-07-27T04:05:28.803Z</time>
      </trkpt>
      <trkpt lat="48.600847" lon="16.725861">
        <ele>225.698696</ele>
        <time>2020-07-27T04:05:30.786Z</time>
      </trkpt>
      <trkpt lat="48.600894" lon="16.725999">
        <ele>225.685451</ele>
        <time>2020-07-27T04:05:32.809Z</time>
      </trkpt>
      <trkpt lat="48.600935" lon="16.726143">
        <ele>225.672073</ele>
        <time>2020-07-27T04:05:34.799Z</time>
      </trkpt>
      <trkpt lat="48.600974" lon="16.726286">
        <ele>225.658874</ele>
        <time>2020-07-27T04:05:36.796Z</time>
      </trkpt>
      <trkpt lat="48.601017" lon="16.726426">
        <ele>225.645703</ele>
        <time>2020-07-27T04:05:38.805Z</time>
      </trkpt>
      <trkpt lat="48.601068" lon="16.726550">
        <ele>225.633243</ele>
        <time>2020-07-27T04:05:40.800Z</time>
      </trkpt>
      <trkpt lat="48.601121" lon="16.726663">
        <ele>225.621422</ele>
        <time>2020-07-27T04:05:42.801Z</time>
      </trkpt>
      <trkpt lat="48.601176" lon="16.726779">
        <ele>225.609242</ele>
        <time>2020-07-27T04:05:44.790Z</time>
      </trkpt>
      <trkpt lat="48.601229" lon="16.726901">
        <ele>225.596787</ele>
        <time>2020-07-27T04:05:46.803Z</time>
      </trkpt>
      <trkpt lat="48.601280" lon="16.727020">
        <ele>225.584687</ele>
        <time>2020-07-27T04:05:48.811Z</time>
      </trkpt>
      <trkpt lat="48.601329" lon="16.727140">
        <ele>225.572653</ele>
        <time>2020-07-27T04:05:50.791Z</time>
      </trkpt>
      <trkpt lat="48.601373" lon="16.727265">
        <ele>225.571379</ele>
        <time>2020-07-27T04:05:52.808Z</time>
      </trkpt>
      <trkpt lat="48.601416" lon="16.727391">
        <ele>225.579155</ele>
        <time>2020-07-27T04:05:54.788Z</time>
      </trkpt>
      <trkpt lat="48.601475" lon="16.727505">
        <ele>225.587094</ele>
        <time>2020-07-27T04:05:56.778Z</time>
      </trkpt>
      <trkpt lat="48.601532" lon="16.727609">
        <ele>225.594501</ele>
        <time>2020-07-27T04:05:58.821Z</time>
      </trkpt>
      <trkpt lat="48.601598" lon="16.727772">
        <ele>225.604983</ele>
        <time>2020-07-27T04:06:01.816Z</time>
      </trkpt>
      <trkpt lat="48.601674" lon="16.727929">
        <ele>225.615653</ele>
        <time>2020-07-27T04:06:04.813Z</time>
      </trkpt>
      <trkpt lat="48.601747" lon="16.728090">
        <ele>225.626358</ele>
        <time>2020-07-27T04:06:07.815Z</time>
      </trkpt>
      <trkpt lat="48.601802" lon="16.728204">
        <ele>225.634097</ele>
        <time>2020-07-27T04:06:09.794Z</time>
      </trkpt>
      <trkpt lat="48.601859" lon="16.728320">
        <ele>225.642023</ele>
        <time>2020-07-27T04:06:11.800Z</time>
      </trkpt>
      <trkpt lat="48.601915" lon="16.728435">
        <ele>225.649855</ele>
        <time>2020-07-27T04:06:13.792Z</time>
      </trkpt>
      <trkpt lat="48.601993" lon="16.728599">
        <ele>225.660933</ele>
        <time>2020-07-27T04:06:16.802Z</time>
      </trkpt>
      <trkpt lat="48.602066" lon="16.728726">
        <ele>225.670161</ele>
        <time>2020-07-27T04:06:19.778Z</time>
      </trkpt>
      <trkpt lat="48.602154" lon="16.728853">
        <ele>225.680249</ele>
        <time>2020-07-27T04:06:22.796Z</time>
      </trkpt>
      <trkpt lat="48.602220" lon="16.728949">
        <ele>225.687843</ele>
        <time>2020-07-27T04:06:24.803Z</time>
      </trkpt>
      <trkpt lat="48.602286" lon="16.729046">
        <ele>225.695475</ele>
        <time>2020-07-27T04:06:26.812Z</time>
      </trkpt>
      <trkpt lat="48.602346" lon="16.729150">
        <ele>225.703044</ele>
        <time>2020-07-27T04:06:28.814Z</time>
      </trkpt>
      <trkpt lat="48.602404" lon="16.729260">
        <ele>225.710759</ele>
        <time>2020-07-27T04:06:30.787Z</time>
      </trkpt>
      <trkpt lat="48.602466" lon="16.729380">
        <ele>225.712489</ele>
        <time>2020-07-27T04:06:32.803Z</time>
      </trkpt>
      <trkpt lat="48.602551" lon="16.729512">
        <ele>225.698700</ele>
        <time>2020-07-27T04:06:34.791Z</time>
      </trkpt>
      <trkpt lat="48.602661" lon="16.729622">
        <ele>225.683774</ele>
        <time>2020-07-27T04:06:36.792Z</time>
      </trkpt>
      <trkpt lat="48.602798" lon="16.729713">
        <ele>225.666839</ele>
        <time>2020-07-27T04:06:38.805Z</time>
      </trkpt>
      <trkpt lat="48.602974" lon="16.729704">
        <ele>225.646908</ele>
        <time>2020-07-27T04:06:40.805Z</time>
      </trkpt>
      <trkpt lat="48.603126" lon="16.729572">
        <ele>225.627071</ele>
        <time>2020-07-27T04:06:42.805Z</time>
      </trkpt>
      <trkpt lat="48.603259" lon="16.729428">
        <ele>225.608558</ele>
        <time>2020-07-27T04:06:44.795Z</time>
      </trkpt>
      <trkpt lat="48.603368" lon="16.729348">
        <ele>225.594845</ele>
        <time>2020-07-27T04:06:46.799Z</time>
      </trkpt>
      <trkpt lat="48.603464" lon="16.729415">
        <ele>225.582879</ele>
        <time>2020-07-27T04:06:49.801Z</time>
      </trkpt>
      <trkpt lat="48.603514" lon="16.729546">
        <ele>225.571559</ele>
        <time>2020-07-27T04:06:51.792Z</time>
      </trkpt>
      <trkpt lat="48.603584" lon="16.729710">
        <ele>225.556950</ele>
        <time>2020-07-27T04:06:54.801Z</time>
      </trkpt>
      <trkpt lat="48.603656" lon="16.729873">
        <ele>225.542280</ele>
        <time>2020-07-27T04:06:57.788Z</time>
      </trkpt>
      <trkpt lat="48.603713" lon="16.730044">
        <ele>225.527948</ele>
        <time>2020-07-27T04:07:00.814Z</time>
      </trkpt>
      <trkpt lat="48.603762" lon="16.730207">
        <ele>225.514548</ele>
        <time>2020-07-27T04:07:03.825Z</time>
      </trkpt>
      <trkpt lat="48.603814" lon="16.730371">
        <ele>225.334794</ele>
        <time>2020-07-27T04:07:06.792Z</time>
      </trkpt>
      <trkpt lat="48.603865" lon="16.730536">
        <ele>225.129373</ele>
        <time>2020-07-27T04:07:09.789Z</time>
      </trkpt>
      <trkpt lat="48.603944" lon="16.730634">
        <ele>224.955097</ele>
        <time>2020-07-27T04:07:12.786Z</time>
      </trkpt>
      <trkpt lat="48.604034" lon="16.730565">
        <ele>224.782994</ele>
        <time>2020-07-27T04:07:14.781Z</time>
      </trkpt>
      <trkpt lat="48.604141" lon="16.730487">
        <ele>224.580398</ele>
        <time>2020-07-27T04:07:16.803Z</time>
      </trkpt>
      <trkpt lat="48.604276" lon="16.730427">
        <ele>224.340405</ele>
        <time>2020-07-27T04:07:18.803Z</time>
      </trkpt>
      <trkpt lat="48.604419" lon="16.730381">
        <ele>224.091048</ele>
        <time>2020-07-27T04:07:20.791Z</time>
      </trkpt>
      <trkpt lat="48.604563" lon="16.730321">
        <ele>223.836290</ele>
        <time>2020-07-27T04:07:22.781Z</time>
      </trkpt>
      <trkpt lat="48.604705" lon="16.730262">
        <ele>223.585120</ele>
        <time>2020-07-27T04:07:24.801Z</time>
      </trkpt>
      <trkpt lat="48.604843" lon="16.730201">
        <ele>223.339900</ele>
        <time>2020-07-27T04:07:26.803Z</time>
      </trkpt>
      <trkpt lat="48.604980" lon="16.730146">
        <ele>223.098139</ele>
        <time>2020-07-27T04:07:28.826Z</time>
      </trkpt>
      <trkpt lat="48.605117" lon="16.730090">
        <ele>222.856088</ele>
        <time>2020-07-27T04:07:30.833Z</time>
      </trkpt>
      <trkpt lat="48.605255" lon="16.730032">
        <ele>222.611795</ele>
        <time>2020-07-27T04:07:32.822Z</time>
      </trkpt>
      <trkpt lat="48.605391" lon="16.729977">
        <ele>222.426627</ele>
        <time>2020-07-27T04:07:34.802Z</time>
      </trkpt>
      <trkpt lat="48.605525" lon="16.729928">
        <ele>222.367741</ele>
        <time>2020-07-27T04:07:36.789Z</time>
      </trkpt>
      <trkpt lat="48.605655" lon="16.729875">
        <ele>222.310232</ele>
        <time>2020-07-27T04:07:38.813Z</time>
      </trkpt>
      <trkpt lat="48.605782" lon="16.729825">
        <ele>222.254178</ele>
        <time>2020-07-27T04:07:40.808Z</time>
      </trkpt>
      <trkpt lat="48.605904" lon="16.729775">
        <ele>222.200188</ele>
        <time>2020-07-27T04:07:42.801Z</time>
      </trkpt>
      <trkpt lat="48.606019" lon="16.729731">
        <ele>222.149520</ele>
        <time>2020-07-27T04:07:44.801Z</time>
      </trkpt>
      <trkpt lat="48.606120" lon="16.729695">
        <ele>222.105198</ele>
        <time>2020-07-27T04:07:46.820Z</time>
      </trkpt>
      <trkpt lat="48.606186" lon="16.729601">
        <ele>222.066474</ele>
        <time>2020-07-27T04:07:48.804Z</time>
      </trkpt>
      <trkpt lat="48.606174" lon="16.729407">
        <ele>222.011442</ele>
        <time>2020-07-27T04:07:51.799Z</time>
      </trkpt>
      <trkpt lat="48.606153" lon="16.729220">
        <ele>221.957871</ele>
        <time>2020-07-27T04:07:54.791Z</time>
      </trkpt>
      <trkpt lat="48.606230" lon="16.729122">
        <ele>221.914885</ele>
        <time>2020-07-27T04:07:57.793Z</time>
      </trkpt>
      <trkpt lat="48.606340" lon="16.729105">
        <ele>221.867655</ele>
        <time>2020-07-27T04:07:59.800Z</time>
      </trkpt>
      <trkpt lat="48.606441" lon="16.729075">
        <ele>221.823691</ele>
        <time>2020-07-27T04:08:01.800Z</time>
      </trkpt>
      <trkpt lat="48.606533" lon="16.729039">
        <ele>221.783100</ele>
        <time>2020-07-27T04:08:03.805Z</time>
      </trkpt>
      <trkpt lat="48.606647" lon="16.728984">
        <ele>221.731989</ele>
        <time>2020-07-27T04:08:06.808Z</time>
      </trkpt>
      <trkpt lat="48.606754" lon="16.728918">
        <ele>221.682631</ele>
        <time>2020-07-27T04:08:09.795Z</time>
      </trkpt>
      <trkpt lat="48.606846" lon="16.728862">
        <ele>221.665587</ele>
        <time>2020-07-27T04:08:11.813Z</time>
      </trkpt>
      <trkpt lat="48.606941" lon="16.728757">
        <ele>221.650233</ele>
        <time>2020-07-27T04:08:13.797Z</time>
      </trkpt>
      <trkpt lat="48.607038" lon="16.728640">
        <ele>221.634042</ele>
        <time>2020-07-27T04:08:15.790Z</time>
      </trkpt>
      <trkpt lat="48.607125" lon="16.728526">
        <ele>221.619021</ele>
        <time>2020-07-27T04:08:17.803Z</time>
      </trkpt>
      <trkpt lat="48.607214" lon="16.728441">
        <ele>221.605285</ele>
        <time>2020-07-27T04:08:19.782Z</time>
      </trkpt>
      <trkpt lat="48.607303" lon="16.728379">
        <ele>221.592499</ele>
        <time>2020-07-27T04:08:21.790Z</time>
      </trkpt>
      <trkpt lat="48.607383" lon="16.728286">
        <ele>221.579332</ele>
        <time>2020-07-27T04:08:23.787Z</time>
      </trkpt>
      <trkpt lat="48.607460" lon="16.728172">
        <ele>221.565271</ele>
        <time>2020-07-27T04:08:25.785Z</time>
      </trkpt>
      <trkpt lat="48.607531" lon="16.728071">
        <ele>221.552552</ele>
        <time>2020-07-27T04:08:27.792Z</time>
      </trkpt>
      <trkpt lat="48.607631" lon="16.728050">
        <ele>221.539377</ele>
        <time>2020-07-27T04:08:29.782Z</time>
      </trkpt>
      <trkpt lat="48.607722" lon="16.728137">
        <ele>221.525329</ele>
        <time>2020-07-27T04:08:31.785Z</time>
      </trkpt>
      <trkpt lat="48.607802" lon="16.728232">
        <ele>221.512056</ele>
        <time>2020-07-27T04:08:33.795Z</time>
      </trkpt>
      <trkpt lat="48.607872" lon="16.728331">
        <ele>221.499550</ele>
        <time>2020-07-27T04:08:35.801Z</time>
      </trkpt>
      <trkpt lat="48.607942" lon="16.728425">
        <ele>221.487335</ele>
        <time>2020-07-27T04:08:37.797Z</time>
      </trkpt>
      <trkpt lat="48.608018" lon="16.728521">
        <ele>221.474413</ele>
        <time>2020-07-27T04:08:39.787Z</time>
      </trkpt>
      <trkpt lat="48.608088" lon="16.728608">
        <ele>221.462590</ele>
        <time>2020-07-27T04:08:41.794Z</time>
      </trkpt>
      <trkpt lat="48.608161" lon="16.728700">
        <ele>221.450191</ele>
        <time>2020-07-27T04:08:43.790Z</time>
      </trkpt>
      <trkpt lat="48.608234" lon="16.728797">
        <ele>221.436494</ele>
        <time>2020-07-27T04:08:45.816Z</time>
      </trkpt>
      <trkpt lat="48.608310" lon="16.728886">
        <ele>221.421120</ele>
        <time>2020-07-27T04:08:47.782Z</time>
      </trkpt>
      <trkpt lat="48.608386" lon="16.728976">
        <ele>221.405681</ele>
        <time>2020-07-27T04:08:49.834Z</time>
      </trkpt>
      <trkpt lat="48.608458" lon="16.729060">
        <ele>221.391137</ele>
        <time>2020-07-27T04:08:51.810Z</time>
      </trkpt>
      <trkpt lat="48.608554" lon="16.729166">
        <ele>221.372126</ele>
        <time>2020-07-27T04:08:54.814Z</time>
      </trkpt>
      <trkpt lat="48.608652" lon="16.729275">
        <ele>221.352669</ele>
        <time>2020-07-27T04:08:57.800Z</time>
      </trkpt>
      <trkpt lat="48.608723" lon="16.729360">
        <ele>221.338186</ele>
        <time>2020-07-27T04:08:59.801Z</time>
      </trkpt>
      <trkpt lat="48.608796" lon="16.729446">
        <ele>221.323385</ele>
        <time>2020-07-27T04:09:01.815Z</time>
      </trkpt>
      <trkpt lat="48.608876" lon="16.729528">
        <ele>221.307928</ele>
        <time>2020-07-27T04:09:03.816Z</time>
      </trkpt>
      <trkpt lat="48.608961" lon="16.729611">
        <ele>221.291746</ele>
        <time>2020-07-27T04:09:05.815Z</time>
      </trkpt>
      <trkpt lat="48.609043" lon="16.729707">
        <ele>221.275160</ele>
        <time>2020-07-27T04:09:07.787Z</time>
      </trkpt>
      <trkpt lat="48.609126" lon="16.729800">
        <ele>221.258638</ele>
        <time>2020-07-27T04:09:09.795Z</time>
      </trkpt>
      <trkpt lat="48.609208" lon="16.729893">
        <ele>221.242245</ele>
        <time>2020-07-27T04:09:11.791Z</time>
      </trkpt>
      <trkpt lat="48.609291" lon="16.729986">
        <ele>221.225723</ele>
        <time>2020-07-27T04:09:13.829Z</time>
      </trkpt>
      <trkpt lat="48.609377" lon="16.730080">
        <ele>221.208752</ele>
        <time>2020-07-27T04:09:15.782Z</time>
      </trkpt>
      <trkpt lat="48.609461" lon="16.730174">
        <ele>221.192039</ele>
        <time>2020-07-27T04:09:17.794Z</time>
      </trkpt>
      <trkpt lat="48.609543" lon="16.730273">
        <ele>221.175257</ele>
        <time>2020-07-27T04:09:19.794Z</time>
      </trkpt>
      <trkpt lat="48.609635" lon="16.730347">
        <ele>221.158591</ele>
        <time>2020-07-27T04:09:21.793Z</time>
      </trkpt>
      <trkpt lat="48.609740" lon="16.730254">
        <ele>221.141129</ele>
        <time>2020-07-27T04:09:23.784Z</time>
      </trkpt>
      <trkpt lat="48.609829" lon="16.730189">
        <ele>221.127401</ele>
        <time>2020-07-27T04:09:25.785Z</time>
      </trkpt>
      <trkpt lat="48.609911" lon="16.730291">
        <ele>221.112653</ele>
        <time>2020-07-27T04:09:27.796Z</time>
      </trkpt>
      <trkpt lat="48.609991" lon="16.730415">
        <ele>221.096741</ele>
        <time>2020-07-27T04:09:29.781Z</time>
      </trkpt>
      <trkpt lat="48.610069" lon="16.730553">
        <ele>221.080068</ele>
        <time>2020-07-27T04:09:31.819Z</time>
      </trkpt>
      <trkpt lat="48.610151" lon="16.730684">
        <ele>221.063500</ele>
        <time>2020-07-27T04:09:33.796Z</time>
      </trkpt>
      <trkpt lat="48.610240" lon="16.730823">
        <ele>221.045729</ele>
        <time>2020-07-27T04:09:35.790Z</time>
      </trkpt>
      <trkpt lat="48.610333" lon="16.730971">
        <ele>221.026977</ele>
        <time>2020-07-27T04:09:37.786Z</time>
      </trkpt>
      <trkpt lat="48.610426" lon="16.731136">
        <ele>221.007065</ele>
        <time>2020-07-27T04:09:39.795Z</time>
      </trkpt>
      <trkpt lat="48.610511" lon="16.731326">
        <ele>220.985996</ele>
        <time>2020-07-27T04:09:41.801Z</time>
      </trkpt>
      <trkpt lat="48.610596" lon="16.731513">
        <ele>220.965155</ele>
        <time>2020-07-27T04:09:43.812Z</time>
      </trkpt>
      <trkpt lat="48.610672" lon="16.731696">
        <ele>220.945307</ele>
        <time>2020-07-27T04:09:45.829Z</time>
      </trkpt>
      <trkpt lat="48.610747" lon="16.731869">
        <ele>220.926308</ele>
        <time>2020-07-27T04:09:47.808Z</time>
      </trkpt>
      <trkpt lat="48.610819" lon="16.732029">
        <ele>220.908533</ele>
        <time>2020-07-27T04:09:49.800Z</time>
      </trkpt>
      <trkpt lat="48.610886" lon="16.732184">
        <ele>220.963887</ele>
        <time>2020-07-27T04:09:51.811Z</time>
      </trkpt>
      <trkpt lat="48.610958" lon="16.732332">
        <ele>221.041175</ele>
        <time>2020-07-27T04:09:53.799Z</time>
      </trkpt>
      <trkpt lat="48.611028" lon="16.732479">
        <ele>221.117374</ele>
        <time>2020-07-27T04:09:55.785Z</time>
      </trkpt>
      <trkpt lat="48.611095" lon="16.732617">
        <ele>221.189389</ele>
        <time>2020-07-27T04:09:57.818Z</time>
      </trkpt>
      <trkpt lat="48.611149" lon="16.732734">
        <ele>221.249406</ele>
        <time>2020-07-27T04:10:00.811Z</time>
      </trkpt>
      <trkpt lat="48.611200" lon="16.732882">
        <ele>221.319606</ele>
        <time>2020-07-27T04:10:05.807Z</time>
      </trkpt>
      <trkpt lat="48.611149" lon="16.733008">
        <ele>221.381747</ele>
        <time>2020-07-27T04:10:09.787Z</time>
      </trkpt>
      <trkpt lat="48.611127" lon="16.733200">
        <ele>221.463710</ele>
        <time>2020-07-27T04:10:12.789Z</time>
      </trkpt>
      <trkpt lat="48.611119" lon="16.733373">
        <ele>221.536655</ele>
        <time>2020-07-27T04:10:15.820Z</time>
      </trkpt>
      <trkpt lat="48.611107" lon="16.733552">
        <ele>221.612333</ele>
        <time>2020-07-27T04:10:18.815Z</time>
      </trkpt>
      <trkpt lat="48.611106" lon="16.733721">
        <ele>221.683421</ele>
        <time>2020-07-27T04:10:21.812Z</time>
      </trkpt>
      <trkpt lat="48.611110" lon="16.733882">
        <ele>221.751188</ele>
        <time>2020-07-27T04:10:24.811Z</time>
      </trkpt>
      <trkpt lat="48.611122" lon="16.734034">
        <ele>221.815577</ele>
        <time>2020-07-27T04:10:27.818Z</time>
      </trkpt>
      <trkpt lat="48.611126" lon="16.734189">
        <ele>221.880823</ele>
        <time>2020-07-27T04:10:30.817Z</time>
      </trkpt>
      <trkpt lat="48.611126" lon="16.734342">
        <ele>221.945178</ele>
        <time>2020-07-27T04:10:33.786Z</time>
      </trkpt>
      <trkpt lat="48.611117" lon="16.734494">
        <ele>222.009368</ele>
        <time>2020-07-27T04:10:36.808Z</time>
      </trkpt>
      <trkpt lat="48.611096" lon="16.734653">
        <ele>222.096689</ele>
        <time>2020-07-27T04:10:39.806Z</time>
      </trkpt>
      <trkpt lat="48.611063" lon="16.734821">
        <ele>222.219325</ele>
        <time>2020-07-27T04:10:42.805Z</time>
      </trkpt>
      <trkpt lat="48.611021" lon="16.734986">
        <ele>222.343046</ele>
        <time>2020-07-27T04:10:45.818Z</time>
      </trkpt>
      <trkpt lat="48.610973" lon="16.735148">
        <ele>222.467269</ele>
        <time>2020-07-27T04:10:48.801Z</time>
      </trkpt>
      <trkpt lat="48.610926" lon="16.735316">
        <ele>222.594918</ele>
        <time>2020-07-27T04:10:51.829Z</time>
      </trkpt>
      <trkpt lat="48.610870" lon="16.735474">
        <ele>222.720363</ele>
        <time>2020-07-27T04:10:54.783Z</time>
      </trkpt>
      <trkpt lat="48.610808" lon="16.735622">
        <ele>222.842965</ele>
        <time>2020-07-27T04:10:57.783Z</time>
      </trkpt>
      <trkpt lat="48.610738" lon="16.735777">
        <ele>222.974315</ele>
        <time>2020-07-27T04:11:00.783Z</time>
      </trkpt>
      <trkpt lat="48.610657" lon="16.735901">
        <ele>223.096291</ele>
        <time>2020-07-27T04:11:03.806Z</time>
      </trkpt>
      <trkpt lat="48.610588" lon="16.736014">
        <ele>223.203927</ele>
        <time>2020-07-27T04:11:06.786Z</time>
      </trkpt>
      <trkpt lat="48.610487" lon="16.736144">
        <ele>223.344290</ele>
        <time>2020-07-27T04:11:09.787Z</time>
      </trkpt>
      <trkpt lat="48.610407" lon="16.736239">
        <ele>223.451937</ele>
        <time>2020-07-27T04:11:11.797Z</time>
      </trkpt>
      <trkpt lat="48.610314" lon="16.736348">
        <ele>223.576459</ele>
        <time>2020-07-27T04:11:13.802Z</time>
      </trkpt>
      <trkpt lat="48.610218" lon="16.736468">
        <ele>223.708271</ele>
        <time>2020-07-27T04:11:15.797Z</time>
      </trkpt>
      <trkpt lat="48.610120" lon="16.736578">
        <ele>223.837433</ele>
        <time>2020-07-27T04:11:17.803Z</time>
      </trkpt>
      <trkpt lat="48.610017" lon="16.736692">
        <ele>223.958160</ele>
        <time>2020-07-27T04:11:19.792Z</time>
      </trkpt>
      <trkpt lat="48.609911" lon="16.736817">
        <ele>223.999052</ele>
        <time>2020-07-27T04:11:21.788Z</time>
      </trkpt>
      <trkpt lat="48.609810" lon="16.736948">
        <ele>224.039532</ele>
        <time>2020-07-27T04:11:23.792Z</time>
      </trkpt>
      <trkpt lat="48.609711" lon="16.737085">
        <ele>224.080356</ele>
        <time>2020-07-27T04:11:25.820Z</time>
      </trkpt>
      <trkpt lat="48.609606" lon="16.737194">
        <ele>224.119101</ele>
        <time>2020-07-27T04:11:27.792Z</time>
      </trkpt>
      <trkpt lat="48.609499" lon="16.737311">
        <ele>224.159271</ele>
        <time>2020-07-27T04:11:29.776Z</time>
      </trkpt>
      <trkpt lat="48.609385" lon="16.737440">
        <ele>224.202586</ele>
        <time>2020-07-27T04:11:31.779Z</time>
      </trkpt>
      <trkpt lat="48.609271" lon="16.737573">
        <ele>224.246388</ele>
        <time>2020-07-27T04:11:33.809Z</time>
      </trkpt>
      <trkpt lat="48.609160" lon="16.737714">
        <ele>224.290489</ele>
        <time>2020-07-27T04:11:35.821Z</time>
      </trkpt>
      <trkpt lat="48.609048" lon="16.737858">
        <ele>224.335212</ele>
        <time>2020-07-27T04:11:37.812Z</time>
      </trkpt>
      <trkpt lat="48.608936" lon="16.738003">
        <ele>224.380065</ele>
        <time>2020-07-27T04:11:39.787Z</time>
      </trkpt>
      <trkpt lat="48.608832" lon="16.738147">
        <ele>224.422962</ele>
        <time>2020-07-27T04:11:41.795Z</time>
      </trkpt>
      <trkpt lat="48.608737" lon="16.738292">
        <ele>224.464024</ele>
        <time>2020-07-27T04:11:43.777Z</time>
      </trkpt>
      <trkpt lat="48.608641" lon="16.738424">
        <ele>224.496336</ele>
        <time>2020-07-27T04:11:45.780Z</time>
      </trkpt>
      <trkpt lat="48.608540" lon="16.738536">
        <ele>224.464851</ele>
        <time>2020-07-27T04:11:47.813Z</time>
      </trkpt>
      <trkpt lat="48.608445" lon="16.738653">
        <ele>224.434052</ele>
        <time>2020-07-27T04:11:49.794Z</time>
      </trkpt>
      <trkpt lat="48.608353" lon="16.738771">
        <ele>224.403727</ele>
        <time>2020-07-27T04:11:51.799Z</time>
      </trkpt>
      <trkpt lat="48.608244" lon="16.738858">
        <ele>224.372743</ele>
        <time>2020-07-27T04:11:53.800Z</time>
      </trkpt>
      <trkpt lat="48.608148" lon="16.738961">
        <ele>224.343153</ele>
        <time>2020-07-27T04:11:55.793Z</time>
      </trkpt>
      <trkpt lat="48.608053" lon="16.739067">
        <ele>224.313475</ele>
        <time>2020-07-27T04:11:57.800Z</time>
      </trkpt>
      <trkpt lat="48.607965" lon="16.739186">
        <ele>224.283799</ele>
        <time>2020-07-27T04:11:59.806Z</time>
      </trkpt>
      <trkpt lat="48.607881" lon="16.739302">
        <ele>224.255203</ele>
        <time>2020-07-27T04:12:01.797Z</time>
      </trkpt>
      <trkpt lat="48.607800" lon="16.739406">
        <ele>224.228492</ele>
        <time>2020-07-27T04:12:03.786Z</time>
      </trkpt>
      <trkpt lat="48.607726" lon="16.739509">
        <ele>224.203209</ele>
        <time>2020-07-27T04:12:05.822Z</time>
      </trkpt>
      <trkpt lat="48.607658" lon="16.739615">
        <ele>224.178660</ele>
        <time>2020-07-27T04:12:07.784Z</time>
      </trkpt>
      <trkpt lat="48.607594" lon="16.739717">
        <ele>224.155286</ele>
        <time>2020-07-27T04:12:09.796Z</time>
      </trkpt>
      <trkpt lat="48.607512" lon="16.739876">
        <ele>224.121768</ele>
        <time>2020-07-27T04:12:12.799Z</time>
      </trkpt>
      <trkpt lat="48.607437" lon="16.740021">
        <ele>224.091167</ele>
        <time>2020-07-27T04:12:15.786Z</time>
      </trkpt>
      <trkpt lat="48.607368" lon="16.740130">
        <ele>224.066083</ele>
        <time>2020-07-27T04:12:18.808Z</time>
      </trkpt>
      <trkpt lat="48.607298" lon="16.740233">
        <ele>224.058513</ele>
        <time>2020-07-27T04:12:21.801Z</time>
      </trkpt>
      <trkpt lat="48.607236" lon="16.740349">
        <ele>224.105344</ele>
        <time>2020-07-27T04:12:24.804Z</time>
      </trkpt>
      <trkpt lat="48.607167" lon="16.740468">
        <ele>224.155036</ele>
        <time>2020-07-27T04:12:27.810Z</time>
      </trkpt>
      <trkpt lat="48.607096" lon="16.740609">
        <ele>224.210681</ele>
        <time>2020-07-27T04:12:30.791Z</time>
      </trkpt>
      <trkpt lat="48.607027" lon="16.740755">
        <ele>224.267025</ele>
        <time>2020-07-27T04:12:33.795Z</time>
      </trkpt>
      <trkpt lat="48.606955" lon="16.740898">
        <ele>224.323458</ele>
        <time>2020-07-27T04:12:36.788Z</time>
      </trkpt>
      <trkpt lat="48.606890" lon="16.741040">
        <ele>224.377682</ele>
        <time>2020-07-27T04:12:39.833Z</time>
      </trkpt>
      <trkpt lat="48.606829" lon="16.741178">
        <ele>224.429799</ele>
        <time>2020-07-27T04:12:42.784Z</time>
      </trkpt>
      <trkpt lat="48.606761" lon="16.741322">
        <ele>224.485357</ele>
        <time>2020-07-27T04:12:45.794Z</time>
      </trkpt>
      <trkpt lat="48.606693" lon="16.741459">
        <ele>224.539141</ele>
        <time>2020-07-27T04:12:48.817Z</time>
      </trkpt>
      <trkpt lat="48.606628" lon="16.741617">
        <ele>224.597566</ele>
        <time>2020-07-27T04:12:51.791Z</time>
      </trkpt>
      <trkpt lat="48.606566" lon="16.741760">
        <ele>224.651255</ele>
        <time>2020-07-27T04:12:54.816Z</time>
      </trkpt>
      <trkpt lat="48.606519" lon="16.741886">
        <ele>224.696676</ele>
        <time>2020-07-27T04:12:56.804Z</time>
      </trkpt>
      <trkpt lat="48.606470" lon="16.742009">
        <ele>224.741762</ele>
        <time>2020-07-27T04:12:58.794Z</time>
      </trkpt>
      <trkpt lat="48.606419" lon="16.742143">
        <ele>224.790305</ele>
        <time>2020-07-27T04:13:00.812Z</time>
      </trkpt>
      <trkpt lat="48.606374" lon="16.742263">
        <ele>224.833619</ele>
        <time>2020-07-27T04:13:02.836Z</time>
      </trkpt>
      <trkpt lat="48.606316" lon="16.742397">
        <ele>224.883904</ele>
        <time>2020-07-27T04:13:04.810Z</time>
      </trkpt>
      <trkpt lat="48.606250" lon="16.742544">
        <ele>224.927374</ele>
        <time>2020-07-27T04:13:06.798Z</time>
      </trkpt>
      <trkpt lat="48.606172" lon="16.742686">
        <ele>224.966660</ele>
        <time>2020-07-27T04:13:08.798Z</time>
      </trkpt>
      <trkpt lat="48.606074" lon="16.742834">
        <ele>225.011233</ele>
        <time>2020-07-27T04:13:10.796Z</time>
      </trkpt>
      <trkpt lat="48.605981" lon="16.743019">
        <ele>225.060688</ele>
        <time>2020-07-27T04:13:12.801Z</time>
      </trkpt>
      <trkpt lat="48.605902" lon="16.743222">
        <ele>225.110816</ele>
        <time>2020-07-27T04:13:14.792Z</time>
      </trkpt>
      <trkpt lat="48.605840" lon="16.743440">
        <ele>225.161318</ele>
        <time>2020-07-27T04:13:16.808Z</time>
      </trkpt>
      <trkpt lat="48.605775" lon="16.743656">
        <ele>225.211821</ele>
        <time>2020-07-27T04:13:18.781Z</time>
      </trkpt>
      <trkpt lat="48.605743" lon="16.743880">
        <ele>225.260591</ele>
        <time>2020-07-27T04:13:20.791Z</time>
      </trkpt>
      <trkpt lat="48.605729" lon="16.744068">
        <ele>225.300852</ele>
        <time>2020-07-27T04:13:22.796Z</time>
      </trkpt>
      <trkpt lat="48.605720" lon="16.744228">
        <ele>225.335025</ele>
        <time>2020-07-27T04:13:24.809Z</time>
      </trkpt>
      <trkpt lat="48.605715" lon="16.744372">
        <ele>225.365712</ele>
        <time>2020-07-27T04:13:26.789Z</time>
      </trkpt>
      <trkpt lat="48.605707" lon="16.744509">
        <ele>225.394981</ele>
        <time>2020-07-27T04:13:28.791Z</time>
      </trkpt>
      <trkpt lat="48.605709" lon="16.744667">
        <ele>225.428611</ele>
        <time>2020-07-27T04:13:30.796Z</time>
      </trkpt>
      <trkpt lat="48.605700" lon="16.744843">
        <ele>225.466178</ele>
        <time>2020-07-27T04:13:32.800Z</time>
      </trkpt>
      <trkpt lat="48.605697" lon="16.745052">
        <ele>225.384594</ele>
        <time>2020-07-27T04:13:34.797Z</time>
      </trkpt>
      <trkpt lat="48.605711" lon="16.745259">
        <ele>225.244820</ele>
        <time>2020-07-27T04:13:36.799Z</time>
      </trkpt>
      <trkpt lat="48.605736" lon="16.745448">
        <ele>225.115348</ele>
        <time>2020-07-27T04:13:38.790Z</time>
      </trkpt>
      <trkpt lat="48.605777" lon="16.745621">
        <ele>224.991900</ele>
        <time>2020-07-27T04:13:40.786Z</time>
      </trkpt>
      <trkpt lat="48.605824" lon="16.745788">
        <ele>224.869984</ele>
        <time>2020-07-27T04:13:42.790Z</time>
      </trkpt>
      <trkpt lat="48.605881" lon="16.745956">
        <ele>224.743145</ele>
        <time>2020-07-27T04:13:44.789Z</time>
      </trkpt>
      <trkpt lat="48.605950" lon="16.746125">
        <ele>224.609726</ele>
        <time>2020-07-27T04:13:46.795Z</time>
      </trkpt>
      <trkpt lat="48.606031" lon="16.746289">
        <ele>224.472225</ele>
        <time>2020-07-27T04:13:48.790Z</time>
      </trkpt>
      <trkpt lat="48.606116" lon="16.746450">
        <ele>224.333834</ele>
        <time>2020-07-27T04:13:50.792Z</time>
      </trkpt>
      <trkpt lat="48.606202" lon="16.746597">
        <ele>224.201990</ele>
        <time>2020-07-27T04:13:52.794Z</time>
      </trkpt>
      <trkpt lat="48.606295" lon="16.746723">
        <ele>224.075147</ele>
        <time>2020-07-27T04:13:54.785Z</time>
      </trkpt>
      <trkpt lat="48.606393" lon="16.746835">
        <ele>223.950363</ele>
        <time>2020-07-27T04:13:56.834Z</time>
      </trkpt>
      <trkpt lat="48.606492" lon="16.746939">
        <ele>223.827909</ele>
        <time>2020-07-27T04:13:58.812Z</time>
      </trkpt>
      <trkpt lat="48.606593" lon="16.747036">
        <ele>223.706367</ele>
        <time>2020-07-27T04:14:00.784Z</time>
      </trkpt>
      <trkpt lat="48.606699" lon="16.747124">
        <ele>223.628687</ele>
        <time>2020-07-27T04:14:02.790Z</time>
      </trkpt>
      <trkpt lat="48.606813" lon="16.747206">
        <ele>223.583627</ele>
        <time>2020-07-27T04:14:04.812Z</time>
      </trkpt>
      <trkpt lat="48.606932" lon="16.747274">
        <ele>223.538219</ele>
        <time>2020-07-27T04:14:06.801Z</time>
      </trkpt>
      <trkpt lat="48.607049" lon="16.747327">
        <ele>223.494623</ele>
        <time>2020-07-27T04:14:08.779Z</time>
      </trkpt>
      <trkpt lat="48.607164" lon="16.747368">
        <ele>223.452448</ele>
        <time>2020-07-27T04:14:10.800Z</time>
      </trkpt>
      <trkpt lat="48.607280" lon="16.747404">
        <ele>223.410180</ele>
        <time>2020-07-27T04:14:12.804Z</time>
      </trkpt>
      <trkpt lat="48.607399" lon="16.747430">
        <ele>223.367262</ele>
        <time>2020-07-27T04:14:14.784Z</time>
      </trkpt>
      <trkpt lat="48.607516" lon="16.747450">
        <ele>223.325233</ele>
        <time>2020-07-27T04:14:16.798Z</time>
      </trkpt>
      <trkpt lat="48.607631" lon="16.747467">
        <ele>223.283988</ele>
        <time>2020-07-27T04:14:18.782Z</time>
      </trkpt>
      <trkpt lat="48.607742" lon="16.747481">
        <ele>223.244229</ele>
        <time>2020-07-27T04:14:20.810Z</time>
      </trkpt>
      <trkpt lat="48.607851" lon="16.747495">
        <ele>223.205182</ele>
        <time>2020-07-27T04:14:22.809Z</time>
      </trkpt>
      <trkpt lat="48.607958" lon="16.747509">
        <ele>223.166846</ele>
        <time>2020-07-27T04:14:24.803Z</time>
      </trkpt>
      <trkpt lat="48.608064" lon="16.747524">
        <ele>223.128844</ele>
        <time>2020-07-27T04:14:26.792Z</time>
      </trkpt>
      <trkpt lat="48.608170" lon="16.747538">
        <ele>223.090863</ele>
        <time>2020-07-27T04:14:28.806Z</time>
      </trkpt>
      <trkpt lat="48.608272" lon="16.747555">
        <ele>223.054234</ele>
        <time>2020-07-27T04:14:30.823Z</time>
      </trkpt>
      <trkpt lat="48.608371" lon="16.747572">
        <ele>223.018669</ele>
        <time>2020-07-27T04:14:32.793Z</time>
      </trkpt>
      <trkpt lat="48.608470" lon="16.747591">
        <ele>222.950585</ele>
        <time>2020-07-27T04:14:34.786Z</time>
      </trkpt>
      <trkpt lat="48.608574" lon="16.747612">
        <ele>222.869835</ele>
        <time>2020-07-27T04:14:36.784Z</time>
      </trkpt>
      <trkpt lat="48.608684" lon="16.747635">
        <ele>222.784373</ele>
        <time>2020-07-27T04:14:38.793Z</time>
      </trkpt>
      <trkpt lat="48.608799" lon="16.747664">
        <ele>222.694645</ele>
        <time>2020-07-27T04:14:40.799Z</time>
      </trkpt>
      <trkpt lat="48.608912" lon="16.747690">
        <ele>222.606679</ele>
        <time>2020-07-27T04:14:42.797Z</time>
      </trkpt>
      <trkpt lat="48.609027" lon="16.747717">
        <ele>222.517113</ele>
        <time>2020-07-27T04:14:44.788Z</time>
      </trkpt>
      <trkpt lat="48.609150" lon="16.747753">
        <ele>222.420695</ele>
        <time>2020-07-27T04:14:46.803Z</time>
      </trkpt>
      <trkpt lat="48.609264" lon="16.747780">
        <ele>222.331890</ele>
        <time>2020-07-27T04:14:48.794Z</time>
      </trkpt>
      <trkpt lat="48.609381" lon="16.747814">
        <ele>222.240198</ele>
        <time>2020-07-27T04:14:50.787Z</time>
      </trkpt>
      <trkpt lat="48.609505" lon="16.747869">
        <ele>222.140747</ele>
        <time>2020-07-27T04:14:52.789Z</time>
      </trkpt>
      <trkpt lat="48.609622" lon="16.747928">
        <ele>222.045829</ele>
        <time>2020-07-27T04:14:54.809Z</time>
      </trkpt>
      <trkpt lat="48.609732" lon="16.747982">
        <ele>221.956824</ele>
        <time>2020-07-27T04:14:56.797Z</time>
      </trkpt>
      <trkpt lat="48.609823" lon="16.748022">
        <ele>221.883892</ele>
        <time>2020-07-27T04:14:58.805Z</time>
      </trkpt>
      <trkpt lat="48.609917" lon="16.748067">
        <ele>221.808011</ele>
        <time>2020-07-27T04:15:00.798Z</time>
      </trkpt>
      <trkpt lat="48.610010" lon="16.748116">
        <ele>221.732218</ele>
        <time>2020-07-27T04:15:02.792Z</time>
      </trkpt>
      <trkpt lat="48.610107" lon="16.748174">
        <ele>221.651943</ele>
        <time>2020-07-27T04:15:04.803Z</time>
      </trkpt>
      <trkpt lat="48.610218" lon="16.748239">
        <ele>221.596199</ele>
        <time>2020-07-27T04:15:06.792Z</time>
      </trkpt>
      <trkpt lat="48.610342" lon="16.748318">
        <ele>221.548462</ele>
        <time>2020-07-27T04:15:08.795Z</time>
      </trkpt>
      <trkpt lat="48.610469" lon="16.748405">
        <ele>221.498997</ele>
        <time>2020-07-27T04:15:10.812Z</time>
      </trkpt>
      <trkpt lat="48.610602" lon="16.748491">
        <ele>221.447679</ele>
        <time>2020-07-27T04:15:12.796Z</time>
      </trkpt>
      <trkpt lat="48.610733" lon="16.748545">
        <ele>221.399507</ele>
        <time>2020-07-27T04:15:14.796Z</time>
      </trkpt>
      <trkpt lat="48.610864" lon="16.748497">
        <ele>221.351685</ele>
        <time>2020-07-27T04:15:16.782Z</time>
      </trkpt>
      <trkpt lat="48.610962" lon="16.748375">
        <ele>221.306653</ele>
        <time>2020-07-27T04:15:18.789Z</time>
      </trkpt>
      <trkpt lat="48.611047" lon="16.748247">
        <ele>221.264098</ele>
        <time>2020-07-27T04:15:20.786Z</time>
      </trkpt>
      <trkpt lat="48.611153" lon="16.748160">
        <ele>221.221310</ele>
        <time>2020-07-27T04:15:22.777Z</time>
      </trkpt>
      <trkpt lat="48.611272" lon="16.748143">
        <ele>221.178902</ele>
        <time>2020-07-27T04:15:24.809Z</time>
      </trkpt>
      <trkpt lat="48.611378" lon="16.748184">
        <ele>221.140084</ele>
        <time>2020-07-27T04:15:26.786Z</time>
      </trkpt>
      <trkpt lat="48.611488" lon="16.748254">
        <ele>221.097744</ele>
        <time>2020-07-27T04:15:28.798Z</time>
      </trkpt>
      <trkpt lat="48.611591" lon="16.748321">
        <ele>221.057965</ele>
        <time>2020-07-27T04:15:30.814Z</time>
      </trkpt>
      <trkpt lat="48.611695" lon="16.748386">
        <ele>221.018041</ele>
        <time>2020-07-27T04:15:32.795Z</time>
      </trkpt>
      <trkpt lat="48.611799" lon="16.748449">
        <ele>220.986849</ele>
        <time>2020-07-27T04:15:34.785Z</time>
      </trkpt>
      <trkpt lat="48.611901" lon="16.748506">
        <ele>220.979879</ele>
        <time>2020-07-27T04:15:36.789Z</time>
      </trkpt>
      <trkpt lat="48.612004" lon="16.748563">
        <ele>220.972849</ele>
        <time>2020-07-27T04:15:38.799Z</time>
      </trkpt>
      <trkpt lat="48.612110" lon="16.748620">
        <ele>220.965638</ele>
        <time>2020-07-27T04:15:40.792Z</time>
      </trkpt>
      <trkpt lat="48.612224" lon="16.748686">
        <ele>220.957814</ele>
        <time>2020-07-27T04:15:42.791Z</time>
      </trkpt>
      <trkpt lat="48.612331" lon="16.748741">
        <ele>220.950570</ele>
        <time>2020-07-27T04:15:44.778Z</time>
      </trkpt>
      <trkpt lat="48.612440" lon="16.748798">
        <ele>220.943178</ele>
        <time>2020-07-27T04:15:46.827Z</time>
      </trkpt>
      <trkpt lat="48.612549" lon="16.748855">
        <ele>220.935786</ele>
        <time>2020-07-27T04:15:48.827Z</time>
      </trkpt>
      <trkpt lat="48.612660" lon="16.748908">
        <ele>220.928325</ele>
        <time>2020-07-27T04:15:50.831Z</time>
      </trkpt>
      <trkpt lat="48.612772" lon="16.748965">
        <ele>220.920751</ele>
        <time>2020-07-27T04:15:52.790Z</time>
      </trkpt>
      <trkpt lat="48.612880" lon="16.749021">
        <ele>220.913433</ele>
        <time>2020-07-27T04:15:54.804Z</time>
      </trkpt>
      <trkpt lat="48.612984" lon="16.749078">
        <ele>220.906343</ele>
        <time>2020-07-27T04:15:56.788Z</time>
      </trkpt>
      <trkpt lat="48.613087" lon="16.749141">
        <ele>220.899221</ele>
        <time>2020-07-27T04:15:58.808Z</time>
      </trkpt>
      <trkpt lat="48.613190" lon="16.749210">
        <ele>220.892001</ele>
        <time>2020-07-27T04:16:00.805Z</time>
      </trkpt>
      <trkpt lat="48.613296" lon="16.749280">
        <ele>220.884587</ele>
        <time>2020-07-27T04:16:02.807Z</time>
      </trkpt>
      <trkpt lat="48.613404" lon="16.749350">
        <ele>220.877056</ele>
        <time>2020-07-27T04:16:04.788Z</time>
      </trkpt>
      <trkpt lat="48.613514" lon="16.749416">
        <ele>220.880109</ele>
        <time>2020-07-27T04:16:06.791Z</time>
      </trkpt>
      <trkpt lat="48.613612" lon="16.749476">
        <ele>220.891457</ele>
        <time>2020-07-27T04:16:08.792Z</time>
      </trkpt>
      <trkpt lat="48.613715" lon="16.749546">
        <ele>220.903577</ele>
        <time>2020-07-27T04:16:10.799Z</time>
      </trkpt>
      <trkpt lat="48.613826" lon="16.749635">
        <ele>220.917063</ele>
        <time>2020-07-27T04:16:12.791Z</time>
      </trkpt>
      <trkpt lat="48.613928" lon="16.749731">
        <ele>220.929958</ele>
        <time>2020-07-27T04:16:14.797Z</time>
      </trkpt>
      <trkpt lat="48.614023" lon="16.749824">
        <ele>220.942104</ele>
        <time>2020-07-27T04:16:16.793Z</time>
      </trkpt>
      <trkpt lat="48.614119" lon="16.749911">
        <ele>220.954117</ele>
        <time>2020-07-27T04:16:18.803Z</time>
      </trkpt>
      <trkpt lat="48.614220" lon="16.749982">
        <ele>220.966071</ele>
        <time>2020-07-27T04:16:20.800Z</time>
      </trkpt>
      <trkpt lat="48.614326" lon="16.750065">
        <ele>220.978884</ele>
        <time>2020-07-27T04:16:22.799Z</time>
      </trkpt>
      <trkpt lat="48.614430" lon="16.750127">
        <ele>220.990883</ele>
        <time>2020-07-27T04:16:24.783Z</time>
      </trkpt>
      <trkpt lat="48.614525" lon="16.750180">
        <ele>221.001751</ele>
        <time>2020-07-27T04:16:26.802Z</time>
      </trkpt>
      <trkpt lat="48.614618" lon="16.750246">
        <ele>221.012778</ele>
        <time>2020-07-27T04:16:28.813Z</time>
      </trkpt>
      <trkpt lat="48.614705" lon="16.750304">
        <ele>221.022983</ele>
        <time>2020-07-27T04:16:30.796Z</time>
      </trkpt>
      <trkpt lat="48.614795" lon="16.750351">
        <ele>221.033203</ele>
        <time>2020-07-27T04:16:32.793Z</time>
      </trkpt>
      <trkpt lat="48.614893" lon="16.750406">
        <ele>221.044423</ele>
        <time>2020-07-27T04:16:34.801Z</time>
      </trkpt>
      <trkpt lat="48.614998" lon="16.750473">
        <ele>221.056655</ele>
        <time>2020-07-27T04:16:36.792Z</time>
      </trkpt>
      <trkpt lat="48.615108" lon="16.750551">
        <ele>221.070048</ele>
        <time>2020-07-27T04:16:38.785Z</time>
      </trkpt>
      <trkpt lat="48.615222" lon="16.750639">
        <ele>221.085304</ele>
        <time>2020-07-27T04:16:40.795Z</time>
      </trkpt>
      <trkpt lat="48.615329" lon="16.750735">
        <ele>221.100134</ele>
        <time>2020-07-27T04:16:42.830Z</time>
      </trkpt>
      <trkpt lat="48.615422" lon="16.750848">
        <ele>221.114354</ele>
        <time>2020-07-27T04:16:44.803Z</time>
      </trkpt>
      <trkpt lat="48.615516" lon="16.750960">
        <ele>221.128618</ele>
        <time>2020-07-27T04:16:46.792Z</time>
      </trkpt>
      <trkpt lat="48.615600" lon="16.751079">
        <ele>221.142336</ele>
        <time>2020-07-27T04:16:48.785Z</time>
      </trkpt>
      <trkpt lat="48.615675" lon="16.751201">
        <ele>221.155465</ele>
        <time>2020-07-27T04:16:50.792Z</time>
      </trkpt>
      <trkpt lat="48.615752" lon="16.751316">
        <ele>221.168364</ele>
        <time>2020-07-27T04:16:52.790Z</time>
      </trkpt>
      <trkpt lat="48.615810" lon="16.751456">
        <ele>221.181384</ele>
        <time>2020-07-27T04:16:54.787Z</time>
      </trkpt>
      <trkpt lat="48.615866" lon="16.751606">
        <ele>221.194960</ele>
        <time>2020-07-27T04:16:56.784Z</time>
      </trkpt>
      <trkpt lat="48.615917" lon="16.751764">
        <ele>221.208816</ele>
        <time>2020-07-27T04:16:58.796Z</time>
      </trkpt>
      <trkpt lat="48.615964" lon="16.751921">
        <ele>221.222398</ele>
        <time>2020-07-27T04:17:00.783Z</time>
      </trkpt>
      <trkpt lat="48.616016" lon="16.752086">
        <ele>221.236803</ele>
        <time>2020-07-27T04:17:02.801Z</time>
      </trkpt>
      <trkpt lat="48.616068" lon="16.752239">
        <ele>221.250360</ele>
        <time>2020-07-27T04:17:04.817Z</time>
      </trkpt>
      <trkpt lat="48.616123" lon="16.752385">
        <ele>221.263602</ele>
        <time>2020-07-27T04:17:06.791Z</time>
      </trkpt>
      <trkpt lat="48.616175" lon="16.752537">
        <ele>221.277090</ele>
        <time>2020-07-27T04:17:08.784Z</time>
      </trkpt>
      <trkpt lat="48.616223" lon="16.752692">
        <ele>221.238783</ele>
        <time>2020-07-27T04:17:10.785Z</time>
      </trkpt>
      <trkpt lat="48.616270" lon="16.752853">
        <ele>221.178297</ele>
        <time>2020-07-27T04:17:12.784Z</time>
      </trkpt>
      <trkpt lat="48.616315" lon="16.753017">
        <ele>221.117273</ele>
        <time>2020-07-27T04:17:14.797Z</time>
      </trkpt>
      <trkpt lat="48.616359" lon="16.753183">
        <ele>221.055809</ele>
        <time>2020-07-27T04:17:16.821Z</time>
      </trkpt>
      <trkpt lat="48.616397" lon="16.753354">
        <ele>220.993810</ele>
        <time>2020-07-27T04:17:18.792Z</time>
      </trkpt>
      <trkpt lat="48.616438" lon="16.753529">
        <ele>220.930002</ele>
        <time>2020-07-27T04:17:20.801Z</time>
      </trkpt>
      <trkpt lat="48.616483" lon="16.753699">
        <ele>220.867068</ele>
        <time>2020-07-27T04:17:22.788Z</time>
      </trkpt>
      <trkpt lat="48.616539" lon="16.753858">
        <ele>220.805154</ele>
        <time>2020-07-27T04:17:24.795Z</time>
      </trkpt>
      <trkpt lat="48.616584" lon="16.754033">
        <ele>220.740622</ele>
        <time>2020-07-27T04:17:26.805Z</time>
      </trkpt>
      <trkpt lat="48.616626" lon="16.754211">
        <ele>220.675669</ele>
        <time>2020-07-27T04:17:28.790Z</time>
      </trkpt>
      <trkpt lat="48.616669" lon="16.754384">
        <ele>220.612150</ele>
        <time>2020-07-27T04:17:30.816Z</time>
      </trkpt>
      <trkpt lat="48.616714" lon="16.754551">
        <ele>220.550173</ele>
        <time>2020-07-27T04:17:32.804Z</time>
      </trkpt>
      <trkpt lat="48.616753" lon="16.754718">
        <ele>220.489304</ele>
        <time>2020-07-27T04:17:34.808Z</time>
      </trkpt>
      <trkpt lat="48.616732" lon="16.754871">
        <ele>220.435602</ele>
        <time>2020-07-27T04:17:36.788Z</time>
      </trkpt>
      <trkpt lat="48.616640" lon="16.754929">
        <ele>220.383788</ele>
        <time>2020-07-27T04:17:38.784Z</time>
      </trkpt>
      <trkpt lat="48.616538" lon="16.755009">
        <ele>220.357578</ele>
        <time>2020-07-27T04:17:40.817Z</time>
      </trkpt>
      <trkpt lat="48.616430" lon="16.755098">
        <ele>220.391808</ele>
        <time>2020-07-27T04:17:42.790Z</time>
      </trkpt>
      <trkpt lat="48.616315" lon="16.755202">
        <ele>220.429100</ele>
        <time>2020-07-27T04:17:44.793Z</time>
      </trkpt>
      <trkpt lat="48.616213" lon="16.755295">
        <ele>220.462247</ele>
        <time>2020-07-27T04:17:46.829Z</time>
      </trkpt>
      <trkpt lat="48.616105" lon="16.755376">
        <ele>220.495798</ele>
        <time>2020-07-27T04:17:48.802Z</time>
      </trkpt>
      <trkpt lat="48.615995" lon="16.755469">
        <ele>220.530871</ele>
        <time>2020-07-27T04:17:50.790Z</time>
      </trkpt>
      <trkpt lat="48.615885" lon="16.755567">
        <ele>220.566403</ele>
        <time>2020-07-27T04:17:52.790Z</time>
      </trkpt>
      <trkpt lat="48.615774" lon="16.755665">
        <ele>220.602174</ele>
        <time>2020-07-27T04:17:54.807Z</time>
      </trkpt>
      <trkpt lat="48.615662" lon="16.755742">
        <ele>220.636415</ele>
        <time>2020-07-27T04:17:56.811Z</time>
      </trkpt>
      <trkpt lat="48.615552" lon="16.755836">
        <ele>220.671579</ele>
        <time>2020-07-27T04:17:58.789Z</time>
      </trkpt>
      <trkpt lat="48.615444" lon="16.755923">
        <ele>220.705634</ele>
        <time>2020-07-27T04:18:00.796Z</time>
      </trkpt>
      <trkpt lat="48.615340" lon="16.756017">
        <ele>220.739354</ele>
        <time>2020-07-27T04:18:02.793Z</time>
      </trkpt>
      <trkpt lat="48.615241" lon="16.756113">
        <ele>220.772084</ele>
        <time>2020-07-27T04:18:04.814Z</time>
      </trkpt>
      <trkpt lat="48.615143" lon="16.756202">
        <ele>220.803898</ele>
        <time>2020-07-27T04:18:06.798Z</time>
      </trkpt>
      <trkpt lat="48.615041" lon="16.756293">
        <ele>220.836858</ele>
        <time>2020-07-27T04:18:08.800Z</time>
      </trkpt>
      <trkpt lat="48.614943" lon="16.756385">
        <ele>220.884237</ele>
        <time>2020-07-27T04:18:10.797Z</time>
      </trkpt>
      <trkpt lat="48.614835" lon="16.756471">
        <ele>220.941309</ele>
        <time>2020-07-27T04:18:12.797Z</time>
      </trkpt>
      <trkpt lat="48.614725" lon="16.756561">
        <ele>220.999789</ele>
        <time>2020-07-27T04:18:14.791Z</time>
      </trkpt>
      <trkpt lat="48.614625" lon="16.756638">
        <ele>221.052260</ele>
        <time>2020-07-27T04:18:16.804Z</time>
      </trkpt>
      <trkpt lat="48.614518" lon="16.756725">
        <ele>221.109064</ele>
        <time>2020-07-27T04:18:18.821Z</time>
      </trkpt>
      <trkpt lat="48.614414" lon="16.756810">
        <ele>221.164341</ele>
        <time>2020-07-27T04:18:20.799Z</time>
      </trkpt>
      <trkpt lat="48.614319" lon="16.756883">
        <ele>221.214167</ele>
        <time>2020-07-27T04:18:22.793Z</time>
      </trkpt>
      <trkpt lat="48.614212" lon="16.756970">
        <ele>221.270972</ele>
        <time>2020-07-27T04:18:24.789Z</time>
      </trkpt>
      <trkpt lat="48.614099" lon="16.757069">
        <ele>221.332035</ele>
        <time>2020-07-27T04:18:26.793Z</time>
      </trkpt>
      <trkpt lat="48.613993" lon="16.757167">
        <ele>221.390127</ele>
        <time>2020-07-27T04:18:28.787Z</time>
      </trkpt>
      <trkpt lat="48.613890" lon="16.757260">
        <ele>221.446219</ele>
        <time>2020-07-27T04:18:30.794Z</time>
      </trkpt>
      <trkpt lat="48.613793" lon="16.757351">
        <ele>221.499593</ele>
        <time>2020-07-27T04:18:32.792Z</time>
      </trkpt>
      <trkpt lat="48.613689" lon="16.757438">
        <ele>221.555166</ele>
        <time>2020-07-27T04:18:34.794Z</time>
      </trkpt>
      <trkpt lat="48.613585" lon="16.757520">
        <ele>221.610008</ele>
        <time>2020-07-27T04:18:36.789Z</time>
      </trkpt>
      <trkpt lat="48.613485" lon="16.757601">
        <ele>221.663052</ele>
        <time>2020-07-27T04:18:38.805Z</time>
      </trkpt>
      <trkpt lat="48.613388" lon="16.757681">
        <ele>221.687080</ele>
        <time>2020-07-27T04:18:40.817Z</time>
      </trkpt>
      <trkpt lat="48.613287" lon="16.757767">
        <ele>221.686137</ele>
        <time>2020-07-27T04:18:42.806Z</time>
      </trkpt>
      <trkpt lat="48.613189" lon="16.757854">
        <ele>221.685212</ele>
        <time>2020-07-27T04:18:44.793Z</time>
      </trkpt>
      <trkpt lat="48.613096" lon="16.757938">
        <ele>221.684330</ele>
        <time>2020-07-27T04:18:46.793Z</time>
      </trkpt>
      <trkpt lat="48.613000" lon="16.758010">
        <ele>221.683458</ele>
        <time>2020-07-27T04:18:48.791Z</time>
      </trkpt>
      <trkpt lat="48.612908" lon="16.758012">
        <ele>221.682710</ele>
        <time>2020-07-27T04:18:50.786Z</time>
      </trkpt>
      <trkpt lat="48.612844" lon="16.757910">
        <ele>221.681953</ele>
        <time>2020-07-27T04:18:52.783Z</time>
      </trkpt>
      <trkpt lat="48.612801" lon="16.757774">
        <ele>221.681142</ele>
        <time>2020-07-27T04:18:54.793Z</time>
      </trkpt>
      <trkpt lat="48.612759" lon="16.757635">
        <ele>221.680320</ele>
        <time>2020-07-27T04:18:56.796Z</time>
      </trkpt>
      <trkpt lat="48.612717" lon="16.757492">
        <ele>221.679478</ele>
        <time>2020-07-27T04:18:58.790Z</time>
      </trkpt>
      <trkpt lat="48.612673" lon="16.757364">
        <ele>221.678702</ele>
        <time>2020-07-27T04:19:00.806Z</time>
      </trkpt>
      <trkpt lat="48.612632" lon="16.757237">
        <ele>221.677942</ele>
        <time>2020-07-27T04:19:02.805Z</time>
      </trkpt>
      <trkpt lat="48.612586" lon="16.757098">
        <ele>221.677105</ele>
        <time>2020-07-27T04:19:04.791Z</time>
      </trkpt>
      <trkpt lat="48.612537" lon="16.756957">
        <ele>221.676248</ele>
        <time>2020-07-27T04:19:06.789Z</time>
      </trkpt>
      <trkpt lat="48.612495" lon="16.756819">
        <ele>221.675431</ele>
        <time>2020-07-27T04:19:08.800Z</time>
      </trkpt>
      <trkpt lat="48.612445" lon="16.756680">
        <ele>221.674580</ele>
        <time>2020-07-27T04:19:10.810Z</time>
      </trkpt>
      <trkpt lat="48.612392" lon="16.756535">
        <ele>221.673688</ele>
        <time>2020-07-27T04:19:12.781Z</time>
      </trkpt>
      <trkpt lat="48.612338" lon="16.756381">
        <ele>221.672791</ele>
        <time>2020-07-27T04:19:14.807Z</time>
      </trkpt>
      <trkpt lat="48.612287" lon="16.756240">
        <ele>221.672140</ele>
        <time>2020-07-27T04:19:16.803Z</time>
      </trkpt>
      <trkpt lat="48.612240" lon="16.756111">
        <ele>221.671543</ele>
        <time>2020-07-27T04:19:18.792Z</time>
      </trkpt>
      <trkpt lat="48.612189" lon="16.755982">
        <ele>221.670933</ele>
        <time>2020-07-27T04:19:20.806Z</time>
      </trkpt>
      <trkpt lat="48.612136" lon="16.755855">
        <ele>221.670324</ele>
        <time>2020-07-27T04:19:22.817Z</time>
      </trkpt>
      <trkpt lat="48.612085" lon="16.755715">
        <ele>221.669676</ele>
        <time>2020-07-27T04:19:24.788Z</time>
      </trkpt>
      <trkpt lat="48.612030" lon="16.755604">
        <ele>221.669114</ele>
        <time>2020-07-27T04:19:26.797Z</time>
      </trkpt>
      <trkpt lat="48.611908" lon="16.755599">
        <ele>221.668366</ele>
        <time>2020-07-27T04:19:29.791Z</time>
      </trkpt>
      <trkpt lat="48.611843" lon="16.755724">
        <ele>221.667721</ele>
        <time>2020-07-27T04:19:31.787Z</time>
      </trkpt>
      <trkpt lat="48.611768" lon="16.755846">
        <ele>221.667046</ele>
        <time>2020-07-27T04:19:33.818Z</time>
      </trkpt>
      <trkpt lat="48.611699" lon="16.755982">
        <ele>221.666351</ele>
        <time>2020-07-27T04:19:35.776Z</time>
      </trkpt>
      <trkpt lat="48.611638" lon="16.756139">
        <ele>221.665612</ele>
        <time>2020-07-27T04:19:37.781Z</time>
      </trkpt>
      <trkpt lat="48.611576" lon="16.756298">
        <ele>221.664864</ele>
        <time>2020-07-27T04:19:39.773Z</time>
      </trkpt>
      <trkpt lat="48.611520" lon="16.756450">
        <ele>221.664158</ele>
        <time>2020-07-27T04:19:41.799Z</time>
      </trkpt>
      <trkpt lat="48.611458" lon="16.756591">
        <ele>221.663472</ele>
        <time>2020-07-27T04:19:43.805Z</time>
      </trkpt>
      <trkpt lat="48.611377" lon="16.756714">
        <ele>221.662768</ele>
        <time>2020-07-27T04:19:45.812Z</time>
      </trkpt>
      <trkpt lat="48.611279" lon="16.756812">
        <ele>221.662048</ele>
        <time>2020-07-27T04:19:47.802Z</time>
      </trkpt>
      <trkpt lat="48.611169" lon="16.756872">
        <ele>221.725781</ele>
        <time>2020-07-27T04:19:49.800Z</time>
      </trkpt>
      <trkpt lat="48.611058" lon="16.756916">
        <ele>221.806583</ele>
        <time>2020-07-27T04:19:51.780Z</time>
      </trkpt>
      <trkpt lat="48.610950" lon="16.756974">
        <ele>221.887284</ele>
        <time>2020-07-27T04:19:53.785Z</time>
      </trkpt>
      <trkpt lat="48.610845" lon="16.757028">
        <ele>221.965379</ele>
        <time>2020-07-27T04:19:55.794Z</time>
      </trkpt>
      <trkpt lat="48.610745" lon="16.757084">
        <ele>222.040467</ele>
        <time>2020-07-27T04:19:57.802Z</time>
      </trkpt>
      <trkpt lat="48.610642" lon="16.757137">
        <ele>222.117079</ele>
        <time>2020-07-27T04:19:59.802Z</time>
      </trkpt>
      <trkpt lat="48.610541" lon="16.757200">
        <ele>222.194010</ele>
        <time>2020-07-27T04:20:01.816Z</time>
      </trkpt>
      <trkpt lat="48.610446" lon="16.757261">
        <ele>222.266685</ele>
        <time>2020-07-27T04:20:03.795Z</time>
      </trkpt>
      <trkpt lat="48.610343" lon="16.757318">
        <ele>222.343916</ele>
        <time>2020-07-27T04:20:05.786Z</time>
      </trkpt>
      <trkpt lat="48.610249" lon="16.757376">
        <ele>222.415404</ele>
        <time>2020-07-27T04:20:07.784Z</time>
      </trkpt>
      <trkpt lat="48.610151" lon="16.757424">
        <ele>222.487940</ele>
        <time>2020-07-27T04:20:09.804Z</time>
      </trkpt>
      <trkpt lat="48.610049" lon="16.757467">
        <ele>222.562503</ele>
        <time>2020-07-27T04:20:11.779Z</time>
      </trkpt>
      <trkpt lat="48.609945" lon="16.757491">
        <ele>222.636583</ele>
        <time>2020-07-27T04:20:13.788Z</time>
      </trkpt>
      <trkpt lat="48.609838" lon="16.757523">
        <ele>222.713388</ele>
        <time>2020-07-27T04:20:15.783Z</time>
      </trkpt>
      <trkpt lat="48.609731" lon="16.757546">
        <ele>222.789491</ele>
        <time>2020-07-27T04:20:17.806Z</time>
      </trkpt>
      <trkpt lat="48.609624" lon="16.757539">
        <ele>222.864907</ele>
        <time>2020-07-27T04:20:19.817Z</time>
      </trkpt>
      <trkpt lat="48.609519" lon="16.757529">
        <ele>222.932614</ele>
        <time>2020-07-27T04:20:21.801Z</time>
      </trkpt>
      <trkpt lat="48.609429" lon="16.757617">
        <ele>222.962530</ele>
        <time>2020-07-27T04:20:23.809Z</time>
      </trkpt>
      <trkpt lat="48.609319" lon="16.757646">
        <ele>222.993699</ele>
        <time>2020-07-27T04:20:25.786Z</time>
      </trkpt>
      <trkpt lat="48.609208" lon="16.757678">
        <ele>223.025242</ele>
        <time>2020-07-27T04:20:27.804Z</time>
      </trkpt>
      <trkpt lat="48.609094" lon="16.757714">
        <ele>223.057750</ele>
        <time>2020-07-27T04:20:29.791Z</time>
      </trkpt>
      <trkpt lat="48.608983" lon="16.757747">
        <ele>223.089328</ele>
        <time>2020-07-27T04:20:31.801Z</time>
      </trkpt>
      <trkpt lat="48.608876" lon="16.757777">
        <ele>223.119706</ele>
        <time>2020-07-27T04:20:33.790Z</time>
      </trkpt>
      <trkpt lat="48.608764" lon="16.757796">
        <ele>223.151166</ele>
        <time>2020-07-27T04:20:35.784Z</time>
      </trkpt>
      <trkpt lat="48.608657" lon="16.757820">
        <ele>223.181361</ele>
        <time>2020-07-27T04:20:37.782Z</time>
      </trkpt>
      <trkpt lat="48.608561" lon="16.757835">
        <ele>223.208301</ele>
        <time>2020-07-27T04:20:39.785Z</time>
      </trkpt>
      <trkpt lat="48.608470" lon="16.757847">
        <ele>223.233800</ele>
        <time>2020-07-27T04:20:41.800Z</time>
      </trkpt>
      <trkpt lat="48.608372" lon="16.757859">
        <ele>223.261245</ele>
        <time>2020-07-27T04:20:43.786Z</time>
      </trkpt>
      <trkpt lat="48.608276" lon="16.757875">
        <ele>223.288205</ele>
        <time>2020-07-27T04:20:45.800Z</time>
      </trkpt>
      <trkpt lat="48.608187" lon="16.757908">
        <ele>223.313785</ele>
        <time>2020-07-27T04:20:47.805Z</time>
      </trkpt>
      <trkpt lat="48.608095" lon="16.757955">
        <ele>223.340892</ele>
        <time>2020-07-27T04:20:49.802Z</time>
      </trkpt>
      <trkpt lat="48.607997" lon="16.758011">
        <ele>223.370135</ele>
        <time>2020-07-27T04:20:51.789Z</time>
      </trkpt>
      <trkpt lat="48.607898" lon="16.758072">
        <ele>223.399976</ele>
        <time>2020-07-27T04:20:53.797Z</time>
      </trkpt>
      <trkpt lat="48.607800" lon="16.758143">
        <ele>223.430309</ele>
        <time>2020-07-27T04:20:55.783Z</time>
      </trkpt>
      <trkpt lat="48.607699" lon="16.758231">
        <ele>223.468455</ele>
        <time>2020-07-27T04:20:57.780Z</time>
      </trkpt>
      <trkpt lat="48.607591" lon="16.758318">
        <ele>223.508536</ele>
        <time>2020-07-27T04:20:59.821Z</time>
      </trkpt>
      <trkpt lat="48.607492" lon="16.758399">
        <ele>223.545404</ele>
        <time>2020-07-27T04:21:01.818Z</time>
      </trkpt>
      <trkpt lat="48.607396" lon="16.758481">
        <ele>223.581518</ele>
        <time>2020-07-27T04:21:03.808Z</time>
      </trkpt>
      <trkpt lat="48.607299" lon="16.758573">
        <ele>223.619021</ele>
        <time>2020-07-27T04:21:05.796Z</time>
      </trkpt>
      <trkpt lat="48.607210" lon="16.758684">
        <ele>223.656807</ele>
        <time>2020-07-27T04:21:07.806Z</time>
      </trkpt>
      <trkpt lat="48.607132" lon="16.758802">
        <ele>223.692945</ele>
        <time>2020-07-27T04:21:09.831Z</time>
      </trkpt>
      <trkpt lat="48.607053" lon="16.758926">
        <ele>223.730239</ele>
        <time>2020-07-27T04:21:11.775Z</time>
      </trkpt>
      <trkpt lat="48.606978" lon="16.759048">
        <ele>223.766318</ele>
        <time>2020-07-27T04:21:13.789Z</time>
      </trkpt>
      <trkpt lat="48.606898" lon="16.759160">
        <ele>223.802026</ele>
        <time>2020-07-27T04:21:15.816Z</time>
      </trkpt>
      <trkpt lat="48.606827" lon="16.759269">
        <ele>223.835165</ele>
        <time>2020-07-27T04:21:17.806Z</time>
      </trkpt>
      <trkpt lat="48.606757" lon="16.759393">
        <ele>223.870477</ele>
        <time>2020-07-27T04:21:19.794Z</time>
      </trkpt>
      <trkpt lat="48.606690" lon="16.759518">
        <ele>223.905328</ele>
        <time>2020-07-27T04:21:21.793Z</time>
      </trkpt>
      <trkpt lat="48.606626" lon="16.759634">
        <ele>223.938049</ele>
        <time>2020-07-27T04:21:23.810Z</time>
      </trkpt>
      <trkpt lat="48.606563" lon="16.759759">
        <ele>223.972090</ele>
        <time>2020-07-27T04:21:25.813Z</time>
      </trkpt>
      <trkpt lat="48.606501" lon="16.759892">
        <ele>224.007335</ele>
        <time>2020-07-27T04:21:27.791Z</time>
      </trkpt>
      <trkpt lat="48.606434" lon="16.760035">
        <ele>224.029866</ele>
        <time>2020-07-27T04:21:29.807Z</time>
      </trkpt>
      <trkpt lat="48.606371" lon="16.760190">
        <ele>224.045562</ele>
        <time>2020-07-27T04:21:31.786Z</time>
      </trkpt>
      <trkpt lat="48.606306" lon="16.760339">
        <ele>224.060961</ele>
        <time>2020-07-27T04:21:33.799Z</time>
      </trkpt>
      <trkpt lat="48.606250" lon="16.760505">
        <ele>224.077038</ele>
        <time>2020-07-27T04:21:35.802Z</time>
      </trkpt>
      <trkpt lat="48.606197" lon="16.760675">
        <ele>224.093251</ele>
        <time>2020-07-27T04:21:37.801Z</time>
      </trkpt>
      <trkpt lat="48.606155" lon="16.760856">
        <ele>224.109799</ele>
        <time>2020-07-27T04:21:39.814Z</time>
      </trkpt>
      <trkpt lat="48.606133" lon="16.761046">
        <ele>224.126440</ele>
        <time>2020-07-27T04:21:41.776Z</time>
      </trkpt>
      <trkpt lat="48.606120" lon="16.761236">
        <ele>224.142918</ele>
        <time>2020-07-27T04:21:43.794Z</time>
      </trkpt>
      <trkpt lat="48.606111" lon="16.761419">
        <ele>224.158749</ele>
        <time>2020-07-27T04:21:45.805Z</time>
      </trkpt>
      <trkpt lat="48.606105" lon="16.761598">
        <ele>224.174210</ele>
        <time>2020-07-27T04:21:47.807Z</time>
      </trkpt>
      <trkpt lat="48.606097" lon="16.761779">
        <ele>224.189860</ele>
        <time>2020-07-27T04:21:49.799Z</time>
      </trkpt>
      <trkpt lat="48.606091" lon="16.761951">
        <ele>224.204718</ele>
        <time>2020-07-27T04:21:51.809Z</time>
      </trkpt>
      <trkpt lat="48.606093" lon="16.762119">
        <ele>224.219214</ele>
        <time>2020-07-27T04:21:53.807Z</time>
      </trkpt>
      <trkpt lat="48.606094" lon="16.762287">
        <ele>224.233707</ele>
        <time>2020-07-27T04:21:55.810Z</time>
      </trkpt>
      <trkpt lat="48.606092" lon="16.762459">
        <ele>224.248548</ele>
        <time>2020-07-27T04:21:57.787Z</time>
      </trkpt>
      <trkpt lat="48.606088" lon="16.762640">
        <ele>224.183660</ele>
        <time>2020-07-27T04:21:59.794Z</time>
      </trkpt>
      <trkpt lat="48.606083" lon="16.762826">
        <ele>224.068544</ele>
        <time>2020-07-27T04:22:01.789Z</time>
      </trkpt>
      <trkpt lat="48.606078" lon="16.763014">
        <ele>223.952192</ele>
        <time>2020-07-27T04:22:03.785Z</time>
      </trkpt>
      <trkpt lat="48.606078" lon="16.763205">
        <ele>223.834079</ele>
        <time>2020-07-27T04:22:05.793Z</time>
      </trkpt>
      <trkpt lat="48.606078" lon="16.763394">
        <ele>223.717203</ele>
        <time>2020-07-27T04:22:07.778Z</time>
      </trkpt>
      <trkpt lat="48.606078" lon="16.763586">
        <ele>223.598472</ele>
        <time>2020-07-27T04:22:09.794Z</time>
      </trkpt>
      <trkpt lat="48.606081" lon="16.763777">
        <ele>223.480325</ele>
        <time>2020-07-27T04:22:11.794Z</time>
      </trkpt>
      <trkpt lat="48.606076" lon="16.763969">
        <ele>223.361502</ele>
        <time>2020-07-27T04:22:13.783Z</time>
      </trkpt>
      <trkpt lat="48.606071" lon="16.764162">
        <ele>223.242061</ele>
        <time>2020-07-27T04:22:15.803Z</time>
      </trkpt>
      <trkpt lat="48.606068" lon="16.764353">
        <ele>223.123914</ele>
        <time>2020-07-27T04:22:17.798Z</time>
      </trkpt>
      <trkpt lat="48.606064" lon="16.764545">
        <ele>223.005124</ele>
        <time>2020-07-27T04:22:19.814Z</time>
      </trkpt>
      <trkpt lat="48.606055" lon="16.764735">
        <ele>222.887328</ele>
        <time>2020-07-27T04:22:21.836Z</time>
      </trkpt>
      <trkpt lat="48.606044" lon="16.764922">
        <ele>222.771232</ele>
        <time>2020-07-27T04:22:23.803Z</time>
      </trkpt>
      <trkpt lat="48.606040" lon="16.765110">
        <ele>222.654914</ele>
        <time>2020-07-27T04:22:25.776Z</time>
      </trkpt>
      <trkpt lat="48.606034" lon="16.765299">
        <ele>222.550496</ele>
        <time>2020-07-27T04:22:27.787Z</time>
      </trkpt>
      <trkpt lat="48.606024" lon="16.765488">
        <ele>222.476293</ele>
        <time>2020-07-27T04:22:29.801Z</time>
      </trkpt>
      <trkpt lat="48.606016" lon="16.765678">
        <ele>222.401785</ele>
        <time>2020-07-27T04:22:31.802Z</time>
      </trkpt>
      <trkpt lat="48.606006" lon="16.765868">
        <ele>222.327192</ele>
        <time>2020-07-27T04:22:33.820Z</time>
      </trkpt>
      <trkpt lat="48.606001" lon="16.766059">
        <ele>222.252385</ele>
        <time>2020-07-27T04:22:35.782Z</time>
      </trkpt>
      <trkpt lat="48.605977" lon="16.766245">
        <ele>222.178220</ele>
        <time>2020-07-27T04:22:37.801Z</time>
      </trkpt>
      <trkpt lat="48.605968" lon="16.766433">
        <ele>222.104452</ele>
        <time>2020-07-27T04:22:39.808Z</time>
      </trkpt>
      <trkpt lat="48.605969" lon="16.766622">
        <ele>222.030484</ele>
        <time>2020-07-27T04:22:41.817Z</time>
      </trkpt>
      <trkpt lat="48.605961" lon="16.766808">
        <ele>221.957537</ele>
        <time>2020-07-27T04:22:43.813Z</time>
      </trkpt>
      <trkpt lat="48.605939" lon="16.766986">
        <ele>221.886670</ele>
        <time>2020-07-27T04:22:45.801Z</time>
      </trkpt>
      <trkpt lat="48.605895" lon="16.767149">
        <ele>221.817768</ele>
        <time>2020-07-27T04:22:47.801Z</time>
      </trkpt>
      <trkpt lat="48.605830" lon="16.767289">
        <ele>221.750820</ele>
        <time>2020-07-27T04:22:49.801Z</time>
      </trkpt>
      <trkpt lat="48.605765" lon="16.767425">
        <ele>221.685148</ele>
        <time>2020-07-27T04:22:51.798Z</time>
      </trkpt>
      <trkpt lat="48.605702" lon="16.767563">
        <ele>221.619519</ele>
        <time>2020-07-27T04:22:53.784Z</time>
      </trkpt>
      <trkpt lat="48.605650" lon="16.767698">
        <ele>221.558376</ele>
        <time>2020-07-27T04:22:55.799Z</time>
      </trkpt>
      <trkpt lat="48.605614" lon="16.767837">
        <ele>221.506288</ele>
        <time>2020-07-27T04:22:57.790Z</time>
      </trkpt>
      <trkpt lat="48.605592" lon="16.767978">
        <ele>221.496186</ele>
        <time>2020-07-27T04:22:59.794Z</time>
      </trkpt>
      <trkpt lat="48.605578" lon="16.768120">
        <ele>221.486175</ele>
        <time>2020-07-27T04:23:01.785Z</time>
      </trkpt>
      <trkpt lat="48.605564" lon="16.768271">
        <ele>221.475543</ele>
        <time>2020-07-27T04:23:03.806Z</time>
      </trkpt>
      <trkpt lat="48.605554" lon="16.768430">
        <ele>221.464405</ele>
        <time>2020-07-27T04:23:05.801Z</time>
      </trkpt>
      <trkpt lat="48.605546" lon="16.768593">
        <ele>221.453008</ele>
        <time>2020-07-27T04:23:07.803Z</time>
      </trkpt>
      <trkpt lat="48.605553" lon="16.768754">
        <ele>221.441757</ele>
        <time>2020-07-27T04:23:09.793Z</time>
      </trkpt>
      <trkpt lat="48.605562" lon="16.768918">
        <ele>221.430282</ele>
        <time>2020-07-27T04:23:11.783Z</time>
      </trkpt>
      <trkpt lat="48.605570" lon="16.769082">
        <ele>221.418815</ele>
        <time>2020-07-27T04:23:13.801Z</time>
      </trkpt>
      <trkpt lat="48.605580" lon="16.769251">
        <ele>221.406984</ele>
        <time>2020-07-27T04:23:15.802Z</time>
      </trkpt>
      <trkpt lat="48.605586" lon="16.769422">
        <ele>221.395043</ele>
        <time>2020-07-27T04:23:17.802Z</time>
      </trkpt>
      <trkpt lat="48.605590" lon="16.769588">
        <ele>221.383460</ele>
        <time>2020-07-27T04:23:19.814Z</time>
      </trkpt>
      <trkpt lat="48.605599" lon="16.769762">
        <ele>221.371290</ele>
        <time>2020-07-27T04:23:21.782Z</time>
      </trkpt>
      <trkpt lat="48.605608" lon="16.769933">
        <ele>221.359328</ele>
        <time>2020-07-27T04:23:23.831Z</time>
      </trkpt>
      <trkpt lat="48.605617" lon="16.770100">
        <ele>221.347644</ele>
        <time>2020-07-27T04:23:25.788Z</time>
      </trkpt>
      <trkpt lat="48.605627" lon="16.770267">
        <ele>221.335952</ele>
        <time>2020-07-27T04:23:27.793Z</time>
      </trkpt>
      <trkpt lat="48.605637" lon="16.770427">
        <ele>221.324745</ele>
        <time>2020-07-27T04:23:29.813Z</time>
      </trkpt>
      <trkpt lat="48.605644" lon="16.770596">
        <ele>221.305247</ele>
        <time>2020-07-27T04:23:31.791Z</time>
      </trkpt>
      <trkpt lat="48.605657" lon="16.770762">
        <ele>221.275838</ele>
        <time>2020-07-27T04:23:33.823Z</time>
      </trkpt>
      <trkpt lat="48.605671" lon="16.770928">
        <ele>221.246396</ele>
        <time>2020-07-27T04:23:35.801Z</time>
      </trkpt>
      <trkpt lat="48.605681" lon="16.771094">
        <ele>221.217069</ele>
        <time>2020-07-27T04:23:37.801Z</time>
      </trkpt>
      <trkpt lat="48.605676" lon="16.771260">
        <ele>221.187834</ele>
        <time>2020-07-27T04:23:39.810Z</time>
      </trkpt>
      <trkpt lat="48.605657" lon="16.771423">
        <ele>221.158714</ele>
        <time>2020-07-27T04:23:41.787Z</time>
      </trkpt>
      <trkpt lat="48.605623" lon="16.771583">
        <ele>221.129146</ele>
        <time>2020-07-27T04:23:43.786Z</time>
      </trkpt>
      <trkpt lat="48.605590" lon="16.771746">
        <ele>221.099154</ele>
        <time>2020-07-27T04:23:45.829Z</time>
      </trkpt>
      <trkpt lat="48.605562" lon="16.771909">
        <ele>221.069525</ele>
        <time>2020-07-27T04:23:47.793Z</time>
      </trkpt>
      <trkpt lat="48.605534" lon="16.772074">
        <ele>221.039555</ele>
        <time>2020-07-27T04:23:49.796Z</time>
      </trkpt>
      <trkpt lat="48.605507" lon="16.772239">
        <ele>221.009649</ele>
        <time>2020-07-27T04:23:51.795Z</time>
      </trkpt>
      <trkpt lat="48.605479" lon="16.772406">
        <ele>220.979338</ele>
        <time>2020-07-27T04:23:53.801Z</time>
      </trkpt>
      <trkpt lat="48.605451" lon="16.772580">
        <ele>220.947831</ele>
        <time>2020-07-27T04:23:55.803Z</time>
      </trkpt>
      <trkpt lat="48.605427" lon="16.772747">
        <ele>220.917764</ele>
        <time>2020-07-27T04:23:57.799Z</time>
      </trkpt>
      <trkpt lat="48.605406" lon="16.772911">
        <ele>220.888374</ele>
        <time>2020-07-27T04:23:59.828Z</time>
      </trkpt>
      <trkpt lat="48.605389" lon="16.773071">
        <ele>220.859863</ele>
        <time>2020-07-27T04:24:01.804Z</time>
      </trkpt>
      <trkpt lat="48.605374" lon="16.773241">
        <ele>220.846726</ele>
        <time>2020-07-27T04:24:03.800Z</time>
      </trkpt>
      <trkpt lat="48.605361" lon="16.773400">
        <ele>220.867891</ele>
        <time>2020-07-27T04:24:05.813Z</time>
      </trkpt>
      <trkpt lat="48.605353" lon="16.773561">
        <ele>220.889221</ele>
        <time>2020-07-27T04:24:07.792Z</time>
      </trkpt>
      <trkpt lat="48.605340" lon="16.773722">
        <ele>220.910649</ele>
        <time>2020-07-27T04:24:09.795Z</time>
      </trkpt>
      <trkpt lat="48.605321" lon="16.773889">
        <ele>220.933036</ele>
        <time>2020-07-27T04:24:11.800Z</time>
      </trkpt>
      <trkpt lat="48.605293" lon="16.774044">
        <ele>220.954263</ele>
        <time>2020-07-27T04:24:13.808Z</time>
      </trkpt>
      <trkpt lat="48.605266" lon="16.774214">
        <ele>220.977361</ele>
        <time>2020-07-27T04:24:15.818Z</time>
      </trkpt>
      <trkpt lat="48.605238" lon="16.774385">
        <ele>221.000634</ele>
        <time>2020-07-27T04:24:17.787Z</time>
      </trkpt>
      <trkpt lat="48.605201" lon="16.774560">
        <ele>221.024906</ele>
        <time>2020-07-27T04:24:19.786Z</time>
      </trkpt>
      <trkpt lat="48.605149" lon="16.774721">
        <ele>221.048578</ele>
        <time>2020-07-27T04:24:21.796Z</time>
      </trkpt>
      <trkpt lat="48.605092" lon="16.774872">
        <ele>221.071549</ele>
        <time>2020-07-27T04:24:23.815Z</time>
      </trkpt>
      <trkpt lat="48.605035" lon="16.775013">
        <ele>221.093382</ele>
        <time>2020-07-27T04:24:25.799Z</time>
      </trkpt>
      <trkpt lat="48.604982" lon="16.775152">
        <ele>221.114579</ele>
        <time>2020-07-27T04:24:27.806Z</time>
      </trkpt>
      <trkpt lat="48.604935" lon="16.775295">
        <ele>221.135676</ele>
        <time>2020-07-27T04:24:29.797Z</time>
      </trkpt>
      <trkpt lat="48.604889" lon="16.775435">
        <ele>221.156329</ele>
        <time>2020-07-27T04:24:31.782Z</time>
      </trkpt>
      <trkpt lat="48.604844" lon="16.775565">
        <ele>221.175715</ele>
        <time>2020-07-27T04:24:33.810Z</time>
      </trkpt>
      <trkpt lat="48.604798" lon="16.775691">
        <ele>221.194730</ele>
        <time>2020-07-27T04:24:35.811Z</time>
      </trkpt>
      <trkpt lat="48.604756" lon="16.775816">
        <ele>221.222542</ele>
        <time>2020-07-27T04:24:37.811Z</time>
      </trkpt>
      <trkpt lat="48.604719" lon="16.775939">
        <ele>221.251845</ele>
        <time>2020-07-27T04:24:39.822Z</time>
      </trkpt>
      <trkpt lat="48.604670" lon="16.776126">
        <ele>221.295465</ele>
        <time>2020-07-27T04:24:42.803Z</time>
      </trkpt>
      <trkpt lat="48.604622" lon="16.776302">
        <ele>221.336751</ele>
        <time>2020-07-27T04:24:45.805Z</time>
      </trkpt>
      <trkpt lat="48.604579" lon="16.776487">
        <ele>221.379276</ele>
        <time>2020-07-27T04:24:48.795Z</time>
      </trkpt>
      <trkpt lat="48.604545" lon="16.776683">
        <ele>221.423218</ele>
        <time>2020-07-27T04:24:51.791Z</time>
      </trkpt>
      <trkpt lat="48.604515" lon="16.776832">
        <ele>221.456995</ele>
        <time>2020-07-27T04:24:53.820Z</time>
      </trkpt>
      <trkpt lat="48.604490" lon="16.776996">
        <ele>221.493492</ele>
        <time>2020-07-27T04:24:55.813Z</time>
      </trkpt>
      <trkpt lat="48.604471" lon="16.777167">
        <ele>221.531095</ele>
        <time>2020-07-27T04:24:57.822Z</time>
      </trkpt>
      <trkpt lat="48.604447" lon="16.777348">
        <ele>221.571128</ele>
        <time>2020-07-27T04:24:59.794Z</time>
      </trkpt>
      <trkpt lat="48.604412" lon="16.777524">
        <ele>221.610983</ele>
        <time>2020-07-27T04:25:01.797Z</time>
      </trkpt>
      <trkpt lat="48.604380" lon="16.777686">
        <ele>221.647648</ele>
        <time>2020-07-27T04:25:03.809Z</time>
      </trkpt>
      <trkpt lat="48.604338" lon="16.777840">
        <ele>221.683774</ele>
        <time>2020-07-27T04:25:05.802Z</time>
      </trkpt>
      <trkpt lat="48.604288" lon="16.777975">
        <ele>221.717329</ele>
        <time>2020-07-27T04:25:07.794Z</time>
      </trkpt>
      <trkpt lat="48.604285" lon="16.778113">
        <ele>221.747272</ele>
        <time>2020-07-27T04:25:09.778Z</time>
      </trkpt>
      <trkpt lat="48.604295" lon="16.778285">
        <ele>221.784715</ele>
        <time>2020-07-27T04:25:11.792Z</time>
      </trkpt>
      <trkpt lat="48.604307" lon="16.778460">
        <ele>221.808802</ele>
        <time>2020-07-27T04:25:13.829Z</time>
      </trkpt>
      <trkpt lat="48.604314" lon="16.778644">
        <ele>221.832345</ele>
        <time>2020-07-27T04:25:15.807Z</time>
      </trkpt>
      <trkpt lat="48.604293" lon="16.778821">
        <ele>221.855315</ele>
        <time>2020-07-27T04:25:17.799Z</time>
      </trkpt>
      <trkpt lat="48.604251" lon="16.779019">
        <ele>221.881877</ele>
        <time>2020-07-27T04:25:19.798Z</time>
      </trkpt>
      <trkpt lat="48.604180" lon="16.779207">
        <ele>221.909533</ele>
        <time>2020-07-27T04:25:21.794Z</time>
      </trkpt>
      <trkpt lat="48.604100" lon="16.779388">
        <ele>221.937343</ele>
        <time>2020-07-27T04:25:23.788Z</time>
      </trkpt>
      <trkpt lat="48.604009" lon="16.779564">
        <ele>221.965881</ele>
        <time>2020-07-27T04:25:25.790Z</time>
      </trkpt>
      <trkpt lat="48.603909" lon="16.779729">
        <ele>221.994472</ele>
        <time>2020-07-27T04:25:27.794Z</time>
      </trkpt>
      <trkpt lat="48.603805" lon="16.779890">
        <ele>222.023222</ele>
        <time>2020-07-27T04:25:29.796Z</time>
      </trkpt>
      <trkpt lat="48.603707" lon="16.780059">
        <ele>222.051935</ele>
        <time>2020-07-27T04:25:31.833Z</time>
      </trkpt>
      <trkpt lat="48.603612" lon="16.780239">
        <ele>222.081354</ele>
        <time>2020-07-27T04:25:33.790Z</time>
      </trkpt>
      <trkpt lat="48.603513" lon="16.780409">
        <ele>222.110291</ele>
        <time>2020-07-27T04:25:35.828Z</time>
      </trkpt>
      <trkpt lat="48.603416" lon="16.780580">
        <ele>222.142023</ele>
        <time>2020-07-27T04:25:37.783Z</time>
      </trkpt>
      <trkpt lat="48.603316" lon="16.780742">
        <ele>222.198415</ele>
        <time>2020-07-27T04:25:39.785Z</time>
      </trkpt>
      <trkpt lat="48.603228" lon="16.780921">
        <ele>222.255171</ele>
        <time>2020-07-27T04:25:41.810Z</time>
      </trkpt>
      <trkpt lat="48.603148" lon="16.781110">
        <ele>222.312272</ele>
        <time>2020-07-27T04:25:43.799Z</time>
      </trkpt>
      <trkpt lat="48.603074" lon="16.781308">
        <ele>222.370145</ele>
        <time>2020-07-27T04:25:45.804Z</time>
      </trkpt>
      <trkpt lat="48.603012" lon="16.781513">
        <ele>222.427506</ele>
        <time>2020-07-27T04:25:47.791Z</time>
      </trkpt>
      <trkpt lat="48.602941" lon="16.781701">
        <ele>222.482596</ele>
        <time>2020-07-27T04:25:49.782Z</time>
      </trkpt>
      <trkpt lat="48.602849" lon="16.781869">
        <ele>222.538100</ele>
        <time>2020-07-27T04:25:51.794Z</time>
      </trkpt>
      <trkpt lat="48.602746" lon="16.782021">
        <ele>222.593480</ele>
        <time>2020-07-27T04:25:53.784Z</time>
      </trkpt>
      <trkpt lat="48.602632" lon="16.782152">
        <ele>222.648575</ele>
        <time>2020-07-27T04:25:55.789Z</time>
      </trkpt>
      <trkpt lat="48.602527" lon="16.782291">
        <ele>222.702274</ele>
        <time>2020-07-27T04:25:57.817Z</time>
      </trkpt>
      <trkpt lat="48.602415" lon="16.782414">
        <ele>222.755537</ele>
        <time>2020-07-27T04:25:59.790Z</time>
      </trkpt>
      <trkpt lat="48.602317" lon="16.782558">
        <ele>222.808118</ele>
        <time>2020-07-27T04:26:01.789Z</time>
      </trkpt>
      <trkpt lat="48.602222" lon="16.782703">
        <ele>222.755306</ele>
        <time>2020-07-27T04:26:03.802Z</time>
      </trkpt>
      <trkpt lat="48.602130" lon="16.782845">
        <ele>222.639495</ele>
        <time>2020-07-27T04:26:05.795Z</time>
      </trkpt>
      <trkpt lat="48.602049" lon="16.782998">
        <ele>222.525317</ele>
        <time>2020-07-27T04:26:07.801Z</time>
      </trkpt>
      <trkpt lat="48.601970" lon="16.783154">
        <ele>222.410848</ele>
        <time>2020-07-27T04:26:09.789Z</time>
      </trkpt>
      <trkpt lat="48.601904" lon="16.783316">
        <ele>222.299999</ele>
        <time>2020-07-27T04:26:11.795Z</time>
      </trkpt>
      <trkpt lat="48.601846" lon="16.783481">
        <ele>222.191138</ele>
        <time>2020-07-27T04:26:13.777Z</time>
      </trkpt>
      <trkpt lat="48.601796" lon="16.783648">
        <ele>222.084342</ele>
        <time>2020-07-27T04:26:15.801Z</time>
      </trkpt>
      <trkpt lat="48.601755" lon="16.783819">
        <ele>221.978376</ele>
        <time>2020-07-27T04:26:17.805Z</time>
      </trkpt>
      <trkpt lat="48.601729" lon="16.783991">
        <ele>221.875589</ele>
        <time>2020-07-27T04:26:19.800Z</time>
      </trkpt>
      <trkpt lat="48.601695" lon="16.784150">
        <ele>221.778237</ele>
        <time>2020-07-27T04:26:21.798Z</time>
      </trkpt>
      <trkpt lat="48.601647" lon="16.784321">
        <ele>221.670014</ele>
        <time>2020-07-27T04:26:23.803Z</time>
      </trkpt>
      <trkpt lat="48.601594" lon="16.784494">
        <ele>221.558939</ele>
        <time>2020-07-27T04:26:25.813Z</time>
      </trkpt>
      <trkpt lat="48.601551" lon="16.784661">
        <ele>221.454534</ele>
        <time>2020-07-27T04:26:27.793Z</time>
      </trkpt>
      <trkpt lat="48.601505" lon="16.784829">
        <ele>221.348603</ele>
        <time>2020-07-27T04:26:29.829Z</time>
      </trkpt>
      <trkpt lat="48.601457" lon="16.784996">
        <ele>221.243072</ele>
        <time>2020-07-27T04:26:31.813Z</time>
      </trkpt>
      <trkpt lat="48.601407" lon="16.785164">
        <ele>221.187177</ele>
        <time>2020-07-27T04:26:33.823Z</time>
      </trkpt>
      <trkpt lat="48.601356" lon="16.785336">
        <ele>221.129987</ele>
        <time>2020-07-27T04:26:35.798Z</time>
      </trkpt>
      <trkpt lat="48.601326" lon="16.785516">
        <ele>221.073668</ele>
        <time>2020-07-27T04:26:37.793Z</time>
      </trkpt>
      <trkpt lat="48.601287" lon="16.785694">
        <ele>221.016776</ele>
        <time>2020-07-27T04:26:39.792Z</time>
      </trkpt>
      <trkpt lat="48.601249" lon="16.785872">
        <ele>220.960027</ele>
        <time>2020-07-27T04:26:41.788Z</time>
      </trkpt>
      <trkpt lat="48.601218" lon="16.786043">
        <ele>220.906232</ele>
        <time>2020-07-27T04:26:43.813Z</time>
      </trkpt>
      <trkpt lat="48.601196" lon="16.786221">
        <ele>220.851292</ele>
        <time>2020-07-27T04:26:46.790Z</time>
      </trkpt>
      <trkpt lat="48.601284" lon="16.786294">
        <ele>220.805243</ele>
        <time>2020-07-27T04:26:50.781Z</time>
      </trkpt>
      <trkpt lat="48.601376" lon="16.786318">
        <ele>220.762410</ele>
        <time>2020-07-27T04:26:52.791Z</time>
      </trkpt>
      <trkpt lat="48.601470" lon="16.786342">
        <ele>220.718674</ele>
        <time>2020-07-27T04:26:54.776Z</time>
      </trkpt>
      <trkpt lat="48.601563" lon="16.786375">
        <ele>220.674847</ele>
        <time>2020-07-27T04:26:56.785Z</time>
      </trkpt>
      <trkpt lat="48.601653" lon="16.786427">
        <ele>220.630644</ele>
        <time>2020-07-27T04:26:58.808Z</time>
      </trkpt>
      <trkpt lat="48.601744" lon="16.786483">
        <ele>220.585570</ele>
        <time>2020-07-27T04:27:00.797Z</time>
      </trkpt>
      <trkpt lat="48.601832" lon="16.786533">
        <ele>220.542440</ele>
        <time>2020-07-27T04:27:02.796Z</time>
      </trkpt>
      <trkpt lat="48.601922" lon="16.786587">
        <ele>220.498017</ele>
        <time>2020-07-27T04:27:04.806Z</time>
      </trkpt>
      <trkpt lat="48.602018" lon="16.786638">
        <ele>220.451334</ele>
        <time>2020-07-27T04:27:06.816Z</time>
      </trkpt>
      <trkpt lat="48.602109" lon="16.786697">
        <ele>220.387433</ele>
        <time>2020-07-27T04:27:08.798Z</time>
      </trkpt>
      <trkpt lat="48.602208" lon="16.786747">
        <ele>220.269096</ele>
        <time>2020-07-27T04:27:10.786Z</time>
      </trkpt>
      <trkpt lat="48.602307" lon="16.786780">
        <ele>220.154158</ele>
        <time>2020-07-27T04:27:12.788Z</time>
      </trkpt>
      <trkpt lat="48.602403" lon="16.786816">
        <ele>220.042020</ele>
        <time>2020-07-27T04:27:14.810Z</time>
      </trkpt>
      <trkpt lat="48.602503" lon="16.786848">
        <ele>219.926133</ele>
        <time>2020-07-27T04:27:16.813Z</time>
      </trkpt>
      <trkpt lat="48.602608" lon="16.786882">
        <ele>219.804389</ele>
        <time>2020-07-27T04:27:18.791Z</time>
      </trkpt>
      <trkpt lat="48.602714" lon="16.786916">
        <ele>219.681536</ele>
        <time>2020-07-27T04:27:20.791Z</time>
      </trkpt>
      <trkpt lat="48.602819" lon="16.786954">
        <ele>219.559129</ele>
        <time>2020-07-27T04:27:22.803Z</time>
      </trkpt>
      <trkpt lat="48.602926" lon="16.786986">
        <ele>219.435466</ele>
        <time>2020-07-27T04:27:24.786Z</time>
      </trkpt>
      <trkpt lat="48.603034" lon="16.787011">
        <ele>219.311593</ele>
        <time>2020-07-27T04:27:26.792Z</time>
      </trkpt>
      <trkpt lat="48.603139" lon="16.787045">
        <ele>219.189849</ele>
        <time>2020-07-27T04:27:28.791Z</time>
      </trkpt>
      <trkpt lat="48.603243" lon="16.787081">
        <ele>219.068888</ele>
        <time>2020-07-27T04:27:30.801Z</time>
      </trkpt>
      <trkpt lat="48.603351" lon="16.787118">
        <ele>218.943338</ele>
        <time>2020-07-27T04:27:32.797Z</time>
      </trkpt>
      <trkpt lat="48.603458" lon="16.787152">
        <ele>218.819376</ele>
        <time>2020-07-27T04:27:34.810Z</time>
      </trkpt>
      <trkpt lat="48.603563" lon="16.787179">
        <ele>218.698622</ele>
        <time>2020-07-27T04:27:36.788Z</time>
      </trkpt>
      <trkpt lat="48.603663" lon="16.787204">
        <ele>218.583706</ele>
        <time>2020-07-27T04:27:38.801Z</time>
      </trkpt>
      <trkpt lat="48.603760" lon="16.787222">
        <ele>218.472906</ele>
        <time>2020-07-27T04:27:40.819Z</time>
      </trkpt>
      <trkpt lat="48.603853" lon="16.787250">
        <ele>218.381132</ele>
        <time>2020-07-27T04:27:42.799Z</time>
      </trkpt>
      <trkpt lat="48.603944" lon="16.787281">
        <ele>218.395706</ele>
        <time>2020-07-27T04:27:44.806Z</time>
      </trkpt>
      <trkpt lat="48.604061" lon="16.787316">
        <ele>218.414341</ele>
        <time>2020-07-27T04:27:47.792Z</time>
      </trkpt>
      <trkpt lat="48.604175" lon="16.787354">
        <ele>218.432580</ele>
        <time>2020-07-27T04:27:50.808Z</time>
      </trkpt>
      <trkpt lat="48.604289" lon="16.787398">
        <ele>218.450962</ele>
        <time>2020-07-27T04:27:53.797Z</time>
      </trkpt>
      <trkpt lat="48.604376" lon="16.787502">
        <ele>218.468289</ele>
        <time>2020-07-27T04:27:56.793Z</time>
      </trkpt>
      <trkpt lat="48.604330" lon="16.787651">
        <ele>218.485278</ele>
        <time>2020-07-27T04:27:58.788Z</time>
      </trkpt>
      <trkpt lat="48.604277" lon="16.787810">
        <ele>218.503675</ele>
        <time>2020-07-27T04:28:00.784Z</time>
      </trkpt>
      <trkpt lat="48.604234" lon="16.787976">
        <ele>218.522094</ele>
        <time>2020-07-27T04:28:02.797Z</time>
      </trkpt>
      <trkpt lat="48.604193" lon="16.788146">
        <ele>218.540790</ele>
        <time>2020-07-27T04:28:04.785Z</time>
      </trkpt>
      <trkpt lat="48.604149" lon="16.788318">
        <ele>218.559844</ele>
        <time>2020-07-27T04:28:06.796Z</time>
      </trkpt>
      <trkpt lat="48.604104" lon="16.788489">
        <ele>218.578858</ele>
        <time>2020-07-27T04:28:08.793Z</time>
      </trkpt>
      <trkpt lat="48.604055" lon="16.788662">
        <ele>218.598303</ele>
        <time>2020-07-27T04:28:10.792Z</time>
      </trkpt>
      <trkpt lat="48.604006" lon="16.788832">
        <ele>218.617463</ele>
        <time>2020-07-27T04:28:12.796Z</time>
      </trkpt>
      <trkpt lat="48.603961" lon="16.789006">
        <ele>218.636766</ele>
        <time>2020-07-27T04:28:14.792Z</time>
      </trkpt>
      <trkpt lat="48.603919" lon="16.789180">
        <ele>218.655903</ele>
        <time>2020-07-27T04:28:16.794Z</time>
      </trkpt>
      <trkpt lat="48.603880" lon="16.789356">
        <ele>218.717531</ele>
        <time>2020-07-27T04:28:18.785Z</time>
      </trkpt>
      <trkpt lat="48.603847" lon="16.789537">
        <ele>218.792453</ele>
        <time>2020-07-27T04:28:20.792Z</time>
      </trkpt>
      <trkpt lat="48.603816" lon="16.789717">
        <ele>218.866677</ele>
        <time>2020-07-27T04:28:22.785Z</time>
      </trkpt>
      <trkpt lat="48.603784" lon="16.789897">
        <ele>218.941055</ele>
        <time>2020-07-27T04:28:24.784Z</time>
      </trkpt>
      <trkpt lat="48.603754" lon="16.790079">
        <ele>219.015904</ele>
        <time>2020-07-27T04:28:26.804Z</time>
      </trkpt>
      <trkpt lat="48.603724" lon="16.790261">
        <ele>219.090752</ele>
        <time>2020-07-27T04:28:28.799Z</time>
      </trkpt>
      <trkpt lat="48.603698" lon="16.790446">
        <ele>219.166224</ele>
        <time>2020-07-27T04:28:30.817Z</time>
      </trkpt>
      <trkpt lat="48.603669" lon="16.790628">
        <ele>219.240929</ele>
        <time>2020-07-27T04:28:32.803Z</time>
      </trkpt>
      <trkpt lat="48.603642" lon="16.790808">
        <ele>219.314582</ele>
        <time>2020-07-27T04:28:34.800Z</time>
      </trkpt>
      <trkpt lat="48.603616" lon="16.790988">
        <ele>219.388104</ele>
        <time>2020-07-27T04:28:36.821Z</time>
      </trkpt>
      <trkpt lat="48.603592" lon="16.791166">
        <ele>219.460596</ele>
        <time>2020-07-27T04:28:38.787Z</time>
      </trkpt>
      <trkpt lat="48.603572" lon="16.791344">
        <ele>219.532644</ele>
        <time>2020-07-27T04:28:40.792Z</time>
      </trkpt>
      <trkpt lat="48.603554" lon="16.791524">
        <ele>219.605289</ele>
        <time>2020-07-27T04:28:42.787Z</time>
      </trkpt>
      <trkpt lat="48.603542" lon="16.791705">
        <ele>219.677878</ele>
        <time>2020-07-27T04:28:44.785Z</time>
      </trkpt>
      <trkpt lat="48.603530" lon="16.791883">
        <ele>219.746420</ele>
        <time>2020-07-27T04:28:46.793Z</time>
      </trkpt>
      <trkpt lat="48.603524" lon="16.792059">
        <ele>219.761253</ele>
        <time>2020-07-27T04:28:48.792Z</time>
      </trkpt>
      <trkpt lat="48.603512" lon="16.792242">
        <ele>219.776732</ele>
        <time>2020-07-27T04:28:50.793Z</time>
      </trkpt>
      <trkpt lat="48.603497" lon="16.792426">
        <ele>219.792337</ele>
        <time>2020-07-27T04:28:52.796Z</time>
      </trkpt>
      <trkpt lat="48.603483" lon="16.792606">
        <ele>219.807592</ele>
        <time>2020-07-27T04:28:54.787Z</time>
      </trkpt>
      <trkpt lat="48.603469" lon="16.792788">
        <ele>219.823015</ele>
        <time>2020-07-27T04:28:56.835Z</time>
      </trkpt>
      <trkpt lat="48.603458" lon="16.792967">
        <ele>219.838146</ele>
        <time>2020-07-27T04:28:58.808Z</time>
      </trkpt>
      <trkpt lat="48.603450" lon="16.793148">
        <ele>219.853415</ele>
        <time>2020-07-27T04:29:00.791Z</time>
      </trkpt>
      <trkpt lat="48.603442" lon="16.793326">
        <ele>219.868432</ele>
        <time>2020-07-27T04:29:02.815Z</time>
      </trkpt>
      <trkpt lat="48.603431" lon="16.793504">
        <ele>219.883480</ele>
        <time>2020-07-27T04:29:04.802Z</time>
      </trkpt>
      <trkpt lat="48.603424" lon="16.793682">
        <ele>219.898489</ele>
        <time>2020-07-27T04:29:06.805Z</time>
      </trkpt>
      <trkpt lat="48.603418" lon="16.793864">
        <ele>219.913827</ele>
        <time>2020-07-27T04:29:08.793Z</time>
      </trkpt>
      <trkpt lat="48.603406" lon="16.794046">
        <ele>219.929223</ele>
        <time>2020-07-27T04:29:10.805Z</time>
      </trkpt>
      <trkpt lat="48.603394" lon="16.794223">
        <ele>219.944199</ele>
        <time>2020-07-27T04:29:12.774Z</time>
      </trkpt>
      <trkpt lat="48.603386" lon="16.794393">
        <ele>219.958544</ele>
        <time>2020-07-27T04:29:14.796Z</time>
      </trkpt>
      <trkpt lat="48.603375" lon="16.794567">
        <ele>219.973257</ele>
        <time>2020-07-27T04:29:16.784Z</time>
      </trkpt>
      <trkpt lat="48.603365" lon="16.794744">
        <ele>219.975169</ele>
        <time>2020-07-27T04:29:18.818Z</time>
      </trkpt>
      <trkpt lat="48.603357" lon="16.794923">
        <ele>219.975799</ele>
        <time>2020-07-27T04:29:20.783Z</time>
      </trkpt>
      <trkpt lat="48.603349" lon="16.795098">
        <ele>219.976415</ele>
        <time>2020-07-27T04:29:22.782Z</time>
      </trkpt>
      <trkpt lat="48.603341" lon="16.795273">
        <ele>219.977031</ele>
        <time>2020-07-27T04:29:24.807Z</time>
      </trkpt>
      <trkpt lat="48.603330" lon="16.795451">
        <ele>219.977659</ele>
        <time>2020-07-27T04:29:26.804Z</time>
      </trkpt>
      <trkpt lat="48.603318" lon="16.795630">
        <ele>219.978291</ele>
        <time>2020-07-27T04:29:28.783Z</time>
      </trkpt>
      <trkpt lat="48.603308" lon="16.795808">
        <ele>219.978918</ele>
        <time>2020-07-27T04:29:30.815Z</time>
      </trkpt>
      <trkpt lat="48.603299" lon="16.795986">
        <ele>219.979545</ele>
        <time>2020-07-27T04:29:32.800Z</time>
      </trkpt>
      <trkpt lat="48.603292" lon="16.796167">
        <ele>219.980182</ele>
        <time>2020-07-27T04:29:34.823Z</time>
      </trkpt>
      <trkpt lat="48.603284" lon="16.796348">
        <ele>219.980818</ele>
        <time>2020-07-27T04:29:36.799Z</time>
      </trkpt>
      <trkpt lat="48.603277" lon="16.796519">
        <ele>219.981420</ele>
        <time>2020-07-27T04:29:38.791Z</time>
      </trkpt>
      <trkpt lat="48.603269" lon="16.796689">
        <ele>219.982019</ele>
        <time>2020-07-27T04:29:40.786Z</time>
      </trkpt>
      <trkpt lat="48.603257" lon="16.796864">
        <ele>219.982636</ele>
        <time>2020-07-27T04:29:42.796Z</time>
      </trkpt>
      <trkpt lat="48.603243" lon="16.797038">
        <ele>219.983252</ele>
        <time>2020-07-27T04:29:44.811Z</time>
      </trkpt>
      <trkpt lat="48.603230" lon="16.797213">
        <ele>219.983870</ele>
        <time>2020-07-27T04:29:46.794Z</time>
      </trkpt>
      <trkpt lat="48.603220" lon="16.797385">
        <ele>220.009287</ele>
        <time>2020-07-27T04:29:48.818Z</time>
      </trkpt>
      <trkpt lat="48.603215" lon="16.797559">
        <ele>220.056748</ele>
        <time>2020-07-27T04:29:50.785Z</time>
      </trkpt>
      <trkpt lat="48.603211" lon="16.797729">
        <ele>220.103104</ele>
        <time>2020-07-27T04:29:52.791Z</time>
      </trkpt>
      <trkpt lat="48.603209" lon="16.797897">
        <ele>220.148893</ele>
        <time>2020-07-27T04:29:54.782Z</time>
      </trkpt>
      <trkpt lat="48.603200" lon="16.798060">
        <ele>220.193466</ele>
        <time>2020-07-27T04:29:56.804Z</time>
      </trkpt>
      <trkpt lat="48.603189" lon="16.798222">
        <ele>220.237844</ele>
        <time>2020-07-27T04:29:58.792Z</time>
      </trkpt>
      <trkpt lat="48.603181" lon="16.798398">
        <ele>220.285919</ele>
        <time>2020-07-27T04:30:00.785Z</time>
      </trkpt>
      <trkpt lat="48.603174" lon="16.798573">
        <ele>220.333695</ele>
        <time>2020-07-27T04:30:02.788Z</time>
      </trkpt>
      <trkpt lat="48.603167" lon="16.798744">
        <ele>220.380383</ele>
        <time>2020-07-27T04:30:04.787Z</time>
      </trkpt>
      <trkpt lat="48.603162" lon="16.798914">
        <ele>220.426755</ele>
        <time>2020-07-27T04:30:06.832Z</time>
      </trkpt>
      <trkpt lat="48.603155" lon="16.799084">
        <ele>220.473171</ele>
        <time>2020-07-27T04:30:08.801Z</time>
      </trkpt>
      <trkpt lat="48.603149" lon="16.799255">
        <ele>220.519836</ele>
        <time>2020-07-27T04:30:10.785Z</time>
      </trkpt>
      <trkpt lat="48.603144" lon="16.799427">
        <ele>220.566752</ele>
        <time>2020-07-27T04:30:12.798Z</time>
      </trkpt>
      <trkpt lat="48.603142" lon="16.799608">
        <ele>220.616083</ele>
        <time>2020-07-27T04:30:14.800Z</time>
      </trkpt>
      <trkpt lat="48.603139" lon="16.799795">
        <ele>220.667057</ele>
        <time>2020-07-27T04:30:16.833Z</time>
      </trkpt>
      <trkpt lat="48.603134" lon="16.799981">
        <ele>220.717785</ele>
        <time>2020-07-27T04:30:18.811Z</time>
      </trkpt>
      <trkpt lat="48.603127" lon="16.800166">
        <ele>220.757512</ele>
        <time>2020-07-27T04:30:20.785Z</time>
      </trkpt>
      <trkpt lat="48.603119" lon="16.800352">
        <ele>220.795558</ele>
        <time>2020-07-27T04:30:22.790Z</time>
      </trkpt>
      <trkpt lat="48.603110" lon="16.800539">
        <ele>220.833829</ele>
        <time>2020-07-27T04:30:24.795Z</time>
      </trkpt>
      <trkpt lat="48.603100" lon="16.800724">
        <ele>220.871717</ele>
        <time>2020-07-27T04:30:26.809Z</time>
      </trkpt>
      <trkpt lat="48.603091" lon="16.800900">
        <ele>220.907749</ele>
        <time>2020-07-27T04:30:28.934Z</time>
      </trkpt>
      <trkpt lat="48.603081" lon="16.801079">
        <ele>220.944417</ele>
        <time>2020-07-27T04:30:30.792Z</time>
      </trkpt>
      <trkpt lat="48.603071" lon="16.801256">
        <ele>220.980677</ele>
        <time>2020-07-27T04:30:32.781Z</time>
      </trkpt>
      <trkpt lat="48.603062" lon="16.801443">
        <ele>221.018948</ele>
        <time>2020-07-27T04:30:34.789Z</time>
      </trkpt>
      <trkpt lat="48.603053" lon="16.801635">
        <ele>221.058237</ele>
        <time>2020-07-27T04:30:36.809Z</time>
      </trkpt>
      <trkpt lat="48.603040" lon="16.801824">
        <ele>221.097024</ele>
        <time>2020-07-27T04:30:38.791Z</time>
      </trkpt>
      <trkpt lat="48.603028" lon="16.802007">
        <ele>221.134561</ele>
        <time>2020-07-27T04:30:40.783Z</time>
      </trkpt>
      <trkpt lat="48.603014" lon="16.802190">
        <ele>221.172164</ele>
        <time>2020-07-27T04:30:42.802Z</time>
      </trkpt>
      <trkpt lat="48.602993" lon="16.802361">
        <ele>221.207665</ele>
        <time>2020-07-27T04:30:44.822Z</time>
      </trkpt>
      <trkpt lat="48.602970" lon="16.802541">
        <ele>221.245086</ele>
        <time>2020-07-27T04:30:46.804Z</time>
      </trkpt>
      <trkpt lat="48.602944" lon="16.802722">
        <ele>221.278511</ele>
        <time>2020-07-27T04:30:48.801Z</time>
      </trkpt>
      <trkpt lat="48.602920" lon="16.802896">
        <ele>221.246475</ele>
        <time>2020-07-27T04:30:50.780Z</time>
      </trkpt>
      <trkpt lat="48.602892" lon="16.803068">
        <ele>221.214548</ele>
        <time>2020-07-27T04:30:52.787Z</time>
      </trkpt>
      <trkpt lat="48.602868" lon="16.803241">
        <ele>221.182688</ele>
        <time>2020-07-27T04:30:54.796Z</time>
      </trkpt>
      <trkpt lat="48.602841" lon="16.803419">
        <ele>221.149773</ele>
        <time>2020-07-27T04:30:56.795Z</time>
      </trkpt>
      <trkpt lat="48.602815" lon="16.803596">
        <ele>221.117093</ele>
        <time>2020-07-27T04:30:58.792Z</time>
      </trkpt>
      <trkpt lat="48.602794" lon="16.803769">
        <ele>221.085390</ele>
        <time>2020-07-27T04:31:00.810Z</time>
      </trkpt>
      <trkpt lat="48.602772" lon="16.803945">
        <ele>221.053107</ele>
        <time>2020-07-27T04:31:02.805Z</time>
      </trkpt>
      <trkpt lat="48.602753" lon="16.804120">
        <ele>221.021143</ele>
        <time>2020-07-27T04:31:04.795Z</time>
      </trkpt>
      <trkpt lat="48.602733" lon="16.804295">
        <ele>220.989133</ele>
        <time>2020-07-27T04:31:06.801Z</time>
      </trkpt>
      <trkpt lat="48.602716" lon="16.804462">
        <ele>220.958679</ele>
        <time>2020-07-27T04:31:08.795Z</time>
      </trkpt>
      <trkpt lat="48.602695" lon="16.804632">
        <ele>220.927508</ele>
        <time>2020-07-27T04:31:10.817Z</time>
      </trkpt>
      <trkpt lat="48.602673" lon="16.804798">
        <ele>220.896994</ele>
        <time>2020-07-27T04:31:12.772Z</time>
      </trkpt>
      <trkpt lat="48.602649" lon="16.804964">
        <ele>220.866367</ele>
        <time>2020-07-27T04:31:14.788Z</time>
      </trkpt>
      <trkpt lat="48.602627" lon="16.805131">
        <ele>220.835676</ele>
        <time>2020-07-27T04:31:16.800Z</time>
      </trkpt>
      <trkpt lat="48.602606" lon="16.805302">
        <ele>220.804328</ele>
        <time>2020-07-27T04:31:18.789Z</time>
      </trkpt>
      <trkpt lat="48.602586" lon="16.805470">
        <ele>220.759549</ele>
        <time>2020-07-27T04:31:20.781Z</time>
      </trkpt>
      <trkpt lat="48.602568" lon="16.805636">
        <ele>220.703886</ele>
        <time>2020-07-27T04:31:22.789Z</time>
      </trkpt>
      <trkpt lat="48.602552" lon="16.805802">
        <ele>220.648377</ele>
        <time>2020-07-27T04:31:24.818Z</time>
      </trkpt>
      <trkpt lat="48.602531" lon="16.805973">
        <ele>220.590826</ele>
        <time>2020-07-27T04:31:26.785Z</time>
      </trkpt>
      <trkpt lat="48.602509" lon="16.806142">
        <ele>220.533830</ele>
        <time>2020-07-27T04:31:28.802Z</time>
      </trkpt>
      <trkpt lat="48.602487" lon="16.806311">
        <ele>220.476835</ele>
        <time>2020-07-27T04:31:30.775Z</time>
      </trkpt>
      <trkpt lat="48.602466" lon="16.806481">
        <ele>220.419609</ele>
        <time>2020-07-27T04:31:32.825Z</time>
      </trkpt>
      <trkpt lat="48.602446" lon="16.806659">
        <ele>220.359865</ele>
        <time>2020-07-27T04:31:34.788Z</time>
      </trkpt>
      <trkpt lat="48.602426" lon="16.806841">
        <ele>220.298816</ele>
        <time>2020-07-27T04:31:36.793Z</time>
      </trkpt>
      <trkpt lat="48.602405" lon="16.807026">
        <ele>220.236704</ele>
        <time>2020-07-27T04:31:38.809Z</time>
      </trkpt>
      <trkpt lat="48.602382" lon="16.807208">
        <ele>220.175390</ele>
        <time>2020-07-27T04:31:40.810Z</time>
      </trkpt>
      <trkpt lat="48.602357" lon="16.807391">
        <ele>220.113557</ele>
        <time>2020-07-27T04:31:42.784Z</time>
      </trkpt>
      <trkpt lat="48.602334" lon="16.807574">
        <ele>220.051918</ele>
        <time>2020-07-27T04:31:44.800Z</time>
      </trkpt>
      <trkpt lat="48.602312" lon="16.807754">
        <ele>219.991348</ele>
        <time>2020-07-27T04:31:46.802Z</time>
      </trkpt>
      <trkpt lat="48.602288" lon="16.807930">
        <ele>219.931884</ele>
        <time>2020-07-27T04:31:48.799Z</time>
      </trkpt>
      <trkpt lat="48.602265" lon="16.808105">
        <ele>219.875431</ele>
        <time>2020-07-27T04:31:50.813Z</time>
      </trkpt>
      <trkpt lat="48.602241" lon="16.808283">
        <ele>219.824232</ele>
        <time>2020-07-27T04:31:52.793Z</time>
      </trkpt>
      <trkpt lat="48.602227" lon="16.808448">
        <ele>219.777347</ele>
        <time>2020-07-27T04:31:54.787Z</time>
      </trkpt>
      <trkpt lat="48.602214" lon="16.808618">
        <ele>219.729115</ele>
        <time>2020-07-27T04:31:56.806Z</time>
      </trkpt>
      <trkpt lat="48.602199" lon="16.808779">
        <ele>219.683291</ele>
        <time>2020-07-27T04:31:58.803Z</time>
      </trkpt>
      <trkpt lat="48.602184" lon="16.808936">
        <ele>219.638583</ele>
        <time>2020-07-27T04:32:00.807Z</time>
      </trkpt>
      <trkpt lat="48.602169" lon="16.809089">
        <ele>219.594990</ele>
        <time>2020-07-27T04:32:02.788Z</time>
      </trkpt>
      <trkpt lat="48.602150" lon="16.809241">
        <ele>219.551392</ele>
        <time>2020-07-27T04:32:04.799Z</time>
      </trkpt>
      <trkpt lat="48.602126" lon="16.809391">
        <ele>219.507896</ele>
        <time>2020-07-27T04:32:06.792Z</time>
      </trkpt>
      <trkpt lat="48.602094" lon="16.809544">
        <ele>219.462669</ele>
        <time>2020-07-27T04:32:08.785Z</time>
      </trkpt>
      <trkpt lat="48.602057" lon="16.809698">
        <ele>219.416490</ele>
        <time>2020-07-27T04:32:10.780Z</time>
      </trkpt>
      <trkpt lat="48.602010" lon="16.809853">
        <ele>219.368431</ele>
        <time>2020-07-27T04:32:12.798Z</time>
      </trkpt>
      <trkpt lat="48.601962" lon="16.810016">
        <ele>219.318142</ele>
        <time>2020-07-27T04:32:14.791Z</time>
      </trkpt>
      <trkpt lat="48.601912" lon="16.810183">
        <ele>219.266475</ele>
        <time>2020-07-27T04:32:16.811Z</time>
      </trkpt>
      <trkpt lat="48.601865" lon="16.810342">
        <ele>219.217389</ele>
        <time>2020-07-27T04:32:18.786Z</time>
      </trkpt>
      <trkpt lat="48.601817" lon="16.810500">
        <ele>219.168384</ele>
        <time>2020-07-27T04:32:20.781Z</time>
      </trkpt>
      <trkpt lat="48.601767" lon="16.810661">
        <ele>219.116761</ele>
        <time>2020-07-27T04:32:22.789Z</time>
      </trkpt>
      <trkpt lat="48.601716" lon="16.810824">
        <ele>219.052059</ele>
        <time>2020-07-27T04:32:24.803Z</time>
      </trkpt>
      <trkpt lat="48.601662" lon="16.810984">
        <ele>218.987605</ele>
        <time>2020-07-27T04:32:26.790Z</time>
      </trkpt>
      <trkpt lat="48.601614" lon="16.811149">
        <ele>218.922926</ele>
        <time>2020-07-27T04:32:28.830Z</time>
      </trkpt>
      <trkpt lat="48.601566" lon="16.811314">
        <ele>218.858248</ele>
        <time>2020-07-27T04:32:30.784Z</time>
      </trkpt>
      <trkpt lat="48.601519" lon="16.811472">
        <ele>218.796084</ele>
        <time>2020-07-27T04:32:32.790Z</time>
      </trkpt>
      <trkpt lat="48.601474" lon="16.811635">
        <ele>218.732706</ele>
        <time>2020-07-27T04:32:34.793Z</time>
      </trkpt>
      <trkpt lat="48.601433" lon="16.811798">
        <ele>218.670132</ele>
        <time>2020-07-27T04:32:36.782Z</time>
      </trkpt>
      <trkpt lat="48.601390" lon="16.811963">
        <ele>218.606497</ele>
        <time>2020-07-27T04:32:38.786Z</time>
      </trkpt>
      <trkpt lat="48.601352" lon="16.812122">
        <ele>218.545835</ele>
        <time>2020-07-27T04:32:40.802Z</time>
      </trkpt>
      <trkpt lat="48.601318" lon="16.812263">
        <ele>218.491984</ele>
        <time>2020-07-27T04:32:42.799Z</time>
      </trkpt>
      <trkpt lat="48.601285" lon="16.812435">
        <ele>218.427723</ele>
        <time>2020-07-27T04:32:45.786Z</time>
      </trkpt>
      <trkpt lat="48.601270" lon="16.812574">
        <ele>218.377189</ele>
        <time>2020-07-27T04:32:48.808Z</time>
      </trkpt>
      <trkpt lat="48.601252" lon="16.812750">
        <ele>218.313287</ele>
        <time>2020-07-27T04:32:51.807Z</time>
      </trkpt>
      <trkpt lat="48.601239" lon="16.812924">
        <ele>218.250457</ele>
        <time>2020-07-27T04:32:53.781Z</time>
      </trkpt>
      <trkpt lat="48.601225" lon="16.813124">
        <ele>218.178294</ele>
        <time>2020-07-27T04:32:55.803Z</time>
      </trkpt>
      <trkpt lat="48.601205" lon="16.813336">
        <ele>218.082611</ele>
        <time>2020-07-27T04:32:57.787Z</time>
      </trkpt>
      <trkpt lat="48.601182" lon="16.813539">
        <ele>217.978657</ele>
        <time>2020-07-27T04:32:59.792Z</time>
      </trkpt>
      <trkpt lat="48.601162" lon="16.813731">
        <ele>217.880553</ele>
        <time>2020-07-27T04:33:01.786Z</time>
      </trkpt>
      <trkpt lat="48.601140" lon="16.813918">
        <ele>217.784685</ele>
        <time>2020-07-27T04:33:03.789Z</time>
      </trkpt>
      <trkpt lat="48.601120" lon="16.814106">
        <ele>217.688575</ele>
        <time>2020-07-27T04:33:05.782Z</time>
      </trkpt>
      <trkpt lat="48.601102" lon="16.814293">
        <ele>217.593194</ele>
        <time>2020-07-27T04:33:07.795Z</time>
      </trkpt>
      <trkpt lat="48.601083" lon="16.814479">
        <ele>217.498200</ele>
        <time>2020-07-27T04:33:09.816Z</time>
      </trkpt>
      <trkpt lat="48.601067" lon="16.814668">
        <ele>217.402026</ele>
        <time>2020-07-27T04:33:11.825Z</time>
      </trkpt>
      <trkpt lat="48.601050" lon="16.814852">
        <ele>217.308252</ele>
        <time>2020-07-27T04:33:13.799Z</time>
      </trkpt>
      <trkpt lat="48.601035" lon="16.815037">
        <ele>217.214176</ele>
        <time>2020-07-27T04:33:15.786Z</time>
      </trkpt>
      <trkpt lat="48.601024" lon="16.815222">
        <ele>217.120423</ele>
        <time>2020-07-27T04:33:17.813Z</time>
      </trkpt>
      <trkpt lat="48.601009" lon="16.815405">
        <ele>217.027349</ele>
        <time>2020-07-27T04:33:19.800Z</time>
      </trkpt>
      <trkpt lat="48.600992" lon="16.815585">
        <ele>216.935575</ele>
        <time>2020-07-27T04:33:21.804Z</time>
      </trkpt>
      <trkpt lat="48.600979" lon="16.815761">
        <ele>216.846188</ele>
        <time>2020-07-27T04:33:23.805Z</time>
      </trkpt>
      <trkpt lat="48.600967" lon="16.815934">
        <ele>216.749072</ele>
        <time>2020-07-27T04:33:25.797Z</time>
      </trkpt>
      <trkpt lat="48.600955" lon="16.816113">
        <ele>216.607234</ele>
        <time>2020-07-27T04:33:27.808Z</time>
      </trkpt>
      <trkpt lat="48.600940" lon="16.816293">
        <ele>216.464209</ele>
        <time>2020-07-27T04:33:29.811Z</time>
      </trkpt>
      <trkpt lat="48.600921" lon="16.816474">
        <ele>216.319732</ele>
        <time>2020-07-27T04:33:31.783Z</time>
      </trkpt>
      <trkpt lat="48.600905" lon="16.816657">
        <ele>216.174208</ele>
        <time>2020-07-27T04:33:33.801Z</time>
      </trkpt>
      <trkpt lat="48.600889" lon="16.816837">
        <ele>216.031029</ele>
        <time>2020-07-27T04:33:35.818Z</time>
      </trkpt>
      <trkpt lat="48.600868" lon="16.817017">
        <ele>215.886935</ele>
        <time>2020-07-27T04:33:37.781Z</time>
      </trkpt>
      <trkpt lat="48.600850" lon="16.817197">
        <ele>215.743418</ele>
        <time>2020-07-27T04:33:39.780Z</time>
      </trkpt>
      <trkpt lat="48.600833" lon="16.817378">
        <ele>215.599295</ele>
        <time>2020-07-27T04:33:41.789Z</time>
      </trkpt>
      <trkpt lat="48.600841" lon="16.817557">
        <ele>215.457858</ele>
        <time>2020-07-27T04:33:43.790Z</time>
      </trkpt>
      <trkpt lat="48.600919" lon="16.817686">
        <ele>215.320059</ele>
        <time>2020-07-27T04:33:45.791Z</time>
      </trkpt>
      <trkpt lat="48.601018" lon="16.817786">
        <ele>215.178131</ele>
        <time>2020-07-27T04:33:47.780Z</time>
      </trkpt>
      <trkpt lat="48.601099" lon="16.817902">
        <ele>215.045138</ele>
        <time>2020-07-27T04:33:49.817Z</time>
      </trkpt>
      <trkpt lat="48.601181" lon="16.817996">
        <ele>214.922471</ele>
        <time>2020-07-27T04:33:51.799Z</time>
      </trkpt>
      <trkpt lat="48.601278" lon="16.818073">
        <ele>214.791871</ele>
        <time>2020-07-27T04:33:53.811Z</time>
      </trkpt>
      <trkpt lat="48.601370" lon="16.818135">
        <ele>214.671797</ele>
        <time>2020-07-27T04:33:55.783Z</time>
      </trkpt>
      <trkpt lat="48.601461" lon="16.818199">
        <ele>214.686898</ele>
        <time>2020-07-27T04:33:57.787Z</time>
      </trkpt>
      <trkpt lat="48.601552" lon="16.818260">
        <ele>214.771614</ele>
        <time>2020-07-27T04:33:59.794Z</time>
      </trkpt>
      <trkpt lat="48.601627" lon="16.818344">
        <ele>214.851046</ele>
        <time>2020-07-27T04:34:01.781Z</time>
      </trkpt>
      <trkpt lat="48.601594" lon="16.818488">
        <ele>214.936819</ele>
        <time>2020-07-27T04:34:03.794Z</time>
      </trkpt>
      <trkpt lat="48.601549" lon="16.818643">
        <ele>215.032091</ele>
        <time>2020-07-27T04:34:05.791Z</time>
      </trkpt>
      <trkpt lat="48.601506" lon="16.818782">
        <ele>215.118459</ele>
        <time>2020-07-27T04:34:07.797Z</time>
      </trkpt>
      <trkpt lat="48.601429" lon="16.818891">
        <ele>215.208225</ele>
        <time>2020-07-27T04:34:09.779Z</time>
      </trkpt>
      <trkpt lat="48.601346" lon="16.818981">
        <ele>215.295148</ele>
        <time>2020-07-27T04:34:11.800Z</time>
      </trkpt>
      <trkpt lat="48.601252" lon="16.819068">
        <ele>215.388944</ele>
        <time>2020-07-27T04:34:13.808Z</time>
      </trkpt>
      <trkpt lat="48.601152" lon="16.819149">
        <ele>215.485493</ele>
        <time>2020-07-27T04:34:15.806Z</time>
      </trkpt>
      <trkpt lat="48.601058" lon="16.819241">
        <ele>215.580789</ele>
        <time>2020-07-27T04:34:17.787Z</time>
      </trkpt>
      <trkpt lat="48.600964" lon="16.819331">
        <ele>215.675477</ele>
        <time>2020-07-27T04:34:19.800Z</time>
      </trkpt>
      <trkpt lat="48.600876" lon="16.819413">
        <ele>215.763450</ele>
        <time>2020-07-27T04:34:21.810Z</time>
      </trkpt>
      <trkpt lat="48.600788" lon="16.819504">
        <ele>215.854182</ele>
        <time>2020-07-27T04:34:23.824Z</time>
      </trkpt>
      <trkpt lat="48.600705" lon="16.819604">
        <ele>215.944502</ele>
        <time>2020-07-27T04:34:25.796Z</time>
      </trkpt>
      <trkpt lat="48.600623" lon="16.819703">
        <ele>216.033805</ele>
        <time>2020-07-27T04:34:27.786Z</time>
      </trkpt>
      <trkpt lat="48.600542" lon="16.819801">
        <ele>216.122092</ele>
        <time>2020-07-27T04:34:29.788Z</time>
      </trkpt>
      <trkpt lat="48.600457" lon="16.819891">
        <ele>216.173460</ele>
        <time>2020-07-27T04:34:31.785Z</time>
      </trkpt>
      <trkpt lat="48.600370" lon="16.819988">
        <ele>216.195878</ele>
        <time>2020-07-27T04:34:33.826Z</time>
      </trkpt>
      <trkpt lat="48.600285" lon="16.820081">
        <ele>216.217637</ele>
        <time>2020-07-27T04:34:35.794Z</time>
      </trkpt>
      <trkpt lat="48.600188" lon="16.820155">
        <ele>216.240170</ele>
        <time>2020-07-27T04:34:37.792Z</time>
      </trkpt>
      <trkpt lat="48.600083" lon="16.820207">
        <ele>216.263084</ele>
        <time>2020-07-27T04:34:39.782Z</time>
      </trkpt>
      <trkpt lat="48.599975" lon="16.820263">
        <ele>216.286763</ele>
        <time>2020-07-27T04:34:41.812Z</time>
      </trkpt>
      <trkpt lat="48.599867" lon="16.820311">
        <ele>216.310109</ele>
        <time>2020-07-27T04:34:43.791Z</time>
      </trkpt>
      <trkpt lat="48.599758" lon="16.820365">
        <ele>216.333898</ele>
        <time>2020-07-27T04:34:45.806Z</time>
      </trkpt>
      <trkpt lat="48.599648" lon="16.820421">
        <ele>216.357969</ele>
        <time>2020-07-27T04:34:47.789Z</time>
      </trkpt>
      <trkpt lat="48.599539" lon="16.820476">
        <ele>216.381801</ele>
        <time>2020-07-27T04:34:49.805Z</time>
      </trkpt>
      <trkpt lat="48.599427" lon="16.820523">
        <ele>216.405907</ele>
        <time>2020-07-27T04:34:51.790Z</time>
      </trkpt>
      <trkpt lat="48.599317" lon="16.820575">
        <ele>216.429809</ele>
        <time>2020-07-27T04:34:53.790Z</time>
      </trkpt>
      <trkpt lat="48.599204" lon="16.820618">
        <ele>216.453976</ele>
        <time>2020-07-27T04:34:55.803Z</time>
      </trkpt>
      <trkpt lat="48.599091" lon="16.820663">
        <ele>216.478210</ele>
        <time>2020-07-27T04:34:57.820Z</time>
      </trkpt>
      <trkpt lat="48.598980" lon="16.820703">
        <ele>216.501876</ele>
        <time>2020-07-27T04:34:59.812Z</time>
      </trkpt>
      <trkpt lat="48.598879" lon="16.820734">
        <ele>216.523250</ele>
        <time>2020-07-27T04:35:01.784Z</time>
      </trkpt>
      <trkpt lat="48.598769" lon="16.820776">
        <ele>216.525351</ele>
        <time>2020-07-27T04:35:03.796Z</time>
      </trkpt>
      <trkpt lat="48.598665" lon="16.820815">
        <ele>216.508518</ele>
        <time>2020-07-27T04:35:05.796Z</time>
      </trkpt>
      <trkpt lat="48.598562" lon="16.820859">
        <ele>216.491703</ele>
        <time>2020-07-27T04:35:07.804Z</time>
      </trkpt>
      <trkpt lat="48.598459" lon="16.820903">
        <ele>216.474888</ele>
        <time>2020-07-27T04:35:09.801Z</time>
      </trkpt>
      <trkpt lat="48.598361" lon="16.820951">
        <ele>216.458705</ele>
        <time>2020-07-27T04:35:11.791Z</time>
      </trkpt>
      <trkpt lat="48.598262" lon="16.821006">
        <ele>216.442136</ele>
        <time>2020-07-27T04:35:13.810Z</time>
      </trkpt>
      <trkpt lat="48.598157" lon="16.821058">
        <ele>216.424778</ele>
        <time>2020-07-27T04:35:15.792Z</time>
      </trkpt>
      <trkpt lat="48.598053" lon="16.821115">
        <ele>216.407400</ele>
        <time>2020-07-27T04:35:17.786Z</time>
      </trkpt>
      <trkpt lat="48.597945" lon="16.821175">
        <ele>216.389324</ele>
        <time>2020-07-27T04:35:19.798Z</time>
      </trkpt>
      <trkpt lat="48.597840" lon="16.821256">
        <ele>216.370806</ele>
        <time>2020-07-27T04:35:21.783Z</time>
      </trkpt>
      <trkpt lat="48.597737" lon="16.821353">
        <ele>216.351743</ele>
        <time>2020-07-27T04:35:23.783Z</time>
      </trkpt>
      <trkpt lat="48.597635" lon="16.821448">
        <ele>216.332923</ele>
        <time>2020-07-27T04:35:25.781Z</time>
      </trkpt>
      <trkpt lat="48.597534" lon="16.821546">
        <ele>216.314070</ele>
        <time>2020-07-27T04:35:27.804Z</time>
      </trkpt>
      <trkpt lat="48.597424" lon="16.821648">
        <ele>216.293798</ele>
        <time>2020-07-27T04:35:29.832Z</time>
      </trkpt>
      <trkpt lat="48.597320" lon="16.821738">
        <ele>216.274973</ele>
        <time>2020-07-27T04:35:31.791Z</time>
      </trkpt>
      <trkpt lat="48.597215" lon="16.821827">
        <ele>216.256063</ele>
        <time>2020-07-27T04:35:33.782Z</time>
      </trkpt>
      <trkpt lat="48.597110" lon="16.821914">
        <ele>216.265943</ele>
        <time>2020-07-27T04:35:35.821Z</time>
      </trkpt>
      <trkpt lat="48.597006" lon="16.822002">
        <ele>216.283593</ele>
        <time>2020-07-27T04:35:37.787Z</time>
      </trkpt>
      <trkpt lat="48.596914" lon="16.822077">
        <ele>216.299072</ele>
        <time>2020-07-27T04:35:39.802Z</time>
      </trkpt>
      <trkpt lat="48.596791" lon="16.822171">
        <ele>216.319483</ele>
        <time>2020-07-27T04:35:42.784Z</time>
      </trkpt>
      <trkpt lat="48.596694" lon="16.822268">
        <ele>216.336706</ele>
        <time>2020-07-27T04:35:44.793Z</time>
      </trkpt>
      <trkpt lat="48.596597" lon="16.822369">
        <ele>216.354148</ele>
        <time>2020-07-27T04:35:46.786Z</time>
      </trkpt>
      <trkpt lat="48.596493" lon="16.822482">
        <ele>216.373115</ele>
        <time>2020-07-27T04:35:48.808Z</time>
      </trkpt>
      <trkpt lat="48.596395" lon="16.822588">
        <ele>216.390959</ele>
        <time>2020-07-27T04:35:50.817Z</time>
      </trkpt>
      <trkpt lat="48.596293" lon="16.822703">
        <ele>216.409803</ele>
        <time>2020-07-27T04:35:52.784Z</time>
      </trkpt>
      <trkpt lat="48.596193" lon="16.822813">
        <ele>216.428117</ele>
        <time>2020-07-27T04:35:54.776Z</time>
      </trkpt>
      <trkpt lat="48.596093" lon="16.822923">
        <ele>216.446432</ele>
        <time>2020-07-27T04:35:56.788Z</time>
      </trkpt>
      <trkpt lat="48.595993" lon="16.823028">
        <ele>216.464462</ele>
        <time>2020-07-27T04:35:58.791Z</time>
      </trkpt>
      <trkpt lat="48.595906" lon="16.823108">
        <ele>216.479542</ele>
        <time>2020-07-27T04:36:00.792Z</time>
      </trkpt>
      <trkpt lat="48.595801" lon="16.823199">
        <ele>216.497466</ele>
        <time>2020-07-27T04:36:02.785Z</time>
      </trkpt>
      <trkpt lat="48.595698" lon="16.823285">
        <ele>216.514892</ele>
        <time>2020-07-27T04:36:04.787Z</time>
      </trkpt>
      <trkpt lat="48.595601" lon="16.823365">
        <ele>216.516132</ele>
        <time>2020-07-27T04:36:06.813Z</time>
      </trkpt>
      <trkpt lat="48.595500" lon="16.823474">
        <ele>216.512892</ele>
        <time>2020-07-27T04:36:09.782Z</time>
      </trkpt>
      <trkpt lat="48.595412" lon="16.823544">
        <ele>216.510296</ele>
        <time>2020-07-27T04:36:14.790Z</time>
      </trkpt>
      <trkpt lat="48.595323" lon="16.823444">
        <ele>216.507401</ele>
        <time>2020-07-27T04:36:18.784Z</time>
      </trkpt>
      <trkpt lat="48.595227" lon="16.823362">
        <ele>216.504522</ele>
        <time>2020-07-27T04:36:21.789Z</time>
      </trkpt>
      <trkpt lat="48.595117" lon="16.823319">
        <ele>216.501556</ele>
        <time>2020-07-27T04:36:24.779Z</time>
      </trkpt>
      <trkpt lat="48.595041" lon="16.823395">
        <ele>216.499177</ele>
        <time>2020-07-27T04:36:26.803Z</time>
      </trkpt>
      <trkpt lat="48.594957" lon="16.823525">
        <ele>216.496038</ele>
        <time>2020-07-27T04:36:28.789Z</time>
      </trkpt>
      <trkpt lat="48.594857" lon="16.823673">
        <ele>216.492385</ele>
        <time>2020-07-27T04:36:30.787Z</time>
      </trkpt>
      <trkpt lat="48.594753" lon="16.823837">
        <ele>216.488461</ele>
        <time>2020-07-27T04:36:32.799Z</time>
      </trkpt>
      <trkpt lat="48.594655" lon="16.823996">
        <ele>216.484708</ele>
        <time>2020-07-27T04:36:34.791Z</time>
      </trkpt>
      <trkpt lat="48.594554" lon="16.824144">
        <ele>216.481036</ele>
        <time>2020-07-27T04:36:36.799Z</time>
      </trkpt>
      <trkpt lat="48.594452" lon="16.824279">
        <ele>216.477497</ele>
        <time>2020-07-27T04:36:38.807Z</time>
      </trkpt>
      <trkpt lat="48.594368" lon="16.824420">
        <ele>216.474220</ele>
        <time>2020-07-27T04:36:40.800Z</time>
      </trkpt>
      <trkpt lat="48.594290" lon="16.824562">
        <ele>216.469938</ele>
        <time>2020-07-27T04:36:42.800Z</time>
      </trkpt>
      <trkpt lat="48.594215" lon="16.824692">
        <ele>216.458914</ele>
        <time>2020-07-27T04:36:44.792Z</time>
      </trkpt>
      <trkpt lat="48.594144" lon="16.824828">
        <ele>216.447842</ele>
        <time>2020-07-27T04:36:46.809Z</time>
      </trkpt>
      <trkpt lat="48.594073" lon="16.824953">
        <ele>216.437313</ele>
        <time>2020-07-27T04:36:48.807Z</time>
      </trkpt>
      <trkpt lat="48.594005" lon="16.825090">
        <ele>216.426367</ele>
        <time>2020-07-27T04:36:50.801Z</time>
      </trkpt>
      <trkpt lat="48.593937" lon="16.825221">
        <ele>216.415726</ele>
        <time>2020-07-27T04:36:52.792Z</time>
      </trkpt>
      <trkpt lat="48.593867" lon="16.825351">
        <ele>216.405013</ele>
        <time>2020-07-27T04:36:54.790Z</time>
      </trkpt>
      <trkpt lat="48.593791" lon="16.825481">
        <ele>216.393926</ele>
        <time>2020-07-27T04:36:56.797Z</time>
      </trkpt>
      <trkpt lat="48.593715" lon="16.825621">
        <ele>216.382352</ele>
        <time>2020-07-27T04:36:58.830Z</time>
      </trkpt>
      <trkpt lat="48.593645" lon="16.825757">
        <ele>216.371340</ele>
        <time>2020-07-27T04:37:00.813Z</time>
      </trkpt>
      <trkpt lat="48.593579" lon="16.825899">
        <ele>216.360249</ele>
        <time>2020-07-27T04:37:02.850Z</time>
      </trkpt>
      <trkpt lat="48.593515" lon="16.826048">
        <ele>216.348896</ele>
        <time>2020-07-27T04:37:04.786Z</time>
      </trkpt>
      <trkpt lat="48.593454" lon="16.826203">
        <ele>216.337370</ele>
        <time>2020-07-27T04:37:06.792Z</time>
      </trkpt>
      <trkpt lat="48.593393" lon="16.826357">
        <ele>216.325899</ele>
        <time>2020-07-27T04:37:08.795Z</time>
      </trkpt>
      <trkpt lat="48.593333" lon="16.826510">
        <ele>216.314532</ele>
        <time>2020-07-27T04:37:10.815Z</time>
      </trkpt>
      <trkpt lat="48.593276" lon="16.826666">
        <ele>216.303143</ele>
        <time>2020-07-27T04:37:12.781Z</time>
      </trkpt>
      <trkpt lat="48.593219" lon="16.826824">
        <ele>216.324186</ele>
        <time>2020-07-27T04:37:14.808Z</time>
      </trkpt>
      <trkpt lat="48.593163" lon="16.826978">
        <ele>216.373738</ele>
        <time>2020-07-27T04:37:16.791Z</time>
      </trkpt>
      <trkpt lat="48.593106" lon="16.827140">
        <ele>216.425476</ele>
        <time>2020-07-27T04:37:18.800Z</time>
      </trkpt>
      <trkpt lat="48.593047" lon="16.827297">
        <ele>216.476390</ele>
        <time>2020-07-27T04:37:20.804Z</time>
      </trkpt>
      <trkpt lat="48.592985" lon="16.827454">
        <ele>216.527947</ele>
        <time>2020-07-27T04:37:22.792Z</time>
      </trkpt>
      <trkpt lat="48.592922" lon="16.827605">
        <ele>216.578286</ele>
        <time>2020-07-27T04:37:24.788Z</time>
      </trkpt>
      <trkpt lat="48.592862" lon="16.827764">
        <ele>216.629901</ele>
        <time>2020-07-27T04:37:26.791Z</time>
      </trkpt>
      <trkpt lat="48.592803" lon="16.827923">
        <ele>216.681306</ele>
        <time>2020-07-27T04:37:28.791Z</time>
      </trkpt>
      <trkpt lat="48.592741" lon="16.828080">
        <ele>216.732864</ele>
        <time>2020-07-27T04:37:30.790Z</time>
      </trkpt>
      <trkpt lat="48.592680" lon="16.828233">
        <ele>216.783235</ele>
        <time>2020-07-27T04:37:32.802Z</time>
      </trkpt>
      <trkpt lat="48.592621" lon="16.828385">
        <ele>216.832928</ele>
        <time>2020-07-27T04:37:34.789Z</time>
      </trkpt>
      <trkpt lat="48.592564" lon="16.828543">
        <ele>216.883674</ele>
        <time>2020-07-27T04:37:36.807Z</time>
      </trkpt>
      <trkpt lat="48.592507" lon="16.828705">
        <ele>216.935413</ele>
        <time>2020-07-27T04:37:38.793Z</time>
      </trkpt>
      <trkpt lat="48.592452" lon="16.828863">
        <ele>216.985756</ele>
        <time>2020-07-27T04:37:40.785Z</time>
      </trkpt>
      <trkpt lat="48.592395" lon="16.829022">
        <ele>217.036750</ele>
        <time>2020-07-27T04:37:42.789Z</time>
      </trkpt>
      <trkpt lat="48.592330" lon="16.829175">
        <ele>217.116097</ele>
        <time>2020-07-27T04:37:44.801Z</time>
      </trkpt>
      <trkpt lat="48.592267" lon="16.829326">
        <ele>217.226318</ele>
        <time>2020-07-27T04:37:46.802Z</time>
      </trkpt>
      <trkpt lat="48.592206" lon="16.829475">
        <ele>217.334502</ele>
        <time>2020-07-27T04:37:48.792Z</time>
      </trkpt>
      <trkpt lat="48.592148" lon="16.829628">
        <ele>217.443375</ele>
        <time>2020-07-27T04:37:50.802Z</time>
      </trkpt>
      <trkpt lat="48.592090" lon="16.829787">
        <ele>217.555477</ele>
        <time>2020-07-27T04:37:52.786Z</time>
      </trkpt>
      <trkpt lat="48.592033" lon="16.829944">
        <ele>217.666047</ele>
        <time>2020-07-27T04:37:54.810Z</time>
      </trkpt>
      <trkpt lat="48.591973" lon="16.830097">
        <ele>217.775860</ele>
        <time>2020-07-27T04:37:56.789Z</time>
      </trkpt>
      <trkpt lat="48.591912" lon="16.830248">
        <ele>217.885096</ele>
        <time>2020-07-27T04:37:58.797Z</time>
      </trkpt>
      <trkpt lat="48.591853" lon="16.830405">
        <ele>217.996577</ele>
        <time>2020-07-27T04:38:00.793Z</time>
      </trkpt>
      <trkpt lat="48.591792" lon="16.830553">
        <ele>218.104237</ele>
        <time>2020-07-27T04:38:02.796Z</time>
      </trkpt>
      <trkpt lat="48.591730" lon="16.830697">
        <ele>218.210317</ele>
        <time>2020-07-27T04:38:04.813Z</time>
      </trkpt>
      <trkpt lat="48.591672" lon="16.830841">
        <ele>218.314406</ele>
        <time>2020-07-27T04:38:06.804Z</time>
      </trkpt>
      <trkpt lat="48.591618" lon="16.830987">
        <ele>218.417679</ele>
        <time>2020-07-27T04:38:08.788Z</time>
      </trkpt>
      <trkpt lat="48.591562" lon="16.831136">
        <ele>218.523483</ele>
        <time>2020-07-27T04:38:10.800Z</time>
      </trkpt>
      <trkpt lat="48.591505" lon="16.831279">
        <ele>218.626560</ele>
        <time>2020-07-27T04:38:12.788Z</time>
      </trkpt>
      <trkpt lat="48.591449" lon="16.831427">
        <ele>218.731828</ele>
        <time>2020-07-27T04:38:14.786Z</time>
      </trkpt>
      <trkpt lat="48.591385" lon="16.831565">
        <ele>218.915157</ele>
        <time>2020-07-27T04:38:16.782Z</time>
      </trkpt>
      <trkpt lat="48.591282" lon="16.831623">
        <ele>219.105595</ele>
        <time>2020-07-27T04:38:18.798Z</time>
      </trkpt>
      <trkpt lat="48.591180" lon="16.831564">
        <ele>219.294816</ele>
        <time>2020-07-27T04:38:20.801Z</time>
      </trkpt>
      <trkpt lat="48.591100" lon="16.831470">
        <ele>219.470366</ele>
        <time>2020-07-27T04:38:22.793Z</time>
      </trkpt>
      <trkpt lat="48.591018" lon="16.831385">
        <ele>219.642629</ele>
        <time>2020-07-27T04:38:24.815Z</time>
      </trkpt>
      <trkpt lat="48.590936" lon="16.831306">
        <ele>219.811100</ele>
        <time>2020-07-27T04:38:26.784Z</time>
      </trkpt>
      <trkpt lat="48.590848" lon="16.831227">
        <ele>219.988425</ele>
        <time>2020-07-27T04:38:28.781Z</time>
      </trkpt>
      <trkpt lat="48.590759" lon="16.831150">
        <ele>220.166094</ele>
        <time>2020-07-27T04:38:30.791Z</time>
      </trkpt>
      <trkpt lat="48.590665" lon="16.831071">
        <ele>220.352434</ele>
        <time>2020-07-27T04:38:32.799Z</time>
      </trkpt>
      <trkpt lat="48.590569" lon="16.830997">
        <ele>220.539139</ele>
        <time>2020-07-27T04:38:34.797Z</time>
      </trkpt>
      <trkpt lat="48.590473" lon="16.830951">
        <ele>220.713626</ele>
        <time>2020-07-27T04:38:36.811Z</time>
      </trkpt>
      <trkpt lat="48.590383" lon="16.831031">
        <ele>220.894518</ele>
        <time>2020-07-27T04:38:38.788Z</time>
      </trkpt>
      <trkpt lat="48.590319" lon="16.831162">
        <ele>221.081161</ele>
        <time>2020-07-27T04:38:40.784Z</time>
      </trkpt>
      <trkpt lat="48.590260" lon="16.831300">
        <ele>221.269475</ele>
        <time>2020-07-27T04:38:42.817Z</time>
      </trkpt>
      <trkpt lat="48.590199" lon="16.831445">
        <ele>221.466414</ele>
        <time>2020-07-27T04:38:44.803Z</time>
      </trkpt>
      <trkpt lat="48.590135" lon="16.831592">
        <ele>221.668100</ele>
        <time>2020-07-27T04:38:46.797Z</time>
      </trkpt>
      <trkpt lat="48.590069" lon="16.831733">
        <ele>221.866363</ele>
        <time>2020-07-27T04:38:48.787Z</time>
      </trkpt>
      <trkpt lat="48.590006" lon="16.831874">
        <ele>222.070594</ele>
        <time>2020-07-27T04:38:50.797Z</time>
      </trkpt>
      <trkpt lat="48.589945" lon="16.832013">
        <ele>222.270812</ele>
        <time>2020-07-27T04:38:52.785Z</time>
      </trkpt>
      <trkpt lat="48.589883" lon="16.832157">
        <ele>222.477042</ele>
        <time>2020-07-27T04:38:54.790Z</time>
      </trkpt>
      <trkpt lat="48.589817" lon="16.832298">
        <ele>222.684370</ele>
        <time>2020-07-27T04:38:56.831Z</time>
      </trkpt>
      <trkpt lat="48.589751" lon="16.832441">
        <ele>222.893662</ele>
        <time>2020-07-27T04:38:58.809Z</time>
      </trkpt>
      <trkpt lat="48.589685" lon="16.832583">
        <ele>223.101972</ele>
        <time>2020-07-27T04:39:00.796Z</time>
      </trkpt>
      <trkpt lat="48.589619" lon="16.832723">
        <ele>223.308322</ele>
        <time>2020-07-27T04:39:02.799Z</time>
      </trkpt>
      <trkpt lat="48.589551" lon="16.832868">
        <ele>223.521667</ele>
        <time>2020-07-27T04:39:04.800Z</time>
      </trkpt>
      <trkpt lat="48.589483" lon="16.833010">
        <ele>223.732084</ele>
        <time>2020-07-27T04:39:06.792Z</time>
      </trkpt>
      <trkpt lat="48.589415" lon="16.833150">
        <ele>223.940562</ele>
        <time>2020-07-27T04:39:08.809Z</time>
      </trkpt>
      <trkpt lat="48.589351" lon="16.833288">
        <ele>224.142858</ele>
        <time>2020-07-27T04:39:10.811Z</time>
      </trkpt>
      <trkpt lat="48.589284" lon="16.833426">
        <ele>224.348328</ele>
        <time>2020-07-27T04:39:12.790Z</time>
      </trkpt>
      <trkpt lat="48.589213" lon="16.833565">
        <ele>224.559123</ele>
        <time>2020-07-27T04:39:14.801Z</time>
      </trkpt>
      <trkpt lat="48.589145" lon="16.833709">
        <ele>224.771490</ele>
        <time>2020-07-27T04:39:16.801Z</time>
      </trkpt>
      <trkpt lat="48.589079" lon="16.833854">
        <ele>224.982758</ele>
        <time>2020-07-27T04:39:18.800Z</time>
      </trkpt>
      <trkpt lat="48.589011" lon="16.833999">
        <ele>225.168093</ele>
        <time>2020-07-27T04:39:20.812Z</time>
      </trkpt>
      <trkpt lat="48.588942" lon="16.834142">
        <ele>225.298537</ele>
        <time>2020-07-27T04:39:22.813Z</time>
      </trkpt>
      <trkpt lat="48.588871" lon="16.834282">
        <ele>225.428545</ele>
        <time>2020-07-27T04:39:24.790Z</time>
      </trkpt>
      <trkpt lat="48.588808" lon="16.834422">
        <ele>225.553331</ele>
        <time>2020-07-27T04:39:26.788Z</time>
      </trkpt>
      <trkpt lat="48.588759" lon="16.834573">
        <ele>225.677282</ele>
        <time>2020-07-27T04:39:28.815Z</time>
      </trkpt>
      <trkpt lat="48.588723" lon="16.834733">
        <ele>225.801830</ele>
        <time>2020-07-27T04:39:30.793Z</time>
      </trkpt>
      <trkpt lat="48.588690" lon="16.834905">
        <ele>225.933811</ele>
        <time>2020-07-27T04:39:32.772Z</time>
      </trkpt>
      <trkpt lat="48.588658" lon="16.835073">
        <ele>226.062651</ele>
        <time>2020-07-27T04:39:34.801Z</time>
      </trkpt>
      <trkpt lat="48.588623" lon="16.835239">
        <ele>226.191050</ele>
        <time>2020-07-27T04:39:36.804Z</time>
      </trkpt>
      <trkpt lat="48.588590" lon="16.835406">
        <ele>226.319497</ele>
        <time>2020-07-27T04:39:38.814Z</time>
      </trkpt>
      <trkpt lat="48.588553" lon="16.835572">
        <ele>226.448590</ele>
        <time>2020-07-27T04:39:40.791Z</time>
      </trkpt>
      <trkpt lat="48.588516" lon="16.835745">
        <ele>226.582583</ele>
        <time>2020-07-27T04:39:42.800Z</time>
      </trkpt>
      <trkpt lat="48.588481" lon="16.835912">
        <ele>226.711685</ele>
        <time>2020-07-27T04:39:44.795Z</time>
      </trkpt>
      <trkpt lat="48.588445" lon="16.836071">
        <ele>226.835537</ele>
        <time>2020-07-27T04:39:46.790Z</time>
      </trkpt>
      <trkpt lat="48.588410" lon="16.836232">
        <ele>226.960431</ele>
        <time>2020-07-27T04:39:48.830Z</time>
      </trkpt>
      <trkpt lat="48.588374" lon="16.836393">
        <ele>227.085677</ele>
        <time>2020-07-27T04:39:50.793Z</time>
      </trkpt>
      <trkpt lat="48.588340" lon="16.836560">
        <ele>227.179493</ele>
        <time>2020-07-27T04:39:52.797Z</time>
      </trkpt>
      <trkpt lat="48.588308" lon="16.836728">
        <ele>227.256552</ele>
        <time>2020-07-27T04:39:54.794Z</time>
      </trkpt>
      <trkpt lat="48.588277" lon="16.836896">
        <ele>227.333430</ele>
        <time>2020-07-27T04:39:56.798Z</time>
      </trkpt>
      <trkpt lat="48.588244" lon="16.837061">
        <ele>227.409409</ele>
        <time>2020-07-27T04:39:58.798Z</time>
      </trkpt>
      <trkpt lat="48.588210" lon="16.837227">
        <ele>227.486005</ele>
        <time>2020-07-27T04:40:00.793Z</time>
      </trkpt>
      <trkpt lat="48.588175" lon="16.837390">
        <ele>227.561542</ele>
        <time>2020-07-27T04:40:02.800Z</time>
      </trkpt>
      <trkpt lat="48.588143" lon="16.837550">
        <ele>227.635219</ele>
        <time>2020-07-27T04:40:04.791Z</time>
      </trkpt>
      <trkpt lat="48.588110" lon="16.837711">
        <ele>227.709513</ele>
        <time>2020-07-27T04:40:06.820Z</time>
      </trkpt>
      <trkpt lat="48.588078" lon="16.837871">
        <ele>227.783190</ele>
        <time>2020-07-27T04:40:08.797Z</time>
      </trkpt>
      <trkpt lat="48.588045" lon="16.838034">
        <ele>227.858327</ele>
        <time>2020-07-27T04:40:10.797Z</time>
      </trkpt>
      <trkpt lat="48.588015" lon="16.838195">
        <ele>227.932054</ele>
        <time>2020-07-27T04:40:12.824Z</time>
      </trkpt>
      <trkpt lat="48.587985" lon="16.838357">
        <ele>228.006205</ele>
        <time>2020-07-27T04:40:14.785Z</time>
      </trkpt>
      <trkpt lat="48.587951" lon="16.838519">
        <ele>228.081119</ele>
        <time>2020-07-27T04:40:16.793Z</time>
      </trkpt>
      <trkpt lat="48.587916" lon="16.838685">
        <ele>228.157915</ele>
        <time>2020-07-27T04:40:18.802Z</time>
      </trkpt>
      <trkpt lat="48.587881" lon="16.838849">
        <ele>228.233872</ele>
        <time>2020-07-27T04:40:20.820Z</time>
      </trkpt>
      <trkpt lat="48.587845" lon="16.839018">
        <ele>228.312131</ele>
        <time>2020-07-27T04:40:22.787Z</time>
      </trkpt>
      <trkpt lat="48.587808" lon="16.839188">
        <ele>228.344713</ele>
        <time>2020-07-27T04:40:24.793Z</time>
      </trkpt>
      <trkpt lat="48.587779" lon="16.839352">
        <ele>228.366233</ele>
        <time>2020-07-27T04:40:26.800Z</time>
      </trkpt>
      <trkpt lat="48.587743" lon="16.839527">
        <ele>228.389465</ele>
        <time>2020-07-27T04:40:28.820Z</time>
      </trkpt>
      <trkpt lat="48.587707" lon="16.839701">
        <ele>228.412576</ele>
        <time>2020-07-27T04:40:30.794Z</time>
      </trkpt>
      <trkpt lat="48.587675" lon="16.839869">
        <ele>228.434739</ele>
        <time>2020-07-27T04:40:32.806Z</time>
      </trkpt>
      <trkpt lat="48.587642" lon="16.840045">
        <ele>228.457929</ele>
        <time>2020-07-27T04:40:34.811Z</time>
      </trkpt>
      <trkpt lat="48.587605" lon="16.840209">
        <ele>228.479895</ele>
        <time>2020-07-27T04:40:36.798Z</time>
      </trkpt>
      <trkpt lat="48.587569" lon="16.840380">
        <ele>228.502644</ele>
        <time>2020-07-27T04:40:38.785Z</time>
      </trkpt>
      <trkpt lat="48.587532" lon="16.840551">
        <ele>228.525452</ele>
        <time>2020-07-27T04:40:40.788Z</time>
      </trkpt>
      <trkpt lat="48.587496" lon="16.840723">
        <ele>228.548321</ele>
        <time>2020-07-27T04:40:42.803Z</time>
      </trkpt>
      <trkpt lat="48.587462" lon="16.840893">
        <ele>228.570835</ele>
        <time>2020-07-27T04:40:44.787Z</time>
      </trkpt>
      <trkpt lat="48.587429" lon="16.841056">
        <ele>228.592445</ele>
        <time>2020-07-27T04:40:46.801Z</time>
      </trkpt>
      <trkpt lat="48.587397" lon="16.841217">
        <ele>228.613756</ele>
        <time>2020-07-27T04:40:48.789Z</time>
      </trkpt>
      <trkpt lat="48.587358" lon="16.841377">
        <ele>228.635372</ele>
        <time>2020-07-27T04:40:50.797Z</time>
      </trkpt>
      <trkpt lat="48.587294" lon="16.841511">
        <ele>228.656325</ele>
        <time>2020-07-27T04:40:52.773Z</time>
      </trkpt>
      <trkpt lat="48.587200" lon="16.841601">
        <ele>228.688977</ele>
        <time>2020-07-27T04:40:54.774Z</time>
      </trkpt>
      <trkpt lat="48.587093" lon="16.841670">
        <ele>228.747729</ele>
        <time>2020-07-27T04:40:56.792Z</time>
      </trkpt>
      <trkpt lat="48.586989" lon="16.841741">
        <ele>228.805362</ele>
        <time>2020-07-27T04:40:58.781Z</time>
      </trkpt>
      <trkpt lat="48.586891" lon="16.841820">
        <ele>228.861454</ele>
        <time>2020-07-27T04:41:00.818Z</time>
      </trkpt>
      <trkpt lat="48.586795" lon="16.841899">
        <ele>228.916657</ele>
        <time>2020-07-27T04:41:02.779Z</time>
      </trkpt>
      <trkpt lat="48.586695" lon="16.841985">
        <ele>228.974763</ele>
        <time>2020-07-27T04:41:04.788Z</time>
      </trkpt>
      <trkpt lat="48.586591" lon="16.842079">
        <ele>229.035961</ele>
        <time>2020-07-27T04:41:06.800Z</time>
      </trkpt>
      <trkpt lat="48.586489" lon="16.842171">
        <ele>229.095949</ele>
        <time>2020-07-27T04:41:08.776Z</time>
      </trkpt>
      <trkpt lat="48.586385" lon="16.842262">
        <ele>229.156638</ele>
        <time>2020-07-27T04:41:10.788Z</time>
      </trkpt>
      <trkpt lat="48.586278" lon="16.842352">
        <ele>229.218481</ele>
        <time>2020-07-27T04:41:12.803Z</time>
      </trkpt>
      <trkpt lat="48.586168" lon="16.842441">
        <ele>229.281493</ele>
        <time>2020-07-27T04:41:14.816Z</time>
      </trkpt>
      <trkpt lat="48.586059" lon="16.842529">
        <ele>229.343903</ele>
        <time>2020-07-27T04:41:16.794Z</time>
      </trkpt>
      <trkpt lat="48.585953" lon="16.842619">
        <ele>229.405305</ele>
        <time>2020-07-27T04:41:18.793Z</time>
      </trkpt>
      <trkpt lat="48.585845" lon="16.842710">
        <ele>229.467751</ele>
        <time>2020-07-27T04:41:20.803Z</time>
      </trkpt>
      <trkpt lat="48.585738" lon="16.842804">
        <ele>229.530254</ele>
        <time>2020-07-27T04:41:22.799Z</time>
      </trkpt>
      <trkpt lat="48.585636" lon="16.842896">
        <ele>229.592788</ele>
        <time>2020-07-27T04:41:24.782Z</time>
      </trkpt>
      <trkpt lat="48.585535" lon="16.842984">
        <ele>229.665154</ele>
        <time>2020-07-27T04:41:26.801Z</time>
      </trkpt>
      <trkpt lat="48.585435" lon="16.843067">
        <ele>229.735973</ele>
        <time>2020-07-27T04:41:28.813Z</time>
      </trkpt>
      <trkpt lat="48.585337" lon="16.843148">
        <ele>229.805308</ele>
        <time>2020-07-27T04:41:30.803Z</time>
      </trkpt>
      <trkpt lat="48.585242" lon="16.843228">
        <ele>229.872814</ele>
        <time>2020-07-27T04:41:32.793Z</time>
      </trkpt>
      <trkpt lat="48.585144" lon="16.843305">
        <ele>229.941376</ele>
        <time>2020-07-27T04:41:34.794Z</time>
      </trkpt>
      <trkpt lat="48.585046" lon="16.843381">
        <ele>230.009750</ele>
        <time>2020-07-27T04:41:36.799Z</time>
      </trkpt>
      <trkpt lat="48.584947" lon="16.843468">
        <ele>230.080836</ele>
        <time>2020-07-27T04:41:38.798Z</time>
      </trkpt>
      <trkpt lat="48.584849" lon="16.843559">
        <ele>230.152232</ele>
        <time>2020-07-27T04:41:40.804Z</time>
      </trkpt>
      <trkpt lat="48.584753" lon="16.843645">
        <ele>230.221504</ele>
        <time>2020-07-27T04:41:42.799Z</time>
      </trkpt>
      <trkpt lat="48.584655" lon="16.843731">
        <ele>230.291847</ele>
        <time>2020-07-27T04:41:44.779Z</time>
      </trkpt>
      <trkpt lat="48.584557" lon="16.843813">
        <ele>230.361381</ele>
        <time>2020-07-27T04:41:46.789Z</time>
      </trkpt>
      <trkpt lat="48.584458" lon="16.843891">
        <ele>230.430683</ele>
        <time>2020-07-27T04:41:48.782Z</time>
      </trkpt>
      <trkpt lat="48.584363" lon="16.843966">
        <ele>230.497215</ele>
        <time>2020-07-27T04:41:50.822Z</time>
      </trkpt>
      <trkpt lat="48.584267" lon="16.844053">
        <ele>230.566697</ele>
        <time>2020-07-27T04:41:52.807Z</time>
      </trkpt>
      <trkpt lat="48.584169" lon="16.844140">
        <ele>230.637248</ele>
        <time>2020-07-27T04:41:54.795Z</time>
      </trkpt>
      <trkpt lat="48.584071" lon="16.844224">
        <ele>230.703366</ele>
        <time>2020-07-27T04:41:56.801Z</time>
      </trkpt>
      <trkpt lat="48.583974" lon="16.844305">
        <ele>230.749332</ele>
        <time>2020-07-27T04:41:58.817Z</time>
      </trkpt>
      <trkpt lat="48.583875" lon="16.844386">
        <ele>230.796025</ele>
        <time>2020-07-27T04:42:00.823Z</time>
      </trkpt>
      <trkpt lat="48.583773" lon="16.844467">
        <ele>230.843817</ele>
        <time>2020-07-27T04:42:02.790Z</time>
      </trkpt>
      <trkpt lat="48.583673" lon="16.844552">
        <ele>230.891404</ele>
        <time>2020-07-27T04:42:04.796Z</time>
      </trkpt>
      <trkpt lat="48.583571" lon="16.844642">
        <ele>230.940393</ele>
        <time>2020-07-27T04:42:06.793Z</time>
      </trkpt>
      <trkpt lat="48.583469" lon="16.844732">
        <ele>230.989382</ele>
        <time>2020-07-27T04:42:08.811Z</time>
      </trkpt>
      <trkpt lat="48.583369" lon="16.844820">
        <ele>231.037378</ele>
        <time>2020-07-27T04:42:10.776Z</time>
      </trkpt>
      <trkpt lat="48.583268" lon="16.844909">
        <ele>231.085871</ele>
        <time>2020-07-27T04:42:12.785Z</time>
      </trkpt>
      <trkpt lat="48.583168" lon="16.844995">
        <ele>231.133593</ele>
        <time>2020-07-27T04:42:14.785Z</time>
      </trkpt>
      <trkpt lat="48.583070" lon="16.845080">
        <ele>231.180459</ele>
        <time>2020-07-27T04:42:16.792Z</time>
      </trkpt>
      <trkpt lat="48.582977" lon="16.845161">
        <ele>231.224980</ele>
        <time>2020-07-27T04:42:18.797Z</time>
      </trkpt>
      <trkpt lat="48.582885" lon="16.845247">
        <ele>231.269848</ele>
        <time>2020-07-27T04:42:20.792Z</time>
      </trkpt>
      <trkpt lat="48.582785" lon="16.845291">
        <ele>231.313049</ele>
        <time>2020-07-27T04:42:22.820Z</time>
      </trkpt>
      <trkpt lat="48.582680" lon="16.845210">
        <ele>231.361946</ele>
        <time>2020-07-27T04:42:24.789Z</time>
      </trkpt>
      <trkpt lat="48.582580" lon="16.845103">
        <ele>231.412765</ele>
        <time>2020-07-27T04:42:26.783Z</time>
      </trkpt>
      <trkpt lat="48.582476" lon="16.844999">
        <ele>231.408543</ele>
        <time>2020-07-27T04:42:28.792Z</time>
      </trkpt>
      <trkpt lat="48.582381" lon="16.844907">
        <ele>231.340220</ele>
        <time>2020-07-27T04:42:30.807Z</time>
      </trkpt>
      <trkpt lat="48.582288" lon="16.844816">
        <ele>231.273132</ele>
        <time>2020-07-27T04:42:32.807Z</time>
      </trkpt>
      <trkpt lat="48.582196" lon="16.844720">
        <ele>231.205434</ele>
        <time>2020-07-27T04:42:34.791Z</time>
      </trkpt>
      <trkpt lat="48.582100" lon="16.844626">
        <ele>231.136167</ele>
        <time>2020-07-27T04:42:36.787Z</time>
      </trkpt>
      <trkpt lat="48.582007" lon="16.844534">
        <ele>231.068861</ele>
        <time>2020-07-27T04:42:38.800Z</time>
      </trkpt>
      <trkpt lat="48.581910" lon="16.844440">
        <ele>230.999085</ele>
        <time>2020-07-27T04:42:40.803Z</time>
      </trkpt>
      <trkpt lat="48.581813" lon="16.844352">
        <ele>230.930577</ele>
        <time>2020-07-27T04:42:42.813Z</time>
      </trkpt>
      <trkpt lat="48.581717" lon="16.844264">
        <ele>230.862587</ele>
        <time>2020-07-27T04:42:44.789Z</time>
      </trkpt>
      <trkpt lat="48.581619" lon="16.844178">
        <ele>230.793965</ele>
        <time>2020-07-27T04:42:46.804Z</time>
      </trkpt>
      <trkpt lat="48.581523" lon="16.844089">
        <ele>230.725767</ele>
        <time>2020-07-27T04:42:48.783Z</time>
      </trkpt>
      <trkpt lat="48.581429" lon="16.843997">
        <ele>230.657952</ele>
        <time>2020-07-27T04:42:50.793Z</time>
      </trkpt>
      <trkpt lat="48.581338" lon="16.843905">
        <ele>230.591655</ele>
        <time>2020-07-27T04:42:52.788Z</time>
      </trkpt>
      <trkpt lat="48.581244" lon="16.843811">
        <ele>230.523402</ele>
        <time>2020-07-27T04:42:54.803Z</time>
      </trkpt>
      <trkpt lat="48.581143" lon="16.843724">
        <ele>230.453005</ele>
        <time>2020-07-27T04:42:56.790Z</time>
      </trkpt>
      <trkpt lat="48.581043" lon="16.843635">
        <ele>230.382730</ele>
        <time>2020-07-27T04:42:58.822Z</time>
      </trkpt>
      <trkpt lat="48.580947" lon="16.843542">
        <ele>230.337092</ele>
        <time>2020-07-27T04:43:00.786Z</time>
      </trkpt>
      <trkpt lat="48.580852" lon="16.843449">
        <ele>230.309856</ele>
        <time>2020-07-27T04:43:02.805Z</time>
      </trkpt>
      <trkpt lat="48.580761" lon="16.843361">
        <ele>230.283859</ele>
        <time>2020-07-27T04:43:04.796Z</time>
      </trkpt>
      <trkpt lat="48.580665" lon="16.843267">
        <ele>230.256334</ele>
        <time>2020-07-27T04:43:06.791Z</time>
      </trkpt>
      <trkpt lat="48.580570" lon="16.843176">
        <ele>230.229269</ele>
        <time>2020-07-27T04:43:08.802Z</time>
      </trkpt>
      <trkpt lat="48.580474" lon="16.843085">
        <ele>230.202001</ele>
        <time>2020-07-27T04:43:10.802Z</time>
      </trkpt>
      <trkpt lat="48.580379" lon="16.842997">
        <ele>230.175188</ele>
        <time>2020-07-27T04:43:12.793Z</time>
      </trkpt>
      <trkpt lat="48.580289" lon="16.842918">
        <ele>230.150143</ele>
        <time>2020-07-27T04:43:14.811Z</time>
      </trkpt>
      <trkpt lat="48.580206" lon="16.842849">
        <ele>230.127348</ele>
        <time>2020-07-27T04:43:16.804Z</time>
      </trkpt>
      <trkpt lat="48.580087" lon="16.842883">
        <ele>230.098205</ele>
        <time>2020-07-27T04:43:19.779Z</time>
      </trkpt>
      <trkpt lat="48.580019" lon="16.842975">
        <ele>230.076244</ele>
        <time>2020-07-27T04:43:21.818Z</time>
      </trkpt>
      <trkpt lat="48.579938" lon="16.843087">
        <ele>230.049826</ele>
        <time>2020-07-27T04:43:23.802Z</time>
      </trkpt>
      <trkpt lat="48.579847" lon="16.843212">
        <ele>230.020236</ele>
        <time>2020-07-27T04:43:25.797Z</time>
      </trkpt>
      <trkpt lat="48.579761" lon="16.843326">
        <ele>229.992710</ele>
        <time>2020-07-27T04:43:27.812Z</time>
      </trkpt>
      <trkpt lat="48.579673" lon="16.843449">
        <ele>229.963867</ele>
        <time>2020-07-27T04:43:29.800Z</time>
      </trkpt>
      <trkpt lat="48.579590" lon="16.843567">
        <ele>229.936447</ele>
        <time>2020-07-27T04:43:31.810Z</time>
      </trkpt>
      <trkpt lat="48.579504" lon="16.843686">
        <ele>229.933411</ele>
        <time>2020-07-27T04:43:33.789Z</time>
      </trkpt>
      <trkpt lat="48.579420" lon="16.843800">
        <ele>229.966346</ele>
        <time>2020-07-27T04:43:35.793Z</time>
      </trkpt>
      <trkpt lat="48.579336" lon="16.843917">
        <ele>229.999670</ele>
        <time>2020-07-27T04:43:37.789Z</time>
      </trkpt>
      <trkpt lat="48.579256" lon="16.844031">
        <ele>230.031745</ele>
        <time>2020-07-27T04:43:39.815Z</time>
      </trkpt>
      <trkpt lat="48.579174" lon="16.844144">
        <ele>230.064117</ele>
        <time>2020-07-27T04:43:41.812Z</time>
      </trkpt>
      <trkpt lat="48.579090" lon="16.844252">
        <ele>230.096290</ele>
        <time>2020-07-27T04:43:43.816Z</time>
      </trkpt>
      <trkpt lat="48.579007" lon="16.844360">
        <ele>230.128240</ele>
        <time>2020-07-27T04:43:45.818Z</time>
      </trkpt>
      <trkpt lat="48.578924" lon="16.844465">
        <ele>230.159816</ele>
        <time>2020-07-27T04:43:47.802Z</time>
      </trkpt>
      <trkpt lat="48.578842" lon="16.844570">
        <ele>230.191169</ele>
        <time>2020-07-27T04:43:49.792Z</time>
      </trkpt>
      <trkpt lat="48.578760" lon="16.844673">
        <ele>230.222274</ele>
        <time>2020-07-27T04:43:51.780Z</time>
      </trkpt>
      <trkpt lat="48.578677" lon="16.844782">
        <ele>230.254351</ele>
        <time>2020-07-27T04:43:53.797Z</time>
      </trkpt>
      <trkpt lat="48.578596" lon="16.844891">
        <ele>230.285989</ele>
        <time>2020-07-27T04:43:55.812Z</time>
      </trkpt>
      <trkpt lat="48.578518" lon="16.844999">
        <ele>230.316849</ele>
        <time>2020-07-27T04:43:57.788Z</time>
      </trkpt>
      <trkpt lat="48.578437" lon="16.845104">
        <ele>230.347980</ele>
        <time>2020-07-27T04:43:59.789Z</time>
      </trkpt>
      <trkpt lat="48.578354" lon="16.845209">
        <ele>230.379556</ele>
        <time>2020-07-27T04:44:01.783Z</time>
      </trkpt>
      <trkpt lat="48.578270" lon="16.845317">
        <ele>230.411729</ele>
        <time>2020-07-27T04:44:03.796Z</time>
      </trkpt>
      <trkpt lat="48.578185" lon="16.845425">
        <ele>230.444124</ele>
        <time>2020-07-27T04:44:05.811Z</time>
      </trkpt>
      <trkpt lat="48.578101" lon="16.845530">
        <ele>230.475157</ele>
        <time>2020-07-27T04:44:07.810Z</time>
      </trkpt>
      <trkpt lat="48.578019" lon="16.845633">
        <ele>230.505504</ele>
        <time>2020-07-27T04:44:09.786Z</time>
      </trkpt>
      <trkpt lat="48.577937" lon="16.845737">
        <ele>230.535971</ele>
        <time>2020-07-27T04:44:11.790Z</time>
      </trkpt>
      <trkpt lat="48.577856" lon="16.845843">
        <ele>230.566466</ele>
        <time>2020-07-27T04:44:13.798Z</time>
      </trkpt>
      <trkpt lat="48.577782" lon="16.845941">
        <ele>230.594470</ele>
        <time>2020-07-27T04:44:15.778Z</time>
      </trkpt>
      <trkpt lat="48.577704" lon="16.846054">
        <ele>230.625222</ele>
        <time>2020-07-27T04:44:17.784Z</time>
      </trkpt>
      <trkpt lat="48.577625" lon="16.846164">
        <ele>230.655794</ele>
        <time>2020-07-27T04:44:19.792Z</time>
      </trkpt>
      <trkpt lat="48.577548" lon="16.846272">
        <ele>230.685693</ele>
        <time>2020-07-27T04:44:21.805Z</time>
      </trkpt>
      <trkpt lat="48.577470" lon="16.846381">
        <ele>230.715929</ele>
        <time>2020-07-27T04:44:23.791Z</time>
      </trkpt>
      <trkpt lat="48.577387" lon="16.846496">
        <ele>230.747976</ele>
        <time>2020-07-27T04:44:25.815Z</time>
      </trkpt>
      <trkpt lat="48.577300" lon="16.846611">
        <ele>230.780873</ele>
        <time>2020-07-27T04:44:27.800Z</time>
      </trkpt>
      <trkpt lat="48.577212" lon="16.846722">
        <ele>230.813496</ele>
        <time>2020-07-27T04:44:29.795Z</time>
      </trkpt>
      <trkpt lat="48.577129" lon="16.846831">
        <ele>230.844792</ele>
        <time>2020-07-27T04:44:31.809Z</time>
      </trkpt>
      <trkpt lat="48.577043" lon="16.846945">
        <ele>230.877350</ele>
        <time>2020-07-27T04:44:33.770Z</time>
      </trkpt>
      <trkpt lat="48.576958" lon="16.847059">
        <ele>230.909694</ele>
        <time>2020-07-27T04:44:35.813Z</time>
      </trkpt>
      <trkpt lat="48.576875" lon="16.847173">
        <ele>230.941615</ele>
        <time>2020-07-27T04:44:37.794Z</time>
      </trkpt>
      <trkpt lat="48.576793" lon="16.847284">
        <ele>230.973191</ele>
        <time>2020-07-27T04:44:39.796Z</time>
      </trkpt>
      <trkpt lat="48.576707" lon="16.847399">
        <ele>231.006354</ele>
        <time>2020-07-27T04:44:41.800Z</time>
      </trkpt>
      <trkpt lat="48.576619" lon="16.847511">
        <ele>231.039580</ele>
        <time>2020-07-27T04:44:43.817Z</time>
      </trkpt>
      <trkpt lat="48.576537" lon="16.847620">
        <ele>231.071119</ele>
        <time>2020-07-27T04:44:45.794Z</time>
      </trkpt>
      <trkpt lat="48.576452" lon="16.847727">
        <ele>231.103067</ele>
        <time>2020-07-27T04:44:47.781Z</time>
      </trkpt>
      <trkpt lat="48.576367" lon="16.847840">
        <ele>231.135762</ele>
        <time>2020-07-27T04:44:49.793Z</time>
      </trkpt>
      <trkpt lat="48.576279" lon="16.847956">
        <ele>231.169485</ele>
        <time>2020-07-27T04:44:51.808Z</time>
      </trkpt>
      <trkpt lat="48.576192" lon="16.848072">
        <ele>231.202992</ele>
        <time>2020-07-27T04:44:53.790Z</time>
      </trkpt>
      <trkpt lat="48.576105" lon="16.848183">
        <ele>231.235874</ele>
        <time>2020-07-27T04:44:55.794Z</time>
      </trkpt>
      <trkpt lat="48.576012" lon="16.848288">
        <ele>231.269401</ele>
        <time>2020-07-27T04:44:57.789Z</time>
      </trkpt>
      <trkpt lat="48.575919" lon="16.848388">
        <ele>231.302364</ele>
        <time>2020-07-27T04:44:59.792Z</time>
      </trkpt>
      <trkpt lat="48.575825" lon="16.848486">
        <ele>231.335345</ele>
        <time>2020-07-27T04:45:01.812Z</time>
      </trkpt>
      <trkpt lat="48.575736" lon="16.848576">
        <ele>231.366272</ele>
        <time>2020-07-27T04:45:03.778Z</time>
      </trkpt>
      <trkpt lat="48.575644" lon="16.848671">
        <ele>231.398452</ele>
        <time>2020-07-27T04:45:05.798Z</time>
      </trkpt>
      <trkpt lat="48.575555" lon="16.848766">
        <ele>231.429920</ele>
        <time>2020-07-27T04:45:07.804Z</time>
      </trkpt>
      <trkpt lat="48.575463" lon="16.848859">
        <ele>231.461887</ele>
        <time>2020-07-27T04:45:09.799Z</time>
      </trkpt>
      <trkpt lat="48.575372" lon="16.848952">
        <ele>231.483881</ele>
        <time>2020-07-27T04:45:11.786Z</time>
      </trkpt>
      <trkpt lat="48.575279" lon="16.849040">
        <ele>231.498209</ele>
        <time>2020-07-27T04:45:13.788Z</time>
      </trkpt>
      <trkpt lat="48.575184" lon="16.849126">
        <ele>231.512671</ele>
        <time>2020-07-27T04:45:15.794Z</time>
      </trkpt>
      <trkpt lat="48.575093" lon="16.849193">
        <ele>231.525890</ele>
        <time>2020-07-27T04:45:17.780Z</time>
      </trkpt>
      <trkpt lat="48.574994" lon="16.849264">
        <ele>231.540200</ele>
        <time>2020-07-27T04:45:19.800Z</time>
      </trkpt>
      <trkpt lat="48.574893" lon="16.849333">
        <ele>231.554675</ele>
        <time>2020-07-27T04:45:21.800Z</time>
      </trkpt>
      <trkpt lat="48.574793" lon="16.849398">
        <ele>231.568890</ele>
        <time>2020-07-27T04:45:23.811Z</time>
      </trkpt>
      <trkpt lat="48.574691" lon="16.849472">
        <ele>231.583666</ele>
        <time>2020-07-27T04:45:25.790Z</time>
      </trkpt>
      <trkpt lat="48.574591" lon="16.849546">
        <ele>231.598206</ele>
        <time>2020-07-27T04:45:27.797Z</time>
      </trkpt>
      <trkpt lat="48.574488" lon="16.849614">
        <ele>231.612885</ele>
        <time>2020-07-27T04:45:29.786Z</time>
      </trkpt>
      <trkpt lat="48.574388" lon="16.849683">
        <ele>231.627240</ele>
        <time>2020-07-27T04:45:31.810Z</time>
      </trkpt>
      <trkpt lat="48.574287" lon="16.849752">
        <ele>231.641715</ele>
        <time>2020-07-27T04:45:33.778Z</time>
      </trkpt>
      <trkpt lat="48.574187" lon="16.849804">
        <ele>231.655526</ele>
        <time>2020-07-27T04:45:35.803Z</time>
      </trkpt>
      <trkpt lat="48.574078" lon="16.849871">
        <ele>231.670892</ele>
        <time>2020-07-27T04:45:37.815Z</time>
      </trkpt>
      <trkpt lat="48.573974" lon="16.849936">
        <ele>231.685589</ele>
        <time>2020-07-27T04:45:39.825Z</time>
      </trkpt>
      <trkpt lat="48.573871" lon="16.849997">
        <ele>231.700036</ele>
        <time>2020-07-27T04:45:41.819Z</time>
      </trkpt>
      <trkpt lat="48.573770" lon="16.850057">
        <ele>231.710153</ele>
        <time>2020-07-27T04:45:43.793Z</time>
      </trkpt>
      <trkpt lat="48.573672" lon="16.850111">
        <ele>231.707863</ele>
        <time>2020-07-27T04:45:45.792Z</time>
      </trkpt>
      <trkpt lat="48.573570" lon="16.850174">
        <ele>231.705445</ele>
        <time>2020-07-27T04:45:47.790Z</time>
      </trkpt>
      <trkpt lat="48.573466" lon="16.850238">
        <ele>231.702980</ele>
        <time>2020-07-27T04:45:49.783Z</time>
      </trkpt>
      <trkpt lat="48.573358" lon="16.850302">
        <ele>231.700434</ele>
        <time>2020-07-27T04:45:51.798Z</time>
      </trkpt>
      <trkpt lat="48.573251" lon="16.850356">
        <ele>231.697958</ele>
        <time>2020-07-27T04:45:53.798Z</time>
      </trkpt>
      <trkpt lat="48.573145" lon="16.850417">
        <ele>231.695469</ele>
        <time>2020-07-27T04:45:55.789Z</time>
      </trkpt>
      <trkpt lat="48.573040" lon="16.850481">
        <ele>231.692984</ele>
        <time>2020-07-27T04:45:57.782Z</time>
      </trkpt>
      <trkpt lat="48.572935" lon="16.850544">
        <ele>231.690504</ele>
        <time>2020-07-27T04:45:59.800Z</time>
      </trkpt>
      <trkpt lat="48.572830" lon="16.850612">
        <ele>231.687997</ele>
        <time>2020-07-27T04:46:01.810Z</time>
      </trkpt>
      <trkpt lat="48.572726" lon="16.850683">
        <ele>231.685492</ele>
        <time>2020-07-27T04:46:03.798Z</time>
      </trkpt>
      <trkpt lat="48.572622" lon="16.850753">
        <ele>231.682993</ele>
        <time>2020-07-27T04:46:05.794Z</time>
      </trkpt>
      <trkpt lat="48.572517" lon="16.850811">
        <ele>231.680540</ele>
        <time>2020-07-27T04:46:07.791Z</time>
      </trkpt>
      <trkpt lat="48.572415" lon="16.850866">
        <ele>231.678163</ele>
        <time>2020-07-27T04:46:09.788Z</time>
      </trkpt>
      <trkpt lat="48.572316" lon="16.850934">
        <ele>231.675776</ele>
        <time>2020-07-27T04:46:11.809Z</time>
      </trkpt>
      <trkpt lat="48.572223" lon="16.851016">
        <ele>231.673413</ele>
        <time>2020-07-27T04:46:13.802Z</time>
      </trkpt>
      <trkpt lat="48.572136" lon="16.851111">
        <ele>231.668227</ele>
        <time>2020-07-27T04:46:15.791Z</time>
      </trkpt>
      <trkpt lat="48.572057" lon="16.851178">
        <ele>231.638372</ele>
        <time>2020-07-27T04:46:17.786Z</time>
      </trkpt>
      <trkpt lat="48.571951" lon="16.851118">
        <ele>231.601068</ele>
        <time>2020-07-27T04:46:20.782Z</time>
      </trkpt>
      <trkpt lat="48.571871" lon="16.850997">
        <ele>231.563767</ele>
        <time>2020-07-27T04:46:23.807Z</time>
      </trkpt>
      <trkpt lat="48.571796" lon="16.850894">
        <ele>231.530369</ele>
        <time>2020-07-27T04:46:25.803Z</time>
      </trkpt>
      <trkpt lat="48.571714" lon="16.850788">
        <ele>231.494807</ele>
        <time>2020-07-27T04:46:27.795Z</time>
      </trkpt>
      <trkpt lat="48.571625" lon="16.850687">
        <ele>231.458127</ele>
        <time>2020-07-27T04:46:29.787Z</time>
      </trkpt>
      <trkpt lat="48.571536" lon="16.850588">
        <ele>231.421707</ele>
        <time>2020-07-27T04:46:31.783Z</time>
      </trkpt>
      <trkpt lat="48.571448" lon="16.850491">
        <ele>231.385810</ele>
        <time>2020-07-27T04:46:33.799Z</time>
      </trkpt>
      <trkpt lat="48.571368" lon="16.850404">
        <ele>231.353329</ele>
        <time>2020-07-27T04:46:35.781Z</time>
      </trkpt>
      <trkpt lat="48.571248" lon="16.850338">
        <ele>231.311243</ele>
        <time>2020-07-27T04:46:38.786Z</time>
      </trkpt>
      <trkpt lat="48.571159" lon="16.850376">
        <ele>231.280763</ele>
        <time>2020-07-27T04:46:40.795Z</time>
      </trkpt>
      <trkpt lat="48.571074" lon="16.850454">
        <ele>231.247990</ele>
        <time>2020-07-27T04:46:42.795Z</time>
      </trkpt>
      <trkpt lat="48.570996" lon="16.850543">
        <ele>231.215780</ele>
        <time>2020-07-27T04:46:44.793Z</time>
      </trkpt>
      <trkpt lat="48.570907" lon="16.850634">
        <ele>231.180366</ele>
        <time>2020-07-27T04:46:46.777Z</time>
      </trkpt>
      <trkpt lat="48.570822" lon="16.850730">
        <ele>231.145395</ele>
        <time>2020-07-27T04:46:48.819Z</time>
      </trkpt>
      <trkpt lat="48.570737" lon="16.850828">
        <ele>231.110160</ele>
        <time>2020-07-27T04:46:50.778Z</time>
      </trkpt>
      <trkpt lat="48.570665" lon="16.850916">
        <ele>231.079643</ele>
        <time>2020-07-27T04:46:52.792Z</time>
      </trkpt>
      <trkpt lat="48.570591" lon="16.851036">
        <ele>231.080764</ele>
        <time>2020-07-27T04:46:54.803Z</time>
      </trkpt>
      <trkpt lat="48.570517" lon="16.851164">
        <ele>231.083205</ele>
        <time>2020-07-27T04:46:56.792Z</time>
      </trkpt>
      <trkpt lat="48.570445" lon="16.851297">
        <ele>231.085672</ele>
        <time>2020-07-27T04:46:58.791Z</time>
      </trkpt>
      <trkpt lat="48.570377" lon="16.851426">
        <ele>231.088040</ele>
        <time>2020-07-27T04:47:00.825Z</time>
      </trkpt>
      <trkpt lat="48.570308" lon="16.851560">
        <ele>231.090478</ele>
        <time>2020-07-27T04:47:02.799Z</time>
      </trkpt>
      <trkpt lat="48.570245" lon="16.851694">
        <ele>231.092839</ele>
        <time>2020-07-27T04:47:04.810Z</time>
      </trkpt>
      <trkpt lat="48.570187" lon="16.851832">
        <ele>231.095186</ele>
        <time>2020-07-27T04:47:06.801Z</time>
      </trkpt>
      <trkpt lat="48.570126" lon="16.851967">
        <ele>231.097533</ele>
        <time>2020-07-27T04:47:08.796Z</time>
      </trkpt>
      <trkpt lat="48.570064" lon="16.852099">
        <ele>231.099858</ele>
        <time>2020-07-27T04:47:10.776Z</time>
      </trkpt>
      <trkpt lat="48.570001" lon="16.852232">
        <ele>231.102206</ele>
        <time>2020-07-27T04:47:12.777Z</time>
      </trkpt>
      <trkpt lat="48.569939" lon="16.852359">
        <ele>231.104473</ele>
        <time>2020-07-27T04:47:14.812Z</time>
      </trkpt>
      <trkpt lat="48.569868" lon="16.852453">
        <ele>231.106521</ele>
        <time>2020-07-27T04:47:16.798Z</time>
      </trkpt>
      <trkpt lat="48.569785" lon="16.852532">
        <ele>231.108649</ele>
        <time>2020-07-27T04:47:18.789Z</time>
      </trkpt>
      <trkpt lat="48.569703" lon="16.852603">
        <ele>231.110700</ele>
        <time>2020-07-27T04:47:20.812Z</time>
      </trkpt>
      <trkpt lat="48.569638" lon="16.852716">
        <ele>231.112850</ele>
        <time>2020-07-27T04:47:22.811Z</time>
      </trkpt>
      <trkpt lat="48.569581" lon="16.852847">
        <ele>231.115101</ele>
        <time>2020-07-27T04:47:24.797Z</time>
      </trkpt>
      <trkpt lat="48.569533" lon="16.852991">
        <ele>231.117417</ele>
        <time>2020-07-27T04:47:26.798Z</time>
      </trkpt>
      <trkpt lat="48.569490" lon="16.853129">
        <ele>231.074763</ele>
        <time>2020-07-27T04:47:28.788Z</time>
      </trkpt>
      <trkpt lat="48.569448" lon="16.853263">
        <ele>231.031240</ele>
        <time>2020-07-27T04:47:30.771Z</time>
      </trkpt>
      <trkpt lat="48.569404" lon="16.853397">
        <ele>230.987331</ele>
        <time>2020-07-27T04:47:32.800Z</time>
      </trkpt>
      <trkpt lat="48.569362" lon="16.853522">
        <ele>230.946180</ele>
        <time>2020-07-27T04:47:34.801Z</time>
      </trkpt>
      <trkpt lat="48.569317" lon="16.853643">
        <ele>230.905438</ele>
        <time>2020-07-27T04:47:36.803Z</time>
      </trkpt>
      <trkpt lat="48.569258" lon="16.853822">
        <ele>230.846739</ele>
        <time>2020-07-27T04:47:39.799Z</time>
      </trkpt>
      <trkpt lat="48.569221" lon="16.853956">
        <ele>230.804118</ele>
        <time>2020-07-27T04:47:41.811Z</time>
      </trkpt>
      <trkpt lat="48.569212" lon="16.854118">
        <ele>230.756399</ele>
        <time>2020-07-27T04:47:43.788Z</time>
      </trkpt>
      <trkpt lat="48.569233" lon="16.854294">
        <ele>230.703904</ele>
        <time>2020-07-27T04:47:45.780Z</time>
      </trkpt>
      <trkpt lat="48.569243" lon="16.854474">
        <ele>230.650883</ele>
        <time>2020-07-27T04:47:47.795Z</time>
      </trkpt>
      <trkpt lat="48.569238" lon="16.854657">
        <ele>230.597121</ele>
        <time>2020-07-27T04:47:49.798Z</time>
      </trkpt>
      <trkpt lat="48.569183" lon="16.854825">
        <ele>230.542102</ele>
        <time>2020-07-27T04:47:51.777Z</time>
      </trkpt>
      <trkpt lat="48.569121" lon="16.854983">
        <ele>230.488183</ele>
        <time>2020-07-27T04:47:53.780Z</time>
      </trkpt>
      <trkpt lat="48.569066" lon="16.855135">
        <ele>230.437331</ele>
        <time>2020-07-27T04:47:55.786Z</time>
      </trkpt>
      <trkpt lat="48.569014" lon="16.855281">
        <ele>230.388662</ele>
        <time>2020-07-27T04:47:57.794Z</time>
      </trkpt>
      <trkpt lat="48.568965" lon="16.855425">
        <ele>230.341132</ele>
        <time>2020-07-27T04:47:59.797Z</time>
      </trkpt>
      <trkpt lat="48.568919" lon="16.855570">
        <ele>230.196909</ele>
        <time>2020-07-27T04:48:01.775Z</time>
      </trkpt>
      <trkpt lat="48.568869" lon="16.855723">
        <ele>229.957878</ele>
        <time>2020-07-27T04:48:03.824Z</time>
      </trkpt>
      <trkpt lat="48.568821" lon="16.855873">
        <ele>229.724482</ele>
        <time>2020-07-27T04:48:05.798Z</time>
      </trkpt>
      <trkpt lat="48.568778" lon="16.856011">
        <ele>229.510815</ele>
        <time>2020-07-27T04:48:07.812Z</time>
      </trkpt>
      <trkpt lat="48.568730" lon="16.856151">
        <ele>229.289945</ele>
        <time>2020-07-27T04:48:09.792Z</time>
      </trkpt>
      <trkpt lat="48.568677" lon="16.856302">
        <ele>229.050514</ele>
        <time>2020-07-27T04:48:11.801Z</time>
      </trkpt>
      <trkpt lat="48.568626" lon="16.856441">
        <ele>228.827877</ele>
        <time>2020-07-27T04:48:13.792Z</time>
      </trkpt>
      <trkpt lat="48.568576" lon="16.856577">
        <ele>228.609942</ele>
        <time>2020-07-27T04:48:15.796Z</time>
      </trkpt>
      <trkpt lat="48.568532" lon="16.856725">
        <ele>228.382663</ele>
        <time>2020-07-27T04:48:17.792Z</time>
      </trkpt>
      <trkpt lat="48.568489" lon="16.856866">
        <ele>228.165186</ele>
        <time>2020-07-27T04:48:19.792Z</time>
      </trkpt>
      <trkpt lat="48.568448" lon="16.857007">
        <ele>227.949446</ele>
        <time>2020-07-27T04:48:21.782Z</time>
      </trkpt>
      <trkpt lat="48.568400" lon="16.857144">
        <ele>227.732298</ele>
        <time>2020-07-27T04:48:23.797Z</time>
      </trkpt>
      <trkpt lat="48.568356" lon="16.857271">
        <ele>227.531489</ele>
        <time>2020-07-27T04:48:25.782Z</time>
      </trkpt>
      <trkpt lat="48.568316" lon="16.857421">
        <ele>227.304950</ele>
        <time>2020-07-27T04:48:28.804Z</time>
      </trkpt>
      <trkpt lat="48.568283" lon="16.857581">
        <ele>227.070188</ele>
        <time>2020-07-27T04:48:32.789Z</time>
      </trkpt>
      <trkpt lat="48.568279" lon="16.857738">
        <ele>226.850101</ele>
        <time>2020-07-27T04:48:35.812Z</time>
      </trkpt>
      <trkpt lat="48.568296" lon="16.857878">
        <ele>226.650715</ele>
        <time>2020-07-27T04:48:37.779Z</time>
      </trkpt>
      <trkpt lat="48.568303" lon="16.858037">
        <ele>226.471228</ele>
        <time>2020-07-27T04:48:39.820Z</time>
      </trkpt>
      <trkpt lat="48.568309" lon="16.858193">
        <ele>226.365421</ele>
        <time>2020-07-27T04:48:41.810Z</time>
      </trkpt>
      <trkpt lat="48.568312" lon="16.858354">
        <ele>226.256363</ele>
        <time>2020-07-27T04:48:43.819Z</time>
      </trkpt>
      <trkpt lat="48.568317" lon="16.858513">
        <ele>226.148580</ele>
        <time>2020-07-27T04:48:45.792Z</time>
      </trkpt>
      <trkpt lat="48.568317" lon="16.858717">
        <ele>226.010450</ele>
        <time>2020-07-27T04:48:48.792Z</time>
      </trkpt>
      <trkpt lat="48.568319" lon="16.858884">
        <ele>225.897354</ele>
        <time>2020-07-27T04:48:50.807Z</time>
      </trkpt>
      <trkpt lat="48.568320" lon="16.859056">
        <ele>225.780886</ele>
        <time>2020-07-27T04:48:52.812Z</time>
      </trkpt>
      <trkpt lat="48.568323" lon="16.859227">
        <ele>225.665060</ele>
        <time>2020-07-27T04:48:54.801Z</time>
      </trkpt>
      <trkpt lat="48.568332" lon="16.859380">
        <ele>225.561053</ele>
        <time>2020-07-27T04:48:56.780Z</time>
      </trkpt>
      <trkpt lat="48.568340" lon="16.859562">
        <ele>225.437548</ele>
        <time>2020-07-27T04:48:58.789Z</time>
      </trkpt>
      <trkpt lat="48.568338" lon="16.859740">
        <ele>225.317005</ele>
        <time>2020-07-27T04:49:00.778Z</time>
      </trkpt>
      <trkpt lat="48.568334" lon="16.859914">
        <ele>225.199116</ele>
        <time>2020-07-27T04:49:02.801Z</time>
      </trkpt>
      <trkpt lat="48.568333" lon="16.860085">
        <ele>225.083326</ele>
        <time>2020-07-27T04:49:04.775Z</time>
      </trkpt>
      <trkpt lat="48.568333" lon="16.860253">
        <ele>224.969571</ele>
        <time>2020-07-27T04:49:06.800Z</time>
      </trkpt>
      <trkpt lat="48.568332" lon="16.860426">
        <ele>224.852427</ele>
        <time>2020-07-27T04:49:08.794Z</time>
      </trkpt>
      <trkpt lat="48.568335" lon="16.860597">
        <ele>224.736600</ele>
        <time>2020-07-27T04:49:10.797Z</time>
      </trkpt>
      <trkpt lat="48.568337" lon="16.860762">
        <ele>224.634515</ele>
        <time>2020-07-27T04:49:12.796Z</time>
      </trkpt>
      <trkpt lat="48.568335" lon="16.860903">
        <ele>224.558713</ele>
        <time>2020-07-27T04:49:14.803Z</time>
      </trkpt>
      <trkpt lat="48.568335" lon="16.861043">
        <ele>224.483466</ele>
        <time>2020-07-27T04:49:16.781Z</time>
      </trkpt>
      <trkpt lat="48.568338" lon="16.861195">
        <ele>224.401732</ele>
        <time>2020-07-27T04:49:18.816Z</time>
      </trkpt>
      <trkpt lat="48.568344" lon="16.861343">
        <ele>224.322036</ele>
        <time>2020-07-27T04:49:22.792Z</time>
      </trkpt>
      <trkpt lat="48.568258" lon="16.861281">
        <ele>224.244642</ele>
        <time>2020-07-27T04:49:27.796Z</time>
      </trkpt>
      <trkpt lat="48.568167" lon="16.861147">
        <ele>224.141441</ele>
        <time>2020-07-27T04:49:30.800Z</time>
      </trkpt>
      <trkpt lat="48.568094" lon="16.861041">
        <ele>224.059211</ele>
        <time>2020-07-27T04:49:32.787Z</time>
      </trkpt>
      <trkpt lat="48.568015" lon="16.860934">
        <ele>223.973043</ele>
        <time>2020-07-27T04:49:34.805Z</time>
      </trkpt>
      <trkpt lat="48.567944" lon="16.860839">
        <ele>223.896018</ele>
        <time>2020-07-27T04:49:36.806Z</time>
      </trkpt>
      <trkpt lat="48.567869" lon="16.860741">
        <ele>223.815485</ele>
        <time>2020-07-27T04:49:38.800Z</time>
      </trkpt>
      <trkpt lat="48.567794" lon="16.860656">
        <ele>223.739339</ele>
        <time>2020-07-27T04:49:40.795Z</time>
      </trkpt>
      <trkpt lat="48.567682" lon="16.860552">
        <ele>223.632567</ele>
        <time>2020-07-27T04:49:43.790Z</time>
      </trkpt>
      <trkpt lat="48.567602" lon="16.860465">
        <ele>223.552511</ele>
        <time>2020-07-27T04:49:45.791Z</time>
      </trkpt>
      <trkpt lat="48.567524" lon="16.860377">
        <ele>223.473447</ele>
        <time>2020-07-27T04:49:47.800Z</time>
      </trkpt>
      <trkpt lat="48.567446" lon="16.860294">
        <ele>223.395962</ele>
        <time>2020-07-27T04:49:49.792Z</time>
      </trkpt>
      <trkpt lat="48.567364" lon="16.860226">
        <ele>223.319989</ele>
        <time>2020-07-27T04:49:51.806Z</time>
      </trkpt>
      <trkpt lat="48.567282" lon="16.860158">
        <ele>223.244016</ele>
        <time>2020-07-27T04:49:53.802Z</time>
      </trkpt>
      <trkpt lat="48.567205" lon="16.860081">
        <ele>223.155849</ele>
        <time>2020-07-27T04:49:55.803Z</time>
      </trkpt>
      <trkpt lat="48.567124" lon="16.860004">
        <ele>223.053597</ele>
        <time>2020-07-27T04:49:57.820Z</time>
      </trkpt>
      <trkpt lat="48.567041" lon="16.859927">
        <ele>222.949529</ele>
        <time>2020-07-27T04:49:59.785Z</time>
      </trkpt>
      <trkpt lat="48.566931" lon="16.859824">
        <ele>222.811255</ele>
        <time>2020-07-27T04:50:02.793Z</time>
      </trkpt>
      <trkpt lat="48.566820" lon="16.859705">
        <ele>222.665831</ele>
        <time>2020-07-27T04:50:05.794Z</time>
      </trkpt>
      <trkpt lat="48.566729" lon="16.859625">
        <ele>222.553337</ele>
        <time>2020-07-27T04:50:08.791Z</time>
      </trkpt>
      <trkpt lat="48.566634" lon="16.859695">
        <ele>222.440401</ele>
        <time>2020-07-27T04:50:12.792Z</time>
      </trkpt>
      <trkpt lat="48.566565" lon="16.859811">
        <ele>222.330111</ele>
        <time>2020-07-27T04:50:15.795Z</time>
      </trkpt>
      <trkpt lat="48.566472" lon="16.859913">
        <ele>222.207322</ele>
        <time>2020-07-27T04:50:19.772Z</time>
      </trkpt>
      <trkpt lat="48.566555" lon="16.859801">
        <ele>222.088420</ele>
        <time>2020-07-27T04:50:33.776Z</time>
      </trkpt>
      <trkpt lat="48.566636" lon="16.859700">
        <ele>221.976207</ele>
        <time>2020-07-27T04:50:36.823Z</time>
      </trkpt>
      <trkpt lat="48.566751" lon="16.859684">
        <ele>221.852806</ele>
        <time>2020-07-27T04:50:39.804Z</time>
      </trkpt>
      <trkpt lat="48.566853" lon="16.859802">
        <ele>221.715544</ele>
        <time>2020-07-27T04:50:42.786Z</time>
      </trkpt>
      <trkpt lat="48.566930" lon="16.859878">
        <ele>221.617271</ele>
        <time>2020-07-27T04:50:44.806Z</time>
      </trkpt>
      <trkpt lat="48.567017" lon="16.859968">
        <ele>221.504612</ele>
        <time>2020-07-27T04:50:46.794Z</time>
      </trkpt>
      <trkpt lat="48.567111" lon="16.860064">
        <ele>221.383383</ele>
        <time>2020-07-27T04:50:48.822Z</time>
      </trkpt>
      <trkpt lat="48.567202" lon="16.860154">
        <ele>221.269385</ele>
        <time>2020-07-27T04:50:50.791Z</time>
      </trkpt>
      <trkpt lat="48.567296" lon="16.860248">
        <ele>221.161238</ele>
        <time>2020-07-27T04:50:52.770Z</time>
      </trkpt>
      <trkpt lat="48.567393" lon="16.860334">
        <ele>221.053336</ele>
        <time>2020-07-27T04:50:54.787Z</time>
      </trkpt>
      <trkpt lat="48.567493" lon="16.860432">
        <ele>220.938983</ele>
        <time>2020-07-27T04:50:56.804Z</time>
      </trkpt>
      <trkpt lat="48.567585" lon="16.860527">
        <ele>220.832074</ele>
        <time>2020-07-27T04:50:58.792Z</time>
      </trkpt>
      <trkpt lat="48.567678" lon="16.860618">
        <ele>220.725774</ele>
        <time>2020-07-27T04:51:00.809Z</time>
      </trkpt>
      <trkpt lat="48.567773" lon="16.860720">
        <ele>220.613963</ele>
        <time>2020-07-27T04:51:02.780Z</time>
      </trkpt>
      <trkpt lat="48.567860" lon="16.860823">
        <ele>220.507925</ele>
        <time>2020-07-27T04:51:04.787Z</time>
      </trkpt>
      <trkpt lat="48.567947" lon="16.860919">
        <ele>220.404569</ele>
        <time>2020-07-27T04:51:06.789Z</time>
      </trkpt>
      <trkpt lat="48.568031" lon="16.861025">
        <ele>220.299572</ele>
        <time>2020-07-27T04:51:08.778Z</time>
      </trkpt>
      <trkpt lat="48.568114" lon="16.861124">
        <ele>220.198121</ele>
        <time>2020-07-27T04:51:10.793Z</time>
      </trkpt>
      <trkpt lat="48.568202" lon="16.861235">
        <ele>220.088143</ele>
        <time>2020-07-27T04:51:12.782Z</time>
      </trkpt>
      <trkpt lat="48.568279" lon="16.861343">
        <ele>219.987349</ele>
        <time>2020-07-27T04:51:14.807Z</time>
      </trkpt>
      <trkpt lat="48.568354" lon="16.861444">
        <ele>219.890964</ele>
        <time>2020-07-27T04:51:16.793Z</time>
      </trkpt>
      <trkpt lat="48.568429" lon="16.861547">
        <ele>219.793731</ele>
        <time>2020-07-27T04:51:18.791Z</time>
      </trkpt>
      <trkpt lat="48.568507" lon="16.861655">
        <ele>219.692231</ele>
        <time>2020-07-27T04:51:20.784Z</time>
      </trkpt>
      <trkpt lat="48.568582" lon="16.861761">
        <ele>219.593707</ele>
        <time>2020-07-27T04:51:22.792Z</time>
      </trkpt>
      <trkpt lat="48.568659" lon="16.861857">
        <ele>219.528834</ele>
        <time>2020-07-27T04:51:24.815Z</time>
      </trkpt>
      <trkpt lat="48.568734" lon="16.861936">
        <ele>219.482689</ele>
        <time>2020-07-27T04:51:26.787Z</time>
      </trkpt>
      <trkpt lat="48.568764" lon="16.862066">
        <ele>219.436704</ele>
        <time>2020-07-27T04:51:28.780Z</time>
      </trkpt>
      <trkpt lat="48.568710" lon="16.862180">
        <ele>219.389877</ele>
        <time>2020-07-27T04:51:30.783Z</time>
      </trkpt>
      <trkpt lat="48.568628" lon="16.862300">
        <ele>219.332262</ele>
        <time>2020-07-27T04:51:32.777Z</time>
      </trkpt>
      <trkpt lat="48.568552" lon="16.862431">
        <ele>219.274073</ele>
        <time>2020-07-27T04:51:34.803Z</time>
      </trkpt>
      <trkpt lat="48.568473" lon="16.862572">
        <ele>219.212364</ele>
        <time>2020-07-27T04:51:36.773Z</time>
      </trkpt>
      <trkpt lat="48.568393" lon="16.862714">
        <ele>219.150074</ele>
        <time>2020-07-27T04:51:38.804Z</time>
      </trkpt>
      <trkpt lat="48.568316" lon="16.862852">
        <ele>219.089783</ele>
        <time>2020-07-27T04:51:40.779Z</time>
      </trkpt>
      <trkpt lat="48.568243" lon="16.862978">
        <ele>219.033847</ele>
        <time>2020-07-27T04:51:42.790Z</time>
      </trkpt>
      <trkpt lat="48.568165" lon="16.863101">
        <ele>218.976945</ele>
        <time>2020-07-27T04:51:44.812Z</time>
      </trkpt>
      <trkpt lat="48.568091" lon="16.863217">
        <ele>218.923128</ele>
        <time>2020-07-27T04:51:46.789Z</time>
      </trkpt>
      <trkpt lat="48.568021" lon="16.863336">
        <ele>218.869947</ele>
        <time>2020-07-27T04:51:48.783Z</time>
      </trkpt>
      <trkpt lat="48.567956" lon="16.863448">
        <ele>218.820189</ele>
        <time>2020-07-27T04:51:50.782Z</time>
      </trkpt>
      <trkpt lat="48.567874" lon="16.863524">
        <ele>218.771635</ele>
        <time>2020-07-27T04:51:52.775Z</time>
      </trkpt>
      <trkpt lat="48.567787" lon="16.863443">
        <ele>218.720057</ele>
        <time>2020-07-27T04:51:54.794Z</time>
      </trkpt>
      <trkpt lat="48.567716" lon="16.863325">
        <ele>218.666787</ele>
        <time>2020-07-27T04:51:56.788Z</time>
      </trkpt>
      <trkpt lat="48.567644" lon="16.863208">
        <ele>218.587294</ele>
        <time>2020-07-27T04:51:58.808Z</time>
      </trkpt>
      <trkpt lat="48.567574" lon="16.863095">
        <ele>218.503319</ele>
        <time>2020-07-27T04:52:00.791Z</time>
      </trkpt>
      <trkpt lat="48.567507" lon="16.862982">
        <ele>218.421005</ele>
        <time>2020-07-27T04:52:02.800Z</time>
      </trkpt>
      <trkpt lat="48.567436" lon="16.862875">
        <ele>218.338798</ele>
        <time>2020-07-27T04:52:04.793Z</time>
      </trkpt>
      <trkpt lat="48.567369" lon="16.862779">
        <ele>218.263102</ele>
        <time>2020-07-27T04:52:06.791Z</time>
      </trkpt>
      <trkpt lat="48.567287" lon="16.862641">
        <ele>218.162480</ele>
        <time>2020-07-27T04:52:09.792Z</time>
      </trkpt>
      <trkpt lat="48.567272" lon="16.862450">
        <ele>218.058130</ele>
        <time>2020-07-27T04:52:12.805Z</time>
      </trkpt>
      <trkpt lat="48.567295" lon="16.862287">
        <ele>217.967711</ele>
        <time>2020-07-27T04:52:15.806Z</time>
      </trkpt>
      <trkpt lat="48.567342" lon="16.862158">
        <ele>217.887818</ele>
        <time>2020-07-27T04:52:19.805Z</time>
      </trkpt>
      <trkpt lat="48.567290" lon="16.862313">
        <ele>217.793538</ele>
        <time>2020-07-27T04:52:25.822Z</time>
      </trkpt>
      <trkpt lat="48.567263" lon="16.862470">
        <ele>217.705532</ele>
        <time>2020-07-27T04:52:28.799Z</time>
      </trkpt>
      <trkpt lat="48.567293" lon="16.862650">
        <ele>217.604828</ele>
        <time>2020-07-27T04:52:31.779Z</time>
      </trkpt>
      <trkpt lat="48.567352" lon="16.862757">
        <ele>217.529266</ele>
        <time>2020-07-27T04:52:33.790Z</time>
      </trkpt>
      <trkpt lat="48.567416" lon="16.862855">
        <ele>217.454567</ele>
        <time>2020-07-27T04:52:35.774Z</time>
      </trkpt>
      <trkpt lat="48.567492" lon="16.862955">
        <ele>217.371950</ele>
        <time>2020-07-27T04:52:37.828Z</time>
      </trkpt>
      <trkpt lat="48.567570" lon="16.863061">
        <ele>217.285947</ele>
        <time>2020-07-27T04:52:39.787Z</time>
      </trkpt>
      <trkpt lat="48.567649" lon="16.863177">
        <ele>217.195640</ele>
        <time>2020-07-27T04:52:41.790Z</time>
      </trkpt>
      <trkpt lat="48.567723" lon="16.863276">
        <ele>217.127956</ele>
        <time>2020-07-27T04:52:43.795Z</time>
      </trkpt>
      <trkpt lat="48.567798" lon="16.863379">
        <ele>217.061654</ele>
        <time>2020-07-27T04:52:45.794Z</time>
      </trkpt>
      <trkpt lat="48.567859" lon="16.863490">
        <ele>216.999189</ele>
        <time>2020-07-27T04:52:47.772Z</time>
      </trkpt>
      <trkpt lat="48.567813" lon="16.863633">
        <ele>216.930355</ele>
        <time>2020-07-27T04:52:50.790Z</time>
      </trkpt>
      <trkpt lat="48.567726" lon="16.863777">
        <ele>216.845939</ele>
        <time>2020-07-27T04:52:53.779Z</time>
      </trkpt>
      <trkpt lat="48.567648" lon="16.863921">
        <ele>216.765376</ele>
        <time>2020-07-27T04:52:56.791Z</time>
      </trkpt>
      <trkpt lat="48.567558" lon="16.864068">
        <ele>216.678676</ele>
        <time>2020-07-27T04:52:59.787Z</time>
      </trkpt>
      <trkpt lat="48.567479" lon="16.864208">
        <ele>216.599023</ele>
        <time>2020-07-27T04:53:02.783Z</time>
      </trkpt>
      <trkpt lat="48.567399" lon="16.864346">
        <ele>216.519596</ele>
        <time>2020-07-27T04:53:05.809Z</time>
      </trkpt>
      <trkpt lat="48.567351" lon="16.864464">
        <ele>216.459631</ele>
        <time>2020-07-27T04:53:07.802Z</time>
      </trkpt>
      <trkpt lat="48.567303" lon="16.864625">
        <ele>216.383183</ele>
        <time>2020-07-27T04:53:09.776Z</time>
      </trkpt>
      <trkpt lat="48.567264" lon="16.864800">
        <ele>216.303240</ele>
        <time>2020-07-27T04:53:11.816Z</time>
      </trkpt>
      <trkpt lat="48.567222" lon="16.864983">
        <ele>216.219385</ele>
        <time>2020-07-27T04:53:13.795Z</time>
      </trkpt>
      <trkpt lat="48.567172" lon="16.865157">
        <ele>216.137260</ele>
        <time>2020-07-27T04:53:15.815Z</time>
      </trkpt>
      <trkpt lat="48.567122" lon="16.865334">
        <ele>216.053942</ele>
        <time>2020-07-27T04:53:17.790Z</time>
      </trkpt>
      <trkpt lat="48.567078" lon="16.865509">
        <ele>215.995248</ele>
        <time>2020-07-27T04:53:19.794Z</time>
      </trkpt>
      <trkpt lat="48.567038" lon="16.865689">
        <ele>215.972222</ele>
        <time>2020-07-27T04:53:21.801Z</time>
      </trkpt>
      <trkpt lat="48.566995" lon="16.865866">
        <ele>215.949357</ele>
        <time>2020-07-27T04:53:23.797Z</time>
      </trkpt>
      <trkpt lat="48.566946" lon="16.866036">
        <ele>215.926870</ele>
        <time>2020-07-27T04:53:25.797Z</time>
      </trkpt>
      <trkpt lat="48.566901" lon="16.866208">
        <ele>215.904441</ele>
        <time>2020-07-27T04:53:27.801Z</time>
      </trkpt>
      <trkpt lat="48.566852" lon="16.866384">
        <ele>215.881285</ele>
        <time>2020-07-27T04:53:29.803Z</time>
      </trkpt>
      <trkpt lat="48.566804" lon="16.866559">
        <ele>215.858312</ele>
        <time>2020-07-27T04:53:31.781Z</time>
      </trkpt>
      <trkpt lat="48.566758" lon="16.866730">
        <ele>215.835927</ele>
        <time>2020-07-27T04:53:33.773Z</time>
      </trkpt>
      <trkpt lat="48.566713" lon="16.866899">
        <ele>215.813836</ele>
        <time>2020-07-27T04:53:35.788Z</time>
      </trkpt>
      <trkpt lat="48.566668" lon="16.867071">
        <ele>215.791406</ele>
        <time>2020-07-27T04:53:37.801Z</time>
      </trkpt>
      <trkpt lat="48.566598" lon="16.867198">
        <ele>215.771362</ele>
        <time>2020-07-27T04:53:39.778Z</time>
      </trkpt>
      <trkpt lat="48.566482" lon="16.867157">
        <ele>215.749531</ele>
        <time>2020-07-27T04:53:41.806Z</time>
      </trkpt>
      <trkpt lat="48.566385" lon="16.867051">
        <ele>215.727594</ele>
        <time>2020-07-27T04:53:43.790Z</time>
      </trkpt>
      <trkpt lat="48.566284" lon="16.866957">
        <ele>215.705856</ele>
        <time>2020-07-27T04:53:45.801Z</time>
      </trkpt>
      <trkpt lat="48.566184" lon="16.866863">
        <ele>215.684274</ele>
        <time>2020-07-27T04:53:47.844Z</time>
      </trkpt>
      <trkpt lat="48.566087" lon="16.866775">
        <ele>215.709903</ele>
        <time>2020-07-27T04:53:49.783Z</time>
      </trkpt>
      <trkpt lat="48.565995" lon="16.866686">
        <ele>215.775891</ele>
        <time>2020-07-27T04:53:51.824Z</time>
      </trkpt>
      <trkpt lat="48.565905" lon="16.866601">
        <ele>215.840003</ele>
        <time>2020-07-27T04:53:53.811Z</time>
      </trkpt>
      <trkpt lat="48.565815" lon="16.866515">
        <ele>215.904327</ele>
        <time>2020-07-27T04:53:55.807Z</time>
      </trkpt>
      <trkpt lat="48.565729" lon="16.866430">
        <ele>215.966403</ele>
        <time>2020-07-27T04:53:57.801Z</time>
      </trkpt>
      <trkpt lat="48.565640" lon="16.866344">
        <ele>216.030218</ele>
        <time>2020-07-27T04:53:59.805Z</time>
      </trkpt>
      <trkpt lat="48.565553" lon="16.866261">
        <ele>216.092370</ele>
        <time>2020-07-27T04:54:01.785Z</time>
      </trkpt>
      <trkpt lat="48.565463" lon="16.866174">
        <ele>216.156909</ele>
        <time>2020-07-27T04:54:03.790Z</time>
      </trkpt>
      <trkpt lat="48.565382" lon="16.866107">
        <ele>216.212690</ele>
        <time>2020-07-27T04:54:05.791Z</time>
      </trkpt>
      <trkpt lat="48.565268" lon="16.866158">
        <ele>216.284509</ele>
        <time>2020-07-27T04:54:08.801Z</time>
      </trkpt>
      <trkpt lat="48.565219" lon="16.866277">
        <ele>216.340537</ele>
        <time>2020-07-27T04:54:10.783Z</time>
      </trkpt>
      <trkpt lat="48.565178" lon="16.866409">
        <ele>216.398829</ele>
        <time>2020-07-27T04:54:12.797Z</time>
      </trkpt>
      <trkpt lat="48.565133" lon="16.866557">
        <ele>216.463939</ele>
        <time>2020-07-27T04:54:14.813Z</time>
      </trkpt>
      <trkpt lat="48.565092" lon="16.866721">
        <ele>216.534021</ele>
        <time>2020-07-27T04:54:16.820Z</time>
      </trkpt>
      <trkpt lat="48.565045" lon="16.866896">
        <ele>216.609521</ele>
        <time>2020-07-27T04:54:18.792Z</time>
      </trkpt>
      <trkpt lat="48.565001" lon="16.867057">
        <ele>216.679154</ele>
        <time>2020-07-27T04:54:20.780Z</time>
      </trkpt>
      <trkpt lat="48.564951" lon="16.867208">
        <ele>216.746653</ele>
        <time>2020-07-27T04:54:22.801Z</time>
      </trkpt>
      <trkpt lat="48.564901" lon="16.867372">
        <ele>216.786297</ele>
        <time>2020-07-27T04:54:24.795Z</time>
      </trkpt>
      <trkpt lat="48.564854" lon="16.867526">
        <ele>216.816050</ele>
        <time>2020-07-27T04:54:26.793Z</time>
      </trkpt>
      <trkpt lat="48.564808" lon="16.867676">
        <ele>216.845054</ele>
        <time>2020-07-27T04:54:28.809Z</time>
      </trkpt>
      <trkpt lat="48.564750" lon="16.867813">
        <ele>216.873587</ele>
        <time>2020-07-27T04:54:30.788Z</time>
      </trkpt>
      <trkpt lat="48.564676" lon="16.867934">
        <ele>216.902492</ele>
        <time>2020-07-27T04:54:32.831Z</time>
      </trkpt>
      <trkpt lat="48.564587" lon="16.868031">
        <ele>216.931584</ele>
        <time>2020-07-27T04:54:34.800Z</time>
      </trkpt>
      <trkpt lat="48.564491" lon="16.868105">
        <ele>216.960154</ele>
        <time>2020-07-27T04:54:36.790Z</time>
      </trkpt>
      <trkpt lat="48.564385" lon="16.868162">
        <ele>216.989982</ele>
        <time>2020-07-27T04:54:38.781Z</time>
      </trkpt>
      <trkpt lat="48.564278" lon="16.868210">
        <ele>217.019572</ele>
        <time>2020-07-27T04:54:40.791Z</time>
      </trkpt>
      <trkpt lat="48.564171" lon="16.868250">
        <ele>217.048794</ele>
        <time>2020-07-27T04:54:42.792Z</time>
      </trkpt>
      <trkpt lat="48.564068" lon="16.868291">
        <ele>217.077032</ele>
        <time>2020-07-27T04:54:44.817Z</time>
      </trkpt>
      <trkpt lat="48.563974" lon="16.868330">
        <ele>217.102874</ele>
        <time>2020-07-27T04:54:46.797Z</time>
      </trkpt>
      <trkpt lat="48.563888" lon="16.868376">
        <ele>217.127060</ele>
        <time>2020-07-27T04:54:48.782Z</time>
      </trkpt>
      <trkpt lat="48.563779" lon="16.868496">
        <ele>217.162813</ele>
        <time>2020-07-27T04:54:51.787Z</time>
      </trkpt>
      <trkpt lat="48.563703" lon="16.868605">
        <ele>217.190592</ele>
        <time>2020-07-27T04:54:53.792Z</time>
      </trkpt>
      <trkpt lat="48.563639" lon="16.868730">
        <ele>217.218319</ele>
        <time>2020-07-27T04:54:55.797Z</time>
      </trkpt>
      <trkpt lat="48.563564" lon="16.868848">
        <ele>217.220770</ele>
        <time>2020-07-27T04:54:57.785Z</time>
      </trkpt>
      <trkpt lat="48.563493" lon="16.868969">
        <ele>217.169396</ele>
        <time>2020-07-27T04:54:59.801Z</time>
      </trkpt>
      <trkpt lat="48.563425" lon="16.869082">
        <ele>217.120875</ele>
        <time>2020-07-27T04:55:01.785Z</time>
      </trkpt>
      <trkpt lat="48.563348" lon="16.869183">
        <ele>217.071928</ele>
        <time>2020-07-27T04:55:03.797Z</time>
      </trkpt>
      <trkpt lat="48.563265" lon="16.869306">
        <ele>217.016122</ele>
        <time>2020-07-27T04:55:05.800Z</time>
      </trkpt>
      <trkpt lat="48.563199" lon="16.869429">
        <ele>216.965816</ele>
        <time>2020-07-27T04:55:07.820Z</time>
      </trkpt>
      <trkpt lat="48.563139" lon="16.869538">
        <ele>216.920775</ele>
        <time>2020-07-27T04:55:09.812Z</time>
      </trkpt>
      <trkpt lat="48.563079" lon="16.869658">
        <ele>216.872995</ele>
        <time>2020-07-27T04:55:11.800Z</time>
      </trkpt>
      <trkpt lat="48.563030" lon="16.869790">
        <ele>216.824913</ele>
        <time>2020-07-27T04:55:13.808Z</time>
      </trkpt>
      <trkpt lat="48.562963" lon="16.869967">
        <ele>216.760134</ele>
        <time>2020-07-27T04:55:16.808Z</time>
      </trkpt>
      <trkpt lat="48.562916" lon="16.870083">
        <ele>216.716924</ele>
        <time>2020-07-27T04:55:18.789Z</time>
      </trkpt>
      <trkpt lat="48.562855" lon="16.870199">
        <ele>216.669854</ele>
        <time>2020-07-27T04:55:20.791Z</time>
      </trkpt>
      <trkpt lat="48.562791" lon="16.870328">
        <ele>216.618635</ele>
        <time>2020-07-27T04:55:22.810Z</time>
      </trkpt>
      <trkpt lat="48.562732" lon="16.870463">
        <ele>216.567239</ele>
        <time>2020-07-27T04:55:24.789Z</time>
      </trkpt>
      <trkpt lat="48.562671" lon="16.870599">
        <ele>216.515045</ele>
        <time>2020-07-27T04:55:26.815Z</time>
      </trkpt>
      <trkpt lat="48.562615" lon="16.870738">
        <ele>216.463347</ele>
        <time>2020-07-27T04:55:28.815Z</time>
      </trkpt>
      <trkpt lat="48.562552" lon="16.870865">
        <ele>216.412924</ele>
        <time>2020-07-27T04:55:30.792Z</time>
      </trkpt>
      <trkpt lat="48.562486" lon="16.870991">
        <ele>216.364638</ele>
        <time>2020-07-27T04:55:32.796Z</time>
      </trkpt>
      <trkpt lat="48.562419" lon="16.871127">
        <ele>216.322797</ele>
        <time>2020-07-27T04:55:34.805Z</time>
      </trkpt>
      <trkpt lat="48.562346" lon="16.871282">
        <ele>216.275848</ele>
        <time>2020-07-27T04:55:36.811Z</time>
      </trkpt>
      <trkpt lat="48.562283" lon="16.871435">
        <ele>216.231378</ele>
        <time>2020-07-27T04:55:38.822Z</time>
      </trkpt>
      <trkpt lat="48.562218" lon="16.871571">
        <ele>216.189978</ele>
        <time>2020-07-27T04:55:40.791Z</time>
      </trkpt>
      <trkpt lat="48.562153" lon="16.871702">
        <ele>216.149572</ele>
        <time>2020-07-27T04:55:42.791Z</time>
      </trkpt>
      <trkpt lat="48.562093" lon="16.871837">
        <ele>216.109440</ele>
        <time>2020-07-27T04:55:44.780Z</time>
      </trkpt>
      <trkpt lat="48.562034" lon="16.871984">
        <ele>216.067013</ele>
        <time>2020-07-27T04:55:46.797Z</time>
      </trkpt>
      <trkpt lat="48.561967" lon="16.872122">
        <ele>216.024775</ele>
        <time>2020-07-27T04:55:48.780Z</time>
      </trkpt>
      <trkpt lat="48.561898" lon="16.872242">
        <ele>215.985544</ele>
        <time>2020-07-27T04:55:50.780Z</time>
      </trkpt>
      <trkpt lat="48.561828" lon="16.872349">
        <ele>215.948414</ele>
        <time>2020-07-27T04:55:52.789Z</time>
      </trkpt>
      <trkpt lat="48.561729" lon="16.872503">
        <ele>215.895430</ele>
        <time>2020-07-27T04:55:55.787Z</time>
      </trkpt>
      <trkpt lat="48.561660" lon="16.872619">
        <ele>215.856939</ele>
        <time>2020-07-27T04:55:57.792Z</time>
      </trkpt>
      <trkpt lat="48.561595" lon="16.872740">
        <ele>215.818479</ele>
        <time>2020-07-27T04:55:59.793Z</time>
      </trkpt>
      <trkpt lat="48.561528" lon="16.872851">
        <ele>215.781403</ele>
        <time>2020-07-27T04:56:01.778Z</time>
      </trkpt>
      <trkpt lat="48.561463" lon="16.872983">
        <ele>215.740799</ele>
        <time>2020-07-27T04:56:03.806Z</time>
      </trkpt>
      <trkpt lat="48.561391" lon="16.873112">
        <ele>215.690230</ele>
        <time>2020-07-27T04:56:05.819Z</time>
      </trkpt>
      <trkpt lat="48.561324" lon="16.873241">
        <ele>215.567663</ele>
        <time>2020-07-27T04:56:07.801Z</time>
      </trkpt>
      <trkpt lat="48.561264" lon="16.873373">
        <ele>215.447971</ele>
        <time>2020-07-27T04:56:09.782Z</time>
      </trkpt>
      <trkpt lat="48.561214" lon="16.873516">
        <ele>215.327085</ele>
        <time>2020-07-27T04:56:11.789Z</time>
      </trkpt>
      <trkpt lat="48.561158" lon="16.873658">
        <ele>215.203532</ele>
        <time>2020-07-27T04:56:13.788Z</time>
      </trkpt>
      <trkpt lat="48.561102" lon="16.873787">
        <ele>215.088219</ele>
        <time>2020-07-27T04:56:15.801Z</time>
      </trkpt>
      <trkpt lat="48.561037" lon="16.873938">
        <ele>214.953580</ele>
        <time>2020-07-27T04:56:17.811Z</time>
      </trkpt>
      <trkpt lat="48.560982" lon="16.874087">
        <ele>214.826059</ele>
        <time>2020-07-27T04:56:19.786Z</time>
      </trkpt>
      <trkpt lat="48.560935" lon="16.874233">
        <ele>214.704705</ele>
        <time>2020-07-27T04:56:21.795Z</time>
      </trkpt>
      <trkpt lat="48.560989" lon="16.874342">
        <ele>214.602935</ele>
        <time>2020-07-27T04:56:23.793Z</time>
      </trkpt>
      <trkpt lat="48.561083" lon="16.874439">
        <ele>214.474377</ele>
        <time>2020-07-27T04:56:25.805Z</time>
      </trkpt>
      <trkpt lat="48.561179" lon="16.874514">
        <ele>214.352321</ele>
        <time>2020-07-27T04:56:27.810Z</time>
      </trkpt>
      <trkpt lat="48.561282" lon="16.874591">
        <ele>214.222535</ele>
        <time>2020-07-27T04:56:29.800Z</time>
      </trkpt>
      <trkpt lat="48.561390" lon="16.874665">
        <ele>214.088606</ele>
        <time>2020-07-27T04:56:31.806Z</time>
      </trkpt>
      <trkpt lat="48.561503" lon="16.874737">
        <ele>213.950103</ele>
        <time>2020-07-27T04:56:33.800Z</time>
      </trkpt>
      <trkpt lat="48.561617" lon="16.874804">
        <ele>213.811956</ele>
        <time>2020-07-27T04:56:35.793Z</time>
      </trkpt>
      <trkpt lat="48.561730" lon="16.874876">
        <ele>213.673453</ele>
        <time>2020-07-27T04:56:37.806Z</time>
      </trkpt>
      <trkpt lat="48.561842" lon="16.874946">
        <ele>213.526572</ele>
        <time>2020-07-27T04:56:39.802Z</time>
      </trkpt>
      <trkpt lat="48.561941" lon="16.875043">
        <ele>213.383492</ele>
        <time>2020-07-27T04:56:41.784Z</time>
      </trkpt>
      <trkpt lat="48.562003" lon="16.875191">
        <ele>213.242922</ele>
        <time>2020-07-27T04:56:43.787Z</time>
      </trkpt>
      <trkpt lat="48.562021" lon="16.875364">
        <ele>213.102379</ele>
        <time>2020-07-27T04:56:45.805Z</time>
      </trkpt>
      <trkpt lat="48.562005" lon="16.875536">
        <ele>212.962988</ele>
        <time>2020-07-27T04:56:47.786Z</time>
      </trkpt>
      <trkpt lat="48.561989" lon="16.875700">
        <ele>212.829951</ele>
        <time>2020-07-27T04:56:49.789Z</time>
      </trkpt>
      <trkpt lat="48.561979" lon="16.875862">
        <ele>212.699377</ele>
        <time>2020-07-27T04:56:51.792Z</time>
      </trkpt>
      <trkpt lat="48.561975" lon="16.876041">
        <ele>212.555642</ele>
        <time>2020-07-27T04:56:53.810Z</time>
      </trkpt>
      <trkpt lat="48.561970" lon="16.876217">
        <ele>212.414267</ele>
        <time>2020-07-27T04:56:55.797Z</time>
      </trkpt>
      <trkpt lat="48.561973" lon="16.876387">
        <ele>212.277789</ele>
        <time>2020-07-27T04:56:57.789Z</time>
      </trkpt>
      <trkpt lat="48.561975" lon="16.876553">
        <ele>212.144547</ele>
        <time>2020-07-27T04:56:59.780Z</time>
      </trkpt>
      <trkpt lat="48.561981" lon="16.876721">
        <ele>212.009526</ele>
        <time>2020-07-27T04:57:01.792Z</time>
      </trkpt>
      <trkpt lat="48.561989" lon="16.876887">
        <ele>211.875954</ele>
        <time>2020-07-27T04:57:03.793Z</time>
      </trkpt>
      <trkpt lat="48.561993" lon="16.877049">
        <ele>211.745854</ele>
        <time>2020-07-27T04:57:05.789Z</time>
      </trkpt>
      <trkpt lat="48.561997" lon="16.877206">
        <ele>211.619764</ele>
        <time>2020-07-27T04:57:07.774Z</time>
      </trkpt>
      <trkpt lat="48.562006" lon="16.877357">
        <ele>211.498091</ele>
        <time>2020-07-27T04:57:09.792Z</time>
      </trkpt>
      <trkpt lat="48.561976" lon="16.877494">
        <ele>211.429789</ele>
        <time>2020-07-27T04:57:11.771Z</time>
      </trkpt>
      <trkpt lat="48.561896" lon="16.877577">
        <ele>211.363486</ele>
        <time>2020-07-27T04:57:13.797Z</time>
      </trkpt>
      <trkpt lat="48.561817" lon="16.877657">
        <ele>211.298510</ele>
        <time>2020-07-27T04:57:15.792Z</time>
      </trkpt>
      <trkpt lat="48.561725" lon="16.877793">
        <ele>211.210573</ele>
        <time>2020-07-27T04:57:18.783Z</time>
      </trkpt>
      <trkpt lat="48.561709" lon="16.877941">
        <ele>211.142764</ele>
        <time>2020-07-27T04:57:21.784Z</time>
      </trkpt>
      <trkpt lat="48.561716" lon="16.878111">
        <ele>211.065745</ele>
        <time>2020-07-27T04:57:24.781Z</time>
      </trkpt>
      <trkpt lat="48.561610" lon="16.878238">
        <ele>210.973317</ele>
        <time>2020-07-27T04:57:27.778Z</time>
      </trkpt>
      <trkpt lat="48.561531" lon="16.878316">
        <ele>210.908840</ele>
        <time>2020-07-27T04:57:29.784Z</time>
      </trkpt>
      <trkpt lat="48.561445" lon="16.878376">
        <ele>210.844120</ele>
        <time>2020-07-27T04:57:31.788Z</time>
      </trkpt>
      <trkpt lat="48.561341" lon="16.878358">
        <ele>210.772599</ele>
        <time>2020-07-27T04:57:33.790Z</time>
      </trkpt>
      <trkpt lat="48.561245" lon="16.878302">
        <ele>210.702290</ele>
        <time>2020-07-27T04:57:35.799Z</time>
      </trkpt>
      <trkpt lat="48.561151" lon="16.878260">
        <ele>210.635316</ele>
        <time>2020-07-27T04:57:37.781Z</time>
      </trkpt>
      <trkpt lat="48.561048" lon="16.878233">
        <ele>210.563892</ele>
        <time>2020-07-27T04:57:39.797Z</time>
      </trkpt>
      <trkpt lat="48.560944" lon="16.878224">
        <ele>210.492718</ele>
        <time>2020-07-27T04:57:41.791Z</time>
      </trkpt>
      <trkpt lat="48.560839" lon="16.878226">
        <ele>210.420973</ele>
        <time>2020-07-27T04:57:43.794Z</time>
      </trkpt>
      <trkpt lat="48.560732" lon="16.878235">
        <ele>210.347753</ele>
        <time>2020-07-27T04:57:45.803Z</time>
      </trkpt>
      <trkpt lat="48.560627" lon="16.878260">
        <ele>210.275128</ele>
        <time>2020-07-27T04:57:47.825Z</time>
      </trkpt>
      <trkpt lat="48.560523" lon="16.878293">
        <ele>210.237840</ele>
        <time>2020-07-27T04:57:49.785Z</time>
      </trkpt>
      <trkpt lat="48.560422" lon="16.878355">
        <ele>210.207435</ele>
        <time>2020-07-27T04:57:51.797Z</time>
      </trkpt>
      <trkpt lat="48.560326" lon="16.878429">
        <ele>210.177378</ele>
        <time>2020-07-27T04:57:53.814Z</time>
      </trkpt>
      <trkpt lat="48.560228" lon="16.878510">
        <ele>210.146225</ele>
        <time>2020-07-27T04:57:55.791Z</time>
      </trkpt>
      <trkpt lat="48.560142" lon="16.878612">
        <ele>210.115733</ele>
        <time>2020-07-27T04:57:57.810Z</time>
      </trkpt>
      <trkpt lat="48.560061" lon="16.878736">
        <ele>210.083574</ele>
        <time>2020-07-27T04:57:59.776Z</time>
      </trkpt>
      <trkpt lat="48.559982" lon="16.878871">
        <ele>210.050312</ele>
        <time>2020-07-27T04:58:01.789Z</time>
      </trkpt>
      <trkpt lat="48.559911" lon="16.878998">
        <ele>210.019626</ele>
        <time>2020-07-27T04:58:03.816Z</time>
      </trkpt>
      <trkpt lat="48.559843" lon="16.879121">
        <ele>209.990043</ele>
        <time>2020-07-27T04:58:05.787Z</time>
      </trkpt>
      <trkpt lat="48.559775" lon="16.879247">
        <ele>209.960034</ele>
        <time>2020-07-27T04:58:07.797Z</time>
      </trkpt>
      <trkpt lat="48.559687" lon="16.879412">
        <ele>209.920919</ele>
        <time>2020-07-27T04:58:10.791Z</time>
      </trkpt>
      <trkpt lat="48.559616" lon="16.879520">
        <ele>209.892821</ele>
        <time>2020-07-27T04:58:12.786Z</time>
      </trkpt>
      <trkpt lat="48.559540" lon="16.879654">
        <ele>209.860247</ele>
        <time>2020-07-27T04:58:14.803Z</time>
      </trkpt>
      <trkpt lat="48.559466" lon="16.879793">
        <ele>209.827319</ele>
        <time>2020-07-27T04:58:16.814Z</time>
      </trkpt>
      <trkpt lat="48.559401" lon="16.879935">
        <ele>209.795450</ele>
        <time>2020-07-27T04:58:18.791Z</time>
      </trkpt>
      <trkpt lat="48.559335" lon="16.880065">
        <ele>209.765207</ele>
        <time>2020-07-27T04:58:20.794Z</time>
      </trkpt>
      <trkpt lat="48.559272" lon="16.880193">
        <ele>209.735242</ele>
        <time>2020-07-27T04:58:22.790Z</time>
      </trkpt>
      <trkpt lat="48.559217" lon="16.880325">
        <ele>209.705845</ele>
        <time>2020-07-27T04:58:24.784Z</time>
      </trkpt>
      <trkpt lat="48.559173" lon="16.880449">
        <ele>209.679328</ele>
        <time>2020-07-27T04:58:26.796Z</time>
      </trkpt>
      <trkpt lat="48.559128" lon="16.880585">
        <ele>209.650672</ele>
        <time>2020-07-27T04:58:28.794Z</time>
      </trkpt>
      <trkpt lat="48.559084" lon="16.880713">
        <ele>209.623488</ele>
        <time>2020-07-27T04:58:30.819Z</time>
      </trkpt>
      <trkpt lat="48.559036" lon="16.880854">
        <ele>209.593605</ele>
        <time>2020-07-27T04:58:32.799Z</time>
      </trkpt>
      <trkpt lat="48.558981" lon="16.880993">
        <ele>209.563083</ele>
        <time>2020-07-27T04:58:34.783Z</time>
      </trkpt>
      <trkpt lat="48.558906" lon="16.881117">
        <ele>209.531424</ele>
        <time>2020-07-27T04:58:36.792Z</time>
      </trkpt>
      <trkpt lat="48.558822" lon="16.881223">
        <ele>209.500259</ele>
        <time>2020-07-27T04:58:38.792Z</time>
      </trkpt>
      <trkpt lat="48.558732" lon="16.881327">
        <ele>209.467995</ele>
        <time>2020-07-27T04:58:40.791Z</time>
      </trkpt>
      <trkpt lat="48.558645" lon="16.881433">
        <ele>209.436169</ele>
        <time>2020-07-27T04:58:42.803Z</time>
      </trkpt>
      <trkpt lat="48.558551" lon="16.881522">
        <ele>209.404580</ele>
        <time>2020-07-27T04:58:44.891Z</time>
      </trkpt>
      <trkpt lat="48.558451" lon="16.881598">
        <ele>209.372705</ele>
        <time>2020-07-27T04:58:46.778Z</time>
      </trkpt>
      <trkpt lat="48.558359" lon="16.881656">
        <ele>209.344317</ele>
        <time>2020-07-27T04:58:48.799Z</time>
      </trkpt>
      <trkpt lat="48.558267" lon="16.881715">
        <ele>209.315857</ele>
        <time>2020-07-27T04:58:50.784Z</time>
      </trkpt>
      <trkpt lat="48.558184" lon="16.881770">
        <ele>209.290049</ele>
        <time>2020-07-27T04:58:52.817Z</time>
      </trkpt>
      <trkpt lat="48.558106" lon="16.881851">
        <ele>209.263097</ele>
        <time>2020-07-27T04:58:54.802Z</time>
      </trkpt>
      <trkpt lat="48.558048" lon="16.881970">
        <ele>209.225526</ele>
        <time>2020-07-27T04:58:56.780Z</time>
      </trkpt>
      <trkpt lat="48.558012" lon="16.882100">
        <ele>209.179326</ele>
        <time>2020-07-27T04:58:58.791Z</time>
      </trkpt>
      <trkpt lat="48.557973" lon="16.882232">
        <ele>209.131934</ele>
        <time>2020-07-27T04:59:00.799Z</time>
      </trkpt>
      <trkpt lat="48.557921" lon="16.882412">
        <ele>209.067546</ele>
        <time>2020-07-27T04:59:03.781Z</time>
      </trkpt>
      <trkpt lat="48.557866" lon="16.882605">
        <ele>208.998656</ele>
        <time>2020-07-27T04:59:06.792Z</time>
      </trkpt>
      <trkpt lat="48.557821" lon="16.882753">
        <ele>208.945259</ele>
        <time>2020-07-27T04:59:08.792Z</time>
      </trkpt>
      <trkpt lat="48.557778" lon="16.882905">
        <ele>208.891066</ele>
        <time>2020-07-27T04:59:10.815Z</time>
      </trkpt>
      <trkpt lat="48.557733" lon="16.883059">
        <ele>208.835876</ele>
        <time>2020-07-27T04:59:12.778Z</time>
      </trkpt>
      <trkpt lat="48.557692" lon="16.883217">
        <ele>208.780237</ele>
        <time>2020-07-27T04:59:14.789Z</time>
      </trkpt>
      <trkpt lat="48.557655" lon="16.883372">
        <ele>208.726217</ele>
        <time>2020-07-27T04:59:16.783Z</time>
      </trkpt>
      <trkpt lat="48.557615" lon="16.883536">
        <ele>208.668915</ele>
        <time>2020-07-27T04:59:18.784Z</time>
      </trkpt>
      <trkpt lat="48.557568" lon="16.883699">
        <ele>208.610625</ele>
        <time>2020-07-27T04:59:20.793Z</time>
      </trkpt>
      <trkpt lat="48.557532" lon="16.883854">
        <ele>208.556771</ele>
        <time>2020-07-27T04:59:22.801Z</time>
      </trkpt>
      <trkpt lat="48.557493" lon="16.884012">
        <ele>208.501486</ele>
        <time>2020-07-27T04:59:24.788Z</time>
      </trkpt>
      <trkpt lat="48.557446" lon="16.884161">
        <ele>208.447372</ele>
        <time>2020-07-27T04:59:26.804Z</time>
      </trkpt>
      <trkpt lat="48.557400" lon="16.884326">
        <ele>208.388674</ele>
        <time>2020-07-27T04:59:28.810Z</time>
      </trkpt>
      <trkpt lat="48.557357" lon="16.884481">
        <ele>208.342641</ele>
        <time>2020-07-27T04:59:30.787Z</time>
      </trkpt>
      <trkpt lat="48.557307" lon="16.884628">
        <ele>208.309031</ele>
        <time>2020-07-27T04:59:32.802Z</time>
      </trkpt>
      <trkpt lat="48.557270" lon="16.884766">
        <ele>208.278753</ele>
        <time>2020-07-27T04:59:34.804Z</time>
      </trkpt>
      <trkpt lat="48.557221" lon="16.884948">
        <ele>208.238797</ele>
        <time>2020-07-27T04:59:37.791Z</time>
      </trkpt>
      <trkpt lat="48.557177" lon="16.885135">
        <ele>208.198438</ele>
        <time>2020-07-27T04:59:40.813Z</time>
      </trkpt>
      <trkpt lat="48.557132" lon="16.885269">
        <ele>208.167881</ele>
        <time>2020-07-27T04:59:42.781Z</time>
      </trkpt>
      <trkpt lat="48.557074" lon="16.885432">
        <ele>208.130247</ele>
        <time>2020-07-27T04:59:44.781Z</time>
      </trkpt>
      <trkpt lat="48.557025" lon="16.885609">
        <ele>208.091231</ele>
        <time>2020-07-27T04:59:46.830Z</time>
      </trkpt>
      <trkpt lat="48.556978" lon="16.885787">
        <ele>208.052259</ele>
        <time>2020-07-27T04:59:48.770Z</time>
      </trkpt>
      <trkpt lat="48.556927" lon="16.885946">
        <ele>208.016329</ele>
        <time>2020-07-27T04:59:50.796Z</time>
      </trkpt>
      <trkpt lat="48.556879" lon="16.886117">
        <ele>207.978556</ele>
        <time>2020-07-27T04:59:52.797Z</time>
      </trkpt>
      <trkpt lat="48.556829" lon="16.886284">
        <ele>207.941282</ele>
        <time>2020-07-27T04:59:54.808Z</time>
      </trkpt>
      <trkpt lat="48.556782" lon="16.886448">
        <ele>207.904939</ele>
        <time>2020-07-27T04:59:56.793Z</time>
      </trkpt>
      <trkpt lat="48.556732" lon="16.886605">
        <ele>207.869508</ele>
        <time>2020-07-27T04:59:58.802Z</time>
      </trkpt>
      <trkpt lat="48.556682" lon="16.886761">
        <ele>207.834261</ele>
        <time>2020-07-27T05:00:00.797Z</time>
      </trkpt>
      <trkpt lat="48.556630" lon="16.886909">
        <ele>207.805444</ele>
        <time>2020-07-27T05:00:02.800Z</time>
      </trkpt>
      <trkpt lat="48.556574" lon="16.887049">
        <ele>207.809876</ele>
        <time>2020-07-27T05:00:04.817Z</time>
      </trkpt>
      <trkpt lat="48.556527" lon="16.887199">
        <ele>207.814373</ele>
        <time>2020-07-27T05:00:06.782Z</time>
      </trkpt>
      <trkpt lat="48.556482" lon="16.887346">
        <ele>207.818761</ele>
        <time>2020-07-27T05:00:08.814Z</time>
      </trkpt>
      <trkpt lat="48.556435" lon="16.887500">
        <ele>207.823356</ele>
        <time>2020-07-27T05:00:10.801Z</time>
      </trkpt>
      <trkpt lat="48.556390" lon="16.887650">
        <ele>207.827818</ele>
        <time>2020-07-27T05:00:12.813Z</time>
      </trkpt>
      <trkpt lat="48.556345" lon="16.887803">
        <ele>207.832354</ele>
        <time>2020-07-27T05:00:14.801Z</time>
      </trkpt>
      <trkpt lat="48.556292" lon="16.887951">
        <ele>207.836913</ele>
        <time>2020-07-27T05:00:16.784Z</time>
      </trkpt>
      <trkpt lat="48.556240" lon="16.888097">
        <ele>207.841405</ele>
        <time>2020-07-27T05:00:18.793Z</time>
      </trkpt>
      <trkpt lat="48.556189" lon="16.888239">
        <ele>207.845783</ele>
        <time>2020-07-27T05:00:20.787Z</time>
      </trkpt>
      <trkpt lat="48.556145" lon="16.888385">
        <ele>207.850129</ele>
        <time>2020-07-27T05:00:22.794Z</time>
      </trkpt>
      <trkpt lat="48.556102" lon="16.888542">
        <ele>207.854733</ele>
        <time>2020-07-27T05:00:24.800Z</time>
      </trkpt>
      <trkpt lat="48.556062" lon="16.888685">
        <ele>207.858939</ele>
        <time>2020-07-27T05:00:26.798Z</time>
      </trkpt>
      <trkpt lat="48.556016" lon="16.888836">
        <ele>207.863443</ele>
        <time>2020-07-27T05:00:28.780Z</time>
      </trkpt>
      <trkpt lat="48.555969" lon="16.888987">
        <ele>207.867964</ele>
        <time>2020-07-27T05:00:30.813Z</time>
      </trkpt>
      <trkpt lat="48.555922" lon="16.889127">
        <ele>207.872218</ele>
        <time>2020-07-27T05:00:32.783Z</time>
      </trkpt>
      <trkpt lat="48.555879" lon="16.889268">
        <ele>207.876424</ele>
        <time>2020-07-27T05:00:34.788Z</time>
      </trkpt>
      <trkpt lat="48.555836" lon="16.889412">
        <ele>207.843753</ele>
        <time>2020-07-27T05:00:36.792Z</time>
      </trkpt>
      <trkpt lat="48.555794" lon="16.889551">
        <ele>207.779909</ele>
        <time>2020-07-27T05:00:38.802Z</time>
      </trkpt>
      <trkpt lat="48.555745" lon="16.889700">
        <ele>207.710392</ele>
        <time>2020-07-27T05:00:40.818Z</time>
      </trkpt>
      <trkpt lat="48.555698" lon="16.889843">
        <ele>207.643682</ele>
        <time>2020-07-27T05:00:42.805Z</time>
      </trkpt>
      <trkpt lat="48.555656" lon="16.889983">
        <ele>207.579458</ele>
        <time>2020-07-27T05:00:44.792Z</time>
      </trkpt>
      <trkpt lat="48.555612" lon="16.890132">
        <ele>207.511286</ele>
        <time>2020-07-27T05:00:46.791Z</time>
      </trkpt>
      <trkpt lat="48.555571" lon="16.890275">
        <ele>207.446172</ele>
        <time>2020-07-27T05:00:48.812Z</time>
      </trkpt>
      <trkpt lat="48.555533" lon="16.890421">
        <ele>207.380622</ele>
        <time>2020-07-27T05:00:50.797Z</time>
      </trkpt>
      <trkpt lat="48.555493" lon="16.890565">
        <ele>207.315371</ele>
        <time>2020-07-27T05:00:52.793Z</time>
      </trkpt>
      <trkpt lat="48.555445" lon="16.890705">
        <ele>207.249493</ele>
        <time>2020-07-27T05:00:54.799Z</time>
      </trkpt>
      <trkpt lat="48.555400" lon="16.890845">
        <ele>207.184464</ele>
        <time>2020-07-27T05:00:56.822Z</time>
      </trkpt>
      <trkpt lat="48.555357" lon="16.890996">
        <ele>207.115780</ele>
        <time>2020-07-27T05:00:58.796Z</time>
      </trkpt>
      <trkpt lat="48.555317" lon="16.891140">
        <ele>207.050529</ele>
        <time>2020-07-27T05:01:00.790Z</time>
      </trkpt>
      <trkpt lat="48.555277" lon="16.891283">
        <ele>206.985663</ele>
        <time>2020-07-27T05:01:02.798Z</time>
      </trkpt>
      <trkpt lat="48.555234" lon="16.891433">
        <ele>206.917362</ele>
        <time>2020-07-27T05:01:04.786Z</time>
      </trkpt>
      <trkpt lat="48.555184" lon="16.891577">
        <ele>206.849418</ele>
        <time>2020-07-27T05:01:06.802Z</time>
      </trkpt>
      <trkpt lat="48.555137" lon="16.891720">
        <ele>206.782707</ele>
        <time>2020-07-27T05:01:08.811Z</time>
      </trkpt>
      <trkpt lat="48.555091" lon="16.891864">
        <ele>206.718663</ele>
        <time>2020-07-27T05:01:10.791Z</time>
      </trkpt>
      <trkpt lat="48.555043" lon="16.892011">
        <ele>206.657150</ele>
        <time>2020-07-27T05:01:12.790Z</time>
      </trkpt>
      <trkpt lat="48.555002" lon="16.892148">
        <ele>206.600726</ele>
        <time>2020-07-27T05:01:14.787Z</time>
      </trkpt>
      <trkpt lat="48.554964" lon="16.892281">
        <ele>206.546363</ele>
        <time>2020-07-27T05:01:16.786Z</time>
      </trkpt>
      <trkpt lat="48.554928" lon="16.892405">
        <ele>206.495549</ele>
        <time>2020-07-27T05:01:18.816Z</time>
      </trkpt>
      <trkpt lat="48.554889" lon="16.892584">
        <ele>206.424829</ele>
        <time>2020-07-27T05:01:21.794Z</time>
      </trkpt>
      <trkpt lat="48.554873" lon="16.892726">
        <ele>206.370773</ele>
        <time>2020-07-27T05:01:23.794Z</time>
      </trkpt>
      <trkpt lat="48.554861" lon="16.892880">
        <ele>206.312582</ele>
        <time>2020-07-27T05:01:25.785Z</time>
      </trkpt>
      <trkpt lat="48.554849" lon="16.893032">
        <ele>206.255135</ele>
        <time>2020-07-27T05:01:27.794Z</time>
      </trkpt>
      <trkpt lat="48.554835" lon="16.893181">
        <ele>206.198659</ele>
        <time>2020-07-27T05:01:29.766Z</time>
      </trkpt>
      <trkpt lat="48.554821" lon="16.893344">
        <ele>206.136976</ele>
        <time>2020-07-27T05:01:31.790Z</time>
      </trkpt>
      <trkpt lat="48.554808" lon="16.893498">
        <ele>206.078715</ele>
        <time>2020-07-27T05:01:33.793Z</time>
      </trkpt>
      <trkpt lat="48.554788" lon="16.893648">
        <ele>206.021292</ele>
        <time>2020-07-27T05:01:35.796Z</time>
      </trkpt>
      <trkpt lat="48.554779" lon="16.893806">
        <ele>205.961779</ele>
        <time>2020-07-27T05:01:37.836Z</time>
      </trkpt>
      <trkpt lat="48.554766" lon="16.893968">
        <ele>205.900539</ele>
        <time>2020-07-27T05:01:39.796Z</time>
      </trkpt>
      <trkpt lat="48.554751" lon="16.894122">
        <ele>205.842124</ele>
        <time>2020-07-27T05:01:41.805Z</time>
      </trkpt>
      <trkpt lat="48.554737" lon="16.894283">
        <ele>205.781185</ele>
        <time>2020-07-27T05:01:43.801Z</time>
      </trkpt>
      <trkpt lat="48.554722" lon="16.894436">
        <ele>205.723203</ele>
        <time>2020-07-27T05:01:45.780Z</time>
      </trkpt>
      <trkpt lat="48.554711" lon="16.894603">
        <ele>205.691312</ele>
        <time>2020-07-27T05:01:47.792Z</time>
      </trkpt>
      <trkpt lat="48.554701" lon="16.894753">
        <ele>205.662665</ele>
        <time>2020-07-27T05:01:49.790Z</time>
      </trkpt>
      <trkpt lat="48.554691" lon="16.894906">
        <ele>205.633450</ele>
        <time>2020-07-27T05:01:51.794Z</time>
      </trkpt>
      <trkpt lat="48.554681" lon="16.895072">
        <ele>205.601775</ele>
        <time>2020-07-27T05:01:53.806Z</time>
      </trkpt>
      <trkpt lat="48.554670" lon="16.895235">
        <ele>205.570641</ele>
        <time>2020-07-27T05:01:55.780Z</time>
      </trkpt>
      <trkpt lat="48.554652" lon="16.895397">
        <ele>205.539426</ele>
        <time>2020-07-27T05:01:57.769Z</time>
      </trkpt>
      <trkpt lat="48.554639" lon="16.895546">
        <ele>205.510868</ele>
        <time>2020-07-27T05:01:59.826Z</time>
      </trkpt>
      <trkpt lat="48.554625" lon="16.895704">
        <ele>205.480576</ele>
        <time>2020-07-27T05:02:01.820Z</time>
      </trkpt>
      <trkpt lat="48.554616" lon="16.895867">
        <ele>205.449495</ele>
        <time>2020-07-27T05:02:03.802Z</time>
      </trkpt>
      <trkpt lat="48.554602" lon="16.896028">
        <ele>205.418638</ele>
        <time>2020-07-27T05:02:05.796Z</time>
      </trkpt>
      <trkpt lat="48.554596" lon="16.896187">
        <ele>205.388375</ele>
        <time>2020-07-27T05:02:07.778Z</time>
      </trkpt>
      <trkpt lat="48.554583" lon="16.896344">
        <ele>205.358309</ele>
        <time>2020-07-27T05:02:09.801Z</time>
      </trkpt>
      <trkpt lat="48.554560" lon="16.896491">
        <ele>205.329606</ele>
        <time>2020-07-27T05:02:11.807Z</time>
      </trkpt>
      <trkpt lat="48.554548" lon="16.896641">
        <ele>205.300895</ele>
        <time>2020-07-27T05:02:13.790Z</time>
      </trkpt>
      <trkpt lat="48.554548" lon="16.896842">
        <ele>205.262700</ele>
        <time>2020-07-27T05:02:16.795Z</time>
      </trkpt>
      <trkpt lat="48.554550" lon="16.896984">
        <ele>205.235710</ele>
        <time>2020-07-27T05:02:18.808Z</time>
      </trkpt>
      <trkpt lat="48.554554" lon="16.897159">
        <ele>205.198756</ele>
        <time>2020-07-27T05:02:21.779Z</time>
      </trkpt>
      <trkpt lat="48.554567" lon="16.897338">
        <ele>205.136328</ele>
        <time>2020-07-27T05:02:24.784Z</time>
      </trkpt>
      <trkpt lat="48.554656" lon="16.897441">
        <ele>205.077609</ele>
        <time>2020-07-27T05:02:27.804Z</time>
      </trkpt>
      <trkpt lat="48.554745" lon="16.897469">
        <ele>205.029995</ele>
        <time>2020-07-27T05:02:29.787Z</time>
      </trkpt>
      <trkpt lat="48.554835" lon="16.897492">
        <ele>204.982187</ele>
        <time>2020-07-27T05:02:31.814Z</time>
      </trkpt>
      <trkpt lat="48.554929" lon="16.897516">
        <ele>204.932256</ele>
        <time>2020-07-27T05:02:33.793Z</time>
      </trkpt>
      <trkpt lat="48.555022" lon="16.897535">
        <ele>204.883104</ele>
        <time>2020-07-27T05:02:35.795Z</time>
      </trkpt>
      <trkpt lat="48.555114" lon="16.897544">
        <ele>204.834817</ele>
        <time>2020-07-27T05:02:37.796Z</time>
      </trkpt>
      <trkpt lat="48.555210" lon="16.897546">
        <ele>204.784532</ele>
        <time>2020-07-27T05:02:39.792Z</time>
      </trkpt>
      <trkpt lat="48.555305" lon="16.897548">
        <ele>204.734770</ele>
        <time>2020-07-27T05:02:41.781Z</time>
      </trkpt>
      <trkpt lat="48.555398" lon="16.897553">
        <ele>204.686030</ele>
        <time>2020-07-27T05:02:43.784Z</time>
      </trkpt>
      <trkpt lat="48.555495" lon="16.897565">
        <ele>204.635056</ele>
        <time>2020-07-27T05:02:45.793Z</time>
      </trkpt>
      <trkpt lat="48.555590" lon="16.897580">
        <ele>204.585028</ele>
        <time>2020-07-27T05:02:47.773Z</time>
      </trkpt>
      <trkpt lat="48.555685" lon="16.897591">
        <ele>204.535125</ele>
        <time>2020-07-27T05:02:49.798Z</time>
      </trkpt>
      <trkpt lat="48.555785" lon="16.897596">
        <ele>204.482721</ele>
        <time>2020-07-27T05:02:51.798Z</time>
      </trkpt>
      <trkpt lat="48.555886" lon="16.897594">
        <ele>204.429817</ele>
        <time>2020-07-27T05:02:53.798Z</time>
      </trkpt>
      <trkpt lat="48.555979" lon="16.897598">
        <ele>204.381088</ele>
        <time>2020-07-27T05:02:55.791Z</time>
      </trkpt>
      <trkpt lat="48.556075" lon="16.897607">
        <ele>204.330711</ele>
        <time>2020-07-27T05:02:57.786Z</time>
      </trkpt>
      <trkpt lat="48.556172" lon="16.897622">
        <ele>204.279641</ele>
        <time>2020-07-27T05:02:59.796Z</time>
      </trkpt>
      <trkpt lat="48.556263" lon="16.897634">
        <ele>204.231671</ele>
        <time>2020-07-27T05:03:01.821Z</time>
      </trkpt>
      <trkpt lat="48.556359" lon="16.897650">
        <ele>204.180890</ele>
        <time>2020-07-27T05:03:03.803Z</time>
      </trkpt>
      <trkpt lat="48.556451" lon="16.897662">
        <ele>204.132338</ele>
        <time>2020-07-27T05:03:05.781Z</time>
      </trkpt>
      <trkpt lat="48.556542" lon="16.897671">
        <ele>204.084389</ele>
        <time>2020-07-27T05:03:07.828Z</time>
      </trkpt>
      <trkpt lat="48.556634" lon="16.897671">
        <ele>204.036018</ele>
        <time>2020-07-27T05:03:09.782Z</time>
      </trkpt>
      <trkpt lat="48.556728" lon="16.897673">
        <ele>203.986589</ele>
        <time>2020-07-27T05:03:11.815Z</time>
      </trkpt>
      <trkpt lat="48.556819" lon="16.897666">
        <ele>203.938682</ele>
        <time>2020-07-27T05:03:13.804Z</time>
      </trkpt>
      <trkpt lat="48.556914" lon="16.897671">
        <ele>203.888702</ele>
        <time>2020-07-27T05:03:15.805Z</time>
      </trkpt>
      <trkpt lat="48.557014" lon="16.897677">
        <ele>203.836083</ele>
        <time>2020-07-27T05:03:17.789Z</time>
      </trkpt>
      <trkpt lat="48.557115" lon="16.897687">
        <ele>203.782865</ele>
        <time>2020-07-27T05:03:19.800Z</time>
      </trkpt>
      <trkpt lat="48.557209" lon="16.897691">
        <ele>203.733422</ele>
        <time>2020-07-27T05:03:21.791Z</time>
      </trkpt>
      <trkpt lat="48.557306" lon="16.897701">
        <ele>203.682303</ele>
        <time>2020-07-27T05:03:23.790Z</time>
      </trkpt>
      <trkpt lat="48.557403" lon="16.897708">
        <ele>203.631244</ele>
        <time>2020-07-27T05:03:25.797Z</time>
      </trkpt>
      <trkpt lat="48.557536" lon="16.897716">
        <ele>203.561260</ele>
        <time>2020-07-27T05:03:28.787Z</time>
      </trkpt>
      <trkpt lat="48.557668" lon="16.897723">
        <ele>203.491814</ele>
        <time>2020-07-27T05:03:31.789Z</time>
      </trkpt>
      <trkpt lat="48.557795" lon="16.897725">
        <ele>203.425036</ele>
        <time>2020-07-27T05:03:34.809Z</time>
      </trkpt>
      <trkpt lat="48.557929" lon="16.897736">
        <ele>203.354478</ele>
        <time>2020-07-27T05:03:37.791Z</time>
      </trkpt>
      <trkpt lat="48.558062" lon="16.897747">
        <ele>203.283549</ele>
        <time>2020-07-27T05:03:40.790Z</time>
      </trkpt>
      <trkpt lat="48.558191" lon="16.897763">
        <ele>203.213739</ele>
        <time>2020-07-27T05:03:43.798Z</time>
      </trkpt>
      <trkpt lat="48.558279" lon="16.897825">
        <ele>203.161370</ele>
        <time>2020-07-27T05:03:45.788Z</time>
      </trkpt>
      <trkpt lat="48.558315" lon="16.897979">
        <ele>203.103068</ele>
        <time>2020-07-27T05:03:47.780Z</time>
      </trkpt>
      <trkpt lat="48.558320" lon="16.898142">
        <ele>203.044819</ele>
        <time>2020-07-27T05:03:49.786Z</time>
      </trkpt>
      <trkpt lat="48.558330" lon="16.898300">
        <ele>202.988161</ele>
        <time>2020-07-27T05:03:51.806Z</time>
      </trkpt>
      <trkpt lat="48.558349" lon="16.898455">
        <ele>202.931889</ele>
        <time>2020-07-27T05:03:53.785Z</time>
      </trkpt>
      <trkpt lat="48.558368" lon="16.898611">
        <ele>202.875267</ele>
        <time>2020-07-27T05:03:55.813Z</time>
      </trkpt>
      <trkpt lat="48.558385" lon="16.898768">
        <ele>202.818478</ele>
        <time>2020-07-27T05:03:57.814Z</time>
      </trkpt>
      <trkpt lat="48.558405" lon="16.898925">
        <ele>202.761405</ele>
        <time>2020-07-27T05:03:59.795Z</time>
      </trkpt>
      <trkpt lat="48.558430" lon="16.899085">
        <ele>202.702719</ele>
        <time>2020-07-27T05:04:01.777Z</time>
      </trkpt>
      <trkpt lat="48.558450" lon="16.899252">
        <ele>202.642137</ele>
        <time>2020-07-27T05:04:03.778Z</time>
      </trkpt>
      <trkpt lat="48.558473" lon="16.899414">
        <ele>202.582993</ele>
        <time>2020-07-27T05:04:05.809Z</time>
      </trkpt>
      <trkpt lat="48.558494" lon="16.899576">
        <ele>202.524065</ele>
        <time>2020-07-27T05:04:07.783Z</time>
      </trkpt>
      <trkpt lat="48.558513" lon="16.899748">
        <ele>202.461817</ele>
        <time>2020-07-27T05:04:09.778Z</time>
      </trkpt>
      <trkpt lat="48.558529" lon="16.899914">
        <ele>202.401935</ele>
        <time>2020-07-27T05:04:11.790Z</time>
      </trkpt>
      <trkpt lat="48.558546" lon="16.900080">
        <ele>202.344533</ele>
        <time>2020-07-27T05:04:13.796Z</time>
      </trkpt>
      <trkpt lat="48.558589" lon="16.900230">
        <ele>202.307237</ele>
        <time>2020-07-27T05:04:15.811Z</time>
      </trkpt>
      <trkpt lat="48.558690" lon="16.900296">
        <ele>202.269302</ele>
        <time>2020-07-27T05:04:17.795Z</time>
      </trkpt>
      <trkpt lat="48.558796" lon="16.900309">
        <ele>202.232640</ele>
        <time>2020-07-27T05:04:19.791Z</time>
      </trkpt>
      <trkpt lat="48.558903" lon="16.900314">
        <ele>202.195736</ele>
        <time>2020-07-27T05:04:21.786Z</time>
      </trkpt>
      <trkpt lat="48.559013" lon="16.900320">
        <ele>202.157791</ele>
        <time>2020-07-27T05:04:23.811Z</time>
      </trkpt>
      <trkpt lat="48.559124" lon="16.900326">
        <ele>202.119501</ele>
        <time>2020-07-27T05:04:25.786Z</time>
      </trkpt>
      <trkpt lat="48.559233" lon="16.900330">
        <ele>202.081914</ele>
        <time>2020-07-27T05:04:27.797Z</time>
      </trkpt>
      <trkpt lat="48.559344" lon="16.900324">
        <ele>202.043624</ele>
        <time>2020-07-27T05:04:29.794Z</time>
      </trkpt>
      <trkpt lat="48.559446" lon="16.900341">
        <ele>202.008248</ele>
        <time>2020-07-27T05:04:31.809Z</time>
      </trkpt>
      <trkpt lat="48.559553" lon="16.900361">
        <ele>201.971081</ele>
        <time>2020-07-27T05:04:33.797Z</time>
      </trkpt>
      <trkpt lat="48.559652" lon="16.900365">
        <ele>201.936940</ele>
        <time>2020-07-27T05:04:35.791Z</time>
      </trkpt>
      <trkpt lat="48.559755" lon="16.900364">
        <ele>201.901432</ele>
        <time>2020-07-27T05:04:37.816Z</time>
      </trkpt>
      <trkpt lat="48.559863" lon="16.900371">
        <ele>201.864167</ele>
        <time>2020-07-27T05:04:39.797Z</time>
      </trkpt>
      <trkpt lat="48.559970" lon="16.900386">
        <ele>201.827122</ele>
        <time>2020-07-27T05:04:41.799Z</time>
      </trkpt>
      <trkpt lat="48.560077" lon="16.900396">
        <ele>201.790165</ele>
        <time>2020-07-27T05:04:43.815Z</time>
      </trkpt>
      <trkpt lat="48.560186" lon="16.900407">
        <ele>201.752506</ele>
        <time>2020-07-27T05:04:45.801Z</time>
      </trkpt>
      <trkpt lat="48.560295" lon="16.900419">
        <ele>201.720066</ele>
        <time>2020-07-27T05:04:47.808Z</time>
      </trkpt>
      <trkpt lat="48.560401" lon="16.900430">
        <ele>201.696954</ele>
        <time>2020-07-27T05:04:49.794Z</time>
      </trkpt>
      <trkpt lat="48.560507" lon="16.900436">
        <ele>201.673881</ele>
        <time>2020-07-27T05:04:51.788Z</time>
      </trkpt>
      <trkpt lat="48.560613" lon="16.900439">
        <ele>201.650820</ele>
        <time>2020-07-27T05:04:53.805Z</time>
      </trkpt>
      <trkpt lat="48.560721" lon="16.900448">
        <ele>201.627292</ele>
        <time>2020-07-27T05:04:55.798Z</time>
      </trkpt>
      <trkpt lat="48.560830" lon="16.900459">
        <ele>201.603529</ele>
        <time>2020-07-27T05:04:57.790Z</time>
      </trkpt>
      <trkpt lat="48.560941" lon="16.900470">
        <ele>201.579332</ele>
        <time>2020-07-27T05:04:59.826Z</time>
      </trkpt>
      <trkpt lat="48.561050" lon="16.900475">
        <ele>201.555612</ele>
        <time>2020-07-27T05:05:01.790Z</time>
      </trkpt>
      <trkpt lat="48.561158" lon="16.900483">
        <ele>201.532091</ele>
        <time>2020-07-27T05:05:03.800Z</time>
      </trkpt>
      <trkpt lat="48.561271" lon="16.900494">
        <ele>201.507460</ele>
        <time>2020-07-27T05:05:05.803Z</time>
      </trkpt>
      <trkpt lat="48.561388" lon="16.900508">
        <ele>201.481931</ele>
        <time>2020-07-27T05:05:07.797Z</time>
      </trkpt>
      <trkpt lat="48.561503" lon="16.900514">
        <ele>201.456901</ele>
        <time>2020-07-27T05:05:09.793Z</time>
      </trkpt>
      <trkpt lat="48.561626" lon="16.900520">
        <ele>201.430132</ele>
        <time>2020-07-27T05:05:11.793Z</time>
      </trkpt>
      <trkpt lat="48.561744" lon="16.900537">
        <ele>201.404348</ele>
        <time>2020-07-27T05:05:13.789Z</time>
      </trkpt>
      <trkpt lat="48.561862" lon="16.900552">
        <ele>201.378590</ele>
        <time>2020-07-27T05:05:15.787Z</time>
      </trkpt>
      <trkpt lat="48.561970" lon="16.900569">
        <ele>201.354971</ele>
        <time>2020-07-27T05:05:17.787Z</time>
      </trkpt>
      <trkpt lat="48.562076" lon="16.900572">
        <ele>201.329545</ele>
        <time>2020-07-27T05:05:19.808Z</time>
      </trkpt>
      <trkpt lat="48.562182" lon="16.900579">
        <ele>201.297165</ele>
        <time>2020-07-27T05:05:21.779Z</time>
      </trkpt>
      <trkpt lat="48.562289" lon="16.900579">
        <ele>201.264510</ele>
        <time>2020-07-27T05:05:23.796Z</time>
      </trkpt>
      <trkpt lat="48.562391" lon="16.900585">
        <ele>201.233357</ele>
        <time>2020-07-27T05:05:25.787Z</time>
      </trkpt>
      <trkpt lat="48.562498" lon="16.900599">
        <ele>201.200580</ele>
        <time>2020-07-27T05:05:27.783Z</time>
      </trkpt>
      <trkpt lat="48.562607" lon="16.900610">
        <ele>201.167241</ele>
        <time>2020-07-27T05:05:29.790Z</time>
      </trkpt>
      <trkpt lat="48.562710" lon="16.900628">
        <ele>201.135597</ele>
        <time>2020-07-27T05:05:31.770Z</time>
      </trkpt>
      <trkpt lat="48.562812" lon="16.900644">
        <ele>201.104301</ele>
        <time>2020-07-27T05:05:33.812Z</time>
      </trkpt>
      <trkpt lat="48.562913" lon="16.900647">
        <ele>201.073472</ele>
        <time>2020-07-27T05:05:35.790Z</time>
      </trkpt>
      <trkpt lat="48.563003" lon="16.900657">
        <ele>201.045931</ele>
        <time>2020-07-27T05:05:37.782Z</time>
      </trkpt>
      <trkpt lat="48.563130" lon="16.900675">
        <ele>201.007002</ele>
        <time>2020-07-27T05:05:40.790Z</time>
      </trkpt>
      <trkpt lat="48.563257" lon="16.900706">
        <ele>200.967741</ele>
        <time>2020-07-27T05:05:43.789Z</time>
      </trkpt>
      <trkpt lat="48.563369" lon="16.900729">
        <ele>200.933246</ele>
        <time>2020-07-27T05:05:46.819Z</time>
      </trkpt>
      <trkpt lat="48.563484" lon="16.900771">
        <ele>200.897139</ele>
        <time>2020-07-27T05:05:49.816Z</time>
      </trkpt>
      <trkpt lat="48.563528" lon="16.900903">
        <ele>200.867289</ele>
        <time>2020-07-27T05:05:51.789Z</time>
      </trkpt>
      <trkpt lat="48.563547" lon="16.901103">
        <ele>200.826481</ele>
        <time>2020-07-27T05:05:53.787Z</time>
      </trkpt>
      <trkpt lat="48.563546" lon="16.901324">
        <ele>200.803243</ele>
        <time>2020-07-27T05:05:55.785Z</time>
      </trkpt>
      <trkpt lat="48.563516" lon="16.901537">
        <ele>200.893486</ele>
        <time>2020-07-27T05:05:57.783Z</time>
      </trkpt>
      <trkpt lat="48.563483" lon="16.901736">
        <ele>200.978500</ele>
        <time>2020-07-27T05:05:59.789Z</time>
      </trkpt>
      <trkpt lat="48.563453" lon="16.901938">
        <ele>201.064289</ele>
        <time>2020-07-27T05:06:01.783Z</time>
      </trkpt>
      <trkpt lat="48.563419" lon="16.902133">
        <ele>201.147853</ele>
        <time>2020-07-27T05:06:03.782Z</time>
      </trkpt>
      <trkpt lat="48.563386" lon="16.902327">
        <ele>201.230859</ele>
        <time>2020-07-27T05:06:05.812Z</time>
      </trkpt>
      <trkpt lat="48.563356" lon="16.902511">
        <ele>201.309387</ele>
        <time>2020-07-27T05:06:07.788Z</time>
      </trkpt>
      <trkpt lat="48.563331" lon="16.902687">
        <ele>201.383982</ele>
        <time>2020-07-27T05:06:09.783Z</time>
      </trkpt>
      <trkpt lat="48.563480" lon="16.902933">
        <ele>201.522173</ele>
        <time>2020-07-27T05:07:09.779Z</time>
      </trkpt>
      <trkpt lat="48.563602" lon="16.902939">
        <ele>201.598606</ele>
        <time>2020-07-27T05:07:12.775Z</time>
      </trkpt>
      <trkpt lat="48.563735" lon="16.902958">
        <ele>201.682258</ele>
        <time>2020-07-27T05:07:15.776Z</time>
      </trkpt>
      <trkpt lat="48.563833" lon="16.902965">
        <ele>201.743691</ele>
        <time>2020-07-27T05:07:17.788Z</time>
      </trkpt>
      <trkpt lat="48.563932" lon="16.902972">
        <ele>201.805750</ele>
        <time>2020-07-27T05:07:19.780Z</time>
      </trkpt>
      <trkpt lat="48.564036" lon="16.902980">
        <ele>201.870956</ele>
        <time>2020-07-27T05:07:21.780Z</time>
      </trkpt>
      <trkpt lat="48.564142" lon="16.902988">
        <ele>201.901922</ele>
        <time>2020-07-27T05:07:23.804Z</time>
      </trkpt>
      <trkpt lat="48.564251" lon="16.903022">
        <ele>201.860693</ele>
        <time>2020-07-27T05:07:25.763Z</time>
      </trkpt>
      <trkpt lat="48.564363" lon="16.903046">
        <ele>201.818788</ele>
        <time>2020-07-27T05:07:27.779Z</time>
      </trkpt>
      <trkpt lat="48.564477" lon="16.903050">
        <ele>201.776547</ele>
        <time>2020-07-27T05:07:29.771Z</time>
      </trkpt>
      <trkpt lat="48.564589" lon="16.903055">
        <ele>201.735039</ele>
        <time>2020-07-27T05:07:31.787Z</time>
      </trkpt>
      <trkpt lat="48.564700" lon="16.903068">
        <ele>201.693797</ele>
        <time>2020-07-27T05:07:33.794Z</time>
      </trkpt>
      <trkpt lat="48.564811" lon="16.903083">
        <ele>201.652514</ele>
        <time>2020-07-27T05:07:35.792Z</time>
      </trkpt>
      <trkpt lat="48.564923" lon="16.903102">
        <ele>201.610764</ele>
        <time>2020-07-27T05:07:37.787Z</time>
      </trkpt>
      <trkpt lat="48.565034" lon="16.903119">
        <ele>201.569435</ele>
        <time>2020-07-27T05:07:39.786Z</time>
      </trkpt>
      <trkpt lat="48.565145" lon="16.903131">
        <ele>201.528211</ele>
        <time>2020-07-27T05:07:41.779Z</time>
      </trkpt>
      <trkpt lat="48.565256" lon="16.903139">
        <ele>201.487045</ele>
        <time>2020-07-27T05:07:43.813Z</time>
      </trkpt>
      <trkpt lat="48.565366" lon="16.903147">
        <ele>201.446250</ele>
        <time>2020-07-27T05:07:45.819Z</time>
      </trkpt>
      <trkpt lat="48.565472" lon="16.903162">
        <ele>201.406811</ele>
        <time>2020-07-27T05:07:47.788Z</time>
      </trkpt>
      <trkpt lat="48.565579" lon="16.903170">
        <ele>201.367126</ele>
        <time>2020-07-27T05:07:49.786Z</time>
      </trkpt>
      <trkpt lat="48.565688" lon="16.903176">
        <ele>201.326721</ele>
        <time>2020-07-27T05:07:51.782Z</time>
      </trkpt>
      <trkpt lat="48.565792" lon="16.903176">
        <ele>201.288195</ele>
        <time>2020-07-27T05:07:53.805Z</time>
      </trkpt>
      <trkpt lat="48.565904" lon="16.903189">
        <ele>201.245234</ele>
        <time>2020-07-27T05:07:55.761Z</time>
      </trkpt>
      <trkpt lat="48.566018" lon="16.903205">
        <ele>201.177280</ele>
        <time>2020-07-27T05:07:57.786Z</time>
      </trkpt>
      <trkpt lat="48.566129" lon="16.903221">
        <ele>201.111098</ele>
        <time>2020-07-27T05:07:59.784Z</time>
      </trkpt>
      <trkpt lat="48.566241" lon="16.903235">
        <ele>201.044394</ele>
        <time>2020-07-27T05:08:01.793Z</time>
      </trkpt>
      <trkpt lat="48.566355" lon="16.903247">
        <ele>200.976567</ele>
        <time>2020-07-27T05:08:03.790Z</time>
      </trkpt>
      <trkpt lat="48.566470" lon="16.903256">
        <ele>200.908219</ele>
        <time>2020-07-27T05:08:05.809Z</time>
      </trkpt>
      <trkpt lat="48.566580" lon="16.903261">
        <ele>200.842900</ele>
        <time>2020-07-27T05:08:07.785Z</time>
      </trkpt>
      <trkpt lat="48.566689" lon="16.903267">
        <ele>200.778161</ele>
        <time>2020-07-27T05:08:09.809Z</time>
      </trkpt>
      <trkpt lat="48.566799" lon="16.903279">
        <ele>200.712702</ele>
        <time>2020-07-27T05:08:11.798Z</time>
      </trkpt>
      <trkpt lat="48.566908" lon="16.903302">
        <ele>200.647379</ele>
        <time>2020-07-27T05:08:13.789Z</time>
      </trkpt>
      <trkpt lat="48.567012" lon="16.903321">
        <ele>200.585201</ele>
        <time>2020-07-27T05:08:15.796Z</time>
      </trkpt>
      <trkpt lat="48.567119" lon="16.903341">
        <ele>200.521208</ele>
        <time>2020-07-27T05:08:17.792Z</time>
      </trkpt>
      <trkpt lat="48.567227" lon="16.903348">
        <ele>200.457047</ele>
        <time>2020-07-27T05:08:19.786Z</time>
      </trkpt>
      <trkpt lat="48.567334" lon="16.903345">
        <ele>200.393528</ele>
        <time>2020-07-27T05:08:21.823Z</time>
      </trkpt>
      <trkpt lat="48.567443" lon="16.903349">
        <ele>200.328813</ele>
        <time>2020-07-27T05:08:23.803Z</time>
      </trkpt>
      <trkpt lat="48.567551" lon="16.903359">
        <ele>200.264591</ele>
        <time>2020-07-27T05:08:25.783Z</time>
      </trkpt>
      <trkpt lat="48.567658" lon="16.903367">
        <ele>200.201004</ele>
        <time>2020-07-27T05:08:27.835Z</time>
      </trkpt>
      <trkpt lat="48.567765" lon="16.903370">
        <ele>200.151817</ele>
        <time>2020-07-27T05:08:29.794Z</time>
      </trkpt>
      <trkpt lat="48.567875" lon="16.903380">
        <ele>200.107825</ele>
        <time>2020-07-27T05:08:31.793Z</time>
      </trkpt>
      <trkpt lat="48.567983" lon="16.903397">
        <ele>200.064477</ele>
        <time>2020-07-27T05:08:33.799Z</time>
      </trkpt>
      <trkpt lat="48.568095" lon="16.903414">
        <ele>200.019541</ele>
        <time>2020-07-27T05:08:35.800Z</time>
      </trkpt>
      <trkpt lat="48.568204" lon="16.903429">
        <ele>199.975847</ele>
        <time>2020-07-27T05:08:37.792Z</time>
      </trkpt>
      <trkpt lat="48.568311" lon="16.903442">
        <ele>199.932994</ele>
        <time>2020-07-27T05:08:39.803Z</time>
      </trkpt>
      <trkpt lat="48.568417" lon="16.903451">
        <ele>199.890611</ele>
        <time>2020-07-27T05:08:41.798Z</time>
      </trkpt>
      <trkpt lat="48.568525" lon="16.903459">
        <ele>199.847445</ele>
        <time>2020-07-27T05:08:43.789Z</time>
      </trkpt>
      <trkpt lat="48.568636" lon="16.903465">
        <ele>199.803105</ele>
        <time>2020-07-27T05:08:45.773Z</time>
      </trkpt>
      <trkpt lat="48.568748" lon="16.903465">
        <ele>199.758394</ele>
        <time>2020-07-27T05:08:47.797Z</time>
      </trkpt>
      <trkpt lat="48.568859" lon="16.903459">
        <ele>199.714053</ele>
        <time>2020-07-27T05:08:49.800Z</time>
      </trkpt>
      <trkpt lat="48.568968" lon="16.903452">
        <ele>199.670500</ele>
        <time>2020-07-27T05:08:51.786Z</time>
      </trkpt>
      <trkpt lat="48.569085" lon="16.903454">
        <ele>199.623790</ele>
        <time>2020-07-27T05:08:53.792Z</time>
      </trkpt>
      <trkpt lat="48.569203" lon="16.903455">
        <ele>199.576683</ele>
        <time>2020-07-27T05:08:55.803Z</time>
      </trkpt>
      <trkpt lat="48.569319" lon="16.903462">
        <ele>199.530338</ele>
        <time>2020-07-27T05:08:57.816Z</time>
      </trkpt>
      <trkpt lat="48.569436" lon="16.903467">
        <ele>199.483612</ele>
        <time>2020-07-27T05:08:59.799Z</time>
      </trkpt>
      <trkpt lat="48.569551" lon="16.903473">
        <ele>199.446050</ele>
        <time>2020-07-27T05:09:01.794Z</time>
      </trkpt>
      <trkpt lat="48.569664" lon="16.903476">
        <ele>199.415720</ele>
        <time>2020-07-27T05:09:03.789Z</time>
      </trkpt>
      <trkpt lat="48.569776" lon="16.903486">
        <ele>199.385610</ele>
        <time>2020-07-27T05:09:05.794Z</time>
      </trkpt>
      <trkpt lat="48.569884" lon="16.903494">
        <ele>199.356591</ele>
        <time>2020-07-27T05:09:07.785Z</time>
      </trkpt>
      <trkpt lat="48.569988" lon="16.903508">
        <ele>199.328570</ele>
        <time>2020-07-27T05:09:09.792Z</time>
      </trkpt>
      <trkpt lat="48.570093" lon="16.903518">
        <ele>199.300335</ele>
        <time>2020-07-27T05:09:11.795Z</time>
      </trkpt>
      <trkpt lat="48.570201" lon="16.903524">
        <ele>199.271332</ele>
        <time>2020-07-27T05:09:13.780Z</time>
      </trkpt>
      <trkpt lat="48.570310" lon="16.903535">
        <ele>199.242014</ele>
        <time>2020-07-27T05:09:15.780Z</time>
      </trkpt>
      <trkpt lat="48.570418" lon="16.903550">
        <ele>199.212908</ele>
        <time>2020-07-27T05:09:17.783Z</time>
      </trkpt>
      <trkpt lat="48.570527" lon="16.903556">
        <ele>199.183636</ele>
        <time>2020-07-27T05:09:19.793Z</time>
      </trkpt>
      <trkpt lat="48.570634" lon="16.903564">
        <ele>199.154885</ele>
        <time>2020-07-27T05:09:21.794Z</time>
      </trkpt>
      <trkpt lat="48.570712" lon="16.903653">
        <ele>199.128656</ele>
        <time>2020-07-27T05:09:23.797Z</time>
      </trkpt>
      <trkpt lat="48.570765" lon="16.903800">
        <ele>199.098928</ele>
        <time>2020-07-27T05:09:25.787Z</time>
      </trkpt>
      <trkpt lat="48.570818" lon="16.903970">
        <ele>199.065557</ele>
        <time>2020-07-27T05:09:27.798Z</time>
      </trkpt>
      <trkpt lat="48.570874" lon="16.904124">
        <ele>199.034352</ele>
        <time>2020-07-27T05:09:29.796Z</time>
      </trkpt>
      <trkpt lat="48.570933" lon="16.904273">
        <ele>199.003517</ele>
        <time>2020-07-27T05:09:31.790Z</time>
      </trkpt>
      <trkpt lat="48.570993" lon="16.904430">
        <ele>198.971783</ele>
        <time>2020-07-27T05:09:33.819Z</time>
      </trkpt>
      <trkpt lat="48.571055" lon="16.904590">
        <ele>198.940509</ele>
        <time>2020-07-27T05:09:35.781Z</time>
      </trkpt>
      <trkpt lat="48.571120" lon="16.904754">
        <ele>198.908265</ele>
        <time>2020-07-27T05:09:37.794Z</time>
      </trkpt>
      <trkpt lat="48.571183" lon="16.904909">
        <ele>198.877583</ele>
        <time>2020-07-27T05:09:39.794Z</time>
      </trkpt>
      <trkpt lat="48.571246" lon="16.905063">
        <ele>198.847045</ele>
        <time>2020-07-27T05:09:41.788Z</time>
      </trkpt>
      <trkpt lat="48.571301" lon="16.905185">
        <ele>198.822146</ele>
        <time>2020-07-27T05:09:43.784Z</time>
      </trkpt>
      <trkpt lat="48.571361" lon="16.905334">
        <ele>198.792726</ele>
        <time>2020-07-27T05:09:45.786Z</time>
      </trkpt>
      <trkpt lat="48.571422" lon="16.905474">
        <ele>198.764453</ele>
        <time>2020-07-27T05:09:47.830Z</time>
      </trkpt>
      <trkpt lat="48.571474" lon="16.905605">
        <ele>198.738687</ele>
        <time>2020-07-27T05:09:49.790Z</time>
      </trkpt>
      <trkpt lat="48.571524" lon="16.905731">
        <ele>198.713906</ele>
        <time>2020-07-27T05:09:53.791Z</time>
      </trkpt>
      <trkpt lat="48.571619" lon="16.905920">
        <ele>198.673873</ele>
        <time>2020-07-27T05:10:48.796Z</time>
      </trkpt>
      <trkpt lat="48.571692" lon="16.906042">
        <ele>198.646130</ele>
        <time>2020-07-27T05:10:51.798Z</time>
      </trkpt>
      <trkpt lat="48.571796" lon="16.906164">
        <ele>198.612571</ele>
        <time>2020-07-27T05:10:54.802Z</time>
      </trkpt>
      <trkpt lat="48.571885" lon="16.906234">
        <ele>198.586996</ele>
        <time>2020-07-27T05:10:56.789Z</time>
      </trkpt>
      <trkpt lat="48.571986" lon="16.906282">
        <ele>198.560008</ele>
        <time>2020-07-27T05:10:58.793Z</time>
      </trkpt>
      <trkpt lat="48.572087" lon="16.906313">
        <ele>198.533737</ele>
        <time>2020-07-27T05:11:00.810Z</time>
      </trkpt>
      <trkpt lat="48.572184" lon="16.906318">
        <ele>198.533620</ele>
        <time>2020-07-27T05:11:02.773Z</time>
      </trkpt>
      <trkpt lat="48.572285" lon="16.906304">
        <ele>198.556562</ele>
        <time>2020-07-27T05:11:04.798Z</time>
      </trkpt>
      <trkpt lat="48.572385" lon="16.906284">
        <ele>198.579380</ele>
        <time>2020-07-27T05:11:06.798Z</time>
      </trkpt>
      <trkpt lat="48.572488" lon="16.906270">
        <ele>198.602773</ele>
        <time>2020-07-27T05:11:08.799Z</time>
      </trkpt>
      <trkpt lat="48.572591" lon="16.906258">
        <ele>198.626141</ele>
        <time>2020-07-27T05:11:10.807Z</time>
      </trkpt>
      <trkpt lat="48.572699" lon="16.906248">
        <ele>198.650617</ele>
        <time>2020-07-27T05:11:12.800Z</time>
      </trkpt>
      <trkpt lat="48.572807" lon="16.906227">
        <ele>198.675248</ele>
        <time>2020-07-27T05:11:14.793Z</time>
      </trkpt>
      <trkpt lat="48.572914" lon="16.906209">
        <ele>198.699601</ele>
        <time>2020-07-27T05:11:16.800Z</time>
      </trkpt>
      <trkpt lat="48.573024" lon="16.906193">
        <ele>198.724599</ele>
        <time>2020-07-27T05:11:18.823Z</time>
      </trkpt>
      <trkpt lat="48.573134" lon="16.906170">
        <ele>198.749718</ele>
        <time>2020-07-27T05:11:20.816Z</time>
      </trkpt>
      <trkpt lat="48.573242" lon="16.906109">
        <ele>198.775798</ele>
        <time>2020-07-27T05:11:22.798Z</time>
      </trkpt>
      <trkpt lat="48.573341" lon="16.906038">
        <ele>198.800586</ele>
        <time>2020-07-27T05:11:24.781Z</time>
      </trkpt>
      <trkpt lat="48.573434" lon="16.905951">
        <ele>198.825327</ele>
        <time>2020-07-27T05:11:26.787Z</time>
      </trkpt>
      <trkpt lat="48.573524" lon="16.905863">
        <ele>198.849574</ele>
        <time>2020-07-27T05:11:28.795Z</time>
      </trkpt>
      <trkpt lat="48.573612" lon="16.905775">
        <ele>198.873443</ele>
        <time>2020-07-27T05:11:30.797Z</time>
      </trkpt>
      <trkpt lat="48.573700" lon="16.905691">
        <ele>198.896987</ele>
        <time>2020-07-27T05:11:32.809Z</time>
      </trkpt>
      <trkpt lat="48.573788" lon="16.905608">
        <ele>198.920451</ele>
        <time>2020-07-27T05:11:34.808Z</time>
      </trkpt>
      <trkpt lat="48.573877" lon="16.905529">
        <ele>198.939095</ele>
        <time>2020-07-27T05:11:36.785Z</time>
      </trkpt>
      <trkpt lat="48.573966" lon="16.905453">
        <ele>198.954917</ele>
        <time>2020-07-27T05:11:38.813Z</time>
      </trkpt>
      <trkpt lat="48.574052" lon="16.905371">
        <ele>198.970656</ele>
        <time>2020-07-27T05:11:40.797Z</time>
      </trkpt>
      <trkpt lat="48.574138" lon="16.905285">
        <ele>198.986617</ele>
        <time>2020-07-27T05:11:42.789Z</time>
      </trkpt>
      <trkpt lat="48.574226" lon="16.905200">
        <ele>199.002782</ele>
        <time>2020-07-27T05:11:44.801Z</time>
      </trkpt>
      <trkpt lat="48.574314" lon="16.905110">
        <ele>199.019228</ele>
        <time>2020-07-27T05:11:46.800Z</time>
      </trkpt>
      <trkpt lat="48.574403" lon="16.905021">
        <ele>199.035746</ele>
        <time>2020-07-27T05:11:48.800Z</time>
      </trkpt>
      <trkpt lat="48.574488" lon="16.904932">
        <ele>199.051751</ele>
        <time>2020-07-27T05:11:50.809Z</time>
      </trkpt>
      <trkpt lat="48.574580" lon="16.904853">
        <ele>199.068129</ele>
        <time>2020-07-27T05:11:52.829Z</time>
      </trkpt>
      <trkpt lat="48.574680" lon="16.904790">
        <ele>199.084898</ele>
        <time>2020-07-27T05:11:54.793Z</time>
      </trkpt>
      <trkpt lat="48.574783" lon="16.904738">
        <ele>199.101706</ele>
        <time>2020-07-27T05:11:56.799Z</time>
      </trkpt>
      <trkpt lat="48.574886" lon="16.904704">
        <ele>199.118024</ele>
        <time>2020-07-27T05:11:58.802Z</time>
      </trkpt>
      <trkpt lat="48.574991" lon="16.904682">
        <ele>199.134432</ele>
        <time>2020-07-27T05:12:00.776Z</time>
      </trkpt>
      <trkpt lat="48.575095" lon="16.904662">
        <ele>199.150659</ele>
        <time>2020-07-27T05:12:02.796Z</time>
      </trkpt>
      <trkpt lat="48.575197" lon="16.904642">
        <ele>199.166579</ele>
        <time>2020-07-27T05:12:04.787Z</time>
      </trkpt>
      <trkpt lat="48.575304" lon="16.904623">
        <ele>199.183254</ele>
        <time>2020-07-27T05:12:06.783Z</time>
      </trkpt>
      <trkpt lat="48.575409" lon="16.904610">
        <ele>199.199561</ele>
        <time>2020-07-27T05:12:08.783Z</time>
      </trkpt>
      <trkpt lat="48.575512" lon="16.904591">
        <ele>199.207101</ele>
        <time>2020-07-27T05:12:10.801Z</time>
      </trkpt>
      <trkpt lat="48.575611" lon="16.904569">
        <ele>199.206733</ele>
        <time>2020-07-27T05:12:12.806Z</time>
      </trkpt>
      <trkpt lat="48.575713" lon="16.904549">
        <ele>199.206355</ele>
        <time>2020-07-27T05:12:14.811Z</time>
      </trkpt>
      <trkpt lat="48.575821" lon="16.904533">
        <ele>199.205956</ele>
        <time>2020-07-27T05:12:16.814Z</time>
      </trkpt>
      <trkpt lat="48.575931" lon="16.904519">
        <ele>199.205550</ele>
        <time>2020-07-27T05:12:18.791Z</time>
      </trkpt>
      <trkpt lat="48.576042" lon="16.904508">
        <ele>199.205142</ele>
        <time>2020-07-27T05:12:20.829Z</time>
      </trkpt>
      <trkpt lat="48.576150" lon="16.904494">
        <ele>199.204743</ele>
        <time>2020-07-27T05:12:22.799Z</time>
      </trkpt>
      <trkpt lat="48.576253" lon="16.904469">
        <ele>199.204360</ele>
        <time>2020-07-27T05:12:24.799Z</time>
      </trkpt>
      <trkpt lat="48.576355" lon="16.904433">
        <ele>199.203975</ele>
        <time>2020-07-27T05:12:26.797Z</time>
      </trkpt>
      <trkpt lat="48.576457" lon="16.904384">
        <ele>199.203581</ele>
        <time>2020-07-27T05:12:28.788Z</time>
      </trkpt>
      <trkpt lat="48.576551" lon="16.904313">
        <ele>199.203195</ele>
        <time>2020-07-27T05:12:30.801Z</time>
      </trkpt>
      <trkpt lat="48.576648" lon="16.904270">
        <ele>199.202823</ele>
        <time>2020-07-27T05:12:32.783Z</time>
      </trkpt>
      <trkpt lat="48.576752" lon="16.904271">
        <ele>199.202441</ele>
        <time>2020-07-27T05:12:34.785Z</time>
      </trkpt>
      <trkpt lat="48.576841" lon="16.904299">
        <ele>199.202107</ele>
        <time>2020-07-27T05:12:36.773Z</time>
      </trkpt>
      <trkpt lat="48.576934" lon="16.904356">
        <ele>199.201738</ele>
        <time>2020-07-27T05:12:38.794Z</time>
      </trkpt>
      <trkpt lat="48.577037" lon="16.904430">
        <ele>199.201319</ele>
        <time>2020-07-27T05:12:40.790Z</time>
      </trkpt>
      <trkpt lat="48.577137" lon="16.904496">
        <ele>199.200918</ele>
        <time>2020-07-27T05:12:42.815Z</time>
      </trkpt>
      <trkpt lat="48.577244" lon="16.904570">
        <ele>199.193827</ele>
        <time>2020-07-27T05:12:44.809Z</time>
      </trkpt>
      <trkpt lat="48.577347" lon="16.904634">
        <ele>199.179923</ele>
        <time>2020-07-27T05:12:46.796Z</time>
      </trkpt>
      <trkpt lat="48.577453" lon="16.904690">
        <ele>199.165904</ele>
        <time>2020-07-27T05:12:48.808Z</time>
      </trkpt>
      <trkpt lat="48.577559" lon="16.904736">
        <ele>199.152135</ele>
        <time>2020-07-27T05:12:50.817Z</time>
      </trkpt>
      <trkpt lat="48.577664" lon="16.904776">
        <ele>199.138616</ele>
        <time>2020-07-27T05:12:52.788Z</time>
      </trkpt>
      <trkpt lat="48.577767" lon="16.904805">
        <ele>199.125535</ele>
        <time>2020-07-27T05:12:54.779Z</time>
      </trkpt>
      <trkpt lat="48.577873" lon="16.904839">
        <ele>199.112007</ele>
        <time>2020-07-27T05:12:56.817Z</time>
      </trkpt>
      <trkpt lat="48.577977" lon="16.904880">
        <ele>199.098588</ele>
        <time>2020-07-27T05:12:58.792Z</time>
      </trkpt>
      <trkpt lat="48.578085" lon="16.904932">
        <ele>199.084436</ele>
        <time>2020-07-27T05:13:00.797Z</time>
      </trkpt>
      <trkpt lat="48.578191" lon="16.904978">
        <ele>199.070668</ele>
        <time>2020-07-27T05:13:02.789Z</time>
      </trkpt>
      <trkpt lat="48.578297" lon="16.905015">
        <ele>199.057085</ele>
        <time>2020-07-27T05:13:04.810Z</time>
      </trkpt>
      <trkpt lat="48.578403" lon="16.905053">
        <ele>199.043484</ele>
        <time>2020-07-27T05:13:06.785Z</time>
      </trkpt>
      <trkpt lat="48.578509" lon="16.905089">
        <ele>199.029920</ele>
        <time>2020-07-27T05:13:08.786Z</time>
      </trkpt>
      <trkpt lat="48.578615" lon="16.905142">
        <ele>199.015981</ele>
        <time>2020-07-27T05:13:10.793Z</time>
      </trkpt>
      <trkpt lat="48.578717" lon="16.905183">
        <ele>199.002803</ele>
        <time>2020-07-27T05:13:12.792Z</time>
      </trkpt>
      <trkpt lat="48.578824" lon="16.905224">
        <ele>198.989022</ele>
        <time>2020-07-27T05:13:14.796Z</time>
      </trkpt>
      <trkpt lat="48.578927" lon="16.905260">
        <ele>198.983705</ele>
        <time>2020-07-27T05:13:16.787Z</time>
      </trkpt>
      <trkpt lat="48.579034" lon="16.905300">
        <ele>199.326949</ele>
        <time>2020-07-27T05:13:18.800Z</time>
      </trkpt>
      <trkpt lat="48.579141" lon="16.905341">
        <ele>199.670693</ele>
        <time>2020-07-27T05:13:20.804Z</time>
      </trkpt>
      <trkpt lat="48.579242" lon="16.905373">
        <ele>199.992048</ele>
        <time>2020-07-27T05:13:22.790Z</time>
      </trkpt>
      <trkpt lat="48.579351" lon="16.905415">
        <ele>200.342336</ele>
        <time>2020-07-27T05:13:24.798Z</time>
      </trkpt>
      <trkpt lat="48.579454" lon="16.905460">
        <ele>200.676214</ele>
        <time>2020-07-27T05:13:26.785Z</time>
      </trkpt>
      <trkpt lat="48.579563" lon="16.905509">
        <ele>201.030339</ele>
        <time>2020-07-27T05:13:28.785Z</time>
      </trkpt>
      <trkpt lat="48.579670" lon="16.905551">
        <ele>201.374595</ele>
        <time>2020-07-27T05:13:30.824Z</time>
      </trkpt>
      <trkpt lat="48.579780" lon="16.905604">
        <ele>201.734124</ele>
        <time>2020-07-27T05:13:32.810Z</time>
      </trkpt>
      <trkpt lat="48.579875" lon="16.905682">
        <ele>202.070786</ele>
        <time>2020-07-27T05:13:34.785Z</time>
      </trkpt>
      <trkpt lat="48.579914" lon="16.905835">
        <ele>202.408581</ele>
        <time>2020-07-27T05:13:36.782Z</time>
      </trkpt>
      <trkpt lat="48.579917" lon="16.906010">
        <ele>202.769234</ele>
        <time>2020-07-27T05:13:38.815Z</time>
      </trkpt>
      <trkpt lat="48.579915" lon="16.906183">
        <ele>203.125700</ele>
        <time>2020-07-27T05:13:40.804Z</time>
      </trkpt>
      <trkpt lat="48.579909" lon="16.906330">
        <ele>203.429123</ele>
        <time>2020-07-27T05:13:42.811Z</time>
      </trkpt>
      <trkpt lat="48.579901" lon="16.906480">
        <ele>203.739153</ele>
        <time>2020-07-27T05:13:44.783Z</time>
      </trkpt>
      <trkpt lat="48.579895" lon="16.906635">
        <ele>204.059027</ele>
        <time>2020-07-27T05:13:46.799Z</time>
      </trkpt>
      <trkpt lat="48.579893" lon="16.906794">
        <ele>204.386656</ele>
        <time>2020-07-27T05:13:48.800Z</time>
      </trkpt>
      <trkpt lat="48.579889" lon="16.906942">
        <ele>204.792340</ele>
        <time>2020-07-27T05:13:50.784Z</time>
      </trkpt>
      <trkpt lat="48.579874" lon="16.907118">
        <ele>205.478578</ele>
        <time>2020-07-27T05:13:53.786Z</time>
      </trkpt>
      <trkpt lat="48.579863" lon="16.907169">
        <ele>205.686018</ele>
        <time>2020-07-27T05:14:06.457Z</time>
      </trkpt>
      <trkpt lat="48.579771" lon="16.907178">
        <ele>206.224913</ele>
        <time>2020-07-27T05:16:53.673Z</time>
      </trkpt>
      <trkpt lat="48.579857" lon="16.907272">
        <ele>206.845272</ele>
        <time>2020-07-27T05:17:02.801Z</time>
      </trkpt>
      <trkpt lat="48.579849" lon="16.907446">
        <ele>207.519775</ele>
        <time>2020-07-27T05:17:07.790Z</time>
      </trkpt>
      <trkpt lat="48.579853" lon="16.907607">
        <ele>208.142821</ele>
        <time>2020-07-27T05:17:10.792Z</time>
      </trkpt>
      <trkpt lat="48.579855" lon="16.907792">
        <ele>208.858335</ele>
        <time>2020-07-27T05:17:13.795Z</time>
      </trkpt>
      <trkpt lat="48.579862" lon="16.907937">
        <ele>209.420559</ele>
        <time>2020-07-27T05:17:15.798Z</time>
      </trkpt>
      <trkpt lat="48.579895" lon="16.908068">
        <ele>209.962634</ele>
        <time>2020-07-27T05:17:17.790Z</time>
      </trkpt>
      <trkpt lat="48.579970" lon="16.908168">
        <ele>210.547220</ele>
        <time>2020-07-27T05:17:19.790Z</time>
      </trkpt>
      <trkpt lat="48.580076" lon="16.908195">
        <ele>211.175560</ele>
        <time>2020-07-27T05:17:21.806Z</time>
      </trkpt>
      <trkpt lat="48.580183" lon="16.908171">
        <ele>211.807859</ele>
        <time>2020-07-27T05:17:23.787Z</time>
      </trkpt>
      <trkpt lat="48.580286" lon="16.908153">
        <ele>212.413938</ele>
        <time>2020-07-27T05:17:25.797Z</time>
      </trkpt>
      <trkpt lat="48.580386" lon="16.908130">
        <ele>213.005199</ele>
        <time>2020-07-27T05:17:27.792Z</time>
      </trkpt>
      <trkpt lat="48.580491" lon="16.908103">
        <ele>213.627776</ele>
        <time>2020-07-27T05:17:29.791Z</time>
      </trkpt>
      <trkpt lat="48.580594" lon="16.908069">
        <ele>214.244034</ele>
        <time>2020-07-27T05:17:31.826Z</time>
      </trkpt>
      <trkpt lat="48.580695" lon="16.908049">
        <ele>214.839456</ele>
        <time>2020-07-27T05:17:33.825Z</time>
      </trkpt>
      <trkpt lat="48.580797" lon="16.908026">
        <ele>215.002873</ele>
        <time>2020-07-27T05:17:35.814Z</time>
      </trkpt>
      <trkpt lat="48.580898" lon="16.908011">
        <ele>214.854334</ele>
        <time>2020-07-27T05:17:37.793Z</time>
      </trkpt>
      <trkpt lat="48.580997" lon="16.907985">
        <ele>214.707262</ele>
        <time>2020-07-27T05:17:39.807Z</time>
      </trkpt>
      <trkpt lat="48.581098" lon="16.907949">
        <ele>214.555380</ele>
        <time>2020-07-27T05:17:41.795Z</time>
      </trkpt>
      <trkpt lat="48.581197" lon="16.907919">
        <ele>214.407596</ele>
        <time>2020-07-27T05:17:43.784Z</time>
      </trkpt>
      <trkpt lat="48.581302" lon="16.907897">
        <ele>214.252444</ele>
        <time>2020-07-27T05:17:45.784Z</time>
      </trkpt>
      <trkpt lat="48.581403" lon="16.907879">
        <ele>214.103592</ele>
        <time>2020-07-27T05:17:47.786Z</time>
      </trkpt>
      <trkpt lat="48.581503" lon="16.907865">
        <ele>213.956601</ele>
        <time>2020-07-27T05:17:49.820Z</time>
      </trkpt>
      <trkpt lat="48.581606" lon="16.907848">
        <ele>213.804950</ele>
        <time>2020-07-27T05:17:51.785Z</time>
      </trkpt>
      <trkpt lat="48.581713" lon="16.907834">
        <ele>213.647754</ele>
        <time>2020-07-27T05:17:53.796Z</time>
      </trkpt>
      <trkpt lat="48.581815" lon="16.907829">
        <ele>213.498384</ele>
        <time>2020-07-27T05:17:55.778Z</time>
      </trkpt>
      <trkpt lat="48.581922" lon="16.907837">
        <ele>213.341583</ele>
        <time>2020-07-27T05:17:57.785Z</time>
      </trkpt>
      <trkpt lat="48.582023" lon="16.907851">
        <ele>213.193135</ele>
        <time>2020-07-27T05:17:59.838Z</time>
      </trkpt>
      <trkpt lat="48.582124" lon="16.907858">
        <ele>213.045151</ele>
        <time>2020-07-27T05:18:01.798Z</time>
      </trkpt>
      <trkpt lat="48.582226" lon="16.907865">
        <ele>212.895706</ele>
        <time>2020-07-27T05:18:03.798Z</time>
      </trkpt>
      <trkpt lat="48.582330" lon="16.907873">
        <ele>212.743290</ele>
        <time>2020-07-27T05:18:05.784Z</time>
      </trkpt>
      <trkpt lat="48.582430" lon="16.907880">
        <ele>212.596769</ele>
        <time>2020-07-27T05:18:07.791Z</time>
      </trkpt>
      <trkpt lat="48.582530" lon="16.907887">
        <ele>212.453963</ele>
        <time>2020-07-27T05:18:09.799Z</time>
      </trkpt>
      <trkpt lat="48.582631" lon="16.907890">
        <ele>212.374406</ele>
        <time>2020-07-27T05:18:11.785Z</time>
      </trkpt>
      <trkpt lat="48.582732" lon="16.907893">
        <ele>212.294849</ele>
        <time>2020-07-27T05:18:13.784Z</time>
      </trkpt>
      <trkpt lat="48.582834" lon="16.907899">
        <ele>212.214459</ele>
        <time>2020-07-27T05:18:15.793Z</time>
      </trkpt>
      <trkpt lat="48.582932" lon="16.907897">
        <ele>212.137273</ele>
        <time>2020-07-27T05:18:17.791Z</time>
      </trkpt>
      <trkpt lat="48.583028" lon="16.907899">
        <ele>212.061662</ele>
        <time>2020-07-27T05:18:19.814Z</time>
      </trkpt>
      <trkpt lat="48.583146" lon="16.907902">
        <ele>211.968719</ele>
        <time>2020-07-27T05:18:22.802Z</time>
      </trkpt>
      <trkpt lat="48.583324" lon="16.907924">
        <ele>211.828069</ele>
        <time>2020-07-27T05:19:29.770Z</time>
      </trkpt>
      <trkpt lat="48.583439" lon="16.907939">
        <ele>211.737165</ele>
        <time>2020-07-27T05:19:32.806Z</time>
      </trkpt>
      <trkpt lat="48.583571" lon="16.907933">
        <ele>211.633163</ele>
        <time>2020-07-27T05:19:35.810Z</time>
      </trkpt>
      <trkpt lat="48.583666" lon="16.907921">
        <ele>211.558086</ele>
        <time>2020-07-27T05:19:37.792Z</time>
      </trkpt>
      <trkpt lat="48.583763" lon="16.907919">
        <ele>211.481687</ele>
        <time>2020-07-27T05:19:39.802Z</time>
      </trkpt>
      <trkpt lat="48.583863" lon="16.907929">
        <ele>211.402761</ele>
        <time>2020-07-27T05:19:41.769Z</time>
      </trkpt>
      <trkpt lat="48.583963" lon="16.907921">
        <ele>211.323897</ele>
        <time>2020-07-27T05:19:43.788Z</time>
      </trkpt>
      <trkpt lat="48.584067" lon="16.907923">
        <ele>211.241986</ele>
        <time>2020-07-27T05:19:45.784Z</time>
      </trkpt>
      <trkpt lat="48.584172" lon="16.907929">
        <ele>211.159235</ele>
        <time>2020-07-27T05:19:47.807Z</time>
      </trkpt>
      <trkpt lat="48.584276" lon="16.907932">
        <ele>211.077316</ele>
        <time>2020-07-27T05:19:49.817Z</time>
      </trkpt>
      <trkpt lat="48.584374" lon="16.907915">
        <ele>211.032363</ele>
        <time>2020-07-27T05:19:51.780Z</time>
      </trkpt>
      <trkpt lat="48.584483" lon="16.907921">
        <ele>211.013160</ele>
        <time>2020-07-27T05:19:53.773Z</time>
      </trkpt>
      <trkpt lat="48.584587" lon="16.907926">
        <ele>210.994842</ele>
        <time>2020-07-27T05:19:55.801Z</time>
      </trkpt>
      <trkpt lat="48.584692" lon="16.907931">
        <ele>210.976347</ele>
        <time>2020-07-27T05:19:57.804Z</time>
      </trkpt>
      <trkpt lat="48.584795" lon="16.907926">
        <ele>210.958205</ele>
        <time>2020-07-27T05:19:59.777Z</time>
      </trkpt>
      <trkpt lat="48.584906" lon="16.907937">
        <ele>210.938621</ele>
        <time>2020-07-27T05:20:01.792Z</time>
      </trkpt>
      <trkpt lat="48.585009" lon="16.907944">
        <ele>210.920470</ele>
        <time>2020-07-27T05:20:03.787Z</time>
      </trkpt>
      <trkpt lat="48.585110" lon="16.907941">
        <ele>210.902685</ele>
        <time>2020-07-27T05:20:05.815Z</time>
      </trkpt>
      <trkpt lat="48.585215" lon="16.907945">
        <ele>210.884194</ele>
        <time>2020-07-27T05:20:07.790Z</time>
      </trkpt>
      <trkpt lat="48.585323" lon="16.907958">
        <ele>210.865120</ele>
        <time>2020-07-27T05:20:09.797Z</time>
      </trkpt>
      <trkpt lat="48.585430" lon="16.907970">
        <ele>210.846231</ele>
        <time>2020-07-27T05:20:11.791Z</time>
      </trkpt>
      <trkpt lat="48.585529" lon="16.907974">
        <ele>210.828796</ele>
        <time>2020-07-27T05:20:13.794Z</time>
      </trkpt>
      <trkpt lat="48.585632" lon="16.907981">
        <ele>210.810644</ele>
        <time>2020-07-27T05:20:15.802Z</time>
      </trkpt>
      <trkpt lat="48.585738" lon="16.907984">
        <ele>210.791980</ele>
        <time>2020-07-27T05:20:17.786Z</time>
      </trkpt>
      <trkpt lat="48.585846" lon="16.907992">
        <ele>210.772943</ele>
        <time>2020-07-27T05:20:19.785Z</time>
      </trkpt>
      <trkpt lat="48.585951" lon="16.907993">
        <ele>210.754458</ele>
        <time>2020-07-27T05:20:21.800Z</time>
      </trkpt>
      <trkpt lat="48.586054" lon="16.907996">
        <ele>210.736321</ele>
        <time>2020-07-27T05:20:23.807Z</time>
      </trkpt>
      <trkpt lat="48.586159" lon="16.907998">
        <ele>210.725057</ele>
        <time>2020-07-27T05:20:25.805Z</time>
      </trkpt>
      <trkpt lat="48.586269" lon="16.908004">
        <ele>210.724853</ele>
        <time>2020-07-27T05:20:27.788Z</time>
      </trkpt>
      <trkpt lat="48.586378" lon="16.908010">
        <ele>210.724651</ele>
        <time>2020-07-27T05:20:29.821Z</time>
      </trkpt>
      <trkpt lat="48.586486" lon="16.908017">
        <ele>210.724451</ele>
        <time>2020-07-27T05:20:31.791Z</time>
      </trkpt>
      <trkpt lat="48.586597" lon="16.908028">
        <ele>210.724245</ele>
        <time>2020-07-27T05:20:33.791Z</time>
      </trkpt>
      <trkpt lat="48.586705" lon="16.908043">
        <ele>210.724044</ele>
        <time>2020-07-27T05:20:35.808Z</time>
      </trkpt>
      <trkpt lat="48.586810" lon="16.908042">
        <ele>210.723850</ele>
        <time>2020-07-27T05:20:37.784Z</time>
      </trkpt>
      <trkpt lat="48.586915" lon="16.908045">
        <ele>210.723655</ele>
        <time>2020-07-27T05:20:39.796Z</time>
      </trkpt>
      <trkpt lat="48.587016" lon="16.908043">
        <ele>210.723468</ele>
        <time>2020-07-27T05:20:41.793Z</time>
      </trkpt>
      <trkpt lat="48.587116" lon="16.908038">
        <ele>210.723283</ele>
        <time>2020-07-27T05:20:43.813Z</time>
      </trkpt>
      <trkpt lat="48.587229" lon="16.908055">
        <ele>210.723073</ele>
        <time>2020-07-27T05:20:45.810Z</time>
      </trkpt>
      <trkpt lat="48.587339" lon="16.908070">
        <ele>210.722868</ele>
        <time>2020-07-27T05:20:47.789Z</time>
      </trkpt>
      <trkpt lat="48.587450" lon="16.908077">
        <ele>210.722663</ele>
        <time>2020-07-27T05:20:49.796Z</time>
      </trkpt>
      <trkpt lat="48.587564" lon="16.908086">
        <ele>210.722451</ele>
        <time>2020-07-27T05:20:51.788Z</time>
      </trkpt>
      <trkpt lat="48.587670" lon="16.908089">
        <ele>210.722255</ele>
        <time>2020-07-27T05:20:53.807Z</time>
      </trkpt>
      <trkpt lat="48.587778" lon="16.908096">
        <ele>210.722055</ele>
        <time>2020-07-27T05:20:55.793Z</time>
      </trkpt>
      <trkpt lat="48.587880" lon="16.908098">
        <ele>210.721866</ele>
        <time>2020-07-27T05:20:57.795Z</time>
      </trkpt>
      <trkpt lat="48.587980" lon="16.908100">
        <ele>210.717863</ele>
        <time>2020-07-27T05:20:59.806Z</time>
      </trkpt>
      <trkpt lat="48.588084" lon="16.908107">
        <ele>210.711670</ele>
        <time>2020-07-27T05:21:01.798Z</time>
      </trkpt>
      <trkpt lat="48.588193" lon="16.908124">
        <ele>210.705152</ele>
        <time>2020-07-27T05:21:03.797Z</time>
      </trkpt>
      <trkpt lat="48.588304" lon="16.908133">
        <ele>210.698539</ele>
        <time>2020-07-27T05:21:05.794Z</time>
      </trkpt>
      <trkpt lat="48.588415" lon="16.908136">
        <ele>210.691935</ele>
        <time>2020-07-27T05:21:07.788Z</time>
      </trkpt>
      <trkpt lat="48.588522" lon="16.908134">
        <ele>210.685569</ele>
        <time>2020-07-27T05:21:09.796Z</time>
      </trkpt>
      <trkpt lat="48.588633" lon="16.908145">
        <ele>210.678951</ele>
        <time>2020-07-27T05:21:11.795Z</time>
      </trkpt>
      <trkpt lat="48.588741" lon="16.908158">
        <ele>210.672506</ele>
        <time>2020-07-27T05:21:13.789Z</time>
      </trkpt>
      <trkpt lat="48.588850" lon="16.908167">
        <ele>210.666012</ele>
        <time>2020-07-27T05:21:15.781Z</time>
      </trkpt>
      <trkpt lat="48.588960" lon="16.908186">
        <ele>210.659426</ele>
        <time>2020-07-27T05:21:17.797Z</time>
      </trkpt>
      <trkpt lat="48.589064" lon="16.908196">
        <ele>210.653227</ele>
        <time>2020-07-27T05:21:19.804Z</time>
      </trkpt>
      <trkpt lat="48.589168" lon="16.908207">
        <ele>210.647025</ele>
        <time>2020-07-27T05:21:21.782Z</time>
      </trkpt>
      <trkpt lat="48.589275" lon="16.908225">
        <ele>210.640620</ele>
        <time>2020-07-27T05:21:23.800Z</time>
      </trkpt>
      <trkpt lat="48.589376" lon="16.908234">
        <ele>210.634602</ele>
        <time>2020-07-27T05:21:25.785Z</time>
      </trkpt>
      <trkpt lat="48.589477" lon="16.908233">
        <ele>210.628593</ele>
        <time>2020-07-27T05:21:27.801Z</time>
      </trkpt>
      <trkpt lat="48.589582" lon="16.908236">
        <ele>210.622346</ele>
        <time>2020-07-27T05:21:29.802Z</time>
      </trkpt>
      <trkpt lat="48.589693" lon="16.908247">
        <ele>210.615728</ele>
        <time>2020-07-27T05:21:31.785Z</time>
      </trkpt>
      <trkpt lat="48.589807" lon="16.908258">
        <ele>210.594788</ele>
        <time>2020-07-27T05:21:33.788Z</time>
      </trkpt>
      <trkpt lat="48.589921" lon="16.908270">
        <ele>210.571613</ele>
        <time>2020-07-27T05:21:35.782Z</time>
      </trkpt>
      <trkpt lat="48.590037" lon="16.908280">
        <ele>210.548051</ele>
        <time>2020-07-27T05:21:37.786Z</time>
      </trkpt>
      <trkpt lat="48.590151" lon="16.908295">
        <ele>210.524845</ele>
        <time>2020-07-27T05:21:39.788Z</time>
      </trkpt>
      <trkpt lat="48.590264" lon="16.908310">
        <ele>210.501841</ele>
        <time>2020-07-27T05:21:41.790Z</time>
      </trkpt>
      <trkpt lat="48.590376" lon="16.908321">
        <ele>210.479080</ele>
        <time>2020-07-27T05:21:43.788Z</time>
      </trkpt>
      <trkpt lat="48.590492" lon="16.908329">
        <ele>210.455532</ele>
        <time>2020-07-27T05:21:45.798Z</time>
      </trkpt>
      <trkpt lat="48.590607" lon="16.908344">
        <ele>210.432124</ele>
        <time>2020-07-27T05:21:47.789Z</time>
      </trkpt>
      <trkpt lat="48.590711" lon="16.908351">
        <ele>210.411012</ele>
        <time>2020-07-27T05:21:49.787Z</time>
      </trkpt>
      <trkpt lat="48.590808" lon="16.908384">
        <ele>210.390849</ele>
        <time>2020-07-27T05:21:51.800Z</time>
      </trkpt>
      <trkpt lat="48.590932" lon="16.908442">
        <ele>210.364527</ele>
        <time>2020-07-27T05:21:54.808Z</time>
      </trkpt>
      <trkpt lat="48.591049" lon="16.908486">
        <ele>210.340077</ele>
        <time>2020-07-27T05:21:57.789Z</time>
      </trkpt>
      <trkpt lat="48.591170" lon="16.908504">
        <ele>210.315420</ele>
        <time>2020-07-27T05:22:00.804Z</time>
      </trkpt>
      <trkpt lat="48.591263" lon="16.908530">
        <ele>210.296241</ele>
        <time>2020-07-27T05:22:02.798Z</time>
      </trkpt>
      <trkpt lat="48.591396" lon="16.908550">
        <ele>210.269136</ele>
        <time>2020-07-27T05:22:05.800Z</time>
      </trkpt>
      <trkpt lat="48.591490" lon="16.908562">
        <ele>210.250684</ele>
        <time>2020-07-27T05:22:07.778Z</time>
      </trkpt>
      <trkpt lat="48.591585" lon="16.908578">
        <ele>210.525309</ele>
        <time>2020-07-27T05:22:09.794Z</time>
      </trkpt>
      <trkpt lat="48.591685" lon="16.908599">
        <ele>210.815368</ele>
        <time>2020-07-27T05:22:11.829Z</time>
      </trkpt>
      <trkpt lat="48.591785" lon="16.908620">
        <ele>211.105427</ele>
        <time>2020-07-27T05:22:13.785Z</time>
      </trkpt>
      <trkpt lat="48.591887" lon="16.908639">
        <ele>211.400690</ele>
        <time>2020-07-27T05:22:15.780Z</time>
      </trkpt>
      <trkpt lat="48.591985" lon="16.908651">
        <ele>211.683167</ele>
        <time>2020-07-27T05:22:17.793Z</time>
      </trkpt>
      <trkpt lat="48.592085" lon="16.908671">
        <ele>211.972971</ele>
        <time>2020-07-27T05:22:19.781Z</time>
      </trkpt>
      <trkpt lat="48.592312" lon="16.908710">
        <ele>212.629342</ele>
        <time>2020-07-27T05:23:03.804Z</time>
      </trkpt>
      <trkpt lat="48.592429" lon="16.908714">
        <ele>212.965570</ele>
        <time>2020-07-27T05:23:06.807Z</time>
      </trkpt>
      <trkpt lat="48.592563" lon="16.908736">
        <ele>213.352817</ele>
        <time>2020-07-27T05:23:09.797Z</time>
      </trkpt>
      <trkpt lat="48.592659" lon="16.908754">
        <ele>213.630738</ele>
        <time>2020-07-27T05:23:11.786Z</time>
      </trkpt>
      <trkpt lat="48.592758" lon="16.908770">
        <ele>213.916787</ele>
        <time>2020-07-27T05:23:13.815Z</time>
      </trkpt>
      <trkpt lat="48.592858" lon="16.908781">
        <ele>214.204847</ele>
        <time>2020-07-27T05:23:15.796Z</time>
      </trkpt>
      <trkpt lat="48.592953" lon="16.908797">
        <ele>214.479472</ele>
        <time>2020-07-27T05:23:17.795Z</time>
      </trkpt>
      <trkpt lat="48.593043" lon="16.908820">
        <ele>214.741710</ele>
        <time>2020-07-27T05:23:19.806Z</time>
      </trkpt>
      <trkpt lat="48.593137" lon="16.908787">
        <ele>215.018958</ele>
        <time>2020-07-27T05:23:23.793Z</time>
      </trkpt>
      <trkpt lat="48.593137" lon="16.908780">
        <ele>215.032259</ele>
        <time>2020-07-27T05:23:36.249Z</time>
      </trkpt>
      <trkpt lat="48.593236" lon="16.908810">
        <ele>215.322344</ele>
        <time>2020-07-27T05:26:01.788Z</time>
      </trkpt>
      <trkpt lat="48.593326" lon="16.908842">
        <ele>215.805639</ele>
        <time>2020-07-27T05:26:04.791Z</time>
      </trkpt>
      <trkpt lat="48.593440" lon="16.908861">
        <ele>216.556070</ele>
        <time>2020-07-27T05:26:07.783Z</time>
      </trkpt>
      <trkpt lat="48.593572" lon="16.908890">
        <ele>217.428828</ele>
        <time>2020-07-27T05:26:10.817Z</time>
      </trkpt>
      <trkpt lat="48.593707" lon="16.908907">
        <ele>218.315204</ele>
        <time>2020-07-27T05:26:13.803Z</time>
      </trkpt>
      <trkpt lat="48.593802" lon="16.908916">
        <ele>218.938017</ele>
        <time>2020-07-27T05:26:15.789Z</time>
      </trkpt>
      <trkpt lat="48.593898" lon="16.908929">
        <ele>219.568668</ele>
        <time>2020-07-27T05:26:17.787Z</time>
      </trkpt>
      <trkpt lat="48.593999" lon="16.908946">
        <ele>220.233603</ele>
        <time>2020-07-27T05:26:19.812Z</time>
      </trkpt>
      <trkpt lat="48.594098" lon="16.908967">
        <ele>220.887713</ele>
        <time>2020-07-27T05:26:21.774Z</time>
      </trkpt>
      <trkpt lat="48.594200" lon="16.908980">
        <ele>221.557475</ele>
        <time>2020-07-27T05:26:23.795Z</time>
      </trkpt>
      <trkpt lat="48.594296" lon="16.908987">
        <ele>222.186342</ele>
        <time>2020-07-27T05:26:25.811Z</time>
      </trkpt>
      <trkpt lat="48.594395" lon="16.908997">
        <ele>222.835552</ele>
        <time>2020-07-27T05:26:27.801Z</time>
      </trkpt>
      <trkpt lat="48.594497" lon="16.909016">
        <ele>223.507994</ele>
        <time>2020-07-27T05:26:29.810Z</time>
      </trkpt>
      <trkpt lat="48.594605" lon="16.909036">
        <ele>224.219928</ele>
        <time>2020-07-27T05:26:31.799Z</time>
      </trkpt>
      <trkpt lat="48.594708" lon="16.909042">
        <ele>224.894367</ele>
        <time>2020-07-27T05:26:33.801Z</time>
      </trkpt>
      <trkpt lat="48.594803" lon="16.909056">
        <ele>225.518906</ele>
        <time>2020-07-27T05:26:35.804Z</time>
      </trkpt>
      <trkpt lat="48.594907" lon="16.909074">
        <ele>226.203832</ele>
        <time>2020-07-27T05:26:37.810Z</time>
      </trkpt>
      <trkpt lat="48.595023" lon="16.909092">
        <ele>226.966817</ele>
        <time>2020-07-27T05:26:39.802Z</time>
      </trkpt>
      <trkpt lat="48.595134" lon="16.909109">
        <ele>227.343165</ele>
        <time>2020-07-27T05:26:41.808Z</time>
      </trkpt>
      <trkpt lat="48.595241" lon="16.909129">
        <ele>227.559960</ele>
        <time>2020-07-27T05:26:43.802Z</time>
      </trkpt>
      <trkpt lat="48.595347" lon="16.909144">
        <ele>227.774038</ele>
        <time>2020-07-27T05:26:45.832Z</time>
      </trkpt>
      <trkpt lat="48.595454" lon="16.909159">
        <ele>227.990119</ele>
        <time>2020-07-27T05:26:47.789Z</time>
      </trkpt>
      <trkpt lat="48.595565" lon="16.909182">
        <ele>228.215406</ele>
        <time>2020-07-27T05:26:49.818Z</time>
      </trkpt>
      <trkpt lat="48.595672" lon="16.909202">
        <ele>228.432201</ele>
        <time>2020-07-27T05:26:51.788Z</time>
      </trkpt>
      <trkpt lat="48.595782" lon="16.909223">
        <ele>228.655147</ele>
        <time>2020-07-27T05:26:53.800Z</time>
      </trkpt>
      <trkpt lat="48.595894" lon="16.909237">
        <ele>228.881127</ele>
        <time>2020-07-27T05:26:55.807Z</time>
      </trkpt>
      <trkpt lat="48.596006" lon="16.909248">
        <ele>229.106813</ele>
        <time>2020-07-27T05:26:57.787Z</time>
      </trkpt>
      <trkpt lat="48.596117" lon="16.909253">
        <ele>229.330113</ele>
        <time>2020-07-27T05:26:59.791Z</time>
      </trkpt>
      <trkpt lat="48.596227" lon="16.909263">
        <ele>229.551702</ele>
        <time>2020-07-27T05:27:01.807Z</time>
      </trkpt>
      <trkpt lat="48.596342" lon="16.909292">
        <ele>229.786140</ele>
        <time>2020-07-27T05:27:03.800Z</time>
      </trkpt>
      <trkpt lat="48.596453" lon="16.909312">
        <ele>230.010920</ele>
        <time>2020-07-27T05:27:05.799Z</time>
      </trkpt>
      <trkpt lat="48.596564" lon="16.909329">
        <ele>230.235263</ele>
        <time>2020-07-27T05:27:07.790Z</time>
      </trkpt>
      <trkpt lat="48.596677" lon="16.909343">
        <ele>230.463247</ele>
        <time>2020-07-27T05:27:09.795Z</time>
      </trkpt>
      <trkpt lat="48.596791" lon="16.909359">
        <ele>230.693465</ele>
        <time>2020-07-27T05:27:11.795Z</time>
      </trkpt>
      <trkpt lat="48.596902" lon="16.909376">
        <ele>230.676507</ele>
        <time>2020-07-27T05:27:13.792Z</time>
      </trkpt>
      <trkpt lat="48.597015" lon="16.909391">
        <ele>230.425173</ele>
        <time>2020-07-27T05:27:15.785Z</time>
      </trkpt>
      <trkpt lat="48.597129" lon="16.909407">
        <ele>230.171500</ele>
        <time>2020-07-27T05:27:17.791Z</time>
      </trkpt>
      <trkpt lat="48.597235" lon="16.909422">
        <ele>229.935612</ele>
        <time>2020-07-27T05:27:19.827Z</time>
      </trkpt>
      <trkpt lat="48.597348" lon="16.909434">
        <ele>229.684625</ele>
        <time>2020-07-27T05:27:21.803Z</time>
      </trkpt>
      <trkpt lat="48.597477" lon="16.909450">
        <ele>229.397843</ele>
        <time>2020-07-27T05:27:23.822Z</time>
      </trkpt>
      <trkpt lat="48.597609" lon="16.909467">
        <ele>229.104315</ele>
        <time>2020-07-27T05:27:25.802Z</time>
      </trkpt>
      <trkpt lat="48.597718" lon="16.909469">
        <ele>228.862789</ele>
        <time>2020-07-27T05:27:27.807Z</time>
      </trkpt>
      <trkpt lat="48.597823" lon="16.909471">
        <ele>228.630125</ele>
        <time>2020-07-27T05:27:29.789Z</time>
      </trkpt>
      <trkpt lat="48.597936" lon="16.909484">
        <ele>228.379030</ele>
        <time>2020-07-27T05:27:31.789Z</time>
      </trkpt>
      <trkpt lat="48.598060" lon="16.909512">
        <ele>228.101240</ele>
        <time>2020-07-27T05:27:33.829Z</time>
      </trkpt>
      <trkpt lat="48.598175" lon="16.909528">
        <ele>227.845361</ele>
        <time>2020-07-27T05:27:35.837Z</time>
      </trkpt>
      <trkpt lat="48.598285" lon="16.909537">
        <ele>227.601280</ele>
        <time>2020-07-27T05:27:37.795Z</time>
      </trkpt>
      <trkpt lat="48.598395" lon="16.909541">
        <ele>227.357486</ele>
        <time>2020-07-27T05:27:39.810Z</time>
      </trkpt>
      <trkpt lat="48.598506" lon="16.909561">
        <ele>227.109806</ele>
        <time>2020-07-27T05:27:41.803Z</time>
      </trkpt>
      <trkpt lat="48.598620" lon="16.909578">
        <ele>226.855994</ele>
        <time>2020-07-27T05:27:43.793Z</time>
      </trkpt>
      <trkpt lat="48.598735" lon="16.909579">
        <ele>226.761383</ele>
        <time>2020-07-27T05:27:45.796Z</time>
      </trkpt>
      <trkpt lat="48.598846" lon="16.909597">
        <ele>226.696962</ele>
        <time>2020-07-27T05:27:47.820Z</time>
      </trkpt>
      <trkpt lat="48.598952" lon="16.909616">
        <ele>226.635364</ele>
        <time>2020-07-27T05:27:49.789Z</time>
      </trkpt>
      <trkpt lat="48.599059" lon="16.909614">
        <ele>226.573613</ele>
        <time>2020-07-27T05:27:51.796Z</time>
      </trkpt>
      <trkpt lat="48.599168" lon="16.909633">
        <ele>226.510296</ele>
        <time>2020-07-27T05:27:53.791Z</time>
      </trkpt>
      <trkpt lat="48.599269" lon="16.909643">
        <ele>226.451888</ele>
        <time>2020-07-27T05:27:55.800Z</time>
      </trkpt>
      <trkpt lat="48.599375" lon="16.909661">
        <ele>226.390334</ele>
        <time>2020-07-27T05:27:57.814Z</time>
      </trkpt>
      <trkpt lat="48.599486" lon="16.909678">
        <ele>226.325952</ele>
        <time>2020-07-27T05:27:59.806Z</time>
      </trkpt>
      <trkpt lat="48.599598" lon="16.909693">
        <ele>226.261067</ele>
        <time>2020-07-27T05:28:01.802Z</time>
      </trkpt>
      <trkpt lat="48.599713" lon="16.909716">
        <ele>226.194127</ele>
        <time>2020-07-27T05:28:03.791Z</time>
      </trkpt>
      <trkpt lat="48.599828" lon="16.909734">
        <ele>226.127409</ele>
        <time>2020-07-27T05:28:05.801Z</time>
      </trkpt>
      <trkpt lat="48.599940" lon="16.909763">
        <ele>226.061837</ele>
        <time>2020-07-27T05:28:07.801Z</time>
      </trkpt>
      <trkpt lat="48.600038" lon="16.909797">
        <ele>226.003815</ele>
        <time>2020-07-27T05:28:09.807Z</time>
      </trkpt>
      <trkpt lat="48.600131" lon="16.909846">
        <ele>225.946983</ele>
        <time>2020-07-27T05:28:11.818Z</time>
      </trkpt>
      <trkpt lat="48.600220" lon="16.909900">
        <ele>225.891644</ele>
        <time>2020-07-27T05:28:13.824Z</time>
      </trkpt>
      <trkpt lat="48.600314" lon="16.909971">
        <ele>225.831009</ele>
        <time>2020-07-27T05:28:15.792Z</time>
      </trkpt>
      <trkpt lat="48.600394" lon="16.910058">
        <ele>225.792299</ele>
        <time>2020-07-27T05:28:17.782Z</time>
      </trkpt>
      <trkpt lat="48.600332" lon="16.910208">
        <ele>225.939189</ele>
        <time>2020-07-27T05:28:20.791Z</time>
      </trkpt>
      <trkpt lat="48.600223" lon="16.910328">
        <ele>226.108494</ele>
        <time>2020-07-27T05:28:23.801Z</time>
      </trkpt>
      <trkpt lat="48.600138" lon="16.910484">
        <ele>226.276346</ele>
        <time>2020-07-27T05:28:26.797Z</time>
      </trkpt>
      <trkpt lat="48.600097" lon="16.910611">
        <ele>226.393705</ele>
        <time>2020-07-27T05:28:28.800Z</time>
      </trkpt>
      <trkpt lat="48.600072" lon="16.910751">
        <ele>226.514127</ele>
        <time>2020-07-27T05:28:30.802Z</time>
      </trkpt>
      <trkpt lat="48.600058" lon="16.910910">
        <ele>226.647328</ele>
        <time>2020-07-27T05:28:32.812Z</time>
      </trkpt>
      <trkpt lat="48.600062" lon="16.911052">
        <ele>226.765354</ele>
        <time>2020-07-27T05:28:34.790Z</time>
      </trkpt>
      <trkpt lat="48.600074" lon="16.911209">
        <ele>226.896597</ele>
        <time>2020-07-27T05:28:36.832Z</time>
      </trkpt>
      <trkpt lat="48.600101" lon="16.911407">
        <ele>227.064479</ele>
        <time>2020-07-27T05:28:39.792Z</time>
      </trkpt>
      <trkpt lat="48.600117" lon="16.911554">
        <ele>227.188192</ele>
        <time>2020-07-27T05:28:41.790Z</time>
      </trkpt>
      <trkpt lat="48.600130" lon="16.911708">
        <ele>227.317114</ele>
        <time>2020-07-27T05:28:43.802Z</time>
      </trkpt>
      <trkpt lat="48.600138" lon="16.911845">
        <ele>227.431323</ele>
        <time>2020-07-27T05:28:45.820Z</time>
      </trkpt>
      <trkpt lat="48.600126" lon="16.911996">
        <ele>227.557618</ele>
        <time>2020-07-27T05:28:47.786Z</time>
      </trkpt>
      <trkpt lat="48.600130" lon="16.912133">
        <ele>227.671496</ele>
        <time>2020-07-27T05:28:49.812Z</time>
      </trkpt>
      <trkpt lat="48.600131" lon="16.912310">
        <ele>227.818484</ele>
        <time>2020-07-27T05:28:52.805Z</time>
      </trkpt>
      <trkpt lat="48.600123" lon="16.912458">
        <ele>227.941796</ele>
        <time>2020-07-27T05:28:56.798Z</time>
      </trkpt>
      <trkpt lat="48.600191" lon="16.912331">
        <ele>228.045128</ele>
        <time>2020-07-27T05:29:05.793Z</time>
      </trkpt>
      <trkpt lat="48.600185" lon="16.912159">
        <ele>228.069629</ele>
        <time>2020-07-27T05:29:08.783Z</time>
      </trkpt>
      <trkpt lat="48.600168" lon="16.911988">
        <ele>228.094227</ele>
        <time>2020-07-27T05:29:11.815Z</time>
      </trkpt>
      <trkpt lat="48.600150" lon="16.911788">
        <ele>228.122940</ele>
        <time>2020-07-27T05:29:14.802Z</time>
      </trkpt>
      <trkpt lat="48.600144" lon="16.911652">
        <ele>228.142329</ele>
        <time>2020-07-27T05:29:16.801Z</time>
      </trkpt>
      <trkpt lat="48.600132" lon="16.911511">
        <ele>228.162552</ele>
        <time>2020-07-27T05:29:18.799Z</time>
      </trkpt>
      <trkpt lat="48.600117" lon="16.911366">
        <ele>228.183429</ele>
        <time>2020-07-27T05:29:20.799Z</time>
      </trkpt>
      <trkpt lat="48.600105" lon="16.911219">
        <ele>228.204498</ele>
        <time>2020-07-27T05:29:22.789Z</time>
      </trkpt>
      <trkpt lat="48.600092" lon="16.911072">
        <ele>228.225595</ele>
        <time>2020-07-27T05:29:24.801Z</time>
      </trkpt>
      <trkpt lat="48.600082" lon="16.910917">
        <ele>228.247749</ele>
        <time>2020-07-27T05:29:26.773Z</time>
      </trkpt>
      <trkpt lat="48.600091" lon="16.910773">
        <ele>228.268324</ele>
        <time>2020-07-27T05:29:28.843Z</time>
      </trkpt>
      <trkpt lat="48.600113" lon="16.910637">
        <ele>228.288241</ele>
        <time>2020-07-27T05:29:30.811Z</time>
      </trkpt>
      <trkpt lat="48.600155" lon="16.910507">
        <ele>228.308822</ele>
        <time>2020-07-27T05:29:32.817Z</time>
      </trkpt>
      <trkpt lat="48.600218" lon="16.910405">
        <ele>228.328676</ele>
        <time>2020-07-27T05:29:34.799Z</time>
      </trkpt>
      <trkpt lat="48.600292" lon="16.910317">
        <ele>228.348926</ele>
        <time>2020-07-27T05:29:36.788Z</time>
      </trkpt>
      <trkpt lat="48.600375" lon="16.910239">
        <ele>228.369947</ele>
        <time>2020-07-27T05:29:38.781Z</time>
      </trkpt>
      <trkpt lat="48.600480" lon="16.910204">
        <ele>228.393075</ele>
        <time>2020-07-27T05:29:40.795Z</time>
      </trkpt>
      <trkpt lat="48.600586" lon="16.910211">
        <ele>228.415898</ele>
        <time>2020-07-27T05:29:42.786Z</time>
      </trkpt>
      <trkpt lat="48.600694" lon="16.910241">
        <ele>228.436480</ele>
        <time>2020-07-27T05:29:44.802Z</time>
      </trkpt>
      <trkpt lat="48.600804" lon="16.910262">
        <ele>228.455221</ele>
        <time>2020-07-27T05:29:46.810Z</time>
      </trkpt>
      <trkpt lat="48.600908" lon="16.910283">
        <ele>228.472956</ele>
        <time>2020-07-27T05:29:48.810Z</time>
      </trkpt>
      <trkpt lat="48.601011" lon="16.910301">
        <ele>228.490482</ele>
        <time>2020-07-27T05:29:50.830Z</time>
      </trkpt>
      <trkpt lat="48.601113" lon="16.910321">
        <ele>228.507867</ele>
        <time>2020-07-27T05:29:52.797Z</time>
      </trkpt>
      <trkpt lat="48.601213" lon="16.910341">
        <ele>228.524917</ele>
        <time>2020-07-27T05:29:54.811Z</time>
      </trkpt>
      <trkpt lat="48.601314" lon="16.910354">
        <ele>228.542051</ele>
        <time>2020-07-27T05:29:56.807Z</time>
      </trkpt>
      <trkpt lat="48.601409" lon="16.910365">
        <ele>228.558155</ele>
        <time>2020-07-27T05:29:58.805Z</time>
      </trkpt>
      <trkpt lat="48.601507" lon="16.910375">
        <ele>228.574758</ele>
        <time>2020-07-27T05:30:00.814Z</time>
      </trkpt>
      <trkpt lat="48.601611" lon="16.910374">
        <ele>228.592337</ele>
        <time>2020-07-27T05:30:02.808Z</time>
      </trkpt>
      <trkpt lat="48.601711" lon="16.910367">
        <ele>228.609258</ele>
        <time>2020-07-27T05:30:04.804Z</time>
      </trkpt>
      <trkpt lat="48.601807" lon="16.910362">
        <ele>228.625495</ele>
        <time>2020-07-27T05:30:06.809Z</time>
      </trkpt>
      <trkpt lat="48.601903" lon="16.910354">
        <ele>228.641746</ele>
        <time>2020-07-27T05:30:08.800Z</time>
      </trkpt>
      <trkpt lat="48.602003" lon="16.910341">
        <ele>228.658711</ele>
        <time>2020-07-27T05:30:10.820Z</time>
      </trkpt>
      <trkpt lat="48.602120" lon="16.910312">
        <ele>228.678752</ele>
        <time>2020-07-27T05:30:12.799Z</time>
      </trkpt>
      <trkpt lat="48.602244" lon="16.910255">
        <ele>228.700658</ele>
        <time>2020-07-27T05:30:15.820Z</time>
      </trkpt>
      <trkpt lat="48.602351" lon="16.910227">
        <ele>228.719013</ele>
        <time>2020-07-27T05:30:17.796Z</time>
      </trkpt>
      <trkpt lat="48.602441" lon="16.910182">
        <ele>228.726816</ele>
        <time>2020-07-27T05:30:19.802Z</time>
      </trkpt>
      <trkpt lat="48.602540" lon="16.910143">
        <ele>228.719077</ele>
        <time>2020-07-27T05:30:21.792Z</time>
      </trkpt>
      <trkpt lat="48.602643" lon="16.910119">
        <ele>228.711193</ele>
        <time>2020-07-27T05:30:23.806Z</time>
      </trkpt>
      <trkpt lat="48.602741" lon="16.910092">
        <ele>228.703658</ele>
        <time>2020-07-27T05:30:25.810Z</time>
      </trkpt>
      <trkpt lat="48.602861" lon="16.910067">
        <ele>228.694495</ele>
        <time>2020-07-27T05:30:28.806Z</time>
      </trkpt>
      <trkpt lat="48.602954" lon="16.910069">
        <ele>228.687459</ele>
        <time>2020-07-27T05:30:30.790Z</time>
      </trkpt>
      <trkpt lat="48.603048" lon="16.910071">
        <ele>228.680347</ele>
        <time>2020-07-27T05:30:32.796Z</time>
      </trkpt>
      <trkpt lat="48.603139" lon="16.910065">
        <ele>228.673457</ele>
        <time>2020-07-27T05:30:34.833Z</time>
      </trkpt>
      <trkpt lat="48.603239" lon="16.910073">
        <ele>228.665882</ele>
        <time>2020-07-27T05:30:36.814Z</time>
      </trkpt>
      <trkpt lat="48.603343" lon="16.910078">
        <ele>228.658011</ele>
        <time>2020-07-27T05:30:38.793Z</time>
      </trkpt>
      <trkpt lat="48.603445" lon="16.910083">
        <ele>228.650291</ele>
        <time>2020-07-27T05:30:40.795Z</time>
      </trkpt>
      <trkpt lat="48.603559" lon="16.910075">
        <ele>228.641658</ele>
        <time>2020-07-27T05:30:42.793Z</time>
      </trkpt>
      <trkpt lat="48.603678" lon="16.910069">
        <ele>228.632651</ele>
        <time>2020-07-27T05:30:44.799Z</time>
      </trkpt>
      <trkpt lat="48.603783" lon="16.910068">
        <ele>228.624708</ele>
        <time>2020-07-27T05:30:46.787Z</time>
      </trkpt>
      <trkpt lat="48.603896" lon="16.910061">
        <ele>228.616153</ele>
        <time>2020-07-27T05:30:48.802Z</time>
      </trkpt>
      <trkpt lat="48.604019" lon="16.910051">
        <ele>228.606835</ele>
        <time>2020-07-27T05:30:50.809Z</time>
      </trkpt>
      <trkpt lat="48.604132" lon="16.910040">
        <ele>228.598269</ele>
        <time>2020-07-27T05:30:52.822Z</time>
      </trkpt>
      <trkpt lat="48.604245" lon="16.910047">
        <ele>228.543818</ele>
        <time>2020-07-27T05:30:54.795Z</time>
      </trkpt>
      <trkpt lat="48.604356" lon="16.910035">
        <ele>228.427558</ele>
        <time>2020-07-27T05:30:56.788Z</time>
      </trkpt>
      <trkpt lat="48.604479" lon="16.910020">
        <ele>228.298641</ele>
        <time>2020-07-27T05:30:58.789Z</time>
      </trkpt>
      <trkpt lat="48.604587" lon="16.910010">
        <ele>228.185600</ele>
        <time>2020-07-27T05:31:00.789Z</time>
      </trkpt>
      <trkpt lat="48.604698" lon="16.909999">
        <ele>228.069388</ele>
        <time>2020-07-27T05:31:02.797Z</time>
      </trkpt>
      <trkpt lat="48.604821" lon="16.909982">
        <ele>227.940352</ele>
        <time>2020-07-27T05:31:04.799Z</time>
      </trkpt>
      <trkpt lat="48.604946" lon="16.909974">
        <ele>227.809646</ele>
        <time>2020-07-27T05:31:06.812Z</time>
      </trkpt>
      <trkpt lat="48.605061" lon="16.909961">
        <ele>227.689168</ele>
        <time>2020-07-27T05:31:08.810Z</time>
      </trkpt>
      <trkpt lat="48.605156" lon="16.909959">
        <ele>227.589910</ele>
        <time>2020-07-27T05:31:10.790Z</time>
      </trkpt>
      <trkpt lat="48.605253" lon="16.909955">
        <ele>227.488535</ele>
        <time>2020-07-27T05:31:12.814Z</time>
      </trkpt>
      <trkpt lat="48.605361" lon="16.909961">
        <ele>227.375630</ele>
        <time>2020-07-27T05:31:14.815Z</time>
      </trkpt>
      <trkpt lat="48.605471" lon="16.909961">
        <ele>227.260711</ele>
        <time>2020-07-27T05:31:16.805Z</time>
      </trkpt>
      <trkpt lat="48.605577" lon="16.909957">
        <ele>227.149936</ele>
        <time>2020-07-27T05:31:18.791Z</time>
      </trkpt>
      <trkpt lat="48.605684" lon="16.909955">
        <ele>227.038143</ele>
        <time>2020-07-27T05:31:20.804Z</time>
      </trkpt>
      <trkpt lat="48.605822" lon="16.909946">
        <ele>226.893838</ele>
        <time>2020-07-27T05:31:23.803Z</time>
      </trkpt>
      <trkpt lat="48.605930" lon="16.909947">
        <ele>226.781007</ele>
        <time>2020-07-27T05:31:25.824Z</time>
      </trkpt>
      <trkpt lat="48.606051" lon="16.909924">
        <ele>226.652413</ele>
        <time>2020-07-27T05:31:28.802Z</time>
      </trkpt>
      <trkpt lat="48.606142" lon="16.909913">
        <ele>226.555171</ele>
        <time>2020-07-27T05:31:30.821Z</time>
      </trkpt>
      <trkpt lat="48.606261" lon="16.909919">
        <ele>226.428343</ele>
        <time>2020-07-27T05:31:33.792Z</time>
      </trkpt>
      <trkpt lat="48.606328" lon="16.909819">
        <ele>226.328072</ele>
        <time>2020-07-27T05:31:36.804Z</time>
      </trkpt>
      <trkpt lat="48.606318" lon="16.909659">
        <ele>226.214876</ele>
        <time>2020-07-27T05:31:39.790Z</time>
      </trkpt>
      <trkpt lat="48.606304" lon="16.909487">
        <ele>226.092816</ele>
        <time>2020-07-27T05:31:42.808Z</time>
      </trkpt>
      <trkpt lat="48.606298" lon="16.909303">
        <ele>225.963060</ele>
        <time>2020-07-27T05:31:45.798Z</time>
      </trkpt>
      <trkpt lat="48.606278" lon="16.909107">
        <ele>225.823376</ele>
        <time>2020-07-27T05:31:48.797Z</time>
      </trkpt>
      <trkpt lat="48.606288" lon="16.908971">
        <ele>225.726996</ele>
        <time>2020-07-27T05:31:51.799Z</time>
      </trkpt>
      <trkpt lat="48.606396" lon="16.908964">
        <ele>225.611850</ele>
        <time>2020-07-27T05:31:55.800Z</time>
      </trkpt>
      <trkpt lat="48.606501" lon="16.908926">
        <ele>225.496847</ele>
        <time>2020-07-27T05:31:58.894Z</time>
      </trkpt>
      <trkpt lat="48.606619" lon="16.908891">
        <ele>225.368759</ele>
        <time>2020-07-27T05:32:01.793Z</time>
      </trkpt>
      <trkpt lat="48.606737" lon="16.908861">
        <ele>225.241303</ele>
        <time>2020-07-27T05:32:04.797Z</time>
      </trkpt>
      <trkpt lat="48.606825" lon="16.908825">
        <ele>225.144197</ele>
        <time>2020-07-27T05:32:07.785Z</time>
      </trkpt>
      <trkpt lat="48.606917" lon="16.908793">
        <ele>225.043641</ele>
        <time>2020-07-27T05:32:11.778Z</time>
      </trkpt>
      <trkpt lat="48.607022" lon="16.908773">
        <ele>224.930912</ele>
        <time>2020-07-27T05:32:14.828Z</time>
      </trkpt>
      <trkpt lat="48.607120" lon="16.908729">
        <ele>224.822020</ele>
        <time>2020-07-27T05:32:17.787Z</time>
      </trkpt>
      <trkpt lat="48.607133" lon="16.908574">
        <ele>224.627011</ele>
        <time>2020-07-27T05:32:20.792Z</time>
      </trkpt>
      <trkpt lat="48.607113" lon="16.908414">
        <ele>224.399472</ele>
        <time>2020-07-27T05:32:23.799Z</time>
      </trkpt>
      <trkpt lat="48.607167" lon="16.908274">
        <ele>224.172988</ele>
        <time>2020-07-27T05:32:29.805Z</time>
      </trkpt>
      <trkpt lat="48.607264" lon="16.908244">
        <ele>223.963753</ele>
        <time>2020-07-27T05:32:32.779Z</time>
      </trkpt>
      <trkpt lat="48.607375" lon="16.908185">
        <ele>223.715109</ele>
        <time>2020-07-27T05:32:35.800Z</time>
      </trkpt>
      <trkpt lat="48.607502" lon="16.908163">
        <ele>223.444962</ele>
        <time>2020-07-27T05:32:38.830Z</time>
      </trkpt>
      <trkpt lat="48.607643" lon="16.908149">
        <ele>223.146342</ele>
        <time>2020-07-27T05:32:41.796Z</time>
      </trkpt>
      <trkpt lat="48.607743" lon="16.908130">
        <ele>222.933348</ele>
        <time>2020-07-27T05:32:43.809Z</time>
      </trkpt>
      <trkpt lat="48.607845" lon="16.908113">
        <ele>222.716484</ele>
        <time>2020-07-27T05:32:45.817Z</time>
      </trkpt>
      <trkpt lat="48.607946" lon="16.908083">
        <ele>222.498961</ele>
        <time>2020-07-27T05:32:47.781Z</time>
      </trkpt>
      <trkpt lat="48.608048" lon="16.908053">
        <ele>222.279364</ele>
        <time>2020-07-27T05:32:49.819Z</time>
      </trkpt>
      <trkpt lat="48.608151" lon="16.908029">
        <ele>222.059123</ele>
        <time>2020-07-27T05:32:51.799Z</time>
      </trkpt>
      <trkpt lat="48.608255" lon="16.908007">
        <ele>221.837198</ele>
        <time>2020-07-27T05:32:53.781Z</time>
      </trkpt>
      <trkpt lat="48.608361" lon="16.907970">
        <ele>221.607297</ele>
        <time>2020-07-27T05:32:55.833Z</time>
      </trkpt>
      <trkpt lat="48.608464" lon="16.907940">
        <ele>221.385625</ele>
        <time>2020-07-27T05:32:57.803Z</time>
      </trkpt>
      <trkpt lat="48.608570" lon="16.907913">
        <ele>221.158458</ele>
        <time>2020-07-27T05:32:59.802Z</time>
      </trkpt>
      <trkpt lat="48.608677" lon="16.907896">
        <ele>220.962205</ele>
        <time>2020-07-27T05:33:01.791Z</time>
      </trkpt>
      <trkpt lat="48.608785" lon="16.907877">
        <ele>220.840563</ele>
        <time>2020-07-27T05:33:03.808Z</time>
      </trkpt>
      <trkpt lat="48.608895" lon="16.907853">
        <ele>220.716225</ele>
        <time>2020-07-27T05:33:05.789Z</time>
      </trkpt>
      <trkpt lat="48.609003" lon="16.907824">
        <ele>220.593508</ele>
        <time>2020-07-27T05:33:07.792Z</time>
      </trkpt>
      <trkpt lat="48.609116" lon="16.907795">
        <ele>220.465280</ele>
        <time>2020-07-27T05:33:09.809Z</time>
      </trkpt>
      <trkpt lat="48.609219" lon="16.907764">
        <ele>220.347787</ele>
        <time>2020-07-27T05:33:11.804Z</time>
      </trkpt>
      <trkpt lat="48.609319" lon="16.907727">
        <ele>220.232611</ele>
        <time>2020-07-27T05:33:13.840Z</time>
      </trkpt>
      <trkpt lat="48.609400" lon="16.907643">
        <ele>220.122734</ele>
        <time>2020-07-27T05:33:15.781Z</time>
      </trkpt>
      <trkpt lat="48.609453" lon="16.907505">
        <ele>220.004681</ele>
        <time>2020-07-27T05:33:17.779Z</time>
      </trkpt>
      <trkpt lat="48.609523" lon="16.907390">
        <ele>219.889054</ele>
        <time>2020-07-27T05:33:19.798Z</time>
      </trkpt>
      <trkpt lat="48.609613" lon="16.907306">
        <ele>219.770736</ele>
        <time>2020-07-27T05:33:21.787Z</time>
      </trkpt>
      <trkpt lat="48.609706" lon="16.907258">
        <ele>219.660799</ele>
        <time>2020-07-27T05:33:23.818Z</time>
      </trkpt>
      <trkpt lat="48.609809" lon="16.907216">
        <ele>219.541451</ele>
        <time>2020-07-27T05:33:25.814Z</time>
      </trkpt>
      <trkpt lat="48.609904" lon="16.907167">
        <ele>219.429157</ele>
        <time>2020-07-27T05:33:27.785Z</time>
      </trkpt>
      <trkpt lat="48.610012" lon="16.907122">
        <ele>219.303829</ele>
        <time>2020-07-27T05:33:29.810Z</time>
      </trkpt>
      <trkpt lat="48.610104" lon="16.907073">
        <ele>219.194707</ele>
        <time>2020-07-27T05:33:31.783Z</time>
      </trkpt>
      <trkpt lat="48.610208" lon="16.907021">
        <ele>219.072161</ele>
        <time>2020-07-27T05:33:33.801Z</time>
      </trkpt>
      <trkpt lat="48.610309" lon="16.906973">
        <ele>218.973138</ele>
        <time>2020-07-27T05:33:35.832Z</time>
      </trkpt>
      <trkpt lat="48.610413" lon="16.906934">
        <ele>218.927822</ele>
        <time>2020-07-27T05:33:37.803Z</time>
      </trkpt>
      <trkpt lat="48.610513" lon="16.906909">
        <ele>218.884955</ele>
        <time>2020-07-27T05:33:39.794Z</time>
      </trkpt>
      <trkpt lat="48.610608" lon="16.906890">
        <ele>218.844428</ele>
        <time>2020-07-27T05:33:41.833Z</time>
      </trkpt>
      <trkpt lat="48.610713" lon="16.906858">
        <ele>218.799128</ele>
        <time>2020-07-27T05:33:43.805Z</time>
      </trkpt>
      <trkpt lat="48.610824" lon="16.906826">
        <ele>218.751338</ele>
        <time>2020-07-27T05:33:45.785Z</time>
      </trkpt>
      <trkpt lat="48.610921" lon="16.906798">
        <ele>218.709574</ele>
        <time>2020-07-27T05:33:47.822Z</time>
      </trkpt>
      <trkpt lat="48.611028" lon="16.906773">
        <ele>218.663784</ele>
        <time>2020-07-27T05:33:49.801Z</time>
      </trkpt>
      <trkpt lat="48.611132" lon="16.906750">
        <ele>218.619332</ele>
        <time>2020-07-27T05:33:51.803Z</time>
      </trkpt>
      <trkpt lat="48.611239" lon="16.906727">
        <ele>218.573624</ele>
        <time>2020-07-27T05:33:53.784Z</time>
      </trkpt>
      <trkpt lat="48.611348" lon="16.906700">
        <ele>218.526911</ele>
        <time>2020-07-27T05:33:55.798Z</time>
      </trkpt>
      <trkpt lat="48.611459" lon="16.906674">
        <ele>218.479407</ele>
        <time>2020-07-27T05:33:57.811Z</time>
      </trkpt>
      <trkpt lat="48.611557" lon="16.906646">
        <ele>218.437227</ele>
        <time>2020-07-27T05:33:59.814Z</time>
      </trkpt>
      <trkpt lat="48.611665" lon="16.906622">
        <ele>218.391061</ele>
        <time>2020-07-27T05:34:01.795Z</time>
      </trkpt>
      <trkpt lat="48.611769" lon="16.906598">
        <ele>218.346567</ele>
        <time>2020-07-27T05:34:03.799Z</time>
      </trkpt>
      <trkpt lat="48.611883" lon="16.906571">
        <ele>218.297766</ele>
        <time>2020-07-27T05:34:05.815Z</time>
      </trkpt>
      <trkpt lat="48.611998" lon="16.906538">
        <ele>218.248262</ele>
        <time>2020-07-27T05:34:07.803Z</time>
      </trkpt>
      <trkpt lat="48.612102" lon="16.906504">
        <ele>218.195613</ele>
        <time>2020-07-27T05:34:09.789Z</time>
      </trkpt>
      <trkpt lat="48.612212" lon="16.906472">
        <ele>218.130970</ele>
        <time>2020-07-27T05:34:11.798Z</time>
      </trkpt>
      <trkpt lat="48.612314" lon="16.906447">
        <ele>218.071339</ele>
        <time>2020-07-27T05:34:13.809Z</time>
      </trkpt>
      <trkpt lat="48.612425" lon="16.906429">
        <ele>218.006915</ele>
        <time>2020-07-27T05:34:15.809Z</time>
      </trkpt>
      <trkpt lat="48.612531" lon="16.906406">
        <ele>217.945117</ele>
        <time>2020-07-27T05:34:17.809Z</time>
      </trkpt>
      <trkpt lat="48.612634" lon="16.906378">
        <ele>217.884725</ele>
        <time>2020-07-27T05:34:19.812Z</time>
      </trkpt>
      <trkpt lat="48.612760" lon="16.906332">
        <ele>217.809924</ele>
        <time>2020-07-27T05:34:22.815Z</time>
      </trkpt>
      <trkpt lat="48.612802" lon="16.906181">
        <ele>217.747420</ele>
        <time>2020-07-27T05:34:25.790Z</time>
      </trkpt>
      <trkpt lat="48.612809" lon="16.905996">
        <ele>217.676720</ele>
        <time>2020-07-27T05:34:28.807Z</time>
      </trkpt>
      <trkpt lat="48.612817" lon="16.905851">
        <ele>217.621205</ele>
        <time>2020-07-27T05:34:30.796Z</time>
      </trkpt>
      <trkpt lat="48.612842" lon="16.905648">
        <ele>217.542420</ele>
        <time>2020-07-27T05:34:33.795Z</time>
      </trkpt>
      <trkpt lat="48.612857" lon="16.905504">
        <ele>217.486801</ele>
        <time>2020-07-27T05:34:35.796Z</time>
      </trkpt>
      <trkpt lat="48.612876" lon="16.905293">
        <ele>217.405554</ele>
        <time>2020-07-27T05:34:38.804Z</time>
      </trkpt>
      <trkpt lat="48.612888" lon="16.905141">
        <ele>217.347148</ele>
        <time>2020-07-27T05:34:40.801Z</time>
      </trkpt>
      <trkpt lat="48.612898" lon="16.904993">
        <ele>217.290386</ele>
        <time>2020-07-27T05:34:42.798Z</time>
      </trkpt>
      <trkpt lat="48.612907" lon="16.904823">
        <ele>217.225317</ele>
        <time>2020-07-27T05:34:44.780Z</time>
      </trkpt>
      <trkpt lat="48.612916" lon="16.904664">
        <ele>217.160422</ele>
        <time>2020-07-27T05:34:46.819Z</time>
      </trkpt>
      <trkpt lat="48.612935" lon="16.904500">
        <ele>217.085236</ele>
        <time>2020-07-27T05:34:48.795Z</time>
      </trkpt>
      <trkpt lat="48.612957" lon="16.904355">
        <ele>217.018057</ele>
        <time>2020-07-27T05:34:50.815Z</time>
      </trkpt>
      <trkpt lat="48.612974" lon="16.904203">
        <ele>216.948444</ele>
        <time>2020-07-27T05:34:52.780Z</time>
      </trkpt>
      <trkpt lat="48.612992" lon="16.904054">
        <ele>216.880047</ele>
        <time>2020-07-27T05:34:54.784Z</time>
      </trkpt>
      <trkpt lat="48.613006" lon="16.903883">
        <ele>216.802239</ele>
        <time>2020-07-27T05:34:56.816Z</time>
      </trkpt>
      <trkpt lat="48.613015" lon="16.903733">
        <ele>216.734226</ele>
        <time>2020-07-27T05:34:58.806Z</time>
      </trkpt>
      <trkpt lat="48.613023" lon="16.903592">
        <ele>216.670321</ele>
        <time>2020-07-27T05:35:00.782Z</time>
      </trkpt>
      <trkpt lat="48.613037" lon="16.903399">
        <ele>216.582646</ele>
        <time>2020-07-27T05:35:03.818Z</time>
      </trkpt>
      <trkpt lat="48.613054" lon="16.903233">
        <ele>216.506792</ele>
        <time>2020-07-27T05:35:05.812Z</time>
      </trkpt>
      <trkpt lat="48.613072" lon="16.903038">
        <ele>216.417883</ele>
        <time>2020-07-27T05:35:08.798Z</time>
      </trkpt>
      <trkpt lat="48.613082" lon="16.902836">
        <ele>216.326411</ele>
        <time>2020-07-27T05:35:11.800Z</time>
      </trkpt>
      <trkpt lat="48.613091" lon="16.902698">
        <ele>216.263793</ele>
        <time>2020-07-27T05:35:13.794Z</time>
      </trkpt>
      <trkpt lat="48.613101" lon="16.902546">
        <ele>216.194816</ele>
        <time>2020-07-27T05:35:15.822Z</time>
      </trkpt>
      <trkpt lat="48.613110" lon="16.902369">
        <ele>216.114653</ele>
        <time>2020-07-27T05:35:17.825Z</time>
      </trkpt>
      <trkpt lat="48.613114" lon="16.902178">
        <ele>216.028361</ele>
        <time>2020-07-27T05:35:19.798Z</time>
      </trkpt>
      <trkpt lat="48.613120" lon="16.901991">
        <ele>215.948219</ele>
        <time>2020-07-27T05:35:21.797Z</time>
      </trkpt>
      <trkpt lat="48.613124" lon="16.901814">
        <ele>215.893446</ele>
        <time>2020-07-27T05:35:23.791Z</time>
      </trkpt>
      <trkpt lat="48.613125" lon="16.901642">
        <ele>215.840249</ele>
        <time>2020-07-27T05:35:26.800Z</time>
      </trkpt>
      <trkpt lat="48.613121" lon="16.901477">
        <ele>215.789185</ele>
        <time>2020-07-27T05:35:29.787Z</time>
      </trkpt>
      <trkpt lat="48.613125" lon="16.901313">
        <ele>215.738430</ele>
        <time>2020-07-27T05:35:32.789Z</time>
      </trkpt>
      <trkpt lat="48.613123" lon="16.901153">
        <ele>215.688938</ele>
        <time>2020-07-27T05:35:35.791Z</time>
      </trkpt>
      <trkpt lat="48.613115" lon="16.901009">
        <ele>215.644245</ele>
        <time>2020-07-27T05:35:38.793Z</time>
      </trkpt>
      <trkpt lat="48.613109" lon="16.900849">
        <ele>215.594682</ele>
        <time>2020-07-27T05:35:41.793Z</time>
      </trkpt>
      <trkpt lat="48.613113" lon="16.900673">
        <ele>215.540218</ele>
        <time>2020-07-27T05:35:44.825Z</time>
      </trkpt>
      <trkpt lat="48.613117" lon="16.900497">
        <ele>215.485754</ele>
        <time>2020-07-27T05:35:47.791Z</time>
      </trkpt>
      <trkpt lat="48.613124" lon="16.900330">
        <ele>215.434002</ele>
        <time>2020-07-27T05:35:50.807Z</time>
      </trkpt>
      <trkpt lat="48.613116" lon="16.900087">
        <ele>215.358756</ele>
        <time>2020-07-27T05:35:54.805Z</time>
      </trkpt>
      <trkpt lat="48.613110" lon="16.899910">
        <ele>215.303942</ele>
        <time>2020-07-27T05:35:57.833Z</time>
      </trkpt>
      <trkpt lat="48.613114" lon="16.899735">
        <ele>215.249787</ele>
        <time>2020-07-27T05:36:00.802Z</time>
      </trkpt>
      <trkpt lat="48.613117" lon="16.899540">
        <ele>215.189463</ele>
        <time>2020-07-27T05:36:03.800Z</time>
      </trkpt>
      <trkpt lat="48.613114" lon="16.899402">
        <ele>215.146760</ele>
        <time>2020-07-27T05:36:05.794Z</time>
      </trkpt>
      <trkpt lat="48.613117" lon="16.899203">
        <ele>215.066785</ele>
        <time>2020-07-27T05:36:08.812Z</time>
      </trkpt>
      <trkpt lat="48.613117" lon="16.899067">
        <ele>214.999903</ele>
        <time>2020-07-27T05:36:10.799Z</time>
      </trkpt>
      <trkpt lat="48.613125" lon="16.898931">
        <ele>214.932757</ele>
        <time>2020-07-27T05:36:12.801Z</time>
      </trkpt>
      <trkpt lat="48.613126" lon="16.898794">
        <ele>214.865379</ele>
        <time>2020-07-27T05:36:14.787Z</time>
      </trkpt>
      <trkpt lat="48.613122" lon="16.898658">
        <ele>214.798431</ele>
        <time>2020-07-27T05:36:16.810Z</time>
      </trkpt>
      <trkpt lat="48.613123" lon="16.898496">
        <ele>214.718759</ele>
        <time>2020-07-27T05:36:18.802Z</time>
      </trkpt>
      <trkpt lat="48.613127" lon="16.898349">
        <ele>214.646406</ele>
        <time>2020-07-27T05:36:20.793Z</time>
      </trkpt>
      <trkpt lat="48.613145" lon="16.898156">
        <ele>214.550553</ele>
        <time>2020-07-27T05:36:23.818Z</time>
      </trkpt>
      <trkpt lat="48.613166" lon="16.898022">
        <ele>214.482828</ele>
        <time>2020-07-27T05:36:25.821Z</time>
      </trkpt>
      <trkpt lat="48.613205" lon="16.897898">
        <ele>214.415299</ele>
        <time>2020-07-27T05:36:27.799Z</time>
      </trkpt>
      <trkpt lat="48.613301" lon="16.897765">
        <ele>214.318463</ele>
        <time>2020-07-27T05:36:30.821Z</time>
      </trkpt>
      <trkpt lat="48.613399" lon="16.897659">
        <ele>214.228846</ele>
        <time>2020-07-27T05:36:33.802Z</time>
      </trkpt>
      <trkpt lat="48.613502" lon="16.897542">
        <ele>214.133031</ele>
        <time>2020-07-27T05:36:36.805Z</time>
      </trkpt>
      <trkpt lat="48.613598" lon="16.897415">
        <ele>214.038163</ele>
        <time>2020-07-27T05:36:39.802Z</time>
      </trkpt>
      <trkpt lat="48.613684" lon="16.897277">
        <ele>213.944901</ele>
        <time>2020-07-27T05:36:42.810Z</time>
      </trkpt>
      <trkpt lat="48.613736" lon="16.897144">
        <ele>213.868914</ele>
        <time>2020-07-27T05:36:45.793Z</time>
      </trkpt>
      <trkpt lat="48.613772" lon="16.897004">
        <ele>213.795042</ele>
        <time>2020-07-27T05:36:48.792Z</time>
      </trkpt>
      <trkpt lat="48.613781" lon="16.896845">
        <ele>213.905897</ele>
        <time>2020-07-27T05:36:51.800Z</time>
      </trkpt>
      <trkpt lat="48.613779" lon="16.896679">
        <ele>214.073815</ele>
        <time>2020-07-27T05:36:54.792Z</time>
      </trkpt>
      <trkpt lat="48.613778" lon="16.896533">
        <ele>214.221486</ele>
        <time>2020-07-27T05:36:57.805Z</time>
      </trkpt>
      <trkpt lat="48.613770" lon="16.896359">
        <ele>214.397893</ele>
        <time>2020-07-27T05:37:01.806Z</time>
      </trkpt>
      <trkpt lat="48.613765" lon="16.896211">
        <ele>214.547774</ele>
        <time>2020-07-27T05:37:04.796Z</time>
      </trkpt>
      <trkpt lat="48.613770" lon="16.896037">
        <ele>214.723921</ele>
        <time>2020-07-27T05:37:08.794Z</time>
      </trkpt>
      <trkpt lat="48.613779" lon="16.895879">
        <ele>214.884313</ele>
        <time>2020-07-27T05:37:12.813Z</time>
      </trkpt>
      <trkpt lat="48.613784" lon="16.895710">
        <ele>215.055409</ele>
        <time>2020-07-27T05:37:17.806Z</time>
      </trkpt>
      <trkpt lat="48.613774" lon="16.895570">
        <ele>215.197827</ele>
        <time>2020-07-27T05:37:21.784Z</time>
      </trkpt>
      <trkpt lat="48.613759" lon="16.895409">
        <ele>215.362269</ele>
        <time>2020-07-27T05:37:26.811Z</time>
      </trkpt>
      <trkpt lat="48.613720" lon="16.895281">
        <ele>215.504814</ele>
        <time>2020-07-27T05:37:30.815Z</time>
      </trkpt>
      <trkpt lat="48.613673" lon="16.895154">
        <ele>215.652014</ele>
        <time>2020-07-27T05:37:34.821Z</time>
      </trkpt>
      <trkpt lat="48.613624" lon="16.895001">
        <ele>215.823957</ele>
        <time>2020-07-27T05:37:38.798Z</time>
      </trkpt>
      <trkpt lat="48.613596" lon="16.894834">
        <ele>215.998206</ele>
        <time>2020-07-27T05:37:42.789Z</time>
      </trkpt>
      <trkpt lat="48.613566" lon="16.894705">
        <ele>216.136512</ele>
        <time>2020-07-27T05:37:45.801Z</time>
      </trkpt>
      <trkpt lat="48.613532" lon="16.894557">
        <ele>216.294978</ele>
        <time>2020-07-27T05:37:48.793Z</time>
      </trkpt>
      <trkpt lat="48.613498" lon="16.894374">
        <ele>216.487232</ele>
        <time>2020-07-27T05:37:51.786Z</time>
      </trkpt>
      <trkpt lat="48.613465" lon="16.894195">
        <ele>217.364138</ele>
        <time>2020-07-27T05:37:54.793Z</time>
      </trkpt>
      <trkpt lat="48.613423" lon="16.894024">
        <ele>218.424441</ele>
        <time>2020-07-27T05:37:57.788Z</time>
      </trkpt>
      <trkpt lat="48.613397" lon="16.893858">
        <ele>219.416017</ele>
        <time>2020-07-27T05:38:00.793Z</time>
      </trkpt>
      <trkpt lat="48.613396" lon="16.893711">
        <ele>220.270494</ele>
        <time>2020-07-27T05:38:03.806Z</time>
      </trkpt>
      <trkpt lat="48.613406" lon="16.893568">
        <ele>221.106313</ele>
        <time>2020-07-27T05:38:07.838Z</time>
      </trkpt>
      <trkpt lat="48.613432" lon="16.893417">
        <ele>222.013273</ele>
        <time>2020-07-27T05:38:14.785Z</time>
      </trkpt>
      <trkpt lat="48.613430" lon="16.893405">
        <ele>222.085204</ele>
        <time>2020-07-27T05:38:25.459Z</time>
      </trkpt>
      <trkpt lat="48.613489" lon="16.893204">
        <ele>223.363481</ele>
        <time>2020-07-27T05:42:45.815Z</time>
      </trkpt>
      <trkpt lat="48.613512" lon="16.893072">
        <ele>224.156923</ele>
        <time>2020-07-27T05:42:48.814Z</time>
      </trkpt>
      <trkpt lat="48.613537" lon="16.892931">
        <ele>225.005439</ele>
        <time>2020-07-27T05:42:51.792Z</time>
      </trkpt>
      <trkpt lat="48.613567" lon="16.892768">
        <ele>225.988895</ele>
        <time>2020-07-27T05:42:54.795Z</time>
      </trkpt>
      <trkpt lat="48.613602" lon="16.892589">
        <ele>227.073871</ele>
        <time>2020-07-27T05:42:57.807Z</time>
      </trkpt>
      <trkpt lat="48.613632" lon="16.892402">
        <ele>228.192340</ele>
        <time>2020-07-27T05:43:00.796Z</time>
      </trkpt>
      <trkpt lat="48.613669" lon="16.892209">
        <ele>229.360350</ele>
        <time>2020-07-27T05:43:03.799Z</time>
      </trkpt>
      <trkpt lat="48.613688" lon="16.892072">
        <ele>230.173985</ele>
        <time>2020-07-27T05:43:05.795Z</time>
      </trkpt>
      <trkpt lat="48.613707" lon="16.891932">
        <ele>231.004693</ele>
        <time>2020-07-27T05:43:07.793Z</time>
      </trkpt>
      <trkpt lat="48.613730" lon="16.891788">
        <ele>231.865762</ele>
        <time>2020-07-27T05:43:09.793Z</time>
      </trkpt>
      <trkpt lat="48.613752" lon="16.891644">
        <ele>232.302265</ele>
        <time>2020-07-27T05:43:11.803Z</time>
      </trkpt>
      <trkpt lat="48.613776" lon="16.891494">
        <ele>232.206450</ele>
        <time>2020-07-27T05:43:13.801Z</time>
      </trkpt>
      <trkpt lat="48.613802" lon="16.891342">
        <ele>232.108973</ele>
        <time>2020-07-27T05:43:15.808Z</time>
      </trkpt>
      <trkpt lat="48.613827" lon="16.891193">
        <ele>232.013534</ele>
        <time>2020-07-27T05:43:17.831Z</time>
      </trkpt>
      <trkpt lat="48.613850" lon="16.891036">
        <ele>231.913697</ele>
        <time>2020-07-27T05:43:19.788Z</time>
      </trkpt>
      <trkpt lat="48.613873" lon="16.890881">
        <ele>231.815071</ele>
        <time>2020-07-27T05:43:21.791Z</time>
      </trkpt>
      <trkpt lat="48.613896" lon="16.890724">
        <ele>231.715234</ele>
        <time>2020-07-27T05:43:23.790Z</time>
      </trkpt>
      <trkpt lat="48.613922" lon="16.890562">
        <ele>231.611736</ele>
        <time>2020-07-27T05:43:25.801Z</time>
      </trkpt>
      <trkpt lat="48.613946" lon="16.890398">
        <ele>231.507452</ele>
        <time>2020-07-27T05:43:27.794Z</time>
      </trkpt>
      <trkpt lat="48.613975" lon="16.890234">
        <ele>231.402054</ele>
        <time>2020-07-27T05:43:29.813Z</time>
      </trkpt>
      <trkpt lat="48.614003" lon="16.890068">
        <ele>231.295692</ele>
        <time>2020-07-27T05:43:31.811Z</time>
      </trkpt>
      <trkpt lat="48.614031" lon="16.889901">
        <ele>231.188729</ele>
        <time>2020-07-27T05:43:33.791Z</time>
      </trkpt>
      <trkpt lat="48.614059" lon="16.889737">
        <ele>231.083570</ele>
        <time>2020-07-27T05:43:35.794Z</time>
      </trkpt>
      <trkpt lat="48.614089" lon="16.889578">
        <ele>230.980914</ele>
        <time>2020-07-27T05:43:37.796Z</time>
      </trkpt>
      <trkpt lat="48.614119" lon="16.889421">
        <ele>230.879452</ele>
        <time>2020-07-27T05:43:39.814Z</time>
      </trkpt>
      <trkpt lat="48.614154" lon="16.889266">
        <ele>230.777763</ele>
        <time>2020-07-27T05:43:41.810Z</time>
      </trkpt>
      <trkpt lat="48.614195" lon="16.889110">
        <ele>230.673539</ele>
        <time>2020-07-27T05:43:43.807Z</time>
      </trkpt>
      <trkpt lat="48.614227" lon="16.888945">
        <ele>230.545549</ele>
        <time>2020-07-27T05:43:45.791Z</time>
      </trkpt>
      <trkpt lat="48.614269" lon="16.888790">
        <ele>230.416227</ele>
        <time>2020-07-27T05:43:47.791Z</time>
      </trkpt>
      <trkpt lat="48.614316" lon="16.888642">
        <ele>230.289472</ele>
        <time>2020-07-27T05:43:49.805Z</time>
      </trkpt>
      <trkpt lat="48.614360" lon="16.888490">
        <ele>230.161372</ele>
        <time>2020-07-27T05:43:51.811Z</time>
      </trkpt>
      <trkpt lat="48.614406" lon="16.888338">
        <ele>230.032317</ele>
        <time>2020-07-27T05:43:53.809Z</time>
      </trkpt>
      <trkpt lat="48.614453" lon="16.888183">
        <ele>229.900670</ele>
        <time>2020-07-27T05:43:55.795Z</time>
      </trkpt>
      <trkpt lat="48.614502" lon="16.888028">
        <ele>229.768033</ele>
        <time>2020-07-27T05:43:57.792Z</time>
      </trkpt>
      <trkpt lat="48.614553" lon="16.887875">
        <ele>229.635752</ele>
        <time>2020-07-27T05:43:59.787Z</time>
      </trkpt>
      <trkpt lat="48.614603" lon="16.887724">
        <ele>229.505375</ele>
        <time>2020-07-27T05:44:01.809Z</time>
      </trkpt>
      <trkpt lat="48.614654" lon="16.887573">
        <ele>229.374471</ele>
        <time>2020-07-27T05:44:03.796Z</time>
      </trkpt>
      <trkpt lat="48.614708" lon="16.887420">
        <ele>229.240577</ele>
        <time>2020-07-27T05:44:05.791Z</time>
      </trkpt>
      <trkpt lat="48.614759" lon="16.887266">
        <ele>229.107607</ele>
        <time>2020-07-27T05:44:07.787Z</time>
      </trkpt>
      <trkpt lat="48.614810" lon="16.887112">
        <ele>228.974637</ele>
        <time>2020-07-27T05:44:09.774Z</time>
      </trkpt>
      <trkpt lat="48.614860" lon="16.886959">
        <ele>228.842878</ele>
        <time>2020-07-27T05:44:11.793Z</time>
      </trkpt>
      <trkpt lat="48.614911" lon="16.886805">
        <ele>228.709908</ele>
        <time>2020-07-27T05:44:13.807Z</time>
      </trkpt>
      <trkpt lat="48.614963" lon="16.886652">
        <ele>228.577099</ele>
        <time>2020-07-27T05:44:15.796Z</time>
      </trkpt>
      <trkpt lat="48.615019" lon="16.886501">
        <ele>228.489403</ele>
        <time>2020-07-27T05:44:17.790Z</time>
      </trkpt>
      <trkpt lat="48.615071" lon="16.886352">
        <ele>228.413565</ele>
        <time>2020-07-27T05:44:19.804Z</time>
      </trkpt>
      <trkpt lat="48.615122" lon="16.886203">
        <ele>228.338043</ele>
        <time>2020-07-27T05:44:21.803Z</time>
      </trkpt>
      <trkpt lat="48.615177" lon="16.886054">
        <ele>228.261230</ele>
        <time>2020-07-27T05:44:23.792Z</time>
      </trkpt>
      <trkpt lat="48.615226" lon="16.885901">
        <ele>228.184708</ele>
        <time>2020-07-27T05:44:25.793Z</time>
      </trkpt>
      <trkpt lat="48.615278" lon="16.885746">
        <ele>228.106472</ele>
        <time>2020-07-27T05:44:27.786Z</time>
      </trkpt>
      <trkpt lat="48.615331" lon="16.885591">
        <ele>228.027925</ele>
        <time>2020-07-27T05:44:29.781Z</time>
      </trkpt>
      <trkpt lat="48.615376" lon="16.885433">
        <ele>227.950489</ele>
        <time>2020-07-27T05:44:31.789Z</time>
      </trkpt>
      <trkpt lat="48.615422" lon="16.885277">
        <ele>227.873604</ele>
        <time>2020-07-27T05:44:33.800Z</time>
      </trkpt>
      <trkpt lat="48.615470" lon="16.885117">
        <ele>227.794518</ele>
        <time>2020-07-27T05:44:35.827Z</time>
      </trkpt>
      <trkpt lat="48.615519" lon="16.884962">
        <ele>227.717185</ele>
        <time>2020-07-27T05:44:37.813Z</time>
      </trkpt>
      <trkpt lat="48.615566" lon="16.884808">
        <ele>227.640839</ele>
        <time>2020-07-27T05:44:39.796Z</time>
      </trkpt>
      <trkpt lat="48.615614" lon="16.884654">
        <ele>227.564204</ele>
        <time>2020-07-27T05:44:41.800Z</time>
      </trkpt>
      <trkpt lat="48.615663" lon="16.884496">
        <ele>227.485651</ele>
        <time>2020-07-27T05:44:43.792Z</time>
      </trkpt>
      <trkpt lat="48.615713" lon="16.884338">
        <ele>227.406806</ele>
        <time>2020-07-27T05:44:45.800Z</time>
      </trkpt>
      <trkpt lat="48.615757" lon="16.884184">
        <ele>227.331293</ele>
        <time>2020-07-27T05:44:47.808Z</time>
      </trkpt>
      <trkpt lat="48.615803" lon="16.884033">
        <ele>227.213723</ele>
        <time>2020-07-27T05:44:49.804Z</time>
      </trkpt>
      <trkpt lat="48.615849" lon="16.883873">
        <ele>227.088984</ele>
        <time>2020-07-27T05:44:51.796Z</time>
      </trkpt>
      <trkpt lat="48.615894" lon="16.883711">
        <ele>226.963356</ele>
        <time>2020-07-27T05:44:53.805Z</time>
      </trkpt>
      <trkpt lat="48.615940" lon="16.883559">
        <ele>226.843840</ele>
        <time>2020-07-27T05:44:55.839Z</time>
      </trkpt>
      <trkpt lat="48.615988" lon="16.883403">
        <ele>226.720822</ele>
        <time>2020-07-27T05:44:57.808Z</time>
      </trkpt>
      <trkpt lat="48.616034" lon="16.883244">
        <ele>226.596738</ele>
        <time>2020-07-27T05:44:59.818Z</time>
      </trkpt>
      <trkpt lat="48.616076" lon="16.883078">
        <ele>226.469664</ele>
        <time>2020-07-27T05:45:01.804Z</time>
      </trkpt>
      <trkpt lat="48.616126" lon="16.882909">
        <ele>226.337293</ele>
        <time>2020-07-27T05:45:03.801Z</time>
      </trkpt>
      <trkpt lat="48.616181" lon="16.882752">
        <ele>226.210263</ele>
        <time>2020-07-27T05:45:05.816Z</time>
      </trkpt>
      <trkpt lat="48.616238" lon="16.882604">
        <ele>226.087806</ele>
        <time>2020-07-27T05:45:07.787Z</time>
      </trkpt>
      <trkpt lat="48.616294" lon="16.882449">
        <ele>225.961523</ele>
        <time>2020-07-27T05:45:09.812Z</time>
      </trkpt>
      <trkpt lat="48.616350" lon="16.882286">
        <ele>225.830193</ele>
        <time>2020-07-27T05:45:11.781Z</time>
      </trkpt>
      <trkpt lat="48.616401" lon="16.882133">
        <ele>225.707690</ele>
        <time>2020-07-27T05:45:13.794Z</time>
      </trkpt>
      <trkpt lat="48.616446" lon="16.881988">
        <ele>225.593171</ele>
        <time>2020-07-27T05:45:15.825Z</time>
      </trkpt>
      <trkpt lat="48.616492" lon="16.881841">
        <ele>225.476897</ele>
        <time>2020-07-27T05:45:17.785Z</time>
      </trkpt>
      <trkpt lat="48.616535" lon="16.881697">
        <ele>225.368254</ele>
        <time>2020-07-27T05:45:19.797Z</time>
      </trkpt>
      <trkpt lat="48.616578" lon="16.881548">
        <ele>225.277081</ele>
        <time>2020-07-27T05:45:21.795Z</time>
      </trkpt>
      <trkpt lat="48.616614" lon="16.881410">
        <ele>225.193884</ele>
        <time>2020-07-27T05:45:23.805Z</time>
      </trkpt>
      <trkpt lat="48.616646" lon="16.881275">
        <ele>225.113457</ele>
        <time>2020-07-27T05:45:25.797Z</time>
      </trkpt>
      <trkpt lat="48.616676" lon="16.881137">
        <ele>225.031990</ele>
        <time>2020-07-27T05:45:27.799Z</time>
      </trkpt>
      <trkpt lat="48.616719" lon="16.880995">
        <ele>224.944401</ele>
        <time>2020-07-27T05:45:29.782Z</time>
      </trkpt>
      <trkpt lat="48.616761" lon="16.880844">
        <ele>224.852531</ele>
        <time>2020-07-27T05:45:31.800Z</time>
      </trkpt>
      <trkpt lat="48.616801" lon="16.880695">
        <ele>224.762346</ele>
        <time>2020-07-27T05:45:33.788Z</time>
      </trkpt>
      <trkpt lat="48.616840" lon="16.880549">
        <ele>224.674039</ele>
        <time>2020-07-27T05:45:35.789Z</time>
      </trkpt>
      <trkpt lat="48.616882" lon="16.880404">
        <ele>224.585261</ele>
        <time>2020-07-27T05:45:37.787Z</time>
      </trkpt>
      <trkpt lat="48.616926" lon="16.880265">
        <ele>224.498836</ele>
        <time>2020-07-27T05:45:39.798Z</time>
      </trkpt>
      <trkpt lat="48.616971" lon="16.880120">
        <ele>224.409007</ele>
        <time>2020-07-27T05:45:41.799Z</time>
      </trkpt>
      <trkpt lat="48.617014" lon="16.879977">
        <ele>224.320908</ele>
        <time>2020-07-27T05:45:43.806Z</time>
      </trkpt>
      <trkpt lat="48.617057" lon="16.879841">
        <ele>224.236366</ele>
        <time>2020-07-27T05:45:45.800Z</time>
      </trkpt>
      <trkpt lat="48.617101" lon="16.879705">
        <ele>224.151455</ele>
        <time>2020-07-27T05:45:47.787Z</time>
      </trkpt>
      <trkpt lat="48.617141" lon="16.879569">
        <ele>224.067980</ele>
        <time>2020-07-27T05:45:49.808Z</time>
      </trkpt>
      <trkpt lat="48.617183" lon="16.879433">
        <ele>223.983801</ele>
        <time>2020-07-27T05:45:51.795Z</time>
      </trkpt>
      <trkpt lat="48.617222" lon="16.879297">
        <ele>223.900668</ele>
        <time>2020-07-27T05:45:53.805Z</time>
      </trkpt>
      <trkpt lat="48.617261" lon="16.879159">
        <ele>223.865492</ele>
        <time>2020-07-27T05:45:55.829Z</time>
      </trkpt>
      <trkpt lat="48.617302" lon="16.879023">
        <ele>223.880106</ele>
        <time>2020-07-27T05:45:57.805Z</time>
      </trkpt>
      <trkpt lat="48.617347" lon="16.878883">
        <ele>223.895326</ele>
        <time>2020-07-27T05:45:59.788Z</time>
      </trkpt>
      <trkpt lat="48.617390" lon="16.878746">
        <ele>223.910153</ele>
        <time>2020-07-27T05:46:01.794Z</time>
      </trkpt>
      <trkpt lat="48.617428" lon="16.878615">
        <ele>223.924140</ele>
        <time>2020-07-27T05:46:03.809Z</time>
      </trkpt>
      <trkpt lat="48.617469" lon="16.878484">
        <ele>223.938311</ele>
        <time>2020-07-27T05:46:05.794Z</time>
      </trkpt>
      <trkpt lat="48.617513" lon="16.878349">
        <ele>223.953026</ele>
        <time>2020-07-27T05:46:07.795Z</time>
      </trkpt>
      <trkpt lat="48.617558" lon="16.878209">
        <ele>223.968246</ele>
        <time>2020-07-27T05:46:09.792Z</time>
      </trkpt>
      <trkpt lat="48.617601" lon="16.878079">
        <ele>223.982459</ele>
        <time>2020-07-27T05:46:11.811Z</time>
      </trkpt>
      <trkpt lat="48.617642" lon="16.877950">
        <ele>223.996453</ele>
        <time>2020-07-27T05:46:13.797Z</time>
      </trkpt>
      <trkpt lat="48.617686" lon="16.877829">
        <ele>224.009955</ele>
        <time>2020-07-27T05:46:15.791Z</time>
      </trkpt>
      <trkpt lat="48.617729" lon="16.877703">
        <ele>224.023818</ele>
        <time>2020-07-27T05:46:17.786Z</time>
      </trkpt>
      <trkpt lat="48.617785" lon="16.877526">
        <ele>224.043003</ele>
        <time>2020-07-27T05:46:20.802Z</time>
      </trkpt>
      <trkpt lat="48.617837" lon="16.877344">
        <ele>224.062388</ele>
        <time>2020-07-27T05:46:23.808Z</time>
      </trkpt>
      <trkpt lat="48.617886" lon="16.877229">
        <ele>224.075765</ele>
        <time>2020-07-27T05:46:25.794Z</time>
      </trkpt>
      <trkpt lat="48.617946" lon="16.877055">
        <ele>224.094952</ele>
        <time>2020-07-27T05:46:28.788Z</time>
      </trkpt>
      <trkpt lat="48.618007" lon="16.876884">
        <ele>224.113949</ele>
        <time>2020-07-27T05:46:31.799Z</time>
      </trkpt>
      <trkpt lat="48.618064" lon="16.876718">
        <ele>224.208371</ele>
        <time>2020-07-27T05:46:34.798Z</time>
      </trkpt>
      <trkpt lat="48.618108" lon="16.876542">
        <ele>224.401615</ele>
        <time>2020-07-27T05:46:37.806Z</time>
      </trkpt>
      <trkpt lat="48.618106" lon="16.876366">
        <ele>224.582392</ele>
        <time>2020-07-27T05:46:40.814Z</time>
      </trkpt>
      <trkpt lat="48.618070" lon="16.876173">
        <ele>224.788341</ele>
        <time>2020-07-27T05:46:43.800Z</time>
      </trkpt>
      <trkpt lat="48.618045" lon="16.876041">
        <ele>224.929358</ele>
        <time>2020-07-27T05:46:45.791Z</time>
      </trkpt>
      <trkpt lat="48.618016" lon="16.875859">
        <ele>225.121624</ele>
        <time>2020-07-27T05:46:48.821Z</time>
      </trkpt>
      <trkpt lat="48.617969" lon="16.875706">
        <ele>225.294890</ele>
        <time>2020-07-27T05:46:50.799Z</time>
      </trkpt>
      <trkpt lat="48.617910" lon="16.875579">
        <ele>225.454304</ele>
        <time>2020-07-27T05:46:52.801Z</time>
      </trkpt>
      <trkpt lat="48.617821" lon="16.875440">
        <ele>225.653038</ele>
        <time>2020-07-27T05:46:55.793Z</time>
      </trkpt>
      <trkpt lat="48.617758" lon="16.875338">
        <ele>225.796399</ele>
        <time>2020-07-27T05:46:57.806Z</time>
      </trkpt>
      <trkpt lat="48.617663" lon="16.875194">
        <ele>226.005330</ele>
        <time>2020-07-27T05:47:00.802Z</time>
      </trkpt>
      <trkpt lat="48.617590" lon="16.875088">
        <ele>226.162531</ele>
        <time>2020-07-27T05:47:02.796Z</time>
      </trkpt>
      <trkpt lat="48.617519" lon="16.874979">
        <ele>226.319685</ele>
        <time>2020-07-27T05:47:04.833Z</time>
      </trkpt>
      <trkpt lat="48.617453" lon="16.874879">
        <ele>226.464806</ele>
        <time>2020-07-27T05:47:06.792Z</time>
      </trkpt>
      <trkpt lat="48.617386" lon="16.874770">
        <ele>226.617663</ele>
        <time>2020-07-27T05:47:08.787Z</time>
      </trkpt>
      <trkpt lat="48.617328" lon="16.874661">
        <ele>226.761365</ele>
        <time>2020-07-27T05:47:10.811Z</time>
      </trkpt>
      <trkpt lat="48.617260" lon="16.874557">
        <ele>226.911591</ele>
        <time>2020-07-27T05:47:12.816Z</time>
      </trkpt>
      <trkpt lat="48.617192" lon="16.874449">
        <ele>226.978646</ele>
        <time>2020-07-27T05:47:14.788Z</time>
      </trkpt>
      <trkpt lat="48.617127" lon="16.874347">
        <ele>227.038504</ele>
        <time>2020-07-27T05:47:16.791Z</time>
      </trkpt>
      <trkpt lat="48.617060" lon="16.874240">
        <ele>227.100771</ele>
        <time>2020-07-27T05:47:18.797Z</time>
      </trkpt>
      <trkpt lat="48.616993" lon="16.874125">
        <ele>227.165535</ele>
        <time>2020-07-27T05:47:20.806Z</time>
      </trkpt>
      <trkpt lat="48.616936" lon="16.873998">
        <ele>227.230390</ele>
        <time>2020-07-27T05:47:22.801Z</time>
      </trkpt>
      <trkpt lat="48.616874" lon="16.873867">
        <ele>227.298460</ele>
        <time>2020-07-27T05:47:24.829Z</time>
      </trkpt>
      <trkpt lat="48.616816" lon="16.873731">
        <ele>227.366839</ele>
        <time>2020-07-27T05:47:26.801Z</time>
      </trkpt>
      <trkpt lat="48.616756" lon="16.873600">
        <ele>227.434173</ele>
        <time>2020-07-27T05:47:28.801Z</time>
      </trkpt>
      <trkpt lat="48.616682" lon="16.873480">
        <ele>227.503507</ele>
        <time>2020-07-27T05:47:30.794Z</time>
      </trkpt>
      <trkpt lat="48.616611" lon="16.873367">
        <ele>227.569374</ele>
        <time>2020-07-27T05:47:32.793Z</time>
      </trkpt>
      <trkpt lat="48.616540" lon="16.873260">
        <ele>227.633427</ele>
        <time>2020-07-27T05:47:34.793Z</time>
      </trkpt>
      <trkpt lat="48.616460" lon="16.873156">
        <ele>227.700842</ele>
        <time>2020-07-27T05:47:36.802Z</time>
      </trkpt>
      <trkpt lat="48.616390" lon="16.873044">
        <ele>227.765963</ele>
        <time>2020-07-27T05:47:38.814Z</time>
      </trkpt>
      <trkpt lat="48.616314" lon="16.872937">
        <ele>227.832318</ele>
        <time>2020-07-27T05:47:40.810Z</time>
      </trkpt>
      <trkpt lat="48.616230" lon="16.872824">
        <ele>227.904161</ele>
        <time>2020-07-27T05:47:42.802Z</time>
      </trkpt>
      <trkpt lat="48.616157" lon="16.872712">
        <ele>227.970613</ele>
        <time>2020-07-27T05:47:44.786Z</time>
      </trkpt>
      <trkpt lat="48.616083" lon="16.872599">
        <ele>228.037816</ele>
        <time>2020-07-27T05:47:46.793Z</time>
      </trkpt>
      <trkpt lat="48.616002" lon="16.872486">
        <ele>228.094981</ele>
        <time>2020-07-27T05:47:48.804Z</time>
      </trkpt>
      <trkpt lat="48.615941" lon="16.872376">
        <ele>228.135672</ele>
        <time>2020-07-27T05:47:50.835Z</time>
      </trkpt>
      <trkpt lat="48.615868" lon="16.872269">
        <ele>228.179250</ele>
        <time>2020-07-27T05:47:52.803Z</time>
      </trkpt>
      <trkpt lat="48.615806" lon="16.872162">
        <ele>228.219574</ele>
        <time>2020-07-27T05:47:54.799Z</time>
      </trkpt>
      <trkpt lat="48.615743" lon="16.872059">
        <ele>228.259343</ele>
        <time>2020-07-27T05:47:56.794Z</time>
      </trkpt>
      <trkpt lat="48.615680" lon="16.871953">
        <ele>228.299740</ele>
        <time>2020-07-27T05:47:58.808Z</time>
      </trkpt>
      <trkpt lat="48.615613" lon="16.871845">
        <ele>228.341715</ele>
        <time>2020-07-27T05:48:00.803Z</time>
      </trkpt>
      <trkpt lat="48.615534" lon="16.871687">
        <ele>228.397860</ele>
        <time>2020-07-27T05:48:03.834Z</time>
      </trkpt>
      <trkpt lat="48.615474" lon="16.871577">
        <ele>228.438277</ele>
        <time>2020-07-27T05:48:05.785Z</time>
      </trkpt>
      <trkpt lat="48.615413" lon="16.871465">
        <ele>228.479404</ele>
        <time>2020-07-27T05:48:07.797Z</time>
      </trkpt>
      <trkpt lat="48.615353" lon="16.871356">
        <ele>228.519603</ele>
        <time>2020-07-27T05:48:09.787Z</time>
      </trkpt>
      <trkpt lat="48.615288" lon="16.871251">
        <ele>228.560371</ele>
        <time>2020-07-27T05:48:11.803Z</time>
      </trkpt>
      <trkpt lat="48.615225" lon="16.871145">
        <ele>228.600768</ele>
        <time>2020-07-27T05:48:13.806Z</time>
      </trkpt>
      <trkpt lat="48.615161" lon="16.871041">
        <ele>228.641037</ele>
        <time>2020-07-27T05:48:15.802Z</time>
      </trkpt>
      <trkpt lat="48.615099" lon="16.870938">
        <ele>228.680516</ele>
        <time>2020-07-27T05:48:17.806Z</time>
      </trkpt>
      <trkpt lat="48.615020" lon="16.870794">
        <ele>228.733551</ele>
        <time>2020-07-27T05:48:20.812Z</time>
      </trkpt>
      <trkpt lat="48.614944" lon="16.870663">
        <ele>228.782947</ele>
        <time>2020-07-27T05:48:23.802Z</time>
      </trkpt>
      <trkpt lat="48.614867" lon="16.870537">
        <ele>228.831577</ele>
        <time>2020-07-27T05:48:26.793Z</time>
      </trkpt>
      <trkpt lat="48.614786" lon="16.870424">
        <ele>228.864218</ele>
        <time>2020-07-27T05:48:29.792Z</time>
      </trkpt>
      <trkpt lat="48.614706" lon="16.870302">
        <ele>228.895045</ele>
        <time>2020-07-27T05:48:32.802Z</time>
      </trkpt>
      <trkpt lat="48.614616" lon="16.870162">
        <ele>228.930077</ele>
        <time>2020-07-27T05:48:35.818Z</time>
      </trkpt>
      <trkpt lat="48.614554" lon="16.870056">
        <ele>228.955467</ele>
        <time>2020-07-27T05:48:37.802Z</time>
      </trkpt>
      <trkpt lat="48.614487" lon="16.869888">
        <ele>228.990665</ele>
        <time>2020-07-27T05:48:40.797Z</time>
      </trkpt>
      <trkpt lat="48.614417" lon="16.869729">
        <ele>229.024935</ele>
        <time>2020-07-27T05:48:43.781Z</time>
      </trkpt>
      <trkpt lat="48.614364" lon="16.869614">
        <ele>229.050084</ele>
        <time>2020-07-27T05:48:45.785Z</time>
      </trkpt>
      <trkpt lat="48.614319" lon="16.869492">
        <ele>229.075147</ele>
        <time>2020-07-27T05:48:47.796Z</time>
      </trkpt>
      <trkpt lat="48.614279" lon="16.869353">
        <ele>229.102343</ele>
        <time>2020-07-27T05:48:49.782Z</time>
      </trkpt>
      <trkpt lat="48.614244" lon="16.869200">
        <ele>229.131388</ele>
        <time>2020-07-27T05:48:51.806Z</time>
      </trkpt>
      <trkpt lat="48.614208" lon="16.869042">
        <ele>229.161370</ele>
        <time>2020-07-27T05:48:53.829Z</time>
      </trkpt>
      <trkpt lat="48.614175" lon="16.868877">
        <ele>229.192295</ele>
        <time>2020-07-27T05:48:55.809Z</time>
      </trkpt>
      <trkpt lat="48.614138" lon="16.868716">
        <ele>229.222874</ele>
        <time>2020-07-27T05:48:57.814Z</time>
      </trkpt>
      <trkpt lat="48.614104" lon="16.868553">
        <ele>229.253537</ele>
        <time>2020-07-27T05:48:59.801Z</time>
      </trkpt>
      <trkpt lat="48.614072" lon="16.868391">
        <ele>229.283870</ele>
        <time>2020-07-27T05:49:01.804Z</time>
      </trkpt>
      <trkpt lat="48.614036" lon="16.868228">
        <ele>229.314701</ele>
        <time>2020-07-27T05:49:03.789Z</time>
      </trkpt>
      <trkpt lat="48.613994" lon="16.868066">
        <ele>229.335492</ele>
        <time>2020-07-27T05:49:05.829Z</time>
      </trkpt>
      <trkpt lat="48.613949" lon="16.867906">
        <ele>229.349388</ele>
        <time>2020-07-27T05:49:07.823Z</time>
      </trkpt>
      <trkpt lat="48.613909" lon="16.867743">
        <ele>229.363284</ele>
        <time>2020-07-27T05:49:09.830Z</time>
      </trkpt>
      <trkpt lat="48.613864" lon="16.867578">
        <ele>229.377549</ele>
        <time>2020-07-27T05:49:11.819Z</time>
      </trkpt>
      <trkpt lat="48.613820" lon="16.867414">
        <ele>229.391695</ele>
        <time>2020-07-27T05:49:13.805Z</time>
      </trkpt>
      <trkpt lat="48.613776" lon="16.867256">
        <ele>229.405397</ele>
        <time>2020-07-27T05:49:15.807Z</time>
      </trkpt>
      <trkpt lat="48.613738" lon="16.867097">
        <ele>229.418910</ele>
        <time>2020-07-27T05:49:17.797Z</time>
      </trkpt>
      <trkpt lat="48.613695" lon="16.866942">
        <ele>229.432344</ele>
        <time>2020-07-27T05:49:19.811Z</time>
      </trkpt>
      <trkpt lat="48.613648" lon="16.866802">
        <ele>229.444893</ele>
        <time>2020-07-27T05:49:21.809Z</time>
      </trkpt>
      <trkpt lat="48.613606" lon="16.866678">
        <ele>229.456029</ele>
        <time>2020-07-27T05:49:23.810Z</time>
      </trkpt>
      <trkpt lat="48.613562" lon="16.866515">
        <ele>229.470100</ele>
        <time>2020-07-27T05:49:26.806Z</time>
      </trkpt>
      <trkpt lat="48.613514" lon="16.866359">
        <ele>229.483852</ele>
        <time>2020-07-27T05:49:29.820Z</time>
      </trkpt>
      <trkpt lat="48.613456" lon="16.866205">
        <ele>229.498017</ele>
        <time>2020-07-27T05:49:32.806Z</time>
      </trkpt>
      <trkpt lat="48.613398" lon="16.866042">
        <ele>229.512812</ele>
        <time>2020-07-27T05:49:35.800Z</time>
      </trkpt>
      <trkpt lat="48.613333" lon="16.865890">
        <ele>229.527280</ele>
        <time>2020-07-27T05:49:38.800Z</time>
      </trkpt>
      <trkpt lat="48.613268" lon="16.865736">
        <ele>229.541882</ele>
        <time>2020-07-27T05:49:41.792Z</time>
      </trkpt>
      <trkpt lat="48.613211" lon="16.865595">
        <ele>229.568269</ele>
        <time>2020-07-27T05:49:44.793Z</time>
      </trkpt>
      <trkpt lat="48.613152" lon="16.865458">
        <ele>229.597670</ele>
        <time>2020-07-27T05:49:47.810Z</time>
      </trkpt>
      <trkpt lat="48.613089" lon="16.865326">
        <ele>229.626946</ele>
        <time>2020-07-27T05:49:50.808Z</time>
      </trkpt>
      <trkpt lat="48.613034" lon="16.865203">
        <ele>229.653648</ele>
        <time>2020-07-27T05:49:53.812Z</time>
      </trkpt>
      <trkpt lat="48.612975" lon="16.865070">
        <ele>229.682450</ele>
        <time>2020-07-27T05:49:56.802Z</time>
      </trkpt>
      <trkpt lat="48.612915" lon="16.864921">
        <ele>229.713822</ele>
        <time>2020-07-27T05:49:59.809Z</time>
      </trkpt>
      <trkpt lat="48.612844" lon="16.864760">
        <ele>229.748624</ele>
        <time>2020-07-27T05:50:02.813Z</time>
      </trkpt>
      <trkpt lat="48.612782" lon="16.864622">
        <ele>229.778627</ele>
        <time>2020-07-27T05:50:04.801Z</time>
      </trkpt>
      <trkpt lat="48.612716" lon="16.864466">
        <ele>229.811932</ele>
        <time>2020-07-27T05:50:06.794Z</time>
      </trkpt>
      <trkpt lat="48.612655" lon="16.864300">
        <ele>229.846084</ele>
        <time>2020-07-27T05:50:08.821Z</time>
      </trkpt>
      <trkpt lat="48.612598" lon="16.864138">
        <ele>229.879084</ele>
        <time>2020-07-27T05:50:10.835Z</time>
      </trkpt>
      <trkpt lat="48.612549" lon="16.863986">
        <ele>229.909494</ele>
        <time>2020-07-27T05:50:12.786Z</time>
      </trkpt>
      <trkpt lat="48.612503" lon="16.863841">
        <ele>229.938415</ele>
        <time>2020-07-27T05:50:14.793Z</time>
      </trkpt>
      <trkpt lat="48.612467" lon="16.863707">
        <ele>229.964425</ele>
        <time>2020-07-27T05:50:16.799Z</time>
      </trkpt>
      <trkpt lat="48.612434" lon="16.863577">
        <ele>229.989466</ele>
        <time>2020-07-27T05:50:18.806Z</time>
      </trkpt>
      <trkpt lat="48.612395" lon="16.863402">
        <ele>230.022676</ele>
        <time>2020-07-27T05:50:21.799Z</time>
      </trkpt>
      <trkpt lat="48.612365" lon="16.863241">
        <ele>230.072607</ele>
        <time>2020-07-27T05:50:24.795Z</time>
      </trkpt>
      <trkpt lat="48.612338" lon="16.863089">
        <ele>230.130494</ele>
        <time>2020-07-27T05:50:27.793Z</time>
      </trkpt>
      <trkpt lat="48.612312" lon="16.862946">
        <ele>230.185041</ele>
        <time>2020-07-27T05:50:30.826Z</time>
      </trkpt>
      <trkpt lat="48.612285" lon="16.862805">
        <ele>230.239030</ele>
        <time>2020-07-27T05:50:33.792Z</time>
      </trkpt>
      <trkpt lat="48.612260" lon="16.862650">
        <ele>230.297710</ele>
        <time>2020-07-27T05:50:36.810Z</time>
      </trkpt>
      <trkpt lat="48.612231" lon="16.862484">
        <ele>230.360859</ele>
        <time>2020-07-27T05:50:39.823Z</time>
      </trkpt>
      <trkpt lat="48.612201" lon="16.862315">
        <ele>230.425217</ele>
        <time>2020-07-27T05:50:42.803Z</time>
      </trkpt>
      <trkpt lat="48.612173" lon="16.862134">
        <ele>230.493585</ele>
        <time>2020-07-27T05:50:45.790Z</time>
      </trkpt>
      <trkpt lat="48.612125" lon="16.861947">
        <ele>230.567363</ele>
        <time>2020-07-27T05:50:48.825Z</time>
      </trkpt>
      <trkpt lat="48.612087" lon="16.861818">
        <ele>230.619305</ele>
        <time>2020-07-27T05:50:50.799Z</time>
      </trkpt>
      <trkpt lat="48.612062" lon="16.861675">
        <ele>230.673707</ele>
        <time>2020-07-27T05:50:52.830Z</time>
      </trkpt>
      <trkpt lat="48.612029" lon="16.861541">
        <ele>230.726299</ele>
        <time>2020-07-27T05:50:54.829Z</time>
      </trkpt>
      <trkpt lat="48.611995" lon="16.861403">
        <ele>230.780464</ele>
        <time>2020-07-27T05:50:56.784Z</time>
      </trkpt>
      <trkpt lat="48.611957" lon="16.861267">
        <ele>230.834767</ele>
        <time>2020-07-27T05:50:58.809Z</time>
      </trkpt>
      <trkpt lat="48.611918" lon="16.861130">
        <ele>230.889627</ele>
        <time>2020-07-27T05:51:00.798Z</time>
      </trkpt>
      <trkpt lat="48.611881" lon="16.860991">
        <ele>230.944738</ele>
        <time>2020-07-27T05:51:02.795Z</time>
      </trkpt>
      <trkpt lat="48.611848" lon="16.860854">
        <ele>230.998366</ele>
        <time>2020-07-27T05:51:04.790Z</time>
      </trkpt>
      <trkpt lat="48.611817" lon="16.860720">
        <ele>231.038786</ele>
        <time>2020-07-27T05:51:06.797Z</time>
      </trkpt>
      <trkpt lat="48.611782" lon="16.860583">
        <ele>231.053602</ele>
        <time>2020-07-27T05:51:08.810Z</time>
      </trkpt>
      <trkpt lat="48.611743" lon="16.860452">
        <ele>231.068096</ele>
        <time>2020-07-27T05:51:10.821Z</time>
      </trkpt>
      <trkpt lat="48.611706" lon="16.860321">
        <ele>231.082466</ele>
        <time>2020-07-27T05:51:12.799Z</time>
      </trkpt>
      <trkpt lat="48.611650" lon="16.860140">
        <ele>231.102626</ele>
        <time>2020-07-27T05:51:15.793Z</time>
      </trkpt>
      <trkpt lat="48.611592" lon="16.859958">
        <ele>231.123008</ele>
        <time>2020-07-27T05:51:18.802Z</time>
      </trkpt>
      <trkpt lat="48.611556" lon="16.859827">
        <ele>231.137320</ele>
        <time>2020-07-27T05:51:20.791Z</time>
      </trkpt>
      <trkpt lat="48.611556" lon="16.859680">
        <ele>231.152149</ele>
        <time>2020-07-27T05:51:22.799Z</time>
      </trkpt>
      <trkpt lat="48.611596" lon="16.859547">
        <ele>231.166889</ele>
        <time>2020-07-27T05:51:24.789Z</time>
      </trkpt>
      <trkpt lat="48.611635" lon="16.859419">
        <ele>231.181107</ele>
        <time>2020-07-27T05:51:26.801Z</time>
      </trkpt>
      <trkpt lat="48.611673" lon="16.859295">
        <ele>231.194895</ele>
        <time>2020-07-27T05:51:28.786Z</time>
      </trkpt>
      <trkpt lat="48.611732" lon="16.859113">
        <ele>231.215344</ele>
        <time>2020-07-27T05:51:31.806Z</time>
      </trkpt>
      <trkpt lat="48.611767" lon="16.858989">
        <ele>231.228945</ele>
        <time>2020-07-27T05:51:33.799Z</time>
      </trkpt>
      <trkpt lat="48.611801" lon="16.858860">
        <ele>231.242955</ele>
        <time>2020-07-27T05:51:35.802Z</time>
      </trkpt>
      <trkpt lat="48.611834" lon="16.858729">
        <ele>231.257097</ele>
        <time>2020-07-27T05:51:37.781Z</time>
      </trkpt>
      <trkpt lat="48.611868" lon="16.858594">
        <ele>231.271670</ele>
        <time>2020-07-27T05:51:39.785Z</time>
      </trkpt>
      <trkpt lat="48.611899" lon="16.858464">
        <ele>231.285612</ele>
        <time>2020-07-27T05:51:41.782Z</time>
      </trkpt>
      <trkpt lat="48.611930" lon="16.858334">
        <ele>231.299553</ele>
        <time>2020-07-27T05:51:43.801Z</time>
      </trkpt>
      <trkpt lat="48.611962" lon="16.858204">
        <ele>231.312978</ele>
        <time>2020-07-27T05:51:45.786Z</time>
      </trkpt>
      <trkpt lat="48.611998" lon="16.858070">
        <ele>231.325832</ele>
        <time>2020-07-27T05:51:47.784Z</time>
      </trkpt>
      <trkpt lat="48.612035" lon="16.857939">
        <ele>231.338491</ele>
        <time>2020-07-27T05:51:49.812Z</time>
      </trkpt>
      <trkpt lat="48.612071" lon="16.857810">
        <ele>231.350935</ele>
        <time>2020-07-27T05:51:51.807Z</time>
      </trkpt>
      <trkpt lat="48.612107" lon="16.857682">
        <ele>231.363296</ele>
        <time>2020-07-27T05:51:53.789Z</time>
      </trkpt>
      <trkpt lat="48.612140" lon="16.857552">
        <ele>231.375671</ele>
        <time>2020-07-27T05:51:55.800Z</time>
      </trkpt>
      <trkpt lat="48.612170" lon="16.857420">
        <ele>231.388075</ele>
        <time>2020-07-27T05:51:57.816Z</time>
      </trkpt>
      <trkpt lat="48.612216" lon="16.857227">
        <ele>231.406307</ele>
        <time>2020-07-27T05:52:00.816Z</time>
      </trkpt>
      <trkpt lat="48.612259" lon="16.857040">
        <ele>231.423902</ele>
        <time>2020-07-27T05:52:03.791Z</time>
      </trkpt>
      <trkpt lat="48.612302" lon="16.856850">
        <ele>231.441748</ele>
        <time>2020-07-27T05:52:06.799Z</time>
      </trkpt>
      <trkpt lat="48.612331" lon="16.856720">
        <ele>231.453941</ele>
        <time>2020-07-27T05:52:08.810Z</time>
      </trkpt>
      <trkpt lat="48.612378" lon="16.856533">
        <ele>231.471719</ele>
        <time>2020-07-27T05:52:11.794Z</time>
      </trkpt>
      <trkpt lat="48.612427" lon="16.856350">
        <ele>231.489265</ele>
        <time>2020-07-27T05:52:14.789Z</time>
      </trkpt>
      <trkpt lat="48.612471" lon="16.856168">
        <ele>231.506486</ele>
        <time>2020-07-27T05:52:17.821Z</time>
      </trkpt>
      <trkpt lat="48.612516" lon="16.855980">
        <ele>231.524254</ele>
        <time>2020-07-27T05:52:20.801Z</time>
      </trkpt>
      <trkpt lat="48.612551" lon="16.855852">
        <ele>231.536564</ele>
        <time>2020-07-27T05:52:22.805Z</time>
      </trkpt>
      <trkpt lat="48.612586" lon="16.855725">
        <ele>231.548791</ele>
        <time>2020-07-27T05:52:24.802Z</time>
      </trkpt>
      <trkpt lat="48.612639" lon="16.855537">
        <ele>231.588811</ele>
        <time>2020-07-27T05:52:27.788Z</time>
      </trkpt>
      <trkpt lat="48.612674" lon="16.855412">
        <ele>231.616930</ele>
        <time>2020-07-27T05:52:29.793Z</time>
      </trkpt>
      <trkpt lat="48.612723" lon="16.855230">
        <ele>231.657634</ele>
        <time>2020-07-27T05:52:32.796Z</time>
      </trkpt>
      <trkpt lat="48.612764" lon="16.855054">
        <ele>231.696287</ele>
        <time>2020-07-27T05:52:35.794Z</time>
      </trkpt>
      <trkpt lat="48.612803" lon="16.854880">
        <ele>231.734343</ele>
        <time>2020-07-27T05:52:38.792Z</time>
      </trkpt>
      <trkpt lat="48.612839" lon="16.854710">
        <ele>231.771318</ele>
        <time>2020-07-27T05:52:41.794Z</time>
      </trkpt>
      <trkpt lat="48.612878" lon="16.854543">
        <ele>231.808004</ele>
        <time>2020-07-27T05:52:44.810Z</time>
      </trkpt>
      <trkpt lat="48.612918" lon="16.854376">
        <ele>231.844796</ele>
        <time>2020-07-27T05:52:47.798Z</time>
      </trkpt>
      <trkpt lat="48.612956" lon="16.854200">
        <ele>231.883146</ele>
        <time>2020-07-27T05:52:50.799Z</time>
      </trkpt>
      <trkpt lat="48.612998" lon="16.854029">
        <ele>231.920932</ele>
        <time>2020-07-27T05:52:53.802Z</time>
      </trkpt>
      <trkpt lat="48.613045" lon="16.853845">
        <ele>231.961790</ele>
        <time>2020-07-27T05:52:56.831Z</time>
      </trkpt>
      <trkpt lat="48.613091" lon="16.853663">
        <ele>232.002149</ele>
        <time>2020-07-27T05:52:59.791Z</time>
      </trkpt>
      <trkpt lat="48.613142" lon="16.853478">
        <ele>232.043667</ele>
        <time>2020-07-27T05:53:02.793Z</time>
      </trkpt>
      <trkpt lat="48.613178" lon="16.853349">
        <ele>232.072670</ele>
        <time>2020-07-27T05:53:04.805Z</time>
      </trkpt>
      <trkpt lat="48.613216" lon="16.853220">
        <ele>232.101922</ele>
        <time>2020-07-27T05:53:06.784Z</time>
      </trkpt>
      <trkpt lat="48.613256" lon="16.853095">
        <ele>232.132702</ele>
        <time>2020-07-27T05:53:08.828Z</time>
      </trkpt>
      <trkpt lat="48.613303" lon="16.852974">
        <ele>232.165288</ele>
        <time>2020-07-27T05:53:10.813Z</time>
      </trkpt>
      <trkpt lat="48.613351" lon="16.852851">
        <ele>232.198453</ele>
        <time>2020-07-27T05:53:12.812Z</time>
      </trkpt>
      <trkpt lat="48.613401" lon="16.852730">
        <ele>232.231586</ele>
        <time>2020-07-27T05:53:14.789Z</time>
      </trkpt>
      <trkpt lat="48.613472" lon="16.852558">
        <ele>232.278669</ele>
        <time>2020-07-27T05:53:17.828Z</time>
      </trkpt>
      <trkpt lat="48.613547" lon="16.852395">
        <ele>232.324781</ele>
        <time>2020-07-27T05:53:20.799Z</time>
      </trkpt>
      <trkpt lat="48.613623" lon="16.852235">
        <ele>232.370528</ele>
        <time>2020-07-27T05:53:23.798Z</time>
      </trkpt>
      <trkpt lat="48.613702" lon="16.852071">
        <ele>232.417644</ele>
        <time>2020-07-27T05:53:26.797Z</time>
      </trkpt>
      <trkpt lat="48.613788" lon="16.851914">
        <ele>232.464986</ele>
        <time>2020-07-27T05:53:29.802Z</time>
      </trkpt>
      <trkpt lat="48.613872" lon="16.851761">
        <ele>232.511164</ele>
        <time>2020-07-27T05:53:32.790Z</time>
      </trkpt>
      <trkpt lat="48.613929" lon="16.851652">
        <ele>232.543434</ele>
        <time>2020-07-27T05:53:34.795Z</time>
      </trkpt>
      <trkpt lat="48.613982" lon="16.851539">
        <ele>232.575605</ele>
        <time>2020-07-27T05:53:36.792Z</time>
      </trkpt>
      <trkpt lat="48.614059" lon="16.851377">
        <ele>232.621933</ele>
        <time>2020-07-27T05:53:39.826Z</time>
      </trkpt>
      <trkpt lat="48.614133" lon="16.851219">
        <ele>232.666892</ele>
        <time>2020-07-27T05:53:42.811Z</time>
      </trkpt>
      <trkpt lat="48.614212" lon="16.851061">
        <ele>232.712890</ele>
        <time>2020-07-27T05:53:45.792Z</time>
      </trkpt>
      <trkpt lat="48.614295" lon="16.850901">
        <ele>232.758119</ele>
        <time>2020-07-27T05:53:48.806Z</time>
      </trkpt>
      <trkpt lat="48.614377" lon="16.850744">
        <ele>232.798133</ele>
        <time>2020-07-27T05:53:51.798Z</time>
      </trkpt>
      <trkpt lat="48.614453" lon="16.850579">
        <ele>232.838349</ele>
        <time>2020-07-27T05:53:54.797Z</time>
      </trkpt>
      <trkpt lat="48.614501" lon="16.850463">
        <ele>232.865717</ele>
        <time>2020-07-27T05:53:56.791Z</time>
      </trkpt>
      <trkpt lat="48.614569" lon="16.850300">
        <ele>232.904262</ele>
        <time>2020-07-27T05:53:59.835Z</time>
      </trkpt>
      <trkpt lat="48.614631" lon="16.850139">
        <ele>232.941523</ele>
        <time>2020-07-27T05:54:02.812Z</time>
      </trkpt>
      <trkpt lat="48.614688" lon="16.849967">
        <ele>232.980000</ele>
        <time>2020-07-27T05:54:05.793Z</time>
      </trkpt>
      <trkpt lat="48.614749" lon="16.849796">
        <ele>233.018858</ele>
        <time>2020-07-27T05:54:08.811Z</time>
      </trkpt>
      <trkpt lat="48.614809" lon="16.849631">
        <ele>233.056517</ele>
        <time>2020-07-27T05:54:11.792Z</time>
      </trkpt>
      <trkpt lat="48.614878" lon="16.849466">
        <ele>233.095561</ele>
        <time>2020-07-27T05:54:14.795Z</time>
      </trkpt>
      <trkpt lat="48.614950" lon="16.849297">
        <ele>233.135768</ele>
        <time>2020-07-27T05:54:17.787Z</time>
      </trkpt>
      <trkpt lat="48.615019" lon="16.849137">
        <ele>233.173971</ele>
        <time>2020-07-27T05:54:20.809Z</time>
      </trkpt>
      <trkpt lat="48.615092" lon="16.848972">
        <ele>233.213675</ele>
        <time>2020-07-27T05:54:23.813Z</time>
      </trkpt>
      <trkpt lat="48.615165" lon="16.848804">
        <ele>233.253880</ele>
        <time>2020-07-27T05:54:26.806Z</time>
      </trkpt>
      <trkpt lat="48.615235" lon="16.848643">
        <ele>233.292795</ele>
        <time>2020-07-27T05:54:29.807Z</time>
      </trkpt>
      <trkpt lat="48.615314" lon="16.848485">
        <ele>233.338219</ele>
        <time>2020-07-27T05:54:32.797Z</time>
      </trkpt>
      <trkpt lat="48.615395" lon="16.848332">
        <ele>233.383163</ele>
        <time>2020-07-27T05:54:35.806Z</time>
      </trkpt>
      <trkpt lat="48.615474" lon="16.848179">
        <ele>233.427678</ele>
        <time>2020-07-27T05:54:38.793Z</time>
      </trkpt>
      <trkpt lat="48.615550" lon="16.848026">
        <ele>233.471559</ele>
        <time>2020-07-27T05:54:41.804Z</time>
      </trkpt>
      <trkpt lat="48.615625" lon="16.847874">
        <ele>233.515049</ele>
        <time>2020-07-27T05:54:44.803Z</time>
      </trkpt>
      <trkpt lat="48.615703" lon="16.847729">
        <ele>233.557913</ele>
        <time>2020-07-27T05:54:47.820Z</time>
      </trkpt>
      <trkpt lat="48.615777" lon="16.847586">
        <ele>233.599552</ele>
        <time>2020-07-27T05:54:50.788Z</time>
      </trkpt>
      <trkpt lat="48.615858" lon="16.847442">
        <ele>233.642905</ele>
        <time>2020-07-27T05:54:53.803Z</time>
      </trkpt>
      <trkpt lat="48.615920" lon="16.847343">
        <ele>233.674173</ele>
        <time>2020-07-27T05:54:55.791Z</time>
      </trkpt>
      <trkpt lat="48.616006" lon="16.847202">
        <ele>233.718161</ele>
        <time>2020-07-27T05:54:58.778Z</time>
      </trkpt>
      <trkpt lat="48.616091" lon="16.847061">
        <ele>233.761915</ele>
        <time>2020-07-27T05:55:01.802Z</time>
      </trkpt>
      <trkpt lat="48.616182" lon="16.846915">
        <ele>233.807924</ele>
        <time>2020-07-27T05:55:04.797Z</time>
      </trkpt>
      <trkpt lat="48.616245" lon="16.846816">
        <ele>233.839432</ele>
        <time>2020-07-27T05:55:06.798Z</time>
      </trkpt>
      <trkpt lat="48.616338" lon="16.846682">
        <ele>233.883979</ele>
        <time>2020-07-27T05:55:09.792Z</time>
      </trkpt>
      <trkpt lat="48.616429" lon="16.846558">
        <ele>233.924976</ele>
        <time>2020-07-27T05:55:12.792Z</time>
      </trkpt>
      <trkpt lat="48.616521" lon="16.846434">
        <ele>233.962766</ele>
        <time>2020-07-27T05:55:15.827Z</time>
      </trkpt>
      <trkpt lat="48.616615" lon="16.846306">
        <ele>234.001553</ele>
        <time>2020-07-27T05:55:18.812Z</time>
      </trkpt>
      <trkpt lat="48.616708" lon="16.846171">
        <ele>234.041082</ele>
        <time>2020-07-27T05:55:21.795Z</time>
      </trkpt>
      <trkpt lat="48.616800" lon="16.846038">
        <ele>234.080109</ele>
        <time>2020-07-27T05:55:24.794Z</time>
      </trkpt>
      <trkpt lat="48.616886" lon="16.845908">
        <ele>234.117395</ele>
        <time>2020-07-27T05:55:27.803Z</time>
      </trkpt>
      <trkpt lat="48.616970" lon="16.845781">
        <ele>234.153817</ele>
        <time>2020-07-27T05:55:30.790Z</time>
      </trkpt>
      <trkpt lat="48.617056" lon="16.845654">
        <ele>234.190676</ele>
        <time>2020-07-27T05:55:33.795Z</time>
      </trkpt>
      <trkpt lat="48.617144" lon="16.845526">
        <ele>234.228115</ele>
        <time>2020-07-27T05:55:36.790Z</time>
      </trkpt>
      <trkpt lat="48.617233" lon="16.845397">
        <ele>234.265917</ele>
        <time>2020-07-27T05:55:39.794Z</time>
      </trkpt>
      <trkpt lat="48.617328" lon="16.845264">
        <ele>234.305614</ele>
        <time>2020-07-27T05:55:42.815Z</time>
      </trkpt>
      <trkpt lat="48.617417" lon="16.845129">
        <ele>234.344267</ele>
        <time>2020-07-27T05:55:45.793Z</time>
      </trkpt>
      <trkpt lat="48.617510" lon="16.844999">
        <ele>234.383101</ele>
        <time>2020-07-27T05:55:48.809Z</time>
      </trkpt>
      <trkpt lat="48.617598" lon="16.844863">
        <ele>234.421683</ele>
        <time>2020-07-27T05:55:51.790Z</time>
      </trkpt>
      <trkpt lat="48.617688" lon="16.844714">
        <ele>234.462601</ele>
        <time>2020-07-27T05:55:54.810Z</time>
      </trkpt>
      <trkpt lat="48.617773" lon="16.844564">
        <ele>234.509204</ele>
        <time>2020-07-27T05:55:57.801Z</time>
      </trkpt>
      <trkpt lat="48.617834" lon="16.844462">
        <ele>234.541973</ele>
        <time>2020-07-27T05:55:59.806Z</time>
      </trkpt>
      <trkpt lat="48.617897" lon="16.844364">
        <ele>234.574539</ele>
        <time>2020-07-27T05:56:01.793Z</time>
      </trkpt>
      <trkpt lat="48.617987" lon="16.844223">
        <ele>234.621233</ele>
        <time>2020-07-27T05:56:04.809Z</time>
      </trkpt>
      <trkpt lat="48.618072" lon="16.844073">
        <ele>234.668300</ele>
        <time>2020-07-27T05:56:07.793Z</time>
      </trkpt>
      <trkpt lat="48.618127" lon="16.843966">
        <ele>234.700591</ele>
        <time>2020-07-27T05:56:09.802Z</time>
      </trkpt>
      <trkpt lat="48.618207" lon="16.843810">
        <ele>234.747627</ele>
        <time>2020-07-27T05:56:12.814Z</time>
      </trkpt>
      <trkpt lat="48.618286" lon="16.843651">
        <ele>234.795012</ele>
        <time>2020-07-27T05:56:15.796Z</time>
      </trkpt>
      <trkpt lat="48.618365" lon="16.843497">
        <ele>234.841451</ele>
        <time>2020-07-27T05:56:18.792Z</time>
      </trkpt>
      <trkpt lat="48.618444" lon="16.843344">
        <ele>234.887701</ele>
        <time>2020-07-27T05:56:21.798Z</time>
      </trkpt>
      <trkpt lat="48.618522" lon="16.843190">
        <ele>234.933920</ele>
        <time>2020-07-27T05:56:24.801Z</time>
      </trkpt>
      <trkpt lat="48.618597" lon="16.843025">
        <ele>234.981624</ele>
        <time>2020-07-27T05:56:27.789Z</time>
      </trkpt>
      <trkpt lat="48.618668" lon="16.842858">
        <ele>235.028927</ele>
        <time>2020-07-27T05:56:30.790Z</time>
      </trkpt>
      <trkpt lat="48.618736" lon="16.842694">
        <ele>235.075046</ele>
        <time>2020-07-27T05:56:33.796Z</time>
      </trkpt>
      <trkpt lat="48.618804" lon="16.842535">
        <ele>235.120072</ele>
        <time>2020-07-27T05:56:36.777Z</time>
      </trkpt>
      <trkpt lat="48.618879" lon="16.842376">
        <ele>235.165985</ele>
        <time>2020-07-27T05:56:39.789Z</time>
      </trkpt>
      <trkpt lat="48.618952" lon="16.842215">
        <ele>235.211877</ele>
        <time>2020-07-27T05:56:42.813Z</time>
      </trkpt>
      <trkpt lat="48.619019" lon="16.842047">
        <ele>235.257997</ele>
        <time>2020-07-27T05:56:45.801Z</time>
      </trkpt>
      <trkpt lat="48.619085" lon="16.841868">
        <ele>235.306175</ele>
        <time>2020-07-27T05:56:48.809Z</time>
      </trkpt>
      <trkpt lat="48.619147" lon="16.841694">
        <ele>235.352638</ele>
        <time>2020-07-27T05:56:51.790Z</time>
      </trkpt>
      <trkpt lat="48.619193" lon="16.841575">
        <ele>235.385042</ele>
        <time>2020-07-27T05:56:53.793Z</time>
      </trkpt>
      <trkpt lat="48.619255" lon="16.841405">
        <ele>235.430680</ele>
        <time>2020-07-27T05:56:56.793Z</time>
      </trkpt>
      <trkpt lat="48.619307" lon="16.841227">
        <ele>235.476424</ele>
        <time>2020-07-27T05:56:59.797Z</time>
      </trkpt>
      <trkpt lat="48.619348" lon="16.841041">
        <ele>235.522511</ele>
        <time>2020-07-27T05:57:02.812Z</time>
      </trkpt>
      <trkpt lat="48.619388" lon="16.840857">
        <ele>235.568041</ele>
        <time>2020-07-27T05:57:05.795Z</time>
      </trkpt>
      <trkpt lat="48.619428" lon="16.840684">
        <ele>235.611122</ele>
        <time>2020-07-27T05:57:08.793Z</time>
      </trkpt>
      <trkpt lat="48.619466" lon="16.840510">
        <ele>235.654196</ele>
        <time>2020-07-27T05:57:11.790Z</time>
      </trkpt>
      <trkpt lat="48.619508" lon="16.840347">
        <ele>235.695318</ele>
        <time>2020-07-27T05:57:14.799Z</time>
      </trkpt>
      <trkpt lat="48.619547" lon="16.840176">
        <ele>235.737838</ele>
        <time>2020-07-27T05:57:17.807Z</time>
      </trkpt>
      <trkpt lat="48.619590" lon="16.839997">
        <ele>235.763142</ele>
        <time>2020-07-27T05:57:20.784Z</time>
      </trkpt>
      <trkpt lat="48.619636" lon="16.839822">
        <ele>235.778304</ele>
        <time>2020-07-27T05:57:23.781Z</time>
      </trkpt>
      <trkpt lat="48.619678" lon="16.839645">
        <ele>235.793444</ele>
        <time>2020-07-27T05:57:26.800Z</time>
      </trkpt>
      <trkpt lat="48.619725" lon="16.839475">
        <ele>235.808280</ele>
        <time>2020-07-27T05:57:29.785Z</time>
      </trkpt>
      <trkpt lat="48.619770" lon="16.839316">
        <ele>235.822204</ele>
        <time>2020-07-27T05:57:32.783Z</time>
      </trkpt>
      <trkpt lat="48.619818" lon="16.839148">
        <ele>235.836939</ele>
        <time>2020-07-27T05:57:35.783Z</time>
      </trkpt>
      <trkpt lat="48.619859" lon="16.838983">
        <ele>235.851131</ele>
        <time>2020-07-27T05:57:38.795Z</time>
      </trkpt>
      <trkpt lat="48.619899" lon="16.838826">
        <ele>235.864677</ele>
        <time>2020-07-27T05:57:41.784Z</time>
      </trkpt>
      <trkpt lat="48.619945" lon="16.838676">
        <ele>235.877990</ele>
        <time>2020-07-27T05:57:44.802Z</time>
      </trkpt>
      <trkpt lat="48.619993" lon="16.838530">
        <ele>235.891117</ele>
        <time>2020-07-27T05:57:47.782Z</time>
      </trkpt>
      <trkpt lat="48.620045" lon="16.838379">
        <ele>235.904825</ele>
        <time>2020-07-27T05:57:50.802Z</time>
      </trkpt>
      <trkpt lat="48.620106" lon="16.838235">
        <ele>235.918594</ele>
        <time>2020-07-27T05:57:53.782Z</time>
      </trkpt>
      <trkpt lat="48.620175" lon="16.838081">
        <ele>235.933572</ele>
        <time>2020-07-27T05:57:56.817Z</time>
      </trkpt>
      <trkpt lat="48.620247" lon="16.837941">
        <ele>235.947853</ele>
        <time>2020-07-27T05:57:59.791Z</time>
      </trkpt>
      <trkpt lat="48.620318" lon="16.837810">
        <ele>235.961491</ele>
        <time>2020-07-27T05:58:02.791Z</time>
      </trkpt>
      <trkpt lat="48.620390" lon="16.837673">
        <ele>235.980232</ele>
        <time>2020-07-27T05:58:05.811Z</time>
      </trkpt>
      <trkpt lat="48.620458" lon="16.837535">
        <ele>236.012378</ele>
        <time>2020-07-27T05:58:08.798Z</time>
      </trkpt>
      <trkpt lat="48.620535" lon="16.837402">
        <ele>236.045397</ele>
        <time>2020-07-27T05:58:11.804Z</time>
      </trkpt>
      <trkpt lat="48.620624" lon="16.837271">
        <ele>236.080480</ele>
        <time>2020-07-27T05:58:14.803Z</time>
      </trkpt>
      <trkpt lat="48.620714" lon="16.837158">
        <ele>236.113525</ele>
        <time>2020-07-27T05:58:17.789Z</time>
      </trkpt>
      <trkpt lat="48.620804" lon="16.837042">
        <ele>236.146930</ele>
        <time>2020-07-27T05:58:20.793Z</time>
      </trkpt>
      <trkpt lat="48.620894" lon="16.836927">
        <ele>236.180214</ele>
        <time>2020-07-27T05:58:23.810Z</time>
      </trkpt>
      <trkpt lat="48.620978" lon="16.836815">
        <ele>236.211849</ele>
        <time>2020-07-27T05:58:26.792Z</time>
      </trkpt>
      <trkpt lat="48.621072" lon="16.836709">
        <ele>236.244973</ele>
        <time>2020-07-27T05:58:29.791Z</time>
      </trkpt>
      <trkpt lat="48.621170" lon="16.836599">
        <ele>236.279450</ele>
        <time>2020-07-27T05:58:32.784Z</time>
      </trkpt>
      <trkpt lat="48.621269" lon="16.836489">
        <ele>236.314154</ele>
        <time>2020-07-27T05:58:35.803Z</time>
      </trkpt>
      <trkpt lat="48.621365" lon="16.836369">
        <ele>236.349338</ele>
        <time>2020-07-27T05:58:38.796Z</time>
      </trkpt>
      <trkpt lat="48.621457" lon="16.836251">
        <ele>236.383415</ele>
        <time>2020-07-27T05:58:41.803Z</time>
      </trkpt>
      <trkpt lat="48.621552" lon="16.836134">
        <ele>236.418025</ele>
        <time>2020-07-27T05:58:44.789Z</time>
      </trkpt>
      <trkpt lat="48.621644" lon="16.836020">
        <ele>236.451624</ele>
        <time>2020-07-27T05:58:47.788Z</time>
      </trkpt>
      <trkpt lat="48.621731" lon="16.835893">
        <ele>236.484781</ele>
        <time>2020-07-27T05:58:50.795Z</time>
      </trkpt>
      <trkpt lat="48.621806" lon="16.835751">
        <ele>236.512616</ele>
        <time>2020-07-27T05:58:53.790Z</time>
      </trkpt>
      <trkpt lat="48.621883" lon="16.835608">
        <ele>236.540862</ele>
        <time>2020-07-27T05:58:56.787Z</time>
      </trkpt>
      <trkpt lat="48.621966" lon="16.835466">
        <ele>236.569891</ele>
        <time>2020-07-27T05:58:59.801Z</time>
      </trkpt>
      <trkpt lat="48.622045" lon="16.835318">
        <ele>236.599023</ele>
        <time>2020-07-27T05:59:02.805Z</time>
      </trkpt>
      <trkpt lat="48.622117" lon="16.835162">
        <ele>236.628160</ele>
        <time>2020-07-27T05:59:05.814Z</time>
      </trkpt>
      <trkpt lat="48.622194" lon="16.835008">
        <ele>236.657731</ele>
        <time>2020-07-27T05:59:08.801Z</time>
      </trkpt>
      <trkpt lat="48.622273" lon="16.834854">
        <ele>236.687584</ele>
        <time>2020-07-27T05:59:11.810Z</time>
      </trkpt>
      <trkpt lat="48.622351" lon="16.834693">
        <ele>236.718153</ele>
        <time>2020-07-27T05:59:14.799Z</time>
      </trkpt>
      <trkpt lat="48.622399" lon="16.834572">
        <ele>236.739763</ele>
        <time>2020-07-27T05:59:16.807Z</time>
      </trkpt>
      <trkpt lat="48.622470" lon="16.834408">
        <ele>236.769786</ele>
        <time>2020-07-27T05:59:19.787Z</time>
      </trkpt>
      <trkpt lat="48.622553" lon="16.834265">
        <ele>236.798929</ele>
        <time>2020-07-27T05:59:22.795Z</time>
      </trkpt>
      <trkpt lat="48.622645" lon="16.834121">
        <ele>236.829598</ele>
        <time>2020-07-27T05:59:25.799Z</time>
      </trkpt>
      <trkpt lat="48.622746" lon="16.833988">
        <ele>236.860620</ele>
        <time>2020-07-27T05:59:28.799Z</time>
      </trkpt>
      <trkpt lat="48.622848" lon="16.833867">
        <ele>236.890650</ele>
        <time>2020-07-27T05:59:31.788Z</time>
      </trkpt>
      <trkpt lat="48.622919" lon="16.833784">
        <ele>236.858258</ele>
        <time>2020-07-27T05:59:33.798Z</time>
      </trkpt>
      <trkpt lat="48.622995" lon="16.833702">
        <ele>236.800639</ele>
        <time>2020-07-27T05:59:35.795Z</time>
      </trkpt>
      <trkpt lat="48.623070" lon="16.833621">
        <ele>236.743759</ele>
        <time>2020-07-27T05:59:37.792Z</time>
      </trkpt>
      <trkpt lat="48.623152" lon="16.833535">
        <ele>236.682172</ele>
        <time>2020-07-27T05:59:39.795Z</time>
      </trkpt>
      <trkpt lat="48.623228" lon="16.833456">
        <ele>236.625254</ele>
        <time>2020-07-27T05:59:41.794Z</time>
      </trkpt>
      <trkpt lat="48.623305" lon="16.833381">
        <ele>236.568727</ele>
        <time>2020-07-27T05:59:43.794Z</time>
      </trkpt>
      <trkpt lat="48.623381" lon="16.833307">
        <ele>236.512940</ele>
        <time>2020-07-27T05:59:45.794Z</time>
      </trkpt>
      <trkpt lat="48.623457" lon="16.833230">
        <ele>236.456481</ele>
        <time>2020-07-27T05:59:47.800Z</time>
      </trkpt>
      <trkpt lat="48.623531" lon="16.833146">
        <ele>236.399376</ele>
        <time>2020-07-27T05:59:49.797Z</time>
      </trkpt>
      <trkpt lat="48.623612" lon="16.833053">
        <ele>236.336611</ele>
        <time>2020-07-27T05:59:51.776Z</time>
      </trkpt>
      <trkpt lat="48.623696" lon="16.832970">
        <ele>236.274683</ele>
        <time>2020-07-27T05:59:53.811Z</time>
      </trkpt>
      <trkpt lat="48.623772" lon="16.832887">
        <ele>236.216826</ele>
        <time>2020-07-27T05:59:55.815Z</time>
      </trkpt>
      <trkpt lat="48.623852" lon="16.832808">
        <ele>236.157858</ele>
        <time>2020-07-27T05:59:57.783Z</time>
      </trkpt>
      <trkpt lat="48.623931" lon="16.832732">
        <ele>236.100071</ele>
        <time>2020-07-27T05:59:59.804Z</time>
      </trkpt>
      <trkpt lat="48.624039" lon="16.832602">
        <ele>236.014882</ele>
        <time>2020-07-27T06:00:02.843Z</time>
      </trkpt>
      <trkpt lat="48.624109" lon="16.832516">
        <ele>235.959222</ele>
        <time>2020-07-27T06:00:04.803Z</time>
      </trkpt>
      <trkpt lat="48.624182" lon="16.832434">
        <ele>235.903100</ele>
        <time>2020-07-27T06:00:06.807Z</time>
      </trkpt>
      <trkpt lat="48.624259" lon="16.832359">
        <ele>235.846573</ele>
        <time>2020-07-27T06:00:08.801Z</time>
      </trkpt>
      <trkpt lat="48.624336" lon="16.832283">
        <ele>235.789825</ele>
        <time>2020-07-27T06:00:10.785Z</time>
      </trkpt>
      <trkpt lat="48.624411" lon="16.832206">
        <ele>235.723784</ele>
        <time>2020-07-27T06:00:12.810Z</time>
      </trkpt>
      <trkpt lat="48.624491" lon="16.832130">
        <ele>235.654337</ele>
        <time>2020-07-27T06:00:14.785Z</time>
      </trkpt>
      <trkpt lat="48.624549" lon="16.832013">
        <ele>235.583270</ele>
        <time>2020-07-27T06:00:16.793Z</time>
      </trkpt>
      <trkpt lat="48.624641" lon="16.831889">
        <ele>235.492687</ele>
        <time>2020-07-27T06:00:19.814Z</time>
      </trkpt>
      <trkpt lat="48.624743" lon="16.831780">
        <ele>235.400880</ele>
        <time>2020-07-27T06:00:22.816Z</time>
      </trkpt>
      <trkpt lat="48.624843" lon="16.831663">
        <ele>235.307944</ele>
        <time>2020-07-27T06:00:25.794Z</time>
      </trkpt>
      <trkpt lat="48.624918" lon="16.831581">
        <ele>235.239916</ele>
        <time>2020-07-27T06:00:27.810Z</time>
      </trkpt>
      <trkpt lat="48.625026" lon="16.831466">
        <ele>235.142824</ele>
        <time>2020-07-27T06:00:30.814Z</time>
      </trkpt>
      <trkpt lat="48.625136" lon="16.831349">
        <ele>235.043971</ele>
        <time>2020-07-27T06:00:33.801Z</time>
      </trkpt>
      <trkpt lat="48.625252" lon="16.831240">
        <ele>234.943582</ele>
        <time>2020-07-27T06:00:36.810Z</time>
      </trkpt>
      <trkpt lat="48.625327" lon="16.831159">
        <ele>234.875837</ele>
        <time>2020-07-27T06:00:38.783Z</time>
      </trkpt>
      <trkpt lat="48.625406" lon="16.831070">
        <ele>234.803426</ele>
        <time>2020-07-27T06:00:40.816Z</time>
      </trkpt>
      <trkpt lat="48.625484" lon="16.830976">
        <ele>234.730114</ele>
        <time>2020-07-27T06:00:42.802Z</time>
      </trkpt>
      <trkpt lat="48.625564" lon="16.830887">
        <ele>234.657112</ele>
        <time>2020-07-27T06:00:44.805Z</time>
      </trkpt>
      <trkpt lat="48.625640" lon="16.830806">
        <ele>234.588768</ele>
        <time>2020-07-27T06:00:46.818Z</time>
      </trkpt>
      <trkpt lat="48.625719" lon="16.830726">
        <ele>234.518881</ele>
        <time>2020-07-27T06:00:48.816Z</time>
      </trkpt>
      <trkpt lat="48.625803" lon="16.830657">
        <ele>234.460591</ele>
        <time>2020-07-27T06:00:50.809Z</time>
      </trkpt>
      <trkpt lat="48.625893" lon="16.830588">
        <ele>234.442630</ele>
        <time>2020-07-27T06:00:52.812Z</time>
      </trkpt>
      <trkpt lat="48.625984" lon="16.830520">
        <ele>234.424563</ele>
        <time>2020-07-27T06:00:54.805Z</time>
      </trkpt>
      <trkpt lat="48.626074" lon="16.830457">
        <ele>234.406911</ele>
        <time>2020-07-27T06:00:56.807Z</time>
      </trkpt>
      <trkpt lat="48.626165" lon="16.830391">
        <ele>234.388947</ele>
        <time>2020-07-27T06:00:58.791Z</time>
      </trkpt>
      <trkpt lat="48.626254" lon="16.830329">
        <ele>234.371505</ele>
        <time>2020-07-27T06:01:00.794Z</time>
      </trkpt>
      <trkpt lat="48.626343" lon="16.830272">
        <ele>234.354301</ele>
        <time>2020-07-27T06:01:02.798Z</time>
      </trkpt>
      <trkpt lat="48.626427" lon="16.830214">
        <ele>234.337865</ele>
        <time>2020-07-27T06:01:04.795Z</time>
      </trkpt>
      <trkpt lat="48.626521" lon="16.830166">
        <ele>234.320205</ele>
        <time>2020-07-27T06:01:06.788Z</time>
      </trkpt>
      <trkpt lat="48.626615" lon="16.830129">
        <ele>234.302915</ele>
        <time>2020-07-27T06:01:08.805Z</time>
      </trkpt>
      <trkpt lat="48.626711" lon="16.830100">
        <ele>234.285489</ele>
        <time>2020-07-27T06:01:10.802Z</time>
      </trkpt>
      <trkpt lat="48.626804" lon="16.830069">
        <ele>234.268537</ele>
        <time>2020-07-27T06:01:12.801Z</time>
      </trkpt>
      <trkpt lat="48.626896" lon="16.830038">
        <ele>234.251759</ele>
        <time>2020-07-27T06:01:14.791Z</time>
      </trkpt>
      <trkpt lat="48.626986" lon="16.830013">
        <ele>234.235470</ele>
        <time>2020-07-27T06:01:16.795Z</time>
      </trkpt>
      <trkpt lat="48.627076" lon="16.829989">
        <ele>234.219203</ele>
        <time>2020-07-27T06:01:18.822Z</time>
      </trkpt>
      <trkpt lat="48.627167" lon="16.829963">
        <ele>234.202718</ele>
        <time>2020-07-27T06:01:20.822Z</time>
      </trkpt>
      <trkpt lat="48.627261" lon="16.829929">
        <ele>234.185513</ele>
        <time>2020-07-27T06:01:22.821Z</time>
      </trkpt>
      <trkpt lat="48.627353" lon="16.829886">
        <ele>234.168373</ele>
        <time>2020-07-27T06:01:24.811Z</time>
      </trkpt>
      <trkpt lat="48.627477" lon="16.829819">
        <ele>234.144934</ele>
        <time>2020-07-27T06:01:27.815Z</time>
      </trkpt>
      <trkpt lat="48.627562" lon="16.829766">
        <ele>234.120328</ele>
        <time>2020-07-27T06:01:29.800Z</time>
      </trkpt>
      <trkpt lat="48.627647" lon="16.829708">
        <ele>234.095003</ele>
        <time>2020-07-27T06:01:31.784Z</time>
      </trkpt>
      <trkpt lat="48.627760" lon="16.829620">
        <ele>234.060485</ele>
        <time>2020-07-27T06:01:34.793Z</time>
      </trkpt>
      <trkpt lat="48.627870" lon="16.829522">
        <ele>234.025814</ele>
        <time>2020-07-27T06:01:37.789Z</time>
      </trkpt>
      <trkpt lat="48.627977" lon="16.829415">
        <ele>233.990979</ele>
        <time>2020-07-27T06:01:40.807Z</time>
      </trkpt>
      <trkpt lat="48.628087" lon="16.829307">
        <ele>233.955364</ele>
        <time>2020-07-27T06:01:43.792Z</time>
      </trkpt>
      <trkpt lat="48.628193" lon="16.829195">
        <ele>233.920249</ele>
        <time>2020-07-27T06:01:46.810Z</time>
      </trkpt>
      <trkpt lat="48.628290" lon="16.829078">
        <ele>233.886557</ele>
        <time>2020-07-27T06:01:49.792Z</time>
      </trkpt>
      <trkpt lat="48.628389" lon="16.828950">
        <ele>233.851188</ele>
        <time>2020-07-27T06:01:52.800Z</time>
      </trkpt>
      <trkpt lat="48.628486" lon="16.828815">
        <ele>233.815392</ele>
        <time>2020-07-27T06:01:55.796Z</time>
      </trkpt>
      <trkpt lat="48.628580" lon="16.828681">
        <ele>233.780315</ele>
        <time>2020-07-27T06:01:58.784Z</time>
      </trkpt>
      <trkpt lat="48.628674" lon="16.828542">
        <ele>233.744616</ele>
        <time>2020-07-27T06:02:01.801Z</time>
      </trkpt>
      <trkpt lat="48.628763" lon="16.828403">
        <ele>233.709876</ele>
        <time>2020-07-27T06:02:04.807Z</time>
      </trkpt>
      <trkpt lat="48.628857" lon="16.828260">
        <ele>233.673672</ele>
        <time>2020-07-27T06:02:07.784Z</time>
      </trkpt>
      <trkpt lat="48.628945" lon="16.828117">
        <ele>233.631076</ele>
        <time>2020-07-27T06:02:10.800Z</time>
      </trkpt>
      <trkpt lat="48.629030" lon="16.827978">
        <ele>233.582162</ele>
        <time>2020-07-27T06:02:13.800Z</time>
      </trkpt>
      <trkpt lat="48.629118" lon="16.827845">
        <ele>233.533551</ele>
        <time>2020-07-27T06:02:16.802Z</time>
      </trkpt>
      <trkpt lat="48.629209" lon="16.827709">
        <ele>233.483562</ele>
        <time>2020-07-27T06:02:19.778Z</time>
      </trkpt>
      <trkpt lat="48.629304" lon="16.827587">
        <ele>233.434864</ele>
        <time>2020-07-27T06:02:22.823Z</time>
      </trkpt>
      <trkpt lat="48.629407" lon="16.827460">
        <ele>233.382936</ele>
        <time>2020-07-27T06:02:25.827Z</time>
      </trkpt>
      <trkpt lat="48.629478" lon="16.827375">
        <ele>233.347552</ele>
        <time>2020-07-27T06:02:27.804Z</time>
      </trkpt>
      <trkpt lat="48.629583" lon="16.827253">
        <ele>233.295812</ele>
        <time>2020-07-27T06:02:30.791Z</time>
      </trkpt>
      <trkpt lat="48.629683" lon="16.827121">
        <ele>233.243948</ele>
        <time>2020-07-27T06:02:33.800Z</time>
      </trkpt>
      <trkpt lat="48.629779" lon="16.826985">
        <ele>233.192551</ele>
        <time>2020-07-27T06:02:36.784Z</time>
      </trkpt>
      <trkpt lat="48.629872" lon="16.826854">
        <ele>233.142892</ele>
        <time>2020-07-27T06:02:39.809Z</time>
      </trkpt>
      <trkpt lat="48.629964" lon="16.826721">
        <ele>233.093164</ele>
        <time>2020-07-27T06:02:42.805Z</time>
      </trkpt>
      <trkpt lat="48.630068" lon="16.826598">
        <ele>233.041575</ele>
        <time>2020-07-27T06:02:45.825Z</time>
      </trkpt>
      <trkpt lat="48.630147" lon="16.826529">
        <ele>233.005925</ele>
        <time>2020-07-27T06:02:47.781Z</time>
      </trkpt>
      <trkpt lat="48.630258" lon="16.826415">
        <ele>232.953495</ele>
        <time>2020-07-27T06:02:50.786Z</time>
      </trkpt>
      <trkpt lat="48.630326" lon="16.826322">
        <ele>232.925618</ele>
        <time>2020-07-27T06:02:52.792Z</time>
      </trkpt>
      <trkpt lat="48.630423" lon="16.826185">
        <ele>232.885491</ele>
        <time>2020-07-27T06:02:55.791Z</time>
      </trkpt>
      <trkpt lat="48.630528" lon="16.826064">
        <ele>232.845578</ele>
        <time>2020-07-27T06:02:58.796Z</time>
      </trkpt>
      <trkpt lat="48.630638" lon="16.825948">
        <ele>232.805032</ele>
        <time>2020-07-27T06:03:01.792Z</time>
      </trkpt>
      <trkpt lat="48.630746" lon="16.825838">
        <ele>232.765663</ele>
        <time>2020-07-27T06:03:04.800Z</time>
      </trkpt>
      <trkpt lat="48.630845" lon="16.825717">
        <ele>232.727178</ele>
        <time>2020-07-27T06:03:07.797Z</time>
      </trkpt>
      <trkpt lat="48.630949" lon="16.825592">
        <ele>232.687013</ele>
        <time>2020-07-27T06:03:10.792Z</time>
      </trkpt>
      <trkpt lat="48.631041" lon="16.825460">
        <ele>232.648673</ele>
        <time>2020-07-27T06:03:13.789Z</time>
      </trkpt>
      <trkpt lat="48.631131" lon="16.825327">
        <ele>232.610630</ele>
        <time>2020-07-27T06:03:16.803Z</time>
      </trkpt>
      <trkpt lat="48.631214" lon="16.825203">
        <ele>232.575357</ele>
        <time>2020-07-27T06:03:19.796Z</time>
      </trkpt>
      <trkpt lat="48.631300" lon="16.825080">
        <ele>232.539572</ele>
        <time>2020-07-27T06:03:22.800Z</time>
      </trkpt>
      <trkpt lat="48.631382" lon="16.824954">
        <ele>232.504230</ele>
        <time>2020-07-27T06:03:25.804Z</time>
      </trkpt>
      <trkpt lat="48.631468" lon="16.824830">
        <ele>232.468307</ele>
        <time>2020-07-27T06:03:28.801Z</time>
      </trkpt>
      <trkpt lat="48.631555" lon="16.824701">
        <ele>232.431471</ele>
        <time>2020-07-27T06:03:31.827Z</time>
      </trkpt>
      <trkpt lat="48.631637" lon="16.824564">
        <ele>232.400403</ele>
        <time>2020-07-27T06:03:34.800Z</time>
      </trkpt>
      <trkpt lat="48.631702" lon="16.824417">
        <ele>232.379518</ele>
        <time>2020-07-27T06:03:37.800Z</time>
      </trkpt>
      <trkpt lat="48.631746" lon="16.824244">
        <ele>232.357629</ele>
        <time>2020-07-27T06:03:40.810Z</time>
      </trkpt>
      <trkpt lat="48.631779" lon="16.824070">
        <ele>232.336254</ele>
        <time>2020-07-27T06:03:43.790Z</time>
      </trkpt>
      <trkpt lat="48.631826" lon="16.823901">
        <ele>232.314603</ele>
        <time>2020-07-27T06:03:46.790Z</time>
      </trkpt>
      <trkpt lat="48.631891" lon="16.823749">
        <ele>232.293225</ele>
        <time>2020-07-27T06:03:49.801Z</time>
      </trkpt>
      <trkpt lat="48.631954" lon="16.823601">
        <ele>232.272437</ele>
        <time>2020-07-27T06:03:52.782Z</time>
      </trkpt>
      <trkpt lat="48.632019" lon="16.823463">
        <ele>232.252427</ele>
        <time>2020-07-27T06:03:55.799Z</time>
      </trkpt>
      <trkpt lat="48.632089" lon="16.823327">
        <ele>232.232072</ele>
        <time>2020-07-27T06:03:58.805Z</time>
      </trkpt>
      <trkpt lat="48.632162" lon="16.823182">
        <ele>232.210549</ele>
        <time>2020-07-27T06:04:01.800Z</time>
      </trkpt>
      <trkpt lat="48.632225" lon="16.823025">
        <ele>232.188860</ele>
        <time>2020-07-27T06:04:04.792Z</time>
      </trkpt>
      <trkpt lat="48.632287" lon="16.822875">
        <ele>232.167969</ele>
        <time>2020-07-27T06:04:07.792Z</time>
      </trkpt>
      <trkpt lat="48.632351" lon="16.822733">
        <ele>232.147674</ele>
        <time>2020-07-27T06:04:10.791Z</time>
      </trkpt>
      <trkpt lat="48.632413" lon="16.822597">
        <ele>232.128165</ele>
        <time>2020-07-27T06:04:13.794Z</time>
      </trkpt>
      <trkpt lat="48.632469" lon="16.822457">
        <ele>232.108841</ele>
        <time>2020-07-27T06:04:16.782Z</time>
      </trkpt>
      <trkpt lat="48.632527" lon="16.822320">
        <ele>232.089630</ele>
        <time>2020-07-27T06:04:19.808Z</time>
      </trkpt>
      <trkpt lat="48.632589" lon="16.822192">
        <ele>232.104312</ele>
        <time>2020-07-27T06:04:22.824Z</time>
      </trkpt>
      <trkpt lat="48.632654" lon="16.822055">
        <ele>232.124425</ele>
        <time>2020-07-27T06:04:25.797Z</time>
      </trkpt>
      <trkpt lat="48.632725" lon="16.821928">
        <ele>232.144264</ele>
        <time>2020-07-27T06:04:28.794Z</time>
      </trkpt>
      <trkpt lat="48.632795" lon="16.821790">
        <ele>232.165011</ele>
        <time>2020-07-27T06:04:31.795Z</time>
      </trkpt>
      <trkpt lat="48.632855" lon="16.821653">
        <ele>232.184612</ele>
        <time>2020-07-27T06:04:34.798Z</time>
      </trkpt>
      <trkpt lat="48.632918" lon="16.821520">
        <ele>232.204127</ele>
        <time>2020-07-27T06:04:37.799Z</time>
      </trkpt>
      <trkpt lat="48.632979" lon="16.821387">
        <ele>232.223434</ele>
        <time>2020-07-27T06:04:40.822Z</time>
      </trkpt>
      <trkpt lat="48.633040" lon="16.821262">
        <ele>232.241966</ele>
        <time>2020-07-27T06:04:43.804Z</time>
      </trkpt>
      <trkpt lat="48.633099" lon="16.821143">
        <ele>232.259708</ele>
        <time>2020-07-27T06:04:46.781Z</time>
      </trkpt>
      <trkpt lat="48.633163" lon="16.821030">
        <ele>232.277456</ele>
        <time>2020-07-27T06:04:49.815Z</time>
      </trkpt>
      <trkpt lat="48.633233" lon="16.820898">
        <ele>232.297640</ele>
        <time>2020-07-27T06:04:52.809Z</time>
      </trkpt>
      <trkpt lat="48.633298" lon="16.820758">
        <ele>232.318045</ele>
        <time>2020-07-27T06:04:55.813Z</time>
      </trkpt>
      <trkpt lat="48.633364" lon="16.820614">
        <ele>232.338944</ele>
        <time>2020-07-27T06:04:58.794Z</time>
      </trkpt>
      <trkpt lat="48.633422" lon="16.820470">
        <ele>232.359056</ele>
        <time>2020-07-27T06:05:01.796Z</time>
      </trkpt>
      <trkpt lat="48.633490" lon="16.820324">
        <ele>232.380358</ele>
        <time>2020-07-27T06:05:04.806Z</time>
      </trkpt>
      <trkpt lat="48.633559" lon="16.820184">
        <ele>232.401186</ele>
        <time>2020-07-27T06:05:07.800Z</time>
      </trkpt>
      <trkpt lat="48.633625" lon="16.820037">
        <ele>232.437427</ele>
        <time>2020-07-27T06:05:10.797Z</time>
      </trkpt>
      <trkpt lat="48.633692" lon="16.819888">
        <ele>232.490375</ele>
        <time>2020-07-27T06:05:13.797Z</time>
      </trkpt>
      <trkpt lat="48.633758" lon="16.819750">
        <ele>232.540422</ele>
        <time>2020-07-27T06:05:16.826Z</time>
      </trkpt>
      <trkpt lat="48.633824" lon="16.819594">
        <ele>232.594841</ele>
        <time>2020-07-27T06:05:19.823Z</time>
      </trkpt>
      <trkpt lat="48.633889" lon="16.819450">
        <ele>232.646074</ele>
        <time>2020-07-27T06:05:22.786Z</time>
      </trkpt>
      <trkpt lat="48.633961" lon="16.819305">
        <ele>232.699359</ele>
        <time>2020-07-27T06:05:25.816Z</time>
      </trkpt>
      <trkpt lat="48.634022" lon="16.819164">
        <ele>232.748871</ele>
        <time>2020-07-27T06:05:28.800Z</time>
      </trkpt>
      <trkpt lat="48.634086" lon="16.819014">
        <ele>232.801326</ele>
        <time>2020-07-27T06:05:31.823Z</time>
      </trkpt>
      <trkpt lat="48.634155" lon="16.818868">
        <ele>232.854060</ele>
        <time>2020-07-27T06:05:34.801Z</time>
      </trkpt>
      <trkpt lat="48.634226" lon="16.818726">
        <ele>232.906373</ele>
        <time>2020-07-27T06:05:37.800Z</time>
      </trkpt>
      <trkpt lat="48.634289" lon="16.818584">
        <ele>232.956621</ele>
        <time>2020-07-27T06:05:40.809Z</time>
      </trkpt>
      <trkpt lat="48.634350" lon="16.818435">
        <ele>233.008115</ele>
        <time>2020-07-27T06:05:43.801Z</time>
      </trkpt>
      <trkpt lat="48.634418" lon="16.818280">
        <ele>233.062773</ele>
        <time>2020-07-27T06:05:46.791Z</time>
      </trkpt>
      <trkpt lat="48.634489" lon="16.818135">
        <ele>233.115792</ele>
        <time>2020-07-27T06:05:49.796Z</time>
      </trkpt>
      <trkpt lat="48.634546" lon="16.817997">
        <ele>233.163603</ele>
        <time>2020-07-27T06:05:52.809Z</time>
      </trkpt>
      <trkpt lat="48.634609" lon="16.817846">
        <ele>233.216569</ele>
        <time>2020-07-27T06:05:55.826Z</time>
      </trkpt>
      <trkpt lat="48.634665" lon="16.817703">
        <ele>233.271023</ele>
        <time>2020-07-27T06:05:58.800Z</time>
      </trkpt>
      <trkpt lat="48.634726" lon="16.817553">
        <ele>233.328722</ele>
        <time>2020-07-27T06:06:01.810Z</time>
      </trkpt>
      <trkpt lat="48.634782" lon="16.817402">
        <ele>233.385447</ele>
        <time>2020-07-27T06:06:04.822Z</time>
      </trkpt>
      <trkpt lat="48.634837" lon="16.817254">
        <ele>233.441072</ele>
        <time>2020-07-27T06:06:07.803Z</time>
      </trkpt>
      <trkpt lat="48.634888" lon="16.817118">
        <ele>233.492299</ele>
        <time>2020-07-27T06:06:10.796Z</time>
      </trkpt>
      <trkpt lat="48.634967" lon="16.816966">
        <ele>233.555649</ele>
        <time>2020-07-27T06:06:13.795Z</time>
      </trkpt>
      <trkpt lat="48.635048" lon="16.816829">
        <ele>233.615870</ele>
        <time>2020-07-27T06:06:16.798Z</time>
      </trkpt>
      <trkpt lat="48.635130" lon="16.816692">
        <ele>233.676423</ele>
        <time>2020-07-27T06:06:19.791Z</time>
      </trkpt>
      <trkpt lat="48.635213" lon="16.816567">
        <ele>233.734473</ele>
        <time>2020-07-27T06:06:22.805Z</time>
      </trkpt>
      <trkpt lat="48.635295" lon="16.816445">
        <ele>233.791479</ele>
        <time>2020-07-27T06:06:25.835Z</time>
      </trkpt>
      <trkpt lat="48.635385" lon="16.816336">
        <ele>233.848624</ele>
        <time>2020-07-27T06:06:28.796Z</time>
      </trkpt>
      <trkpt lat="48.635469" lon="16.816247">
        <ele>233.899457</ele>
        <time>2020-07-27T06:06:31.785Z</time>
      </trkpt>
      <trkpt lat="48.635562" lon="16.816151">
        <ele>233.955264</ele>
        <time>2020-07-27T06:06:34.809Z</time>
      </trkpt>
      <trkpt lat="48.635667" lon="16.816058">
        <ele>234.015576</ele>
        <time>2020-07-27T06:06:37.801Z</time>
      </trkpt>
      <trkpt lat="48.635763" lon="16.815982">
        <ele>234.069285</ele>
        <time>2020-07-27T06:06:40.794Z</time>
      </trkpt>
      <trkpt lat="48.635868" lon="16.815896">
        <ele>234.134588</ele>
        <time>2020-07-27T06:06:43.821Z</time>
      </trkpt>
      <trkpt lat="48.635967" lon="16.815807">
        <ele>234.205557</ele>
        <time>2020-07-27T06:06:46.809Z</time>
      </trkpt>
      <trkpt lat="48.636065" lon="16.815720">
        <ele>234.275582</ele>
        <time>2020-07-27T06:06:49.847Z</time>
      </trkpt>
      <trkpt lat="48.636151" lon="16.815631">
        <ele>234.339795</ele>
        <time>2020-07-27T06:06:52.835Z</time>
      </trkpt>
      <trkpt lat="48.636241" lon="16.815534">
        <ele>234.407893</ele>
        <time>2020-07-27T06:06:55.805Z</time>
      </trkpt>
      <trkpt lat="48.636349" lon="16.815430">
        <ele>234.486789</ele>
        <time>2020-07-27T06:06:58.791Z</time>
      </trkpt>
      <trkpt lat="48.636443" lon="16.815325">
        <ele>234.558796</ele>
        <time>2020-07-27T06:07:01.815Z</time>
      </trkpt>
      <trkpt lat="48.636532" lon="16.815228">
        <ele>234.626394</ele>
        <time>2020-07-27T06:07:04.813Z</time>
      </trkpt>
      <trkpt lat="48.636629" lon="16.815130">
        <ele>234.698276</ele>
        <time>2020-07-27T06:07:07.794Z</time>
      </trkpt>
      <trkpt lat="48.636733" lon="16.815030">
        <ele>234.774217</ele>
        <time>2020-07-27T06:07:10.789Z</time>
      </trkpt>
      <trkpt lat="48.636831" lon="16.814931">
        <ele>234.846837</ele>
        <time>2020-07-27T06:07:13.812Z</time>
      </trkpt>
      <trkpt lat="48.636920" lon="16.814836">
        <ele>234.913962</ele>
        <time>2020-07-27T06:07:16.800Z</time>
      </trkpt>
      <trkpt lat="48.637014" lon="16.814724">
        <ele>234.987697</ele>
        <time>2020-07-27T06:07:19.812Z</time>
      </trkpt>
      <trkpt lat="48.637098" lon="16.814610">
        <ele>235.057237</ele>
        <time>2020-07-27T06:07:22.802Z</time>
      </trkpt>
      <trkpt lat="48.637184" lon="16.814510">
        <ele>235.124080</ele>
        <time>2020-07-27T06:07:25.803Z</time>
      </trkpt>
      <trkpt lat="48.637271" lon="16.814406">
        <ele>235.192411</ele>
        <time>2020-07-27T06:07:28.807Z</time>
      </trkpt>
      <trkpt lat="48.637362" lon="16.814306">
        <ele>235.239894</ele>
        <time>2020-07-27T06:07:31.805Z</time>
      </trkpt>
      <trkpt lat="48.637461" lon="16.814211">
        <ele>235.280522</ele>
        <time>2020-07-27T06:07:34.793Z</time>
      </trkpt>
      <trkpt lat="48.637562" lon="16.814120">
        <ele>235.321260</ele>
        <time>2020-07-27T06:07:37.795Z</time>
      </trkpt>
      <trkpt lat="48.637661" lon="16.814030">
        <ele>235.361286</ele>
        <time>2020-07-27T06:07:40.804Z</time>
      </trkpt>
      <trkpt lat="48.637746" lon="16.813947">
        <ele>235.396345</ele>
        <time>2020-07-27T06:07:43.820Z</time>
      </trkpt>
      <trkpt lat="48.637847" lon="16.813853">
        <ele>235.437439</ele>
        <time>2020-07-27T06:07:46.806Z</time>
      </trkpt>
      <trkpt lat="48.637939" lon="16.813777">
        <ele>235.473765</ele>
        <time>2020-07-27T06:07:49.791Z</time>
      </trkpt>
      <trkpt lat="48.638033" lon="16.813694">
        <ele>235.511483</ele>
        <time>2020-07-27T06:07:52.780Z</time>
      </trkpt>
      <trkpt lat="48.638132" lon="16.813602">
        <ele>235.551747</ele>
        <time>2020-07-27T06:07:55.788Z</time>
      </trkpt>
      <trkpt lat="48.638226" lon="16.813519">
        <ele>235.589465</ele>
        <time>2020-07-27T06:07:58.805Z</time>
      </trkpt>
      <trkpt lat="48.638315" lon="16.813443">
        <ele>235.624882</ele>
        <time>2020-07-27T06:08:01.793Z</time>
      </trkpt>
      <trkpt lat="48.638404" lon="16.813368">
        <ele>235.660187</ele>
        <time>2020-07-27T06:08:04.806Z</time>
      </trkpt>
      <trkpt lat="48.638495" lon="16.813297">
        <ele>235.695670</ele>
        <time>2020-07-27T06:08:07.785Z</time>
      </trkpt>
      <trkpt lat="48.638594" lon="16.813224">
        <ele>235.733837</ele>
        <time>2020-07-27T06:08:10.798Z</time>
      </trkpt>
      <trkpt lat="48.638694" lon="16.813150">
        <ele>235.772416</ele>
        <time>2020-07-27T06:08:13.806Z</time>
      </trkpt>
      <trkpt lat="48.638789" lon="16.813077">
        <ele>235.809341</ele>
        <time>2020-07-27T06:08:16.813Z</time>
      </trkpt>
      <trkpt lat="48.638887" lon="16.812997">
        <ele>235.858555</ele>
        <time>2020-07-27T06:08:19.811Z</time>
      </trkpt>
      <trkpt lat="48.638983" lon="16.812909">
        <ele>235.929928</ele>
        <time>2020-07-27T06:08:22.825Z</time>
      </trkpt>
      <trkpt lat="48.639074" lon="16.812825">
        <ele>235.997711</ele>
        <time>2020-07-27T06:08:25.783Z</time>
      </trkpt>
      <trkpt lat="48.639159" lon="16.812736">
        <ele>236.063439</ele>
        <time>2020-07-27T06:08:28.801Z</time>
      </trkpt>
      <trkpt lat="48.639245" lon="16.812652">
        <ele>236.128529</ele>
        <time>2020-07-27T06:08:31.796Z</time>
      </trkpt>
      <trkpt lat="48.639337" lon="16.812568">
        <ele>236.196855</ele>
        <time>2020-07-27T06:08:34.793Z</time>
      </trkpt>
      <trkpt lat="48.639427" lon="16.812482">
        <ele>236.264541</ele>
        <time>2020-07-27T06:08:37.806Z</time>
      </trkpt>
      <trkpt lat="48.639517" lon="16.812400">
        <ele>236.331344</ele>
        <time>2020-07-27T06:08:40.794Z</time>
      </trkpt>
      <trkpt lat="48.639609" lon="16.812329">
        <ele>236.397016</ele>
        <time>2020-07-27T06:08:43.800Z</time>
      </trkpt>
      <trkpt lat="48.639690" lon="16.812255">
        <ele>236.457182</ele>
        <time>2020-07-27T06:08:46.782Z</time>
      </trkpt>
      <trkpt lat="48.639773" lon="16.812192">
        <ele>236.516229</ele>
        <time>2020-07-27T06:08:49.782Z</time>
      </trkpt>
      <trkpt lat="48.639857" lon="16.812106">
        <ele>236.580721</ele>
        <time>2020-07-27T06:08:52.817Z</time>
      </trkpt>
      <trkpt lat="48.639942" lon="16.812002">
        <ele>236.650229</ele>
        <time>2020-07-27T06:08:55.777Z</time>
      </trkpt>
      <trkpt lat="48.640026" lon="16.811911">
        <ele>236.715920</ele>
        <time>2020-07-27T06:08:58.786Z</time>
      </trkpt>
      <trkpt lat="48.640112" lon="16.811834">
        <ele>236.779463</ele>
        <time>2020-07-27T06:09:01.814Z</time>
      </trkpt>
      <trkpt lat="48.640196" lon="16.811758">
        <ele>236.841697</ele>
        <time>2020-07-27T06:09:04.810Z</time>
      </trkpt>
      <trkpt lat="48.640283" lon="16.811667">
        <ele>236.908949</ele>
        <time>2020-07-27T06:09:07.785Z</time>
      </trkpt>
      <trkpt lat="48.640365" lon="16.811578">
        <ele>236.973118</ele>
        <time>2020-07-27T06:09:10.808Z</time>
      </trkpt>
      <trkpt lat="48.640453" lon="16.811492">
        <ele>237.103807</ele>
        <time>2020-07-27T06:09:13.794Z</time>
      </trkpt>
      <trkpt lat="48.640537" lon="16.811395">
        <ele>237.241859</ele>
        <time>2020-07-27T06:09:16.802Z</time>
      </trkpt>
      <trkpt lat="48.640603" lon="16.811298">
        <ele>237.362063</ele>
        <time>2020-07-27T06:09:19.798Z</time>
      </trkpt>
      <trkpt lat="48.640701" lon="16.811191">
        <ele>237.519950</ele>
        <time>2020-07-27T06:09:22.786Z</time>
      </trkpt>
      <trkpt lat="48.640795" lon="16.811085">
        <ele>237.673111</ele>
        <time>2020-07-27T06:09:25.776Z</time>
      </trkpt>
      <trkpt lat="48.640878" lon="16.810970">
        <ele>237.820139</ele>
        <time>2020-07-27T06:09:28.796Z</time>
      </trkpt>
      <trkpt lat="48.640962" lon="16.810865">
        <ele>237.962486</ele>
        <time>2020-07-27T06:09:31.802Z</time>
      </trkpt>
      <trkpt lat="48.641052" lon="16.810756">
        <ele>238.113094</ele>
        <time>2020-07-27T06:09:34.803Z</time>
      </trkpt>
      <trkpt lat="48.641138" lon="16.810636">
        <ele>238.265928</ele>
        <time>2020-07-27T06:09:37.803Z</time>
      </trkpt>
      <trkpt lat="48.641221" lon="16.810510">
        <ele>238.419528</ele>
        <time>2020-07-27T06:09:40.791Z</time>
      </trkpt>
      <trkpt lat="48.641305" lon="16.810384">
        <ele>238.574053</ele>
        <time>2020-07-27T06:09:43.788Z</time>
      </trkpt>
      <trkpt lat="48.641390" lon="16.810257">
        <ele>238.730115</ele>
        <time>2020-07-27T06:09:46.797Z</time>
      </trkpt>
      <trkpt lat="48.641466" lon="16.810127">
        <ele>238.879968</ele>
        <time>2020-07-27T06:09:49.785Z</time>
      </trkpt>
      <trkpt lat="48.641542" lon="16.809998">
        <ele>239.029176</ele>
        <time>2020-07-27T06:09:52.797Z</time>
      </trkpt>
      <trkpt lat="48.641609" lon="16.809863">
        <ele>239.174939</ele>
        <time>2020-07-27T06:09:55.788Z</time>
      </trkpt>
      <trkpt lat="48.641674" lon="16.809726">
        <ele>239.320546</ele>
        <time>2020-07-27T06:09:58.792Z</time>
      </trkpt>
      <trkpt lat="48.641738" lon="16.809582">
        <ele>239.448219</ele>
        <time>2020-07-27T06:10:01.812Z</time>
      </trkpt>
      <trkpt lat="48.641799" lon="16.809443">
        <ele>239.569706</ele>
        <time>2020-07-27T06:10:04.810Z</time>
      </trkpt>
      <trkpt lat="48.641859" lon="16.809301">
        <ele>239.692422</ele>
        <time>2020-07-27T06:10:07.788Z</time>
      </trkpt>
      <trkpt lat="48.641922" lon="16.809152">
        <ele>239.821212</ele>
        <time>2020-07-27T06:10:10.780Z</time>
      </trkpt>
      <trkpt lat="48.641987" lon="16.809009">
        <ele>239.947580</ele>
        <time>2020-07-27T06:10:13.790Z</time>
      </trkpt>
      <trkpt lat="48.642050" lon="16.808857">
        <ele>240.078214</ele>
        <time>2020-07-27T06:10:16.802Z</time>
      </trkpt>
      <trkpt lat="48.642111" lon="16.808701">
        <ele>240.210189</ele>
        <time>2020-07-27T06:10:19.827Z</time>
      </trkpt>
      <trkpt lat="48.642168" lon="16.808543">
        <ele>240.341251</ele>
        <time>2020-07-27T06:10:22.779Z</time>
      </trkpt>
      <trkpt lat="48.642215" lon="16.808391">
        <ele>240.463433</ele>
        <time>2020-07-27T06:10:25.796Z</time>
      </trkpt>
      <trkpt lat="48.642255" lon="16.808247">
        <ele>240.577161</ele>
        <time>2020-07-27T06:10:28.809Z</time>
      </trkpt>
      <trkpt lat="48.642294" lon="16.808089">
        <ele>240.699958</ele>
        <time>2020-07-27T06:10:31.806Z</time>
      </trkpt>
      <trkpt lat="48.642339" lon="16.807931">
        <ele>240.825222</ele>
        <time>2020-07-27T06:10:34.789Z</time>
      </trkpt>
      <trkpt lat="48.642380" lon="16.807775">
        <ele>240.947453</ele>
        <time>2020-07-27T06:10:37.773Z</time>
      </trkpt>
      <trkpt lat="48.642420" lon="16.807609">
        <ele>241.076096</ele>
        <time>2020-07-27T06:10:40.798Z</time>
      </trkpt>
      <trkpt lat="48.642459" lon="16.807448">
        <ele>241.200941</ele>
        <time>2020-07-27T06:10:43.801Z</time>
      </trkpt>
      <trkpt lat="48.642500" lon="16.807282">
        <ele>241.333916</ele>
        <time>2020-07-27T06:10:46.784Z</time>
      </trkpt>
      <trkpt lat="48.642538" lon="16.807132">
        <ele>241.475009</ele>
        <time>2020-07-27T06:10:49.793Z</time>
      </trkpt>
      <trkpt lat="48.642583" lon="16.806963">
        <ele>241.635038</ele>
        <time>2020-07-27T06:10:52.806Z</time>
      </trkpt>
      <trkpt lat="48.642629" lon="16.806804">
        <ele>241.787484</ele>
        <time>2020-07-27T06:10:55.799Z</time>
      </trkpt>
      <trkpt lat="48.642668" lon="16.806639">
        <ele>241.941393</ele>
        <time>2020-07-27T06:10:58.785Z</time>
      </trkpt>
      <trkpt lat="48.642709" lon="16.806483">
        <ele>242.088845</ele>
        <time>2020-07-27T06:11:01.790Z</time>
      </trkpt>
      <trkpt lat="48.642750" lon="16.806320">
        <ele>242.242027</ele>
        <time>2020-07-27T06:11:04.809Z</time>
      </trkpt>
      <trkpt lat="48.642796" lon="16.806170">
        <ele>242.387267</ele>
        <time>2020-07-27T06:11:07.819Z</time>
      </trkpt>
      <trkpt lat="48.642829" lon="16.806004">
        <ele>242.539516</ele>
        <time>2020-07-27T06:11:10.784Z</time>
      </trkpt>
      <trkpt lat="48.642864" lon="16.805842">
        <ele>242.689210</ele>
        <time>2020-07-27T06:11:13.781Z</time>
      </trkpt>
      <trkpt lat="48.642905" lon="16.805680">
        <ele>242.841571</ele>
        <time>2020-07-27T06:11:16.781Z</time>
      </trkpt>
      <trkpt lat="48.642949" lon="16.805541">
        <ele>242.976938</ele>
        <time>2020-07-27T06:11:19.809Z</time>
      </trkpt>
      <trkpt lat="48.642990" lon="16.805407">
        <ele>243.106632</ele>
        <time>2020-07-27T06:11:22.794Z</time>
      </trkpt>
      <trkpt lat="48.643032" lon="16.805257">
        <ele>243.249714</ele>
        <time>2020-07-27T06:11:25.798Z</time>
      </trkpt>
      <trkpt lat="48.643072" lon="16.805090">
        <ele>243.405725</ele>
        <time>2020-07-27T06:11:28.793Z</time>
      </trkpt>
      <trkpt lat="48.643108" lon="16.804925">
        <ele>243.558337</ele>
        <time>2020-07-27T06:11:31.818Z</time>
      </trkpt>
      <trkpt lat="48.643146" lon="16.804766">
        <ele>243.705773</ele>
        <time>2020-07-27T06:11:34.794Z</time>
      </trkpt>
      <trkpt lat="48.643179" lon="16.804620">
        <ele>243.813789</ele>
        <time>2020-07-27T06:11:37.789Z</time>
      </trkpt>
      <trkpt lat="48.643216" lon="16.804473">
        <ele>243.923905</ele>
        <time>2020-07-27T06:11:40.800Z</time>
      </trkpt>
      <trkpt lat="48.643255" lon="16.804327">
        <ele>244.034142</ele>
        <time>2020-07-27T06:11:43.787Z</time>
      </trkpt>
      <trkpt lat="48.643290" lon="16.804181">
        <ele>244.142863</ele>
        <time>2020-07-27T06:11:46.791Z</time>
      </trkpt>
      <trkpt lat="48.643323" lon="16.804038">
        <ele>244.248894</ele>
        <time>2020-07-27T06:11:49.813Z</time>
      </trkpt>
      <trkpt lat="48.643361" lon="16.803893">
        <ele>244.358088</ele>
        <time>2020-07-27T06:11:52.819Z</time>
      </trkpt>
      <trkpt lat="48.643404" lon="16.803743">
        <ele>244.472546</ele>
        <time>2020-07-27T06:11:55.798Z</time>
      </trkpt>
      <trkpt lat="48.643458" lon="16.803617">
        <ele>244.577676</ele>
        <time>2020-07-27T06:11:58.791Z</time>
      </trkpt>
      <trkpt lat="48.643506" lon="16.803478">
        <ele>244.687465</ele>
        <time>2020-07-27T06:12:01.783Z</time>
      </trkpt>
      <trkpt lat="48.643556" lon="16.803335">
        <ele>244.800718</ele>
        <time>2020-07-27T06:12:04.814Z</time>
      </trkpt>
      <trkpt lat="48.643611" lon="16.803185">
        <ele>244.920803</ele>
        <time>2020-07-27T06:12:07.769Z</time>
      </trkpt>
      <trkpt lat="48.643667" lon="16.803047">
        <ele>245.034168</ele>
        <time>2020-07-27T06:12:10.819Z</time>
      </trkpt>
      <trkpt lat="48.643719" lon="16.802925">
        <ele>245.135796</ele>
        <time>2020-07-27T06:12:13.783Z</time>
      </trkpt>
      <trkpt lat="48.643772" lon="16.802808">
        <ele>245.235096</ele>
        <time>2020-07-27T06:12:16.785Z</time>
      </trkpt>
      <trkpt lat="48.643831" lon="16.802687">
        <ele>245.340364</ele>
        <time>2020-07-27T06:12:19.818Z</time>
      </trkpt>
      <trkpt lat="48.643884" lon="16.802563">
        <ele>245.443742</ele>
        <time>2020-07-27T06:12:22.800Z</time>
      </trkpt>
      <trkpt lat="48.643934" lon="16.802430">
        <ele>245.550857</ele>
        <time>2020-07-27T06:12:25.789Z</time>
      </trkpt>
      <trkpt lat="48.643982" lon="16.802287">
        <ele>245.684203</ele>
        <time>2020-07-27T06:12:28.765Z</time>
      </trkpt>
      <trkpt lat="48.644030" lon="16.802142">
        <ele>245.840439</ele>
        <time>2020-07-27T06:12:31.825Z</time>
      </trkpt>
      <trkpt lat="48.644073" lon="16.802004">
        <ele>245.987423</ele>
        <time>2020-07-27T06:12:34.784Z</time>
      </trkpt>
      <trkpt lat="48.644116" lon="16.801870">
        <ele>246.130930</ele>
        <time>2020-07-27T06:12:37.791Z</time>
      </trkpt>
      <trkpt lat="48.644157" lon="16.801734">
        <ele>246.274939</ele>
        <time>2020-07-27T06:12:40.790Z</time>
      </trkpt>
      <trkpt lat="48.644196" lon="16.801574">
        <ele>246.439228</ele>
        <time>2020-07-27T06:12:43.792Z</time>
      </trkpt>
      <trkpt lat="48.644235" lon="16.801414">
        <ele>246.603518</ele>
        <time>2020-07-27T06:12:46.799Z</time>
      </trkpt>
      <trkpt lat="48.644273" lon="16.801266">
        <ele>246.756479</ele>
        <time>2020-07-27T06:12:49.784Z</time>
      </trkpt>
      <trkpt lat="48.644309" lon="16.801135">
        <ele>246.893158</ele>
        <time>2020-07-27T06:12:52.793Z</time>
      </trkpt>
      <trkpt lat="48.644341" lon="16.800987">
        <ele>247.043172</ele>
        <time>2020-07-27T06:12:55.798Z</time>
      </trkpt>
      <trkpt lat="48.644363" lon="16.800830">
        <ele>247.197781</ele>
        <time>2020-07-27T06:12:58.763Z</time>
      </trkpt>
      <trkpt lat="48.644376" lon="16.800669">
        <ele>247.354033</ele>
        <time>2020-07-27T06:13:01.779Z</time>
      </trkpt>
      <trkpt lat="48.644398" lon="16.800505">
        <ele>247.515245</ele>
        <time>2020-07-27T06:13:04.792Z</time>
      </trkpt>
      <trkpt lat="48.644423" lon="16.800350">
        <ele>247.668948</ele>
        <time>2020-07-27T06:13:07.789Z</time>
      </trkpt>
      <trkpt lat="48.644441" lon="16.800192">
        <ele>247.823402</ele>
        <time>2020-07-27T06:13:10.797Z</time>
      </trkpt>
      <trkpt lat="48.644452" lon="16.800031">
        <ele>247.979327</ele>
        <time>2020-07-27T06:13:13.778Z</time>
      </trkpt>
      <trkpt lat="48.644472" lon="16.799859">
        <ele>248.147568</ele>
        <time>2020-07-27T06:13:16.794Z</time>
      </trkpt>
      <trkpt lat="48.644499" lon="16.799711">
        <ele>248.307520</ele>
        <time>2020-07-27T06:13:19.800Z</time>
      </trkpt>
      <trkpt lat="48.644526" lon="16.799542">
        <ele>248.505614</ele>
        <time>2020-07-27T06:13:22.778Z</time>
      </trkpt>
      <trkpt lat="48.644553" lon="16.799371">
        <ele>248.705923</ele>
        <time>2020-07-27T06:13:25.806Z</time>
      </trkpt>
      <trkpt lat="48.644576" lon="16.799224">
        <ele>248.878034</ele>
        <time>2020-07-27T06:13:28.802Z</time>
      </trkpt>
      <trkpt lat="48.644608" lon="16.799067">
        <ele>249.065225</ele>
        <time>2020-07-27T06:13:31.793Z</time>
      </trkpt>
      <trkpt lat="48.644640" lon="16.798900">
        <ele>249.263330</ele>
        <time>2020-07-27T06:13:34.783Z</time>
      </trkpt>
      <trkpt lat="48.644660" lon="16.798729">
        <ele>249.461182</ele>
        <time>2020-07-27T06:13:37.783Z</time>
      </trkpt>
      <trkpt lat="48.644681" lon="16.798591">
        <ele>249.622523</ele>
        <time>2020-07-27T06:13:39.774Z</time>
      </trkpt>
      <trkpt lat="48.644699" lon="16.798438">
        <ele>249.799580</ele>
        <time>2020-07-27T06:13:41.775Z</time>
      </trkpt>
      <trkpt lat="48.644713" lon="16.798292">
        <ele>249.967663</ele>
        <time>2020-07-27T06:13:43.806Z</time>
      </trkpt>
      <trkpt lat="48.644722" lon="16.798149">
        <ele>250.131322</ele>
        <time>2020-07-27T06:13:45.781Z</time>
      </trkpt>
      <trkpt lat="48.644729" lon="16.798013">
        <ele>250.286738</ele>
        <time>2020-07-27T06:13:47.788Z</time>
      </trkpt>
      <trkpt lat="48.644736" lon="16.797815">
        <ele>250.512645</ele>
        <time>2020-07-27T06:13:50.792Z</time>
      </trkpt>
      <trkpt lat="48.644764" lon="16.797428">
        <ele>250.956195</ele>
        <time>2020-07-27T06:14:14.781Z</time>
      </trkpt>
      <trkpt lat="48.644746" lon="16.797271">
        <ele>251.137740</ele>
        <time>2020-07-27T06:14:17.812Z</time>
      </trkpt>
      <trkpt lat="48.644739" lon="16.797095">
        <ele>251.336953</ele>
        <time>2020-07-27T06:14:20.782Z</time>
      </trkpt>
      <trkpt lat="48.644743" lon="16.796929">
        <ele>251.484672</ele>
        <time>2020-07-27T06:14:23.809Z</time>
      </trkpt>
      <trkpt lat="48.644741" lon="16.796758">
        <ele>251.636763</ele>
        <time>2020-07-27T06:14:26.791Z</time>
      </trkpt>
      <trkpt lat="48.644733" lon="16.796590">
        <ele>251.786550</ele>
        <time>2020-07-27T06:14:29.801Z</time>
      </trkpt>
      <trkpt lat="48.644730" lon="16.796454">
        <ele>251.907560</ele>
        <time>2020-07-27T06:14:32.808Z</time>
      </trkpt>
      <trkpt lat="48.644756" lon="16.796291">
        <ele>252.056677</ele>
        <time>2020-07-27T06:14:36.777Z</time>
      </trkpt>
      <trkpt lat="48.644763" lon="16.796102">
        <ele>252.225016</ele>
        <time>2020-07-27T06:14:39.820Z</time>
      </trkpt>
      <trkpt lat="48.644770" lon="16.795955">
        <ele>252.356079</ele>
        <time>2020-07-27T06:14:41.789Z</time>
      </trkpt>
      <trkpt lat="48.644773" lon="16.795799">
        <ele>252.494866</ele>
        <time>2020-07-27T06:14:43.798Z</time>
      </trkpt>
      <trkpt lat="48.644770" lon="16.795635">
        <ele>252.640764</ele>
        <time>2020-07-27T06:14:45.825Z</time>
      </trkpt>
      <trkpt lat="48.644760" lon="16.795458">
        <ele>252.798742</ele>
        <time>2020-07-27T06:14:47.788Z</time>
      </trkpt>
      <trkpt lat="48.644748" lon="16.795276">
        <ele>252.961395</ele>
        <time>2020-07-27T06:14:49.781Z</time>
      </trkpt>
      <trkpt lat="48.644738" lon="16.795091">
        <ele>253.126462</ele>
        <time>2020-07-27T06:14:51.776Z</time>
      </trkpt>
      <trkpt lat="48.644728" lon="16.794908">
        <ele>253.289757</ele>
        <time>2020-07-27T06:14:53.785Z</time>
      </trkpt>
      <trkpt lat="48.644720" lon="16.794732">
        <ele>253.446640</ele>
        <time>2020-07-27T06:14:55.801Z</time>
      </trkpt>
      <trkpt lat="48.644726" lon="16.794570">
        <ele>253.590931</ele>
        <time>2020-07-27T06:14:57.777Z</time>
      </trkpt>
      <trkpt lat="48.644732" lon="16.794421">
        <ele>253.723680</ele>
        <time>2020-07-27T06:14:59.776Z</time>
      </trkpt>
      <trkpt lat="48.644734" lon="16.794281">
        <ele>253.770607</ele>
        <time>2020-07-27T06:15:01.780Z</time>
      </trkpt>
      <trkpt lat="48.644739" lon="16.794078">
        <ele>253.805786</ele>
        <time>2020-07-27T06:15:04.790Z</time>
      </trkpt>
      <trkpt lat="48.644740" lon="16.793882">
        <ele>253.839729</ele>
        <time>2020-07-27T06:15:07.779Z</time>
      </trkpt>
      <trkpt lat="48.644739" lon="16.793737">
        <ele>253.864840</ele>
        <time>2020-07-27T06:15:09.780Z</time>
      </trkpt>
      <trkpt lat="48.644731" lon="16.793579">
        <ele>253.892282</ele>
        <time>2020-07-27T06:15:11.770Z</time>
      </trkpt>
      <trkpt lat="48.644713" lon="16.793397">
        <ele>253.924151</ele>
        <time>2020-07-27T06:15:13.787Z</time>
      </trkpt>
      <trkpt lat="48.644693" lon="16.793224">
        <ele>253.954565</ele>
        <time>2020-07-27T06:15:15.792Z</time>
      </trkpt>
      <trkpt lat="48.644638" lon="16.793115">
        <ele>253.978316</ele>
        <time>2020-07-27T06:15:17.803Z</time>
      </trkpt>
      <trkpt lat="48.644540" lon="16.793104">
        <ele>254.004071</ele>
        <time>2020-07-27T06:15:20.776Z</time>
      </trkpt>
      <trkpt lat="48.644451" lon="16.793127">
        <ele>254.027735</ele>
        <time>2020-07-27T06:15:24.810Z</time>
      </trkpt>
      <trkpt lat="48.644344" lon="16.793160">
        <ele>254.056356</ele>
        <time>2020-07-27T06:15:29.796Z</time>
      </trkpt>
      <trkpt lat="48.644238" lon="16.793164">
        <ele>254.084147</ele>
        <time>2020-07-27T06:15:33.781Z</time>
      </trkpt>
      <trkpt lat="48.644145" lon="16.793144">
        <ele>254.108766</ele>
        <time>2020-07-27T06:15:36.776Z</time>
      </trkpt>
      <trkpt lat="48.644034" lon="16.793101">
        <ele>254.138797</ele>
        <time>2020-07-27T06:15:40.795Z</time>
      </trkpt>
      <trkpt lat="48.643931" lon="16.793052">
        <ele>254.167095</ele>
        <time>2020-07-27T06:15:44.810Z</time>
      </trkpt>
      <trkpt lat="48.643844" lon="16.793000">
        <ele>254.191611</ele>
        <time>2020-07-27T06:15:47.787Z</time>
      </trkpt>
      <trkpt lat="48.643752" lon="16.792948">
        <ele>254.217350</ele>
        <time>2020-07-27T06:15:50.798Z</time>
      </trkpt>
      <trkpt lat="48.643657" lon="16.792898">
        <ele>254.328932</ele>
        <time>2020-07-27T06:15:53.794Z</time>
      </trkpt>
      <trkpt lat="48.643553" lon="16.792860">
        <ele>254.473799</ele>
        <time>2020-07-27T06:15:56.793Z</time>
      </trkpt>
      <trkpt lat="48.643456" lon="16.792805">
        <ele>254.614058</ele>
        <time>2020-07-27T06:15:59.789Z</time>
      </trkpt>
      <trkpt lat="48.643362" lon="16.792744">
        <ele>254.752546</ele>
        <time>2020-07-27T06:16:02.799Z</time>
      </trkpt>
      <trkpt lat="48.643274" lon="16.792686">
        <ele>254.882512</ele>
        <time>2020-07-27T06:16:05.789Z</time>
      </trkpt>
      <trkpt lat="48.643185" lon="16.792631">
        <ele>255.012682</ele>
        <time>2020-07-27T06:16:08.792Z</time>
      </trkpt>
      <trkpt lat="48.643084" lon="16.792582">
        <ele>255.156297</ele>
        <time>2020-07-27T06:16:11.784Z</time>
      </trkpt>
      <trkpt lat="48.642979" lon="16.792529">
        <ele>255.306172</ele>
        <time>2020-07-27T06:16:14.795Z</time>
      </trkpt>
      <trkpt lat="48.642857" lon="16.792459">
        <ele>255.482840</ele>
        <time>2020-07-27T06:16:17.789Z</time>
      </trkpt>
      <trkpt lat="48.642759" lon="16.792398">
        <ele>255.626322</ele>
        <time>2020-07-27T06:16:20.795Z</time>
      </trkpt>
      <trkpt lat="48.642662" lon="16.792349">
        <ele>255.764789</ele>
        <time>2020-07-27T06:16:23.779Z</time>
      </trkpt>
      <trkpt lat="48.642562" lon="16.792287">
        <ele>255.911117</ele>
        <time>2020-07-27T06:16:26.796Z</time>
      </trkpt>
      <trkpt lat="48.642467" lon="16.792227">
        <ele>256.050504</ele>
        <time>2020-07-27T06:16:29.774Z</time>
      </trkpt>
      <trkpt lat="48.642370" lon="16.792173">
        <ele>256.190451</ele>
        <time>2020-07-27T06:16:32.783Z</time>
      </trkpt>
      <trkpt lat="48.642279" lon="16.792122">
        <ele>256.321848</ele>
        <time>2020-07-27T06:16:35.795Z</time>
      </trkpt>
      <trkpt lat="48.642168" lon="16.792054">
        <ele>256.483995</ele>
        <time>2020-07-27T06:16:38.780Z</time>
      </trkpt>
      <trkpt lat="48.642058" lon="16.791992">
        <ele>256.642935</ele>
        <time>2020-07-27T06:16:41.828Z</time>
      </trkpt>
      <trkpt lat="48.641947" lon="16.791945">
        <ele>256.825989</ele>
        <time>2020-07-27T06:16:44.786Z</time>
      </trkpt>
      <trkpt lat="48.641839" lon="16.791899">
        <ele>257.007127</ele>
        <time>2020-07-27T06:16:47.784Z</time>
      </trkpt>
      <trkpt lat="48.641735" lon="16.791851">
        <ele>257.182667</ele>
        <time>2020-07-27T06:16:50.806Z</time>
      </trkpt>
      <trkpt lat="48.641632" lon="16.791796">
        <ele>257.359007</ele>
        <time>2020-07-27T06:16:53.785Z</time>
      </trkpt>
      <trkpt lat="48.641526" lon="16.791749">
        <ele>257.537336</ele>
        <time>2020-07-27T06:16:56.818Z</time>
      </trkpt>
      <trkpt lat="48.641416" lon="16.791703">
        <ele>257.721584</ele>
        <time>2020-07-27T06:16:59.775Z</time>
      </trkpt>
      <trkpt lat="48.641307" lon="16.791647">
        <ele>257.907427</ele>
        <time>2020-07-27T06:17:02.784Z</time>
      </trkpt>
      <trkpt lat="48.641205" lon="16.791596">
        <ele>258.080859</ele>
        <time>2020-07-27T06:17:05.792Z</time>
      </trkpt>
      <trkpt lat="48.641093" lon="16.791555">
        <ele>258.266896</ele>
        <time>2020-07-27T06:17:08.781Z</time>
      </trkpt>
      <trkpt lat="48.640978" lon="16.791487">
        <ele>258.466230</ele>
        <time>2020-07-27T06:17:11.772Z</time>
      </trkpt>
      <trkpt lat="48.640891" lon="16.791442">
        <ele>258.614667</ele>
        <time>2020-07-27T06:17:13.796Z</time>
      </trkpt>
      <trkpt lat="48.640802" lon="16.791385">
        <ele>258.770694</ele>
        <time>2020-07-27T06:17:15.781Z</time>
      </trkpt>
      <trkpt lat="48.640710" lon="16.791333">
        <ele>258.929247</ele>
        <time>2020-07-27T06:17:17.798Z</time>
      </trkpt>
      <trkpt lat="48.640611" lon="16.791281">
        <ele>259.098434</ele>
        <time>2020-07-27T06:17:19.772Z</time>
      </trkpt>
      <trkpt lat="48.640524" lon="16.791240">
        <ele>259.245547</ele>
        <time>2020-07-27T06:17:31.785Z</time>
      </trkpt>
      <trkpt lat="48.640409" lon="16.791162">
        <ele>259.449007</ele>
        <time>2020-07-27T06:18:03.783Z</time>
      </trkpt>
      <trkpt lat="48.640287" lon="16.791104">
        <ele>259.572044</ele>
        <time>2020-07-27T06:18:06.759Z</time>
      </trkpt>
      <trkpt lat="48.640191" lon="16.791053">
        <ele>259.588751</ele>
        <time>2020-07-27T06:18:08.784Z</time>
      </trkpt>
      <trkpt lat="48.640085" lon="16.790998">
        <ele>259.607151</ele>
        <time>2020-07-27T06:18:10.786Z</time>
      </trkpt>
      <trkpt lat="48.639972" lon="16.790949">
        <ele>259.626453</ele>
        <time>2020-07-27T06:18:12.792Z</time>
      </trkpt>
      <trkpt lat="48.639886" lon="16.790908">
        <ele>259.641259</ele>
        <time>2020-07-27T06:18:13.785Z</time>
      </trkpt>
      <trkpt lat="48.639746" lon="16.790841">
        <ele>259.665369</ele>
        <time>2020-07-27T06:18:15.768Z</time>
      </trkpt>
      <trkpt lat="48.639618" lon="16.790781">
        <ele>259.687372</ele>
        <time>2020-07-27T06:18:17.805Z</time>
      </trkpt>
      <trkpt lat="48.639494" lon="16.790708">
        <ele>259.709220</ele>
        <time>2020-07-27T06:18:19.823Z</time>
      </trkpt>
      <trkpt lat="48.639372" lon="16.790642">
        <ele>259.730494</ele>
        <time>2020-07-27T06:18:21.786Z</time>
      </trkpt>
      <trkpt lat="48.639245" lon="16.790590">
        <ele>259.752098</ele>
        <time>2020-07-27T06:18:23.796Z</time>
      </trkpt>
      <trkpt lat="48.639123" lon="16.790520">
        <ele>259.773522</ele>
        <time>2020-07-27T06:18:25.780Z</time>
      </trkpt>
      <trkpt lat="48.638999" lon="16.790451">
        <ele>259.795216</ele>
        <time>2020-07-27T06:18:27.808Z</time>
      </trkpt>
      <trkpt lat="48.638877" lon="16.790384">
        <ele>259.816527</ele>
        <time>2020-07-27T06:18:29.776Z</time>
      </trkpt>
      <trkpt lat="48.638756" lon="16.790322">
        <ele>259.837504</ele>
        <time>2020-07-27T06:18:31.792Z</time>
      </trkpt>
      <trkpt lat="48.638638" lon="16.790258">
        <ele>259.858083</ele>
        <time>2020-07-27T06:18:33.787Z</time>
      </trkpt>
      <trkpt lat="48.638522" lon="16.790198">
        <ele>259.877663</ele>
        <time>2020-07-27T06:18:35.766Z</time>
      </trkpt>
      <trkpt lat="48.638407" lon="16.790137">
        <ele>259.897127</ele>
        <time>2020-07-27T06:18:37.786Z</time>
      </trkpt>
      <trkpt lat="48.638296" lon="16.790074">
        <ele>259.916062</ele>
        <time>2020-07-27T06:18:39.770Z</time>
      </trkpt>
      <trkpt lat="48.638186" lon="16.790010">
        <ele>259.934886</ele>
        <time>2020-07-27T06:18:41.811Z</time>
      </trkpt>
      <trkpt lat="48.638077" lon="16.789947">
        <ele>259.953522</ele>
        <time>2020-07-27T06:18:43.801Z</time>
      </trkpt>
      <trkpt lat="48.637966" lon="16.789891">
        <ele>259.972211</ele>
        <time>2020-07-27T06:18:45.788Z</time>
      </trkpt>
      <trkpt lat="48.637857" lon="16.789840">
        <ele>259.990434</ele>
        <time>2020-07-27T06:18:47.796Z</time>
      </trkpt>
      <trkpt lat="48.637750" lon="16.789792">
        <ele>260.008259</ele>
        <time>2020-07-27T06:18:49.800Z</time>
      </trkpt>
      <trkpt lat="48.637645" lon="16.789737">
        <ele>260.026007</ele>
        <time>2020-07-27T06:18:51.828Z</time>
      </trkpt>
      <trkpt lat="48.637539" lon="16.789680">
        <ele>260.043975</ele>
        <time>2020-07-27T06:18:53.791Z</time>
      </trkpt>
      <trkpt lat="48.637438" lon="16.789629">
        <ele>260.060981</ele>
        <time>2020-07-27T06:18:55.797Z</time>
      </trkpt>
      <trkpt lat="48.637339" lon="16.789571">
        <ele>260.077937</ele>
        <time>2020-07-27T06:18:57.789Z</time>
      </trkpt>
      <trkpt lat="48.637242" lon="16.789512">
        <ele>260.094635</ele>
        <time>2020-07-27T06:18:59.786Z</time>
      </trkpt>
      <trkpt lat="48.637146" lon="16.789460">
        <ele>260.110921</ele>
        <time>2020-07-27T06:19:01.795Z</time>
      </trkpt>
      <trkpt lat="48.637052" lon="16.789405">
        <ele>260.127019</ele>
        <time>2020-07-27T06:19:03.811Z</time>
      </trkpt>
      <trkpt lat="48.636962" lon="16.789355">
        <ele>260.142332</ele>
        <time>2020-07-27T06:19:05.782Z</time>
      </trkpt>
      <trkpt lat="48.636871" lon="16.789304">
        <ele>260.422525</ele>
        <time>2020-07-27T06:19:07.790Z</time>
      </trkpt>
      <trkpt lat="48.636781" lon="16.789259">
        <ele>260.755623</ele>
        <time>2020-07-27T06:19:09.789Z</time>
      </trkpt>
      <trkpt lat="48.636692" lon="16.789210">
        <ele>261.088447</ele>
        <time>2020-07-27T06:19:11.802Z</time>
      </trkpt>
      <trkpt lat="48.636604" lon="16.789162">
        <ele>261.417176</ele>
        <time>2020-07-27T06:19:13.803Z</time>
      </trkpt>
      <trkpt lat="48.636518" lon="16.789117">
        <ele>261.736957</ele>
        <time>2020-07-27T06:19:15.800Z</time>
      </trkpt>
      <trkpt lat="48.636432" lon="16.789071">
        <ele>262.057506</ele>
        <time>2020-07-27T06:19:17.789Z</time>
      </trkpt>
      <trkpt lat="48.636347" lon="16.789025">
        <ele>262.374743</ele>
        <time>2020-07-27T06:19:19.796Z</time>
      </trkpt>
      <trkpt lat="48.636220" lon="16.788958">
        <ele>262.847395</ele>
        <time>2020-07-27T06:19:22.820Z</time>
      </trkpt>
      <trkpt lat="48.636095" lon="16.788892">
        <ele>263.312646</ele>
        <time>2020-07-27T06:19:25.787Z</time>
      </trkpt>
      <trkpt lat="48.635981" lon="16.788835">
        <ele>263.734571</ele>
        <time>2020-07-27T06:19:28.805Z</time>
      </trkpt>
      <trkpt lat="48.635878" lon="16.788787">
        <ele>264.113313</ele>
        <time>2020-07-27T06:19:31.781Z</time>
      </trkpt>
      <trkpt lat="48.635839" lon="16.788742">
        <ele>264.285666</ele>
        <time>2020-07-27T06:19:45.864Z</time>
      </trkpt>
      <trkpt lat="48.635732" lon="16.788722">
        <ele>264.664546</ele>
        <time>2020-07-27T06:21:38.804Z</time>
      </trkpt>
      <trkpt lat="48.635635" lon="16.788711">
        <ele>265.006382</ele>
        <time>2020-07-27T06:21:41.783Z</time>
      </trkpt>
      <trkpt lat="48.635549" lon="16.788659">
        <ele>265.331840</ele>
        <time>2020-07-27T06:21:43.799Z</time>
      </trkpt>
      <trkpt lat="48.635447" lon="16.788600">
        <ele>265.715587</ele>
        <time>2020-07-27T06:21:45.793Z</time>
      </trkpt>
      <trkpt lat="48.635326" lon="16.788543">
        <ele>266.160937</ele>
        <time>2020-07-27T06:21:47.790Z</time>
      </trkpt>
      <trkpt lat="48.635192" lon="16.788485">
        <ele>266.416392</ele>
        <time>2020-07-27T06:21:49.830Z</time>
      </trkpt>
      <trkpt lat="48.635054" lon="16.788409">
        <ele>266.277543</ele>
        <time>2020-07-27T06:21:51.788Z</time>
      </trkpt>
      <trkpt lat="48.634914" lon="16.788323">
        <ele>266.134686</ele>
        <time>2020-07-27T06:21:53.776Z</time>
      </trkpt>
      <trkpt lat="48.634776" lon="16.788246">
        <ele>265.995622</ele>
        <time>2020-07-27T06:21:55.779Z</time>
      </trkpt>
      <trkpt lat="48.634637" lon="16.788176">
        <ele>265.857114</ele>
        <time>2020-07-27T06:21:57.782Z</time>
      </trkpt>
      <trkpt lat="48.634509" lon="16.788089">
        <ele>265.724445</ele>
        <time>2020-07-27T06:21:59.807Z</time>
      </trkpt>
      <trkpt lat="48.634380" lon="16.788020">
        <ele>265.595083</ele>
        <time>2020-07-27T06:22:01.782Z</time>
      </trkpt>
      <trkpt lat="48.634252" lon="16.787956">
        <ele>265.467627</ele>
        <time>2020-07-27T06:22:03.776Z</time>
      </trkpt>
      <trkpt lat="48.634126" lon="16.787889">
        <ele>265.341355</ele>
        <time>2020-07-27T06:22:05.817Z</time>
      </trkpt>
      <trkpt lat="48.634003" lon="16.787820">
        <ele>265.217327</ele>
        <time>2020-07-27T06:22:07.783Z</time>
      </trkpt>
      <trkpt lat="48.633883" lon="16.787757">
        <ele>265.097235</ele>
        <time>2020-07-27T06:22:09.808Z</time>
      </trkpt>
      <trkpt lat="48.633766" lon="16.787693">
        <ele>264.979608</ele>
        <time>2020-07-27T06:22:11.787Z</time>
      </trkpt>
      <trkpt lat="48.633648" lon="16.787634">
        <ele>264.862109</ele>
        <time>2020-07-27T06:22:13.779Z</time>
      </trkpt>
      <trkpt lat="48.633531" lon="16.787576">
        <ele>264.714107</ele>
        <time>2020-07-27T06:22:15.807Z</time>
      </trkpt>
      <trkpt lat="48.633417" lon="16.787513">
        <ele>264.416209</ele>
        <time>2020-07-27T06:22:17.795Z</time>
      </trkpt>
      <trkpt lat="48.633304" lon="16.787453">
        <ele>264.122261</ele>
        <time>2020-07-27T06:22:19.807Z</time>
      </trkpt>
      <trkpt lat="48.633191" lon="16.787399">
        <ele>263.831392</ele>
        <time>2020-07-27T06:22:21.805Z</time>
      </trkpt>
      <trkpt lat="48.633081" lon="16.787340">
        <ele>263.544928</ele>
        <time>2020-07-27T06:22:23.797Z</time>
      </trkpt>
      <trkpt lat="48.632972" lon="16.787282">
        <ele>263.261320</ele>
        <time>2020-07-27T06:22:25.779Z</time>
      </trkpt>
      <trkpt lat="48.632861" lon="16.787221">
        <ele>262.971450</ele>
        <time>2020-07-27T06:22:27.818Z</time>
      </trkpt>
      <trkpt lat="48.632743" lon="16.787157">
        <ele>262.663766</ele>
        <time>2020-07-27T06:22:29.791Z</time>
      </trkpt>
      <trkpt lat="48.632620" lon="16.787087">
        <ele>262.341207</ele>
        <time>2020-07-27T06:22:31.782Z</time>
      </trkpt>
      <trkpt lat="48.632487" lon="16.787018">
        <ele>261.996094</ele>
        <time>2020-07-27T06:22:33.791Z</time>
      </trkpt>
      <trkpt lat="48.632349" lon="16.786939">
        <ele>261.633932</ele>
        <time>2020-07-27T06:22:35.806Z</time>
      </trkpt>
      <trkpt lat="48.632206" lon="16.786858">
        <ele>261.259140</ele>
        <time>2020-07-27T06:22:37.777Z</time>
      </trkpt>
      <trkpt lat="48.632056" lon="16.786780">
        <ele>260.869820</ele>
        <time>2020-07-27T06:22:39.820Z</time>
      </trkpt>
      <trkpt lat="48.631903" lon="16.786697">
        <ele>260.470864</ele>
        <time>2020-07-27T06:22:41.801Z</time>
      </trkpt>
      <trkpt lat="48.631748" lon="16.786615">
        <ele>260.117698</ele>
        <time>2020-07-27T06:22:43.814Z</time>
      </trkpt>
      <trkpt lat="48.631596" lon="16.786528">
        <ele>259.789156</ele>
        <time>2020-07-27T06:22:45.799Z</time>
      </trkpt>
      <trkpt lat="48.631442" lon="16.786445">
        <ele>259.458661</ele>
        <time>2020-07-27T06:22:47.812Z</time>
      </trkpt>
      <trkpt lat="48.631287" lon="16.786368">
        <ele>259.128849</ele>
        <time>2020-07-27T06:22:49.784Z</time>
      </trkpt>
      <trkpt lat="48.631136" lon="16.786286">
        <ele>258.804514</ele>
        <time>2020-07-27T06:22:51.822Z</time>
      </trkpt>
      <trkpt lat="48.630987" lon="16.786201">
        <ele>258.482590</ele>
        <time>2020-07-27T06:22:53.792Z</time>
      </trkpt>
      <trkpt lat="48.630838" lon="16.786121">
        <ele>258.162961</ele>
        <time>2020-07-27T06:22:55.802Z</time>
      </trkpt>
      <trkpt lat="48.630687" lon="16.786044">
        <ele>257.840822</ele>
        <time>2020-07-27T06:22:57.806Z</time>
      </trkpt>
      <trkpt lat="48.630533" lon="16.785964">
        <ele>257.511649</ele>
        <time>2020-07-27T06:22:59.794Z</time>
      </trkpt>
      <trkpt lat="48.630378" lon="16.785886">
        <ele>257.181417</ele>
        <time>2020-07-27T06:23:01.788Z</time>
      </trkpt>
      <trkpt lat="48.630220" lon="16.785814">
        <ele>256.847824</ele>
        <time>2020-07-27T06:23:03.800Z</time>
      </trkpt>
      <trkpt lat="48.630065" lon="16.785720">
        <ele>256.617127</ele>
        <time>2020-07-27T06:23:05.801Z</time>
      </trkpt>
      <trkpt lat="48.629902" lon="16.785641">
        <ele>256.452284</ele>
        <time>2020-07-27T06:23:07.794Z</time>
      </trkpt>
      <trkpt lat="48.629736" lon="16.785557">
        <ele>256.283705</ele>
        <time>2020-07-27T06:23:09.786Z</time>
      </trkpt>
      <trkpt lat="48.629579" lon="16.785478">
        <ele>256.124355</ele>
        <time>2020-07-27T06:23:11.791Z</time>
      </trkpt>
      <trkpt lat="48.629472" lon="16.785405">
        <ele>256.011311</ele>
        <time>2020-07-27T06:23:13.794Z</time>
      </trkpt>
      <trkpt lat="48.629487" lon="16.785250">
        <ele>255.911596</ele>
        <time>2020-07-27T06:23:16.804Z</time>
      </trkpt>
      <trkpt lat="48.629584" lon="16.785187">
        <ele>255.809931</ele>
        <time>2020-07-27T06:23:19.814Z</time>
      </trkpt>
      <trkpt lat="48.629689" lon="16.785136">
        <ele>255.703722</ele>
        <time>2020-07-27T06:23:22.802Z</time>
      </trkpt>
      <trkpt lat="48.629802" lon="16.785055">
        <ele>255.583296</ele>
        <time>2020-07-27T06:23:25.778Z</time>
      </trkpt>
      <trkpt lat="48.629915" lon="16.784990">
        <ele>255.466866</ele>
        <time>2020-07-27T06:23:28.773Z</time>
      </trkpt>
      <trkpt lat="48.630037" lon="16.784948">
        <ele>255.346364</ele>
        <time>2020-07-27T06:23:31.793Z</time>
      </trkpt>
      <trkpt lat="48.630155" lon="16.784924">
        <ele>255.231696</ele>
        <time>2020-07-27T06:23:34.811Z</time>
      </trkpt>
      <trkpt lat="48.630270" lon="16.784876">
        <ele>255.116802</ele>
        <time>2020-07-27T06:23:37.803Z</time>
      </trkpt>
      <trkpt lat="48.630366" lon="16.784755">
        <ele>254.996467</ele>
        <time>2020-07-27T06:23:40.823Z</time>
      </trkpt>
      <trkpt lat="48.630453" lon="16.784595">
        <ele>254.929072</ele>
        <time>2020-07-27T06:23:43.796Z</time>
      </trkpt>
      <trkpt lat="48.630514" lon="16.784468">
        <ele>254.883977</ele>
        <time>2020-07-27T06:23:45.803Z</time>
      </trkpt>
      <trkpt lat="48.630584" lon="16.784333">
        <ele>254.834690</ele>
        <time>2020-07-27T06:23:47.808Z</time>
      </trkpt>
      <trkpt lat="48.630662" lon="16.784189">
        <ele>254.781212</ele>
        <time>2020-07-27T06:23:49.781Z</time>
      </trkpt>
      <trkpt lat="48.630748" lon="16.784052">
        <ele>254.726939</ele>
        <time>2020-07-27T06:23:51.815Z</time>
      </trkpt>
      <trkpt lat="48.630846" lon="16.783946">
        <ele>254.674584</ele>
        <time>2020-07-27T06:23:53.796Z</time>
      </trkpt>
      <trkpt lat="48.630947" lon="16.783861">
        <ele>254.624356</ele>
        <time>2020-07-27T06:23:55.808Z</time>
      </trkpt>
      <trkpt lat="48.631044" lon="16.783783">
        <ele>254.576615</ele>
        <time>2020-07-27T06:23:57.788Z</time>
      </trkpt>
      <trkpt lat="48.631140" lon="16.783709">
        <ele>254.529791</ele>
        <time>2020-07-27T06:23:59.776Z</time>
      </trkpt>
      <trkpt lat="48.631232" lon="16.783641">
        <ele>254.485291</ele>
        <time>2020-07-27T06:24:01.813Z</time>
      </trkpt>
      <trkpt lat="48.631320" lon="16.783576">
        <ele>254.442732</ele>
        <time>2020-07-27T06:24:03.796Z</time>
      </trkpt>
      <trkpt lat="48.631406" lon="16.783512">
        <ele>254.401080</ele>
        <time>2020-07-27T06:24:05.787Z</time>
      </trkpt>
      <trkpt lat="48.631492" lon="16.783452">
        <ele>254.359922</ele>
        <time>2020-07-27T06:24:07.810Z</time>
      </trkpt>
      <trkpt lat="48.631580" lon="16.783402">
        <ele>254.319069</ele>
        <time>2020-07-27T06:24:09.821Z</time>
      </trkpt>
      <trkpt lat="48.631665" lon="16.783350">
        <ele>254.279222</ele>
        <time>2020-07-27T06:24:11.792Z</time>
      </trkpt>
      <trkpt lat="48.631750" lon="16.783296">
        <ele>254.239157</ele>
        <time>2020-07-27T06:24:13.817Z</time>
      </trkpt>
      <trkpt lat="48.631834" lon="16.783239">
        <ele>254.199688</ele>
        <time>2020-07-27T06:24:15.799Z</time>
      </trkpt>
      <trkpt lat="48.631954" lon="16.783147">
        <ele>254.166464</ele>
        <time>2020-07-27T06:24:18.789Z</time>
      </trkpt>
      <trkpt lat="48.632035" lon="16.783082">
        <ele>254.143819</ele>
        <time>2020-07-27T06:24:20.791Z</time>
      </trkpt>
      <trkpt lat="48.632117" lon="16.783015">
        <ele>254.120803</ele>
        <time>2020-07-27T06:24:22.825Z</time>
      </trkpt>
      <trkpt lat="48.632211" lon="16.782932">
        <ele>254.093923</ele>
        <time>2020-07-27T06:24:24.798Z</time>
      </trkpt>
      <trkpt lat="48.632298" lon="16.782843">
        <ele>254.067986</ele>
        <time>2020-07-27T06:24:26.787Z</time>
      </trkpt>
      <trkpt lat="48.632394" lon="16.782750">
        <ele>254.039833</ele>
        <time>2020-07-27T06:24:28.804Z</time>
      </trkpt>
      <trkpt lat="48.632491" lon="16.782662">
        <ele>254.011901</ele>
        <time>2020-07-27T06:24:30.795Z</time>
      </trkpt>
      <trkpt lat="48.632594" lon="16.782576">
        <ele>253.982846</ele>
        <time>2020-07-27T06:24:32.791Z</time>
      </trkpt>
      <trkpt lat="48.632692" lon="16.782491">
        <ele>253.954948</ele>
        <time>2020-07-27T06:24:34.796Z</time>
      </trkpt>
      <trkpt lat="48.632788" lon="16.782406">
        <ele>253.927477</ele>
        <time>2020-07-27T06:24:36.796Z</time>
      </trkpt>
      <trkpt lat="48.632887" lon="16.782312">
        <ele>253.898611</ele>
        <time>2020-07-27T06:24:38.796Z</time>
      </trkpt>
      <trkpt lat="48.632982" lon="16.782229">
        <ele>253.871518</ele>
        <time>2020-07-27T06:24:40.802Z</time>
      </trkpt>
      <trkpt lat="48.633074" lon="16.782154">
        <ele>253.845708</ele>
        <time>2020-07-27T06:24:42.799Z</time>
      </trkpt>
      <trkpt lat="48.633161" lon="16.782082">
        <ele>253.821218</ele>
        <time>2020-07-27T06:24:44.802Z</time>
      </trkpt>
      <trkpt lat="48.633246" lon="16.782010">
        <ele>253.797159</ele>
        <time>2020-07-27T06:24:46.829Z</time>
      </trkpt>
      <trkpt lat="48.633330" lon="16.781934">
        <ele>253.772987</ele>
        <time>2020-07-27T06:24:48.820Z</time>
      </trkpt>
      <trkpt lat="48.633413" lon="16.781848">
        <ele>253.740572</ele>
        <time>2020-07-27T06:24:50.788Z</time>
      </trkpt>
      <trkpt lat="48.633497" lon="16.781752">
        <ele>253.690076</ele>
        <time>2020-07-27T06:24:52.782Z</time>
      </trkpt>
      <trkpt lat="48.633578" lon="16.781656">
        <ele>253.640721</ele>
        <time>2020-07-27T06:24:54.790Z</time>
      </trkpt>
      <trkpt lat="48.633661" lon="16.781563">
        <ele>253.591180</ele>
        <time>2020-07-27T06:24:56.790Z</time>
      </trkpt>
      <trkpt lat="48.633744" lon="16.781475">
        <ele>253.542564</ele>
        <time>2020-07-27T06:24:58.797Z</time>
      </trkpt>
      <trkpt lat="48.633829" lon="16.781389">
        <ele>253.493516</ele>
        <time>2020-07-27T06:25:00.812Z</time>
      </trkpt>
      <trkpt lat="48.633914" lon="16.781300">
        <ele>253.443932</ele>
        <time>2020-07-27T06:25:02.815Z</time>
      </trkpt>
      <trkpt lat="48.634000" lon="16.781201">
        <ele>253.392098</ele>
        <time>2020-07-27T06:25:04.797Z</time>
      </trkpt>
      <trkpt lat="48.634087" lon="16.781101">
        <ele>253.339690</ele>
        <time>2020-07-27T06:25:06.799Z</time>
      </trkpt>
      <trkpt lat="48.634173" lon="16.781003">
        <ele>253.288046</ele>
        <time>2020-07-27T06:25:08.795Z</time>
      </trkpt>
      <trkpt lat="48.634267" lon="16.780902">
        <ele>253.232744</ele>
        <time>2020-07-27T06:25:10.794Z</time>
      </trkpt>
      <trkpt lat="48.634350" lon="16.780811">
        <ele>253.183577</ele>
        <time>2020-07-27T06:25:12.816Z</time>
      </trkpt>
      <trkpt lat="48.634423" lon="16.780726">
        <ele>253.139392</ele>
        <time>2020-07-27T06:25:14.796Z</time>
      </trkpt>
      <trkpt lat="48.634514" lon="16.780606">
        <ele>253.081491</ele>
        <time>2020-07-27T06:25:17.802Z</time>
      </trkpt>
      <trkpt lat="48.634596" lon="16.780485">
        <ele>253.026549</ele>
        <time>2020-07-27T06:25:20.812Z</time>
      </trkpt>
      <trkpt lat="48.634684" lon="16.780352">
        <ele>252.966887</ele>
        <time>2020-07-27T06:25:23.778Z</time>
      </trkpt>
      <trkpt lat="48.634771" lon="16.780203">
        <ele>252.903858</ele>
        <time>2020-07-27T06:25:26.797Z</time>
      </trkpt>
      <trkpt lat="48.634829" lon="16.780099">
        <ele>252.847297</ele>
        <time>2020-07-27T06:25:28.782Z</time>
      </trkpt>
      <trkpt lat="48.634891" lon="16.780000">
        <ele>252.786296</ele>
        <time>2020-07-27T06:25:30.789Z</time>
      </trkpt>
      <trkpt lat="48.634956" lon="16.779903">
        <ele>252.724511</ele>
        <time>2020-07-27T06:25:32.793Z</time>
      </trkpt>
      <trkpt lat="48.635022" lon="16.779808">
        <ele>252.662863</ele>
        <time>2020-07-27T06:25:34.788Z</time>
      </trkpt>
      <trkpt lat="48.635108" lon="16.779667">
        <ele>252.577047</ele>
        <time>2020-07-27T06:25:37.800Z</time>
      </trkpt>
      <trkpt lat="48.635191" lon="16.779522">
        <ele>252.491250</ele>
        <time>2020-07-27T06:25:40.829Z</time>
      </trkpt>
      <trkpt lat="48.635264" lon="16.779377">
        <ele>252.409724</ele>
        <time>2020-07-27T06:25:43.791Z</time>
      </trkpt>
      <trkpt lat="48.635326" lon="16.779275">
        <ele>252.347742</ele>
        <time>2020-07-27T06:25:45.785Z</time>
      </trkpt>
      <trkpt lat="48.635388" lon="16.779175">
        <ele>252.286415</ele>
        <time>2020-07-27T06:25:47.790Z</time>
      </trkpt>
      <trkpt lat="48.635483" lon="16.779039">
        <ele>252.197908</ele>
        <time>2020-07-27T06:25:50.785Z</time>
      </trkpt>
      <trkpt lat="48.635572" lon="16.778907">
        <ele>252.113567</ele>
        <time>2020-07-27T06:25:53.786Z</time>
      </trkpt>
      <trkpt lat="48.635656" lon="16.778773">
        <ele>252.030962</ele>
        <time>2020-07-27T06:25:56.798Z</time>
      </trkpt>
      <trkpt lat="48.635739" lon="16.778631">
        <ele>251.946176</ele>
        <time>2020-07-27T06:25:59.788Z</time>
      </trkpt>
      <trkpt lat="48.635823" lon="16.778482">
        <ele>251.858582</ele>
        <time>2020-07-27T06:26:02.787Z</time>
      </trkpt>
      <trkpt lat="48.635881" lon="16.778377">
        <ele>251.797376</ele>
        <time>2020-07-27T06:26:04.792Z</time>
      </trkpt>
      <trkpt lat="48.635969" lon="16.778223">
        <ele>251.706322</ele>
        <time>2020-07-27T06:26:07.811Z</time>
      </trkpt>
      <trkpt lat="48.636035" lon="16.778124">
        <ele>251.636282</ele>
        <time>2020-07-27T06:26:09.832Z</time>
      </trkpt>
      <trkpt lat="48.636102" lon="16.778028">
        <ele>251.560177</ele>
        <time>2020-07-27T06:26:11.797Z</time>
      </trkpt>
      <trkpt lat="48.636168" lon="16.777927">
        <ele>251.482756</ele>
        <time>2020-07-27T06:26:13.792Z</time>
      </trkpt>
      <trkpt lat="48.636234" lon="16.777826">
        <ele>251.405334</ele>
        <time>2020-07-27T06:26:15.803Z</time>
      </trkpt>
      <trkpt lat="48.636298" lon="16.777728">
        <ele>251.330235</ele>
        <time>2020-07-27T06:26:17.803Z</time>
      </trkpt>
      <trkpt lat="48.636367" lon="16.777633">
        <ele>251.253292</ele>
        <time>2020-07-27T06:26:19.798Z</time>
      </trkpt>
      <trkpt lat="48.636441" lon="16.777546">
        <ele>251.176000</ele>
        <time>2020-07-27T06:26:21.812Z</time>
      </trkpt>
      <trkpt lat="48.636517" lon="16.777466">
        <ele>251.099640</ele>
        <time>2020-07-27T06:26:23.787Z</time>
      </trkpt>
      <trkpt lat="48.636595" lon="16.777386">
        <ele>251.021920</ele>
        <time>2020-07-27T06:26:25.795Z</time>
      </trkpt>
      <trkpt lat="48.636672" lon="16.777311">
        <ele>250.946391</ele>
        <time>2020-07-27T06:26:27.783Z</time>
      </trkpt>
      <trkpt lat="48.636782" lon="16.777205">
        <ele>250.838828</ele>
        <time>2020-07-27T06:26:30.789Z</time>
      </trkpt>
      <trkpt lat="48.636893" lon="16.777098">
        <ele>250.730276</ele>
        <time>2020-07-27T06:26:33.789Z</time>
      </trkpt>
      <trkpt lat="48.636971" lon="16.777021">
        <ele>250.653462</ele>
        <time>2020-07-27T06:26:35.796Z</time>
      </trkpt>
      <trkpt lat="48.637049" lon="16.776933">
        <ele>250.573214</ele>
        <time>2020-07-27T06:26:37.775Z</time>
      </trkpt>
      <trkpt lat="48.637130" lon="16.776833">
        <ele>250.486992</ele>
        <time>2020-07-27T06:26:39.792Z</time>
      </trkpt>
      <trkpt lat="48.637213" lon="16.776731">
        <ele>250.398802</ele>
        <time>2020-07-27T06:26:41.790Z</time>
      </trkpt>
      <trkpt lat="48.637299" lon="16.776626">
        <ele>250.307659</ele>
        <time>2020-07-27T06:26:43.793Z</time>
      </trkpt>
      <trkpt lat="48.637388" lon="16.776527">
        <ele>250.216553</ele>
        <time>2020-07-27T06:26:45.795Z</time>
      </trkpt>
      <trkpt lat="48.637480" lon="16.776429">
        <ele>250.152701</ele>
        <time>2020-07-27T06:26:47.797Z</time>
      </trkpt>
      <trkpt lat="48.637572" lon="16.776329">
        <ele>250.098574</ele>
        <time>2020-07-27T06:26:49.786Z</time>
      </trkpt>
      <trkpt lat="48.637663" lon="16.776227">
        <ele>250.044461</ele>
        <time>2020-07-27T06:26:51.783Z</time>
      </trkpt>
      <trkpt lat="48.637754" lon="16.776130">
        <ele>249.991273</ele>
        <time>2020-07-27T06:26:53.774Z</time>
      </trkpt>
      <trkpt lat="48.637845" lon="16.776027">
        <ele>249.936972</ele>
        <time>2020-07-27T06:26:55.793Z</time>
      </trkpt>
      <trkpt lat="48.637937" lon="16.775919">
        <ele>249.881334</ele>
        <time>2020-07-27T06:26:57.807Z</time>
      </trkpt>
      <trkpt lat="48.638029" lon="16.775812">
        <ele>249.825889</ele>
        <time>2020-07-27T06:26:59.786Z</time>
      </trkpt>
      <trkpt lat="48.638124" lon="16.775713">
        <ele>249.770771</ele>
        <time>2020-07-27T06:27:01.798Z</time>
      </trkpt>
      <trkpt lat="48.638203" lon="16.775620">
        <ele>249.722945</ele>
        <time>2020-07-27T06:27:03.783Z</time>
      </trkpt>
      <trkpt lat="48.638288" lon="16.775512">
        <ele>249.669910</ele>
        <time>2020-07-27T06:27:05.799Z</time>
      </trkpt>
      <trkpt lat="48.638377" lon="16.775403">
        <ele>249.615200</ele>
        <time>2020-07-27T06:27:07.777Z</time>
      </trkpt>
      <trkpt lat="48.638477" lon="16.775284">
        <ele>249.554411</ele>
        <time>2020-07-27T06:27:09.776Z</time>
      </trkpt>
      <trkpt lat="48.638580" lon="16.775162">
        <ele>249.491910</ele>
        <time>2020-07-27T06:27:11.807Z</time>
      </trkpt>
      <trkpt lat="48.638672" lon="16.775029">
        <ele>249.431113</ele>
        <time>2020-07-27T06:27:13.791Z</time>
      </trkpt>
      <trkpt lat="48.638707" lon="16.774843">
        <ele>249.370046</ele>
        <time>2020-07-27T06:27:15.788Z</time>
      </trkpt>
      <trkpt lat="48.638708" lon="16.774623">
        <ele>249.292242</ele>
        <time>2020-07-27T06:27:17.881Z</time>
      </trkpt>
      <trkpt lat="48.638698" lon="16.774394">
        <ele>249.201201</ele>
        <time>2020-07-27T06:27:19.795Z</time>
      </trkpt>
      <trkpt lat="48.638691" lon="16.774154">
        <ele>249.105902</ele>
        <time>2020-07-27T06:27:21.816Z</time>
      </trkpt>
      <trkpt lat="48.638686" lon="16.773908">
        <ele>249.008269</ele>
        <time>2020-07-27T06:27:23.782Z</time>
      </trkpt>
      <trkpt lat="48.638679" lon="16.773655">
        <ele>248.907818</ele>
        <time>2020-07-27T06:27:25.775Z</time>
      </trkpt>
      <trkpt lat="48.638674" lon="16.773396">
        <ele>248.805030</ele>
        <time>2020-07-27T06:27:27.813Z</time>
      </trkpt>
      <trkpt lat="48.638668" lon="16.773130">
        <ele>248.699448</ele>
        <time>2020-07-27T06:27:29.795Z</time>
      </trkpt>
      <trkpt lat="48.638665" lon="16.772861">
        <ele>248.592722</ele>
        <time>2020-07-27T06:27:31.772Z</time>
      </trkpt>
      <trkpt lat="48.638662" lon="16.772588">
        <ele>248.484410</ele>
        <time>2020-07-27T06:27:33.816Z</time>
      </trkpt>
      <trkpt lat="48.638659" lon="16.772449">
        <ele>248.429240</ele>
        <time>2020-07-27T06:27:34.770Z</time>
      </trkpt>
      <trkpt lat="48.638656" lon="16.772310">
        <ele>248.374070</ele>
        <time>2020-07-27T06:27:35.811Z</time>
      </trkpt>
      <trkpt lat="48.638653" lon="16.772171">
        <ele>248.318900</ele>
        <time>2020-07-27T06:27:36.783Z</time>
      </trkpt>
      <trkpt lat="48.638651" lon="16.772030">
        <ele>248.262953</ele>
        <time>2020-07-27T06:27:37.786Z</time>
      </trkpt>
      <trkpt lat="48.638649" lon="16.771889">
        <ele>248.185411</ele>
        <time>2020-07-27T06:27:38.799Z</time>
      </trkpt>
      <trkpt lat="48.638644" lon="16.771748">
        <ele>248.103287</ele>
        <time>2020-07-27T06:27:39.797Z</time>
      </trkpt>
      <trkpt lat="48.638642" lon="16.771609">
        <ele>248.022425</ele>
        <time>2020-07-27T06:27:40.790Z</time>
      </trkpt>
      <trkpt lat="48.638636" lon="16.771470">
        <ele>247.941410</ele>
        <time>2020-07-27T06:27:41.803Z</time>
      </trkpt>
      <trkpt lat="48.638631" lon="16.771331">
        <ele>247.860448</ele>
        <time>2020-07-27T06:27:42.794Z</time>
      </trkpt>
      <trkpt lat="48.638627" lon="16.771191">
        <ele>247.778947</ele>
        <time>2020-07-27T06:27:43.787Z</time>
      </trkpt>
      <trkpt lat="48.638625" lon="16.771050">
        <ele>247.696923</ele>
        <time>2020-07-27T06:27:44.778Z</time>
      </trkpt>
      <trkpt lat="48.638624" lon="16.770909">
        <ele>247.614912</ele>
        <time>2020-07-27T06:27:45.806Z</time>
      </trkpt>
      <trkpt lat="48.638622" lon="16.770769">
        <ele>247.533469</ele>
        <time>2020-07-27T06:27:46.795Z</time>
      </trkpt>
      <trkpt lat="48.638622" lon="16.770628">
        <ele>247.451463</ele>
        <time>2020-07-27T06:27:47.783Z</time>
      </trkpt>
      <trkpt lat="48.638621" lon="16.770488">
        <ele>247.370034</ele>
        <time>2020-07-27T06:27:48.794Z</time>
      </trkpt>
      <trkpt lat="48.638618" lon="16.770347">
        <ele>247.287986</ele>
        <time>2020-07-27T06:27:49.792Z</time>
      </trkpt>
      <trkpt lat="48.638615" lon="16.770207">
        <ele>247.206518</ele>
        <time>2020-07-27T06:27:50.802Z</time>
      </trkpt>
      <trkpt lat="48.638611" lon="16.770067">
        <ele>247.125018</ele>
        <time>2020-07-27T06:27:51.799Z</time>
      </trkpt>
      <trkpt lat="48.638608" lon="16.769927">
        <ele>247.043551</ele>
        <time>2020-07-27T06:27:52.797Z</time>
      </trkpt>
      <trkpt lat="48.638606" lon="16.769789">
        <ele>246.963271</ele>
        <time>2020-07-27T06:27:53.787Z</time>
      </trkpt>
      <trkpt lat="48.638603" lon="16.769652">
        <ele>246.883547</ele>
        <time>2020-07-27T06:27:54.788Z</time>
      </trkpt>
      <trkpt lat="48.638596" lon="16.769384">
        <ele>246.727556</ele>
        <time>2020-07-27T06:27:56.824Z</time>
      </trkpt>
      <trkpt lat="48.638588" lon="16.769125">
        <ele>246.498287</ele>
        <time>2020-07-27T06:27:58.789Z</time>
      </trkpt>
      <trkpt lat="48.638583" lon="16.768876">
        <ele>246.231836</ele>
        <time>2020-07-27T06:28:00.779Z</time>
      </trkpt>
      <trkpt lat="48.638572" lon="16.768637">
        <ele>245.975585</ele>
        <time>2020-07-27T06:28:02.808Z</time>
      </trkpt>
      <trkpt lat="48.638565" lon="16.768412">
        <ele>245.734660</ele>
        <time>2020-07-27T06:28:04.792Z</time>
      </trkpt>
      <trkpt lat="48.638564" lon="16.768190">
        <ele>245.497206</ele>
        <time>2020-07-27T06:28:06.784Z</time>
      </trkpt>
      <trkpt lat="48.638557" lon="16.767977">
        <ele>245.269102</ele>
        <time>2020-07-27T06:28:08.794Z</time>
      </trkpt>
      <trkpt lat="48.638551" lon="16.767775">
        <ele>245.052826</ele>
        <time>2020-07-27T06:28:10.788Z</time>
      </trkpt>
      <trkpt lat="48.638543" lon="16.767583">
        <ele>244.847057</ele>
        <time>2020-07-27T06:28:12.808Z</time>
      </trkpt>
      <trkpt lat="48.638540" lon="16.767392">
        <ele>244.642707</ele>
        <time>2020-07-27T06:28:14.801Z</time>
      </trkpt>
      <trkpt lat="48.638534" lon="16.767200">
        <ele>244.437116</ele>
        <time>2020-07-27T06:28:16.777Z</time>
      </trkpt>
      <trkpt lat="48.638533" lon="16.766994">
        <ele>244.216775</ele>
        <time>2020-07-27T06:28:18.800Z</time>
      </trkpt>
      <trkpt lat="48.638530" lon="16.766772">
        <ele>243.979276</ele>
        <time>2020-07-27T06:28:20.813Z</time>
      </trkpt>
      <trkpt lat="48.638526" lon="16.766536">
        <ele>243.744896</ele>
        <time>2020-07-27T06:28:22.809Z</time>
      </trkpt>
      <trkpt lat="48.638520" lon="16.766293">
        <ele>243.631201</ele>
        <time>2020-07-27T06:28:24.807Z</time>
      </trkpt>
      <trkpt lat="48.638515" lon="16.766046">
        <ele>243.515662</ele>
        <time>2020-07-27T06:28:26.803Z</time>
      </trkpt>
      <trkpt lat="48.638512" lon="16.765798">
        <ele>243.399689</ele>
        <time>2020-07-27T06:28:28.791Z</time>
      </trkpt>
      <trkpt lat="48.638508" lon="16.765555">
        <ele>243.286039</ele>
        <time>2020-07-27T06:28:30.797Z</time>
      </trkpt>
      <trkpt lat="48.638509" lon="16.765322">
        <ele>243.177096</ele>
        <time>2020-07-27T06:28:32.786Z</time>
      </trkpt>
      <trkpt lat="48.638508" lon="16.765102">
        <ele>243.074232</ele>
        <time>2020-07-27T06:28:34.800Z</time>
      </trkpt>
      <trkpt lat="48.638498" lon="16.764891">
        <ele>242.975325</ele>
        <time>2020-07-27T06:28:36.787Z</time>
      </trkpt>
      <trkpt lat="48.638491" lon="16.764691">
        <ele>242.881684</ele>
        <time>2020-07-27T06:28:38.822Z</time>
      </trkpt>
      <trkpt lat="48.638477" lon="16.764500">
        <ele>242.791833</ele>
        <time>2020-07-27T06:28:40.787Z</time>
      </trkpt>
      <trkpt lat="48.638469" lon="16.764315">
        <ele>242.705151</ele>
        <time>2020-07-27T06:28:42.787Z</time>
      </trkpt>
      <trkpt lat="48.638462" lon="16.764133">
        <ele>242.619912</ele>
        <time>2020-07-27T06:28:44.779Z</time>
      </trkpt>
      <trkpt lat="48.638457" lon="16.763957">
        <ele>242.537547</ele>
        <time>2020-07-27T06:28:46.790Z</time>
      </trkpt>
      <trkpt lat="48.638457" lon="16.763787">
        <ele>242.522317</ele>
        <time>2020-07-27T06:28:48.795Z</time>
      </trkpt>
      <trkpt lat="48.638454" lon="16.763620">
        <ele>242.621647</ele>
        <time>2020-07-27T06:28:50.793Z</time>
      </trkpt>
      <trkpt lat="48.638451" lon="16.763454">
        <ele>242.720383</ele>
        <time>2020-07-27T06:28:52.785Z</time>
      </trkpt>
      <trkpt lat="48.638448" lon="16.763291">
        <ele>242.817336</ele>
        <time>2020-07-27T06:28:54.787Z</time>
      </trkpt>
      <trkpt lat="48.638444" lon="16.763130">
        <ele>242.913130</ele>
        <time>2020-07-27T06:28:56.791Z</time>
      </trkpt>
      <trkpt lat="48.638441" lon="16.762974">
        <ele>243.005922</ele>
        <time>2020-07-27T06:28:58.793Z</time>
      </trkpt>
      <trkpt lat="48.638439" lon="16.762818">
        <ele>243.098693</ele>
        <time>2020-07-27T06:29:00.792Z</time>
      </trkpt>
      <trkpt lat="48.638435" lon="16.762674">
        <ele>243.184387</ele>
        <time>2020-07-27T06:29:02.799Z</time>
      </trkpt>
      <trkpt lat="48.638432" lon="16.762530">
        <ele>243.270048</ele>
        <time>2020-07-27T06:29:04.780Z</time>
      </trkpt>
      <trkpt lat="48.638431" lon="16.762388">
        <ele>243.354482</ele>
        <time>2020-07-27T06:29:06.810Z</time>
      </trkpt>
      <trkpt lat="48.638425" lon="16.762187">
        <ele>243.474113</ele>
        <time>2020-07-27T06:29:09.785Z</time>
      </trkpt>
      <trkpt lat="48.638418" lon="16.761994">
        <ele>243.589039</ele>
        <time>2020-07-27T06:29:12.797Z</time>
      </trkpt>
      <trkpt lat="48.638412" lon="16.761806">
        <ele>243.700949</ele>
        <time>2020-07-27T06:29:15.802Z</time>
      </trkpt>
      <trkpt lat="48.638409" lon="16.761622">
        <ele>243.810384</ele>
        <time>2020-07-27T06:29:18.789Z</time>
      </trkpt>
      <trkpt lat="48.638404" lon="16.761437">
        <ele>243.920472</ele>
        <time>2020-07-27T06:29:21.794Z</time>
      </trkpt>
      <trkpt lat="48.638403" lon="16.761228">
        <ele>244.044741</ele>
        <time>2020-07-27T06:29:24.782Z</time>
      </trkpt>
      <trkpt lat="48.638406" lon="16.761074">
        <ele>244.092421</ele>
        <time>2020-07-27T06:29:26.778Z</time>
      </trkpt>
      <trkpt lat="48.638402" lon="16.760907">
        <ele>244.053846</ele>
        <time>2020-07-27T06:29:28.795Z</time>
      </trkpt>
      <trkpt lat="48.638395" lon="16.760731">
        <ele>244.013144</ele>
        <time>2020-07-27T06:29:30.793Z</time>
      </trkpt>
      <trkpt lat="48.638389" lon="16.760549">
        <ele>243.971079</ele>
        <time>2020-07-27T06:29:32.774Z</time>
      </trkpt>
      <trkpt lat="48.638384" lon="16.760364">
        <ele>243.928338</ele>
        <time>2020-07-27T06:29:34.783Z</time>
      </trkpt>
      <trkpt lat="48.638382" lon="16.760168">
        <ele>243.883088</ele>
        <time>2020-07-27T06:29:36.806Z</time>
      </trkpt>
      <trkpt lat="48.638380" lon="16.759982">
        <ele>243.840146</ele>
        <time>2020-07-27T06:29:38.784Z</time>
      </trkpt>
      <trkpt lat="48.638379" lon="16.759798">
        <ele>243.797670</ele>
        <time>2020-07-27T06:29:40.816Z</time>
      </trkpt>
      <trkpt lat="48.638372" lon="16.759620">
        <ele>243.756508</ele>
        <time>2020-07-27T06:29:42.798Z</time>
      </trkpt>
      <trkpt lat="48.638366" lon="16.759449">
        <ele>243.716979</ele>
        <time>2020-07-27T06:29:44.789Z</time>
      </trkpt>
      <trkpt lat="48.638361" lon="16.759280">
        <ele>243.677928</ele>
        <time>2020-07-27T06:29:46.787Z</time>
      </trkpt>
      <trkpt lat="48.638359" lon="16.759113">
        <ele>243.639371</ele>
        <time>2020-07-27T06:29:48.796Z</time>
      </trkpt>
      <trkpt lat="48.638352" lon="16.758946">
        <ele>243.600743</ele>
        <time>2020-07-27T06:29:50.795Z</time>
      </trkpt>
      <trkpt lat="48.638348" lon="16.758778">
        <ele>243.561937</ele>
        <time>2020-07-27T06:29:52.800Z</time>
      </trkpt>
      <trkpt lat="48.638345" lon="16.758604">
        <ele>243.521757</ele>
        <time>2020-07-27T06:29:54.780Z</time>
      </trkpt>
      <trkpt lat="48.638345" lon="16.758424">
        <ele>243.480206</ele>
        <time>2020-07-27T06:29:56.800Z</time>
      </trkpt>
      <trkpt lat="48.638348" lon="16.758251">
        <ele>243.638010</ele>
        <time>2020-07-27T06:29:58.790Z</time>
      </trkpt>
      <trkpt lat="48.638344" lon="16.758077">
        <ele>243.817799</ele>
        <time>2020-07-27T06:30:00.805Z</time>
      </trkpt>
      <trkpt lat="48.638338" lon="16.757900">
        <ele>244.000817</ele>
        <time>2020-07-27T06:30:02.796Z</time>
      </trkpt>
      <trkpt lat="48.638331" lon="16.757721">
        <ele>244.185983</ele>
        <time>2020-07-27T06:30:04.781Z</time>
      </trkpt>
      <trkpt lat="48.638324" lon="16.757541">
        <ele>244.372181</ele>
        <time>2020-07-27T06:30:06.801Z</time>
      </trkpt>
      <trkpt lat="48.638320" lon="16.757360">
        <ele>244.559194</ele>
        <time>2020-07-27T06:30:08.803Z</time>
      </trkpt>
      <trkpt lat="48.638315" lon="16.757181">
        <ele>244.744202</ele>
        <time>2020-07-27T06:30:10.781Z</time>
      </trkpt>
      <trkpt lat="48.638312" lon="16.757011">
        <ele>244.919814</ele>
        <time>2020-07-27T06:30:12.790Z</time>
      </trkpt>
      <trkpt lat="48.638309" lon="16.756848">
        <ele>245.088201</ele>
        <time>2020-07-27T06:30:14.782Z</time>
      </trkpt>
      <trkpt lat="48.638306" lon="16.756685">
        <ele>245.256587</ele>
        <time>2020-07-27T06:30:16.792Z</time>
      </trkpt>
      <trkpt lat="48.638305" lon="16.756529">
        <ele>245.417687</ele>
        <time>2020-07-27T06:30:18.785Z</time>
      </trkpt>
      <trkpt lat="48.638296" lon="16.756376">
        <ele>245.576307</ele>
        <time>2020-07-27T06:30:20.785Z</time>
      </trkpt>
      <trkpt lat="48.638290" lon="16.756231">
        <ele>245.726333</ele>
        <time>2020-07-27T06:30:22.781Z</time>
      </trkpt>
      <trkpt lat="48.638285" lon="16.756093">
        <ele>245.869052</ele>
        <time>2020-07-27T06:30:24.809Z</time>
      </trkpt>
      <trkpt lat="48.638281" lon="16.755890">
        <ele>246.078772</ele>
        <time>2020-07-27T06:30:27.780Z</time>
      </trkpt>
      <trkpt lat="48.638277" lon="16.755692">
        <ele>246.283332</ele>
        <time>2020-07-27T06:30:30.789Z</time>
      </trkpt>
      <trkpt lat="48.638273" lon="16.755494">
        <ele>246.551470</ele>
        <time>2020-07-27T06:30:33.792Z</time>
      </trkpt>
      <trkpt lat="48.638266" lon="16.755297">
        <ele>246.819708</ele>
        <time>2020-07-27T06:30:36.814Z</time>
      </trkpt>
      <trkpt lat="48.638264" lon="16.755102">
        <ele>247.084872</ele>
        <time>2020-07-27T06:30:39.790Z</time>
      </trkpt>
      <trkpt lat="48.638261" lon="16.754908">
        <ele>247.348717</ele>
        <time>2020-07-27T06:30:42.788Z</time>
      </trkpt>
      <trkpt lat="48.638260" lon="16.754709">
        <ele>247.619296</ele>
        <time>2020-07-27T06:30:45.793Z</time>
      </trkpt>
      <trkpt lat="48.638257" lon="16.754506">
        <ele>247.895374</ele>
        <time>2020-07-27T06:30:48.802Z</time>
      </trkpt>
      <trkpt lat="48.638251" lon="16.754368">
        <ele>248.083412</ele>
        <time>2020-07-27T06:30:50.783Z</time>
      </trkpt>
      <trkpt lat="48.638246" lon="16.754232">
        <ele>248.268611</ele>
        <time>2020-07-27T06:30:52.800Z</time>
      </trkpt>
      <trkpt lat="48.638242" lon="16.754095">
        <ele>248.455065</ele>
        <time>2020-07-27T06:30:54.780Z</time>
      </trkpt>
      <trkpt lat="48.638239" lon="16.753959">
        <ele>248.640080</ele>
        <time>2020-07-27T06:30:56.780Z</time>
      </trkpt>
      <trkpt lat="48.638237" lon="16.753822">
        <ele>248.826398</ele>
        <time>2020-07-27T06:30:58.791Z</time>
      </trkpt>
      <trkpt lat="48.638236" lon="16.753684">
        <ele>249.014042</ele>
        <time>2020-07-27T06:31:00.789Z</time>
      </trkpt>
      <trkpt lat="48.638235" lon="16.753548">
        <ele>249.198966</ele>
        <time>2020-07-27T06:31:02.813Z</time>
      </trkpt>
      <trkpt lat="48.638237" lon="16.753351">
        <ele>249.466849</ele>
        <time>2020-07-27T06:31:05.784Z</time>
      </trkpt>
      <trkpt lat="48.638237" lon="16.753152">
        <ele>249.737420</ele>
        <time>2020-07-27T06:31:08.792Z</time>
      </trkpt>
      <trkpt lat="48.638236" lon="16.752957">
        <ele>249.995643</ele>
        <time>2020-07-27T06:31:11.788Z</time>
      </trkpt>
      <trkpt lat="48.638233" lon="16.752769">
        <ele>250.130543</ele>
        <time>2020-07-27T06:31:14.801Z</time>
      </trkpt>
      <trkpt lat="48.638224" lon="16.752582">
        <ele>250.265041</ele>
        <time>2020-07-27T06:31:17.805Z</time>
      </trkpt>
      <trkpt lat="48.638218" lon="16.752395">
        <ele>250.399343</ele>
        <time>2020-07-27T06:31:20.815Z</time>
      </trkpt>
      <trkpt lat="48.638212" lon="16.752211">
        <ele>250.531495</ele>
        <time>2020-07-27T06:31:23.799Z</time>
      </trkpt>
      <trkpt lat="48.638212" lon="16.752029">
        <ele>250.662051</ele>
        <time>2020-07-27T06:31:26.785Z</time>
      </trkpt>
      <trkpt lat="48.638208" lon="16.751849">
        <ele>250.791246</ele>
        <time>2020-07-27T06:31:29.800Z</time>
      </trkpt>
      <trkpt lat="48.638205" lon="16.751670">
        <ele>250.919692</ele>
        <time>2020-07-27T06:31:32.783Z</time>
      </trkpt>
      <trkpt lat="48.638207" lon="16.751491">
        <ele>251.048115</ele>
        <time>2020-07-27T06:31:35.780Z</time>
      </trkpt>
      <trkpt lat="48.638207" lon="16.751316">
        <ele>251.173651</ele>
        <time>2020-07-27T06:31:38.793Z</time>
      </trkpt>
      <trkpt lat="48.638206" lon="16.751136">
        <ele>251.302777</ele>
        <time>2020-07-27T06:31:41.809Z</time>
      </trkpt>
      <trkpt lat="48.638204" lon="16.750957">
        <ele>251.431200</ele>
        <time>2020-07-27T06:31:44.826Z</time>
      </trkpt>
      <trkpt lat="48.638201" lon="16.750777">
        <ele>251.560363</ele>
        <time>2020-07-27T06:31:47.801Z</time>
      </trkpt>
      <trkpt lat="48.638195" lon="16.750587">
        <ele>251.696814</ele>
        <time>2020-07-27T06:31:50.814Z</time>
      </trkpt>
      <trkpt lat="48.638185" lon="16.750397">
        <ele>251.833541</ele>
        <time>2020-07-27T06:31:53.800Z</time>
      </trkpt>
      <trkpt lat="48.638180" lon="16.750214">
        <ele>251.921723</ele>
        <time>2020-07-27T06:31:56.807Z</time>
      </trkpt>
      <trkpt lat="48.638183" lon="16.750036">
        <ele>251.824138</ele>
        <time>2020-07-27T06:31:59.795Z</time>
      </trkpt>
      <trkpt lat="48.638183" lon="16.749869">
        <ele>251.732614</ele>
        <time>2020-07-27T06:32:02.817Z</time>
      </trkpt>
      <trkpt lat="48.638186" lon="16.749694">
        <ele>251.636672</ele>
        <time>2020-07-27T06:32:05.800Z</time>
      </trkpt>
      <trkpt lat="48.638186" lon="16.749539">
        <ele>251.551724</ele>
        <time>2020-07-27T06:32:07.780Z</time>
      </trkpt>
      <trkpt lat="48.638175" lon="16.749392">
        <ele>251.470646</ele>
        <time>2020-07-27T06:32:09.803Z</time>
      </trkpt>
      <trkpt lat="48.638170" lon="16.749240">
        <ele>251.387239</ele>
        <time>2020-07-27T06:32:11.796Z</time>
      </trkpt>
      <trkpt lat="48.638169" lon="16.749058">
        <ele>251.287490</ele>
        <time>2020-07-27T06:32:13.794Z</time>
      </trkpt>
      <trkpt lat="48.638164" lon="16.748854">
        <ele>251.175610</ele>
        <time>2020-07-27T06:32:15.809Z</time>
      </trkpt>
      <trkpt lat="48.638159" lon="16.748662">
        <ele>251.070303</ele>
        <time>2020-07-27T06:32:17.803Z</time>
      </trkpt>
      <trkpt lat="48.638151" lon="16.748476">
        <ele>250.968149</ele>
        <time>2020-07-27T06:32:19.829Z</time>
      </trkpt>
      <trkpt lat="48.638144" lon="16.748290">
        <ele>250.866047</ele>
        <time>2020-07-27T06:32:21.795Z</time>
      </trkpt>
      <trkpt lat="48.638139" lon="16.748106">
        <ele>250.765120</ele>
        <time>2020-07-27T06:32:23.790Z</time>
      </trkpt>
      <trkpt lat="48.638138" lon="16.747923">
        <ele>250.664823</ele>
        <time>2020-07-27T06:32:25.801Z</time>
      </trkpt>
      <trkpt lat="48.638133" lon="16.747746">
        <ele>250.567729</ele>
        <time>2020-07-27T06:32:27.805Z</time>
      </trkpt>
      <trkpt lat="48.638134" lon="16.747569">
        <ele>250.470720</ele>
        <time>2020-07-27T06:32:29.798Z</time>
      </trkpt>
      <trkpt lat="48.638142" lon="16.747396">
        <ele>250.244978</ele>
        <time>2020-07-27T06:32:31.793Z</time>
      </trkpt>
      <trkpt lat="48.638144" lon="16.747225">
        <ele>249.983512</ele>
        <time>2020-07-27T06:32:33.788Z</time>
      </trkpt>
      <trkpt lat="48.638145" lon="16.747072">
        <ele>249.749594</ele>
        <time>2020-07-27T06:32:35.793Z</time>
      </trkpt>
      <trkpt lat="48.637998" lon="16.746896">
        <ele>249.315939</ele>
        <time>2020-07-27T06:33:09.818Z</time>
      </trkpt>
      <trkpt lat="48.637905" lon="16.746854">
        <ele>249.091405</ele>
        <time>2020-07-27T06:33:13.817Z</time>
      </trkpt>
      <trkpt lat="48.637800" lon="16.746809">
        <ele>248.838932</ele>
        <time>2020-07-27T06:33:18.791Z</time>
      </trkpt>
      <trkpt lat="48.637702" lon="16.746765">
        <ele>248.602439</ele>
        <time>2020-07-27T06:33:23.795Z</time>
      </trkpt>
      <trkpt lat="48.637606" lon="16.746714">
        <ele>248.367053</ele>
        <time>2020-07-27T06:33:28.790Z</time>
      </trkpt>
      <trkpt lat="48.637515" lon="16.746676">
        <ele>248.148654</ele>
        <time>2020-07-27T06:33:33.787Z</time>
      </trkpt>
      <trkpt lat="48.637414" lon="16.746622">
        <ele>247.900834</ele>
        <time>2020-07-27T06:33:38.797Z</time>
      </trkpt>
      <trkpt lat="48.637315" lon="16.746559">
        <ele>247.652368</ele>
        <time>2020-07-27T06:33:42.783Z</time>
      </trkpt>
      <trkpt lat="48.637222" lon="16.746512">
        <ele>247.425530</ele>
        <time>2020-07-27T06:33:45.799Z</time>
      </trkpt>
      <trkpt lat="48.637129" lon="16.746469">
        <ele>247.200554</ele>
        <time>2020-07-27T06:33:48.801Z</time>
      </trkpt>
      <trkpt lat="48.637037" lon="16.746422">
        <ele>246.975909</ele>
        <time>2020-07-27T06:33:51.796Z</time>
      </trkpt>
      <trkpt lat="48.636938" lon="16.746373">
        <ele>246.734931</ele>
        <time>2020-07-27T06:33:54.772Z</time>
      </trkpt>
      <trkpt lat="48.636819" lon="16.746332">
        <ele>246.452577</ele>
        <time>2020-07-27T06:33:57.805Z</time>
      </trkpt>
      <trkpt lat="48.636717" lon="16.746306">
        <ele>246.176990</ele>
        <time>2020-07-27T06:34:00.817Z</time>
      </trkpt>
      <trkpt lat="48.636624" lon="16.746317">
        <ele>245.855711</ele>
        <time>2020-07-27T06:34:05.784Z</time>
      </trkpt>
      <trkpt lat="48.636714" lon="16.746066">
        <ele>245.205764</ele>
        <time>2020-07-27T06:36:41.780Z</time>
      </trkpt>
      <trkpt lat="48.636780" lon="16.745937">
        <ele>244.834454</ele>
        <time>2020-07-27T06:36:44.811Z</time>
      </trkpt>
      <trkpt lat="48.636843" lon="16.745803">
        <ele>244.460165</ele>
        <time>2020-07-27T06:36:48.768Z</time>
      </trkpt>
      <trkpt lat="48.636870" lon="16.745689">
        <ele>244.184544</ele>
        <time>2020-07-27T06:37:07.059Z</time>
      </trkpt>
      <trkpt lat="48.636900" lon="16.745530">
        <ele>243.808204</ele>
        <time>2020-07-27T06:41:00.807Z</time>
      </trkpt>
      <trkpt lat="48.636891" lon="16.745357">
        <ele>243.413244</ele>
        <time>2020-07-27T06:41:04.798Z</time>
      </trkpt>
      <trkpt lat="48.636841" lon="16.745209">
        <ele>243.034935</ele>
        <time>2020-07-27T06:41:07.784Z</time>
      </trkpt>
      <trkpt lat="48.636758" lon="16.745094">
        <ele>242.647349</ele>
        <time>2020-07-27T06:41:10.796Z</time>
      </trkpt>
      <trkpt lat="48.636635" lon="16.745039">
        <ele>242.205616</ele>
        <time>2020-07-27T06:41:13.801Z</time>
      </trkpt>
      <trkpt lat="48.636531" lon="16.745018">
        <ele>241.844254</ele>
        <time>2020-07-27T06:41:16.792Z</time>
      </trkpt>
      <trkpt lat="48.636436" lon="16.745084">
        <ele>241.484230</ele>
        <time>2020-07-27T06:41:19.807Z</time>
      </trkpt>
      <trkpt lat="48.636366" lon="16.745177">
        <ele>241.163409</ele>
        <time>2020-07-27T06:41:22.802Z</time>
      </trkpt>
      <trkpt lat="48.636318" lon="16.745295">
        <ele>240.848039</ele>
        <time>2020-07-27T06:41:25.801Z</time>
      </trkpt>
      <trkpt lat="48.636296" lon="16.745468">
        <ele>240.447069</ele>
        <time>2020-07-27T06:41:29.796Z</time>
      </trkpt>
      <trkpt lat="48.636301" lon="16.745609">
        <ele>240.125692</ele>
        <time>2020-07-27T06:41:32.798Z</time>
      </trkpt>
      <trkpt lat="48.636350" lon="16.745739">
        <ele>239.945566</ele>
        <time>2020-07-27T06:41:35.802Z</time>
      </trkpt>
      <trkpt lat="48.636403" lon="16.745851">
        <ele>239.795558</ele>
        <time>2020-07-27T06:41:38.791Z</time>
      </trkpt>
      <trkpt lat="48.636328" lon="16.746056">
        <ele>239.540396</ele>
        <time>2020-07-27T06:42:05.776Z</time>
      </trkpt>
      <trkpt lat="48.636209" lon="16.746067">
        <ele>239.343937</ele>
        <time>2020-07-27T06:44:18.784Z</time>
      </trkpt>
      <trkpt lat="48.636109" lon="16.746018">
        <ele>239.170729</ele>
        <time>2020-07-27T06:44:23.776Z</time>
      </trkpt>
      <trkpt lat="48.635953" lon="16.745849">
        <ele>238.854581</ele>
        <time>2020-07-27T06:44:46.783Z</time>
      </trkpt>
      <trkpt lat="48.635961" lon="16.745692">
        <ele>238.683106</ele>
        <time>2020-07-27T06:44:49.801Z</time>
      </trkpt>
      <trkpt lat="48.635965" lon="16.745539">
        <ele>238.516365</ele>
        <time>2020-07-27T06:44:52.783Z</time>
      </trkpt>
      <trkpt lat="48.635875" lon="16.745452">
        <ele>238.340382</ele>
        <time>2020-07-27T06:44:55.793Z</time>
      </trkpt>
      <trkpt lat="48.635764" lon="16.745430">
        <ele>238.155909</ele>
        <time>2020-07-27T06:44:58.800Z</time>
      </trkpt>
      <trkpt lat="48.635640" lon="16.745436">
        <ele>237.951473</ele>
        <time>2020-07-27T06:45:01.804Z</time>
      </trkpt>
      <trkpt lat="48.635504" lon="16.745449">
        <ele>237.726920</ele>
        <time>2020-07-27T06:45:04.787Z</time>
      </trkpt>
      <trkpt lat="48.635384" lon="16.745446">
        <ele>237.529152</ele>
        <time>2020-07-27T06:45:07.786Z</time>
      </trkpt>
      <trkpt lat="48.635284" lon="16.745346">
        <ele>237.331636</ele>
        <time>2020-07-27T06:45:10.799Z</time>
      </trkpt>
      <trkpt lat="48.635281" lon="16.745175">
        <ele>237.145356</ele>
        <time>2020-07-27T06:45:12.791Z</time>
      </trkpt>
      <trkpt lat="48.635319" lon="16.745018">
        <ele>237.057814</ele>
        <time>2020-07-27T06:45:14.794Z</time>
      </trkpt>
      <trkpt lat="48.635365" lon="16.744879">
        <ele>236.985140</ele>
        <time>2020-07-27T06:45:16.778Z</time>
      </trkpt>
      <trkpt lat="48.635418" lon="16.744744">
        <ele>236.911732</ele>
        <time>2020-07-27T06:45:18.806Z</time>
      </trkpt>
      <trkpt lat="48.635465" lon="16.744607">
        <ele>236.839569</ele>
        <time>2020-07-27T06:45:20.799Z</time>
      </trkpt>
      <trkpt lat="48.635503" lon="16.744470">
        <ele>236.770110</ele>
        <time>2020-07-27T06:45:22.809Z</time>
      </trkpt>
      <trkpt lat="48.635550" lon="16.744332">
        <ele>236.697532</ele>
        <time>2020-07-27T06:45:24.794Z</time>
      </trkpt>
      <trkpt lat="48.635605" lon="16.744206">
        <ele>236.626938</ele>
        <time>2020-07-27T06:45:26.785Z</time>
      </trkpt>
      <trkpt lat="48.635658" lon="16.744074">
        <ele>236.554732</ele>
        <time>2020-07-27T06:45:28.804Z</time>
      </trkpt>
      <trkpt lat="48.635702" lon="16.743941">
        <ele>236.485200</ele>
        <time>2020-07-27T06:45:30.812Z</time>
      </trkpt>
      <trkpt lat="48.635749" lon="16.743779">
        <ele>236.402490</ele>
        <time>2020-07-27T06:45:33.785Z</time>
      </trkpt>
      <trkpt lat="48.635685" lon="16.743654">
        <ele>236.328567</ele>
        <time>2020-07-27T06:45:37.784Z</time>
      </trkpt>
      <trkpt lat="48.635591" lon="16.743634">
        <ele>236.261416</ele>
        <time>2020-07-27T06:45:42.780Z</time>
      </trkpt>
      <trkpt lat="48.635528" lon="16.743501">
        <ele>236.184917</ele>
        <time>2020-07-27T06:45:48.781Z</time>
      </trkpt>
      <trkpt lat="48.635426" lon="16.743419">
        <ele>236.103209</ele>
        <time>2020-07-27T06:45:52.789Z</time>
      </trkpt>
      <trkpt lat="48.635329" lon="16.743364">
        <ele>236.029931</ele>
        <time>2020-07-27T06:45:55.781Z</time>
      </trkpt>
      <trkpt lat="48.635215" lon="16.743289">
        <ele>235.941994</ele>
        <time>2020-07-27T06:45:58.788Z</time>
      </trkpt>
      <trkpt lat="48.635106" lon="16.743187">
        <ele>235.850536</ele>
        <time>2020-07-27T06:46:01.801Z</time>
      </trkpt>
      <trkpt lat="48.635018" lon="16.743043">
        <ele>235.744820</ele>
        <time>2020-07-27T06:46:04.806Z</time>
      </trkpt>
      <trkpt lat="48.634903" lon="16.742954">
        <ele>235.639468</ele>
        <time>2020-07-27T06:46:07.783Z</time>
      </trkpt>
      <trkpt lat="48.634783" lon="16.742872">
        <ele>235.532077</ele>
        <time>2020-07-27T06:46:10.785Z</time>
      </trkpt>
      <trkpt lat="48.634693" lon="16.742814">
        <ele>235.452292</ele>
        <time>2020-07-27T06:46:12.809Z</time>
      </trkpt>
      <trkpt lat="48.634603" lon="16.742755">
        <ele>235.372293</ele>
        <time>2020-07-27T06:46:14.799Z</time>
      </trkpt>
      <trkpt lat="48.634515" lon="16.742617">
        <ele>235.268928</ele>
        <time>2020-07-27T06:46:17.801Z</time>
      </trkpt>
      <trkpt lat="48.634554" lon="16.742475">
        <ele>235.186042</ele>
        <time>2020-07-27T06:46:19.797Z</time>
      </trkpt>
      <trkpt lat="48.634627" lon="16.742321">
        <ele>235.083889</ele>
        <time>2020-07-27T06:46:22.796Z</time>
      </trkpt>
      <trkpt lat="48.634699" lon="16.742168">
        <ele>234.982649</ele>
        <time>2020-07-27T06:46:25.817Z</time>
      </trkpt>
      <trkpt lat="48.634753" lon="16.742052">
        <ele>234.906169</ele>
        <time>2020-07-27T06:46:27.809Z</time>
      </trkpt>
      <trkpt lat="48.634804" lon="16.741940">
        <ele>234.832857</ele>
        <time>2020-07-27T06:46:29.794Z</time>
      </trkpt>
      <trkpt lat="48.634890" lon="16.741789">
        <ele>234.725412</ele>
        <time>2020-07-27T06:46:32.799Z</time>
      </trkpt>
      <trkpt lat="48.634966" lon="16.741637">
        <ele>234.622676</ele>
        <time>2020-07-27T06:46:35.812Z</time>
      </trkpt>
      <trkpt lat="48.635035" lon="16.741481">
        <ele>234.521496</ele>
        <time>2020-07-27T06:46:38.802Z</time>
      </trkpt>
      <trkpt lat="48.635097" lon="16.741325">
        <ele>234.423377</ele>
        <time>2020-07-27T06:46:41.792Z</time>
      </trkpt>
      <trkpt lat="48.635142" lon="16.741153">
        <ele>234.350765</ele>
        <time>2020-07-27T06:46:44.790Z</time>
      </trkpt>
      <trkpt lat="48.635164" lon="16.740988">
        <ele>234.297363</ele>
        <time>2020-07-27T06:46:47.795Z</time>
      </trkpt>
      <trkpt lat="48.635162" lon="16.740810">
        <ele>234.240884</ele>
        <time>2020-07-27T06:46:50.813Z</time>
      </trkpt>
      <trkpt lat="48.635159" lon="16.740635">
        <ele>234.185346</ele>
        <time>2020-07-27T06:46:53.806Z</time>
      </trkpt>
      <trkpt lat="48.635157" lon="16.740464">
        <ele>234.131086</ele>
        <time>2020-07-27T06:46:56.820Z</time>
      </trkpt>
      <trkpt lat="48.635162" lon="16.740328">
        <ele>234.087873</ele>
        <time>2020-07-27T06:46:59.802Z</time>
      </trkpt>
      <trkpt lat="48.635165" lon="16.740169">
        <ele>234.037409</ele>
        <time>2020-07-27T06:47:03.800Z</time>
      </trkpt>
      <trkpt lat="48.635167" lon="16.740033">
        <ele>233.994252</ele>
        <time>2020-07-27T06:47:07.773Z</time>
      </trkpt>
      <trkpt lat="48.635171" lon="16.739879">
        <ele>233.945357</ele>
        <time>2020-07-27T06:47:12.801Z</time>
      </trkpt>
      <trkpt lat="48.635186" lon="16.739717">
        <ele>233.893460</ele>
        <time>2020-07-27T06:47:16.825Z</time>
      </trkpt>
      <trkpt lat="48.635190" lon="16.739555">
        <ele>233.842029</ele>
        <time>2020-07-27T06:47:20.789Z</time>
      </trkpt>
      <trkpt lat="48.635212" lon="16.739383">
        <ele>233.786448</ele>
        <time>2020-07-27T06:47:24.805Z</time>
      </trkpt>
      <trkpt lat="48.635229" lon="16.739233">
        <ele>233.738165</ele>
        <time>2020-07-27T06:47:27.785Z</time>
      </trkpt>
      <trkpt lat="48.635239" lon="16.739079">
        <ele>233.689073</ele>
        <time>2020-07-27T06:47:30.818Z</time>
      </trkpt>
      <trkpt lat="48.635254" lon="16.738918">
        <ele>233.637490</ele>
        <time>2020-07-27T06:47:33.813Z</time>
      </trkpt>
      <trkpt lat="48.635272" lon="16.738752">
        <ele>233.584121</ele>
        <time>2020-07-27T06:47:36.822Z</time>
      </trkpt>
      <trkpt lat="48.635294" lon="16.738603">
        <ele>233.535685</ele>
        <time>2020-07-27T06:47:39.796Z</time>
      </trkpt>
      <trkpt lat="48.635316" lon="16.738444">
        <ele>233.489392</ele>
        <time>2020-07-27T06:47:42.795Z</time>
      </trkpt>
      <trkpt lat="48.635341" lon="16.738256">
        <ele>233.436166</ele>
        <time>2020-07-27T06:47:45.793Z</time>
      </trkpt>
      <trkpt lat="48.635359" lon="16.738122">
        <ele>233.398213</ele>
        <time>2020-07-27T06:47:47.830Z</time>
      </trkpt>
      <trkpt lat="48.635380" lon="16.737983">
        <ele>233.358637</ele>
        <time>2020-07-27T06:47:49.788Z</time>
      </trkpt>
      <trkpt lat="48.635399" lon="16.737843">
        <ele>233.318968</ele>
        <time>2020-07-27T06:47:51.831Z</time>
      </trkpt>
      <trkpt lat="48.635404" lon="16.737704">
        <ele>233.280331</ele>
        <time>2020-07-27T06:47:53.788Z</time>
      </trkpt>
      <trkpt lat="48.635411" lon="16.737511">
        <ele>233.226682</ele>
        <time>2020-07-27T06:47:56.787Z</time>
      </trkpt>
      <trkpt lat="48.635408" lon="16.737335">
        <ele>233.177815</ele>
        <time>2020-07-27T06:47:59.784Z</time>
      </trkpt>
      <trkpt lat="48.635389" lon="16.737164">
        <ele>233.129687</ele>
        <time>2020-07-27T06:48:02.781Z</time>
      </trkpt>
      <trkpt lat="48.635372" lon="16.736981">
        <ele>233.078395</ele>
        <time>2020-07-27T06:48:05.805Z</time>
      </trkpt>
      <trkpt lat="48.635359" lon="16.736791">
        <ele>233.025377</ele>
        <time>2020-07-27T06:48:08.798Z</time>
      </trkpt>
      <trkpt lat="48.635352" lon="16.736614">
        <ele>232.976162</ele>
        <time>2020-07-27T06:48:11.794Z</time>
      </trkpt>
      <trkpt lat="48.635347" lon="16.736440">
        <ele>232.927821</ele>
        <time>2020-07-27T06:48:14.805Z</time>
      </trkpt>
      <trkpt lat="48.635342" lon="16.736259">
        <ele>232.877540</ele>
        <time>2020-07-27T06:48:17.790Z</time>
      </trkpt>
      <trkpt lat="48.635346" lon="16.736069">
        <ele>232.824777</ele>
        <time>2020-07-27T06:48:20.793Z</time>
      </trkpt>
      <trkpt lat="48.635356" lon="16.735866">
        <ele>232.767578</ele>
        <time>2020-07-27T06:48:23.794Z</time>
      </trkpt>
      <trkpt lat="48.635376" lon="16.735675">
        <ele>232.697954</ele>
        <time>2020-07-27T06:48:26.798Z</time>
      </trkpt>
      <trkpt lat="48.635411" lon="16.735491">
        <ele>232.629019</ele>
        <time>2020-07-27T06:48:29.801Z</time>
      </trkpt>
      <trkpt lat="48.635459" lon="16.735315">
        <ele>232.560470</ele>
        <time>2020-07-27T06:48:32.792Z</time>
      </trkpt>
      <trkpt lat="48.635506" lon="16.735161">
        <ele>232.499398</ele>
        <time>2020-07-27T06:48:35.789Z</time>
      </trkpt>
      <trkpt lat="48.635549" lon="16.734996">
        <ele>232.435541</ele>
        <time>2020-07-27T06:48:38.800Z</time>
      </trkpt>
      <trkpt lat="48.635588" lon="16.734848">
        <ele>232.378176</ele>
        <time>2020-07-27T06:48:42.826Z</time>
      </trkpt>
      <trkpt lat="48.635629" lon="16.734712">
        <ele>232.324358</ele>
        <time>2020-07-27T06:48:46.790Z</time>
      </trkpt>
      <trkpt lat="48.635688" lon="16.734555">
        <ele>232.259333</ele>
        <time>2020-07-27T06:48:50.800Z</time>
      </trkpt>
      <trkpt lat="48.635751" lon="16.734408">
        <ele>232.196254</ele>
        <time>2020-07-27T06:48:53.788Z</time>
      </trkpt>
      <trkpt lat="48.635825" lon="16.734252">
        <ele>232.127118</ele>
        <time>2020-07-27T06:48:56.794Z</time>
      </trkpt>
      <trkpt lat="48.635898" lon="16.734101">
        <ele>232.059760</ele>
        <time>2020-07-27T06:48:59.796Z</time>
      </trkpt>
      <trkpt lat="48.635969" lon="16.733939">
        <ele>231.989775</ele>
        <time>2020-07-27T06:49:02.815Z</time>
      </trkpt>
      <trkpt lat="48.635997" lon="16.733755">
        <ele>231.921796</ele>
        <time>2020-07-27T06:49:05.792Z</time>
      </trkpt>
      <trkpt lat="48.635925" lon="16.733610">
        <ele>231.856498</ele>
        <time>2020-07-27T06:49:08.782Z</time>
      </trkpt>
      <trkpt lat="48.635814" lon="16.733518">
        <ele>231.788369</ele>
        <time>2020-07-27T06:49:11.782Z</time>
      </trkpt>
      <trkpt lat="48.635700" lon="16.733432">
        <ele>231.736883</ele>
        <time>2020-07-27T06:49:14.811Z</time>
      </trkpt>
      <trkpt lat="48.635591" lon="16.733341">
        <ele>231.686567</ele>
        <time>2020-07-27T06:49:17.796Z</time>
      </trkpt>
      <trkpt lat="48.635480" lon="16.733246">
        <ele>231.635024</ele>
        <time>2020-07-27T06:49:20.791Z</time>
      </trkpt>
      <trkpt lat="48.635404" lon="16.733174">
        <ele>231.598782</ele>
        <time>2020-07-27T06:49:22.824Z</time>
      </trkpt>
      <trkpt lat="48.635322" lon="16.733104">
        <ele>231.560729</ele>
        <time>2020-07-27T06:49:24.786Z</time>
      </trkpt>
      <trkpt lat="48.635237" lon="16.733039">
        <ele>231.522235</ele>
        <time>2020-07-27T06:49:26.787Z</time>
      </trkpt>
      <trkpt lat="48.635151" lon="16.732960">
        <ele>231.481572</ele>
        <time>2020-07-27T06:49:28.792Z</time>
      </trkpt>
      <trkpt lat="48.635065" lon="16.732883">
        <ele>231.441183</ele>
        <time>2020-07-27T06:49:30.789Z</time>
      </trkpt>
      <trkpt lat="48.634969" lon="16.732796">
        <ele>231.395955</ele>
        <time>2020-07-27T06:49:32.806Z</time>
      </trkpt>
      <trkpt lat="48.634879" lon="16.732715">
        <ele>231.353630</ele>
        <time>2020-07-27T06:49:34.801Z</time>
      </trkpt>
      <trkpt lat="48.634797" lon="16.732644">
        <ele>231.315445</ele>
        <time>2020-07-27T06:49:36.802Z</time>
      </trkpt>
      <trkpt lat="48.634687" lon="16.732556">
        <ele>231.265154</ele>
        <time>2020-07-27T06:49:39.795Z</time>
      </trkpt>
      <trkpt lat="48.634579" lon="16.732469">
        <ele>231.215701</ele>
        <time>2020-07-27T06:49:42.793Z</time>
      </trkpt>
      <trkpt lat="48.634470" lon="16.732371">
        <ele>231.164455</ele>
        <time>2020-07-27T06:49:45.793Z</time>
      </trkpt>
      <trkpt lat="48.634381" lon="16.732298">
        <ele>231.123538</ele>
        <time>2020-07-27T06:49:47.791Z</time>
      </trkpt>
      <trkpt lat="48.634276" lon="16.732200">
        <ele>231.073675</ele>
        <time>2020-07-27T06:49:50.793Z</time>
      </trkpt>
      <trkpt lat="48.634165" lon="16.732109">
        <ele>231.015163</ele>
        <time>2020-07-27T06:49:53.793Z</time>
      </trkpt>
      <trkpt lat="48.634077" lon="16.732047">
        <ele>230.968781</ele>
        <time>2020-07-27T06:49:55.806Z</time>
      </trkpt>
      <trkpt lat="48.633980" lon="16.731976">
        <ele>230.917295</ele>
        <time>2020-07-27T06:49:57.826Z</time>
      </trkpt>
      <trkpt lat="48.633880" lon="16.731908">
        <ele>230.864911</ele>
        <time>2020-07-27T06:49:59.795Z</time>
      </trkpt>
      <trkpt lat="48.633782" lon="16.731831">
        <ele>230.812149</ele>
        <time>2020-07-27T06:50:01.812Z</time>
      </trkpt>
      <trkpt lat="48.633674" lon="16.731770">
        <ele>230.757068</ele>
        <time>2020-07-27T06:50:03.784Z</time>
      </trkpt>
      <trkpt lat="48.633564" lon="16.731704">
        <ele>230.700527</ele>
        <time>2020-07-27T06:50:05.799Z</time>
      </trkpt>
      <trkpt lat="48.633463" lon="16.731632">
        <ele>230.647180</ele>
        <time>2020-07-27T06:50:07.807Z</time>
      </trkpt>
      <trkpt lat="48.633355" lon="16.731564">
        <ele>230.591287</ele>
        <time>2020-07-27T06:50:09.802Z</time>
      </trkpt>
      <trkpt lat="48.633255" lon="16.731498">
        <ele>230.539159</ele>
        <time>2020-07-27T06:50:11.780Z</time>
      </trkpt>
      <trkpt lat="48.633154" lon="16.731430">
        <ele>230.486338</ele>
        <time>2020-07-27T06:50:13.787Z</time>
      </trkpt>
      <trkpt lat="48.633059" lon="16.731365">
        <ele>230.436521</ele>
        <time>2020-07-27T06:50:15.789Z</time>
      </trkpt>
      <trkpt lat="48.632965" lon="16.731293">
        <ele>230.386180</ele>
        <time>2020-07-27T06:50:17.817Z</time>
      </trkpt>
      <trkpt lat="48.632871" lon="16.731240">
        <ele>230.338249</ele>
        <time>2020-07-27T06:50:19.819Z</time>
      </trkpt>
      <trkpt lat="48.632773" lon="16.731190">
        <ele>230.288833</ele>
        <time>2020-07-27T06:50:21.799Z</time>
      </trkpt>
      <trkpt lat="48.632672" lon="16.731154">
        <ele>230.239253</ele>
        <time>2020-07-27T06:50:23.810Z</time>
      </trkpt>
      <trkpt lat="48.632571" lon="16.731115">
        <ele>230.193440</ele>
        <time>2020-07-27T06:50:25.804Z</time>
      </trkpt>
      <trkpt lat="48.632469" lon="16.731086">
        <ele>230.157154</ele>
        <time>2020-07-27T06:50:27.824Z</time>
      </trkpt>
      <trkpt lat="48.632371" lon="16.731051">
        <ele>230.121949</ele>
        <time>2020-07-27T06:50:29.828Z</time>
      </trkpt>
      <trkpt lat="48.632276" lon="16.731015">
        <ele>230.087709</ele>
        <time>2020-07-27T06:50:31.783Z</time>
      </trkpt>
      <trkpt lat="48.632183" lon="16.730972">
        <ele>230.053709</ele>
        <time>2020-07-27T06:50:33.784Z</time>
      </trkpt>
      <trkpt lat="48.632090" lon="16.730931">
        <ele>230.019842</ele>
        <time>2020-07-27T06:50:35.817Z</time>
      </trkpt>
      <trkpt lat="48.631996" lon="16.730893">
        <ele>229.985825</ele>
        <time>2020-07-27T06:50:37.811Z</time>
      </trkpt>
      <trkpt lat="48.631902" lon="16.730852">
        <ele>229.951622</ele>
        <time>2020-07-27T06:50:39.792Z</time>
      </trkpt>
      <trkpt lat="48.631805" lon="16.730813">
        <ele>229.916531</ele>
        <time>2020-07-27T06:50:41.793Z</time>
      </trkpt>
      <trkpt lat="48.631707" lon="16.730770">
        <ele>229.880857</ele>
        <time>2020-07-27T06:50:43.788Z</time>
      </trkpt>
      <trkpt lat="48.631612" lon="16.730718">
        <ele>229.845536</ele>
        <time>2020-07-27T06:50:45.795Z</time>
      </trkpt>
      <trkpt lat="48.631515" lon="16.730666">
        <ele>229.809556</ele>
        <time>2020-07-27T06:50:47.820Z</time>
      </trkpt>
      <trkpt lat="48.631417" lon="16.730632">
        <ele>229.774404</ele>
        <time>2020-07-27T06:50:49.805Z</time>
      </trkpt>
      <trkpt lat="48.631320" lon="16.730599">
        <ele>229.739644</ele>
        <time>2020-07-27T06:50:51.791Z</time>
      </trkpt>
      <trkpt lat="48.631233" lon="16.730560">
        <ele>229.707919</ele>
        <time>2020-07-27T06:50:53.818Z</time>
      </trkpt>
      <trkpt lat="48.631103" lon="16.730516">
        <ele>229.661345</ele>
        <time>2020-07-27T06:50:56.800Z</time>
      </trkpt>
      <trkpt lat="48.631009" lon="16.730474">
        <ele>229.627077</ele>
        <time>2020-07-27T06:50:58.793Z</time>
      </trkpt>
      <trkpt lat="48.630914" lon="16.730448">
        <ele>229.593324</ele>
        <time>2020-07-27T06:51:00.793Z</time>
      </trkpt>
      <trkpt lat="48.630825" lon="16.730421">
        <ele>229.564203</ele>
        <time>2020-07-27T06:51:02.809Z</time>
      </trkpt>
      <trkpt lat="48.630734" lon="16.730381">
        <ele>229.537309</ele>
        <time>2020-07-27T06:51:04.804Z</time>
      </trkpt>
      <trkpt lat="48.630640" lon="16.730337">
        <ele>229.509384</ele>
        <time>2020-07-27T06:51:06.787Z</time>
      </trkpt>
      <trkpt lat="48.630547" lon="16.730292">
        <ele>229.481674</ele>
        <time>2020-07-27T06:51:08.822Z</time>
      </trkpt>
      <trkpt lat="48.630450" lon="16.730246">
        <ele>229.452825</ele>
        <time>2020-07-27T06:51:10.808Z</time>
      </trkpt>
      <trkpt lat="48.630354" lon="16.730206">
        <ele>229.424565</ele>
        <time>2020-07-27T06:51:12.786Z</time>
      </trkpt>
      <trkpt lat="48.630258" lon="16.730165">
        <ele>229.396256</ele>
        <time>2020-07-27T06:51:14.787Z</time>
      </trkpt>
      <trkpt lat="48.630161" lon="16.730124">
        <ele>229.367673</ele>
        <time>2020-07-27T06:51:16.794Z</time>
      </trkpt>
      <trkpt lat="48.630067" lon="16.730080">
        <ele>229.339748</ele>
        <time>2020-07-27T06:51:18.799Z</time>
      </trkpt>
      <trkpt lat="48.629972" lon="16.730031">
        <ele>229.311263</ele>
        <time>2020-07-27T06:51:20.789Z</time>
      </trkpt>
      <trkpt lat="48.629877" lon="16.729988">
        <ele>229.283121</ele>
        <time>2020-07-27T06:51:22.809Z</time>
      </trkpt>
      <trkpt lat="48.629786" lon="16.729945">
        <ele>229.256065</ele>
        <time>2020-07-27T06:51:24.790Z</time>
      </trkpt>
      <trkpt lat="48.629696" lon="16.729902">
        <ele>229.229280</ele>
        <time>2020-07-27T06:51:26.815Z</time>
      </trkpt>
      <trkpt lat="48.629605" lon="16.729857">
        <ele>229.202109</ele>
        <time>2020-07-27T06:51:28.794Z</time>
      </trkpt>
      <trkpt lat="48.629515" lon="16.729816">
        <ele>229.175434</ele>
        <time>2020-07-27T06:51:30.784Z</time>
      </trkpt>
      <trkpt lat="48.629422" lon="16.729775">
        <ele>229.147943</ele>
        <time>2020-07-27T06:51:32.794Z</time>
      </trkpt>
      <trkpt lat="48.629329" lon="16.729746">
        <ele>229.120995</ele>
        <time>2020-07-27T06:51:34.825Z</time>
      </trkpt>
      <trkpt lat="48.629236" lon="16.729711">
        <ele>229.093797</ele>
        <time>2020-07-27T06:51:36.796Z</time>
      </trkpt>
      <trkpt lat="48.629144" lon="16.729666">
        <ele>229.066357</ele>
        <time>2020-07-27T06:51:38.814Z</time>
      </trkpt>
      <trkpt lat="48.629049" lon="16.729618">
        <ele>229.049304</ele>
        <time>2020-07-27T06:51:40.800Z</time>
      </trkpt>
      <trkpt lat="48.628955" lon="16.729576">
        <ele>229.033165</ele>
        <time>2020-07-27T06:51:42.797Z</time>
      </trkpt>
      <trkpt lat="48.628857" lon="16.729535">
        <ele>229.016424</ele>
        <time>2020-07-27T06:51:44.799Z</time>
      </trkpt>
      <trkpt lat="48.628759" lon="16.729499">
        <ele>228.999819</ele>
        <time>2020-07-27T06:51:46.788Z</time>
      </trkpt>
      <trkpt lat="48.628658" lon="16.729455">
        <ele>228.982513</ele>
        <time>2020-07-27T06:51:48.795Z</time>
      </trkpt>
      <trkpt lat="48.628557" lon="16.729405">
        <ele>228.965016</ele>
        <time>2020-07-27T06:51:50.797Z</time>
      </trkpt>
      <trkpt lat="48.628459" lon="16.729358">
        <ele>228.948089</ele>
        <time>2020-07-27T06:51:52.815Z</time>
      </trkpt>
      <trkpt lat="48.628360" lon="16.729318">
        <ele>228.931217</ele>
        <time>2020-07-27T06:51:54.803Z</time>
      </trkpt>
      <trkpt lat="48.628261" lon="16.729279">
        <ele>228.914373</ele>
        <time>2020-07-27T06:51:56.788Z</time>
      </trkpt>
      <trkpt lat="48.628164" lon="16.729240">
        <ele>228.897847</ele>
        <time>2020-07-27T06:51:58.804Z</time>
      </trkpt>
      <trkpt lat="48.628068" lon="16.729197">
        <ele>228.881362</ele>
        <time>2020-07-27T06:52:00.799Z</time>
      </trkpt>
      <trkpt lat="48.627970" lon="16.729151">
        <ele>228.864468</ele>
        <time>2020-07-27T06:52:02.819Z</time>
      </trkpt>
      <trkpt lat="48.627877" lon="16.729106">
        <ele>228.848391</ele>
        <time>2020-07-27T06:52:04.798Z</time>
      </trkpt>
      <trkpt lat="48.627786" lon="16.729065">
        <ele>228.832757</ele>
        <time>2020-07-27T06:52:06.786Z</time>
      </trkpt>
      <trkpt lat="48.627697" lon="16.729024">
        <ele>228.817439</ele>
        <time>2020-07-27T06:52:08.816Z</time>
      </trkpt>
      <trkpt lat="48.627608" lon="16.728983">
        <ele>228.802120</ele>
        <time>2020-07-27T06:52:10.812Z</time>
      </trkpt>
      <trkpt lat="48.627518" lon="16.728942">
        <ele>228.786644</ele>
        <time>2020-07-27T06:52:12.811Z</time>
      </trkpt>
      <trkpt lat="48.627431" lon="16.728901">
        <ele>228.771641</ele>
        <time>2020-07-27T06:52:14.789Z</time>
      </trkpt>
      <trkpt lat="48.627301" lon="16.728844">
        <ele>228.757422</ele>
        <time>2020-07-27T06:52:17.797Z</time>
      </trkpt>
      <trkpt lat="48.627215" lon="16.728803">
        <ele>228.748714</ele>
        <time>2020-07-27T06:52:19.810Z</time>
      </trkpt>
      <trkpt lat="48.627127" lon="16.728765">
        <ele>228.739875</ele>
        <time>2020-07-27T06:52:21.787Z</time>
      </trkpt>
      <trkpt lat="48.627041" lon="16.728722">
        <ele>228.731128</ele>
        <time>2020-07-27T06:52:23.805Z</time>
      </trkpt>
      <trkpt lat="48.626954" lon="16.728680">
        <ele>228.722308</ele>
        <time>2020-07-27T06:52:25.786Z</time>
      </trkpt>
      <trkpt lat="48.626864" lon="16.728636">
        <ele>228.713173</ele>
        <time>2020-07-27T06:52:27.772Z</time>
      </trkpt>
      <trkpt lat="48.626773" lon="16.728607">
        <ele>228.704192</ele>
        <time>2020-07-27T06:52:29.787Z</time>
      </trkpt>
      <trkpt lat="48.626685" lon="16.728573">
        <ele>228.695420</ele>
        <time>2020-07-27T06:52:31.790Z</time>
      </trkpt>
      <trkpt lat="48.626597" lon="16.728540">
        <ele>228.686664</ele>
        <time>2020-07-27T06:52:33.799Z</time>
      </trkpt>
      <trkpt lat="48.626509" lon="16.728508">
        <ele>228.677923</ele>
        <time>2020-07-27T06:52:35.789Z</time>
      </trkpt>
      <trkpt lat="48.626419" lon="16.728471">
        <ele>228.668916</ele>
        <time>2020-07-27T06:52:37.802Z</time>
      </trkpt>
      <trkpt lat="48.626330" lon="16.728435">
        <ele>228.660019</ele>
        <time>2020-07-27T06:52:39.808Z</time>
      </trkpt>
      <trkpt lat="48.626243" lon="16.728394">
        <ele>228.651218</ele>
        <time>2020-07-27T06:52:41.803Z</time>
      </trkpt>
      <trkpt lat="48.626154" lon="16.728357">
        <ele>228.642304</ele>
        <time>2020-07-27T06:52:43.786Z</time>
      </trkpt>
      <trkpt lat="48.626025" lon="16.728304">
        <ele>228.629394</ele>
        <time>2020-07-27T06:52:46.785Z</time>
      </trkpt>
      <trkpt lat="48.625933" lon="16.728265">
        <ele>228.620167</ele>
        <time>2020-07-27T06:52:48.795Z</time>
      </trkpt>
      <trkpt lat="48.625838" lon="16.728222">
        <ele>228.610590</ele>
        <time>2020-07-27T06:52:50.805Z</time>
      </trkpt>
      <trkpt lat="48.625732" lon="16.728175">
        <ele>228.599922</ele>
        <time>2020-07-27T06:52:52.826Z</time>
      </trkpt>
      <trkpt lat="48.625621" lon="16.728129">
        <ele>228.566446</ele>
        <time>2020-07-27T06:52:54.809Z</time>
      </trkpt>
      <trkpt lat="48.625505" lon="16.728081">
        <ele>228.513924</ele>
        <time>2020-07-27T06:52:56.807Z</time>
      </trkpt>
      <trkpt lat="48.625384" lon="16.728023">
        <ele>228.458491</ele>
        <time>2020-07-27T06:52:58.800Z</time>
      </trkpt>
      <trkpt lat="48.625262" lon="16.727959">
        <ele>228.402097</ele>
        <time>2020-07-27T06:53:00.792Z</time>
      </trkpt>
      <trkpt lat="48.625141" lon="16.727905">
        <ele>228.347002</ele>
        <time>2020-07-27T06:53:02.838Z</time>
      </trkpt>
      <trkpt lat="48.625018" lon="16.727859">
        <ele>228.291667</ele>
        <time>2020-07-27T06:53:04.822Z</time>
      </trkpt>
      <trkpt lat="48.624896" lon="16.727835">
        <ele>228.237937</ele>
        <time>2020-07-27T06:53:06.790Z</time>
      </trkpt>
      <trkpt lat="48.624784" lon="16.727811">
        <ele>228.188535</ele>
        <time>2020-07-27T06:53:08.801Z</time>
      </trkpt>
      <trkpt lat="48.624683" lon="16.727774">
        <ele>228.143150</ele>
        <time>2020-07-27T06:53:10.787Z</time>
      </trkpt>
      <trkpt lat="48.624585" lon="16.727726">
        <ele>228.098163</ele>
        <time>2020-07-27T06:53:12.786Z</time>
      </trkpt>
      <trkpt lat="48.624474" lon="16.727714">
        <ele>228.049563</ele>
        <time>2020-07-27T06:53:14.813Z</time>
      </trkpt>
      <trkpt lat="48.624364" lon="16.727741">
        <ele>228.000894</ele>
        <time>2020-07-27T06:53:16.789Z</time>
      </trkpt>
      <trkpt lat="48.624251" lon="16.727777">
        <ele>227.950461</ele>
        <time>2020-07-27T06:53:18.775Z</time>
      </trkpt>
      <trkpt lat="48.624138" lon="16.727784">
        <ele>227.901069</ele>
        <time>2020-07-27T06:53:20.780Z</time>
      </trkpt>
      <trkpt lat="48.624039" lon="16.727710">
        <ele>227.852843</ele>
        <time>2020-07-27T06:53:22.788Z</time>
      </trkpt>
      <trkpt lat="48.623949" lon="16.727615">
        <ele>227.814108</ele>
        <time>2020-07-27T06:53:24.784Z</time>
      </trkpt>
      <trkpt lat="48.623860" lon="16.727531">
        <ele>227.857580</ele>
        <time>2020-07-27T06:53:26.781Z</time>
      </trkpt>
      <trkpt lat="48.623772" lon="16.727446">
        <ele>227.900847</ele>
        <time>2020-07-27T06:53:28.790Z</time>
      </trkpt>
      <trkpt lat="48.623687" lon="16.727365">
        <ele>227.942477</ele>
        <time>2020-07-27T06:53:30.800Z</time>
      </trkpt>
      <trkpt lat="48.623601" lon="16.727290">
        <ele>227.983614</ele>
        <time>2020-07-27T06:53:32.777Z</time>
      </trkpt>
      <trkpt lat="48.623516" lon="16.727219">
        <ele>228.023851</ele>
        <time>2020-07-27T06:53:34.789Z</time>
      </trkpt>
      <trkpt lat="48.623432" lon="16.727142">
        <ele>228.064553</ele>
        <time>2020-07-27T06:53:36.808Z</time>
      </trkpt>
      <trkpt lat="48.623354" lon="16.727056">
        <ele>228.104551</ele>
        <time>2020-07-27T06:53:38.797Z</time>
      </trkpt>
      <trkpt lat="48.623285" lon="16.726961">
        <ele>228.143214</ele>
        <time>2020-07-27T06:53:40.803Z</time>
      </trkpt>
      <trkpt lat="48.623191" lon="16.726826">
        <ele>228.196926</ele>
        <time>2020-07-27T06:53:43.782Z</time>
      </trkpt>
      <trkpt lat="48.623125" lon="16.726733">
        <ele>228.234303</ele>
        <time>2020-07-27T06:53:45.781Z</time>
      </trkpt>
      <trkpt lat="48.623057" lon="16.726638">
        <ele>228.272661</ele>
        <time>2020-07-27T06:53:47.797Z</time>
      </trkpt>
      <trkpt lat="48.622990" lon="16.726543">
        <ele>228.310715</ele>
        <time>2020-07-27T06:53:49.784Z</time>
      </trkpt>
      <trkpt lat="48.622923" lon="16.726447">
        <ele>228.348957</ele>
        <time>2020-07-27T06:53:51.785Z</time>
      </trkpt>
      <trkpt lat="48.622856" lon="16.726353">
        <ele>228.386825</ele>
        <time>2020-07-27T06:53:53.794Z</time>
      </trkpt>
      <trkpt lat="48.622792" lon="16.726255">
        <ele>228.424562</ele>
        <time>2020-07-27T06:53:55.790Z</time>
      </trkpt>
      <trkpt lat="48.622728" lon="16.726151">
        <ele>228.463486</ele>
        <time>2020-07-27T06:53:57.816Z</time>
      </trkpt>
      <trkpt lat="48.622664" lon="16.726052">
        <ele>228.501418</ele>
        <time>2020-07-27T06:53:59.785Z</time>
      </trkpt>
      <trkpt lat="48.622599" lon="16.725953">
        <ele>228.539642</ele>
        <time>2020-07-27T06:54:01.796Z</time>
      </trkpt>
      <trkpt lat="48.622504" lon="16.725813">
        <ele>228.608394</ele>
        <time>2020-07-27T06:54:04.788Z</time>
      </trkpt>
      <trkpt lat="48.622410" lon="16.725671">
        <ele>228.682621</ele>
        <time>2020-07-27T06:54:07.797Z</time>
      </trkpt>
      <trkpt lat="48.622313" lon="16.725531">
        <ele>228.757531</ele>
        <time>2020-07-27T06:54:10.800Z</time>
      </trkpt>
      <trkpt lat="48.622224" lon="16.725392">
        <ele>228.829007</ele>
        <time>2020-07-27T06:54:13.786Z</time>
      </trkpt>
      <trkpt lat="48.622142" lon="16.725278">
        <ele>228.891235</ele>
        <time>2020-07-27T06:54:16.803Z</time>
      </trkpt>
      <trkpt lat="48.622068" lon="16.725187">
        <ele>228.944521</ele>
        <time>2020-07-27T06:54:19.792Z</time>
      </trkpt>
      <trkpt lat="48.621983" lon="16.725077">
        <ele>229.007023</ele>
        <time>2020-07-27T06:54:23.792Z</time>
      </trkpt>
      <trkpt lat="48.621906" lon="16.724973">
        <ele>229.064701</ele>
        <time>2020-07-27T06:54:27.808Z</time>
      </trkpt>
      <trkpt lat="48.621831" lon="16.724851">
        <ele>229.126238</ele>
        <time>2020-07-27T06:54:31.819Z</time>
      </trkpt>
      <trkpt lat="48.621765" lon="16.724748">
        <ele>229.179222</ele>
        <time>2020-07-27T06:54:34.801Z</time>
      </trkpt>
      <trkpt lat="48.621676" lon="16.724637">
        <ele>229.243673</ele>
        <time>2020-07-27T06:54:37.826Z</time>
      </trkpt>
      <trkpt lat="48.621582" lon="16.724492">
        <ele>229.318687</ele>
        <time>2020-07-27T06:54:40.801Z</time>
      </trkpt>
      <trkpt lat="48.621511" lon="16.724388">
        <ele>229.373909</ele>
        <time>2020-07-27T06:54:42.796Z</time>
      </trkpt>
      <trkpt lat="48.621430" lon="16.724278">
        <ele>229.434731</ele>
        <time>2020-07-27T06:54:44.795Z</time>
      </trkpt>
      <trkpt lat="48.621345" lon="16.724167">
        <ele>229.497474</ele>
        <time>2020-07-27T06:54:46.778Z</time>
      </trkpt>
      <trkpt lat="48.621260" lon="16.724045">
        <ele>229.559723</ele>
        <time>2020-07-27T06:54:48.786Z</time>
      </trkpt>
      <trkpt lat="48.621171" lon="16.723921">
        <ele>229.552738</ele>
        <time>2020-07-27T06:54:50.796Z</time>
      </trkpt>
      <trkpt lat="48.621082" lon="16.723788">
        <ele>229.545517</ele>
        <time>2020-07-27T06:54:52.785Z</time>
      </trkpt>
      <trkpt lat="48.620989" lon="16.723648">
        <ele>229.537943</ele>
        <time>2020-07-27T06:54:54.800Z</time>
      </trkpt>
      <trkpt lat="48.620895" lon="16.723510">
        <ele>229.530382</ele>
        <time>2020-07-27T06:54:56.782Z</time>
      </trkpt>
      <trkpt lat="48.620803" lon="16.723380">
        <ele>229.523115</ele>
        <time>2020-07-27T06:54:58.796Z</time>
      </trkpt>
      <trkpt lat="48.620719" lon="16.723264">
        <ele>229.516549</ele>
        <time>2020-07-27T06:55:00.786Z</time>
      </trkpt>
      <trkpt lat="48.620641" lon="16.723155">
        <ele>229.510419</ele>
        <time>2020-07-27T06:55:02.791Z</time>
      </trkpt>
      <trkpt lat="48.620568" lon="16.723049">
        <ele>229.504578</ele>
        <time>2020-07-27T06:55:04.793Z</time>
      </trkpt>
      <trkpt lat="48.620496" lon="16.722946">
        <ele>229.498858</ele>
        <time>2020-07-27T06:55:06.817Z</time>
      </trkpt>
      <trkpt lat="48.620423" lon="16.722844">
        <ele>229.493122</ele>
        <time>2020-07-27T06:55:08.786Z</time>
      </trkpt>
      <trkpt lat="48.620348" lon="16.722736">
        <ele>229.487144</ele>
        <time>2020-07-27T06:55:10.825Z</time>
      </trkpt>
      <trkpt lat="48.620274" lon="16.722622">
        <ele>229.481048</ele>
        <time>2020-07-27T06:55:12.817Z</time>
      </trkpt>
      <trkpt lat="48.620201" lon="16.722512">
        <ele>229.475100</ele>
        <time>2020-07-27T06:55:14.799Z</time>
      </trkpt>
      <trkpt lat="48.620128" lon="16.722406">
        <ele>229.469259</ele>
        <time>2020-07-27T06:55:16.796Z</time>
      </trkpt>
      <trkpt lat="48.620052" lon="16.722303">
        <ele>229.463369</ele>
        <time>2020-07-27T06:55:18.804Z</time>
      </trkpt>
      <trkpt lat="48.619977" lon="16.722204">
        <ele>229.457623</ele>
        <time>2020-07-27T06:55:20.795Z</time>
      </trkpt>
      <trkpt lat="48.619909" lon="16.722111">
        <ele>229.450568</ele>
        <time>2020-07-27T06:55:22.785Z</time>
      </trkpt>
      <trkpt lat="48.619812" lon="16.721973">
        <ele>229.439377</ele>
        <time>2020-07-27T06:55:25.802Z</time>
      </trkpt>
      <trkpt lat="48.619712" lon="16.721835">
        <ele>229.428001</ele>
        <time>2020-07-27T06:55:28.792Z</time>
      </trkpt>
      <trkpt lat="48.619642" lon="16.721738">
        <ele>229.420023</ele>
        <time>2020-07-27T06:55:30.802Z</time>
      </trkpt>
      <trkpt lat="48.619572" lon="16.721636">
        <ele>229.411854</ele>
        <time>2020-07-27T06:55:32.793Z</time>
      </trkpt>
      <trkpt lat="48.619500" lon="16.721527">
        <ele>229.403293</ele>
        <time>2020-07-27T06:55:34.798Z</time>
      </trkpt>
      <trkpt lat="48.619429" lon="16.721415">
        <ele>229.394672</ele>
        <time>2020-07-27T06:55:36.801Z</time>
      </trkpt>
      <trkpt lat="48.619362" lon="16.721303">
        <ele>229.386280</ele>
        <time>2020-07-27T06:55:38.801Z</time>
      </trkpt>
      <trkpt lat="48.619282" lon="16.721196">
        <ele>229.377305</ele>
        <time>2020-07-27T06:55:41.812Z</time>
      </trkpt>
      <trkpt lat="48.619183" lon="16.721171">
        <ele>229.368869</ele>
        <time>2020-07-27T06:55:44.780Z</time>
      </trkpt>
      <trkpt lat="48.619069" lon="16.721213">
        <ele>229.359008</ele>
        <time>2020-07-27T06:55:47.791Z</time>
      </trkpt>
      <trkpt lat="48.618942" lon="16.721248">
        <ele>229.348159</ele>
        <time>2020-07-27T06:55:50.790Z</time>
      </trkpt>
      <trkpt lat="48.618852" lon="16.721274">
        <ele>229.340458</ele>
        <time>2020-07-27T06:55:52.808Z</time>
      </trkpt>
      <trkpt lat="48.618761" lon="16.721302">
        <ele>229.332654</ele>
        <time>2020-07-27T06:55:54.796Z</time>
      </trkpt>
      <trkpt lat="48.618668" lon="16.721336">
        <ele>229.324613</ele>
        <time>2020-07-27T06:55:56.812Z</time>
      </trkpt>
      <trkpt lat="48.618575" lon="16.721369">
        <ele>229.316584</ele>
        <time>2020-07-27T06:55:58.812Z</time>
      </trkpt>
      <trkpt lat="48.618481" lon="16.721395">
        <ele>229.308553</ele>
        <time>2020-07-27T06:56:00.785Z</time>
      </trkpt>
      <trkpt lat="48.618387" lon="16.721418">
        <ele>229.299803</ele>
        <time>2020-07-27T06:56:02.789Z</time>
      </trkpt>
      <trkpt lat="48.618295" lon="16.721441">
        <ele>229.290660</ele>
        <time>2020-07-27T06:56:04.805Z</time>
      </trkpt>
      <trkpt lat="48.618203" lon="16.721476">
        <ele>229.281357</ele>
        <time>2020-07-27T06:56:06.786Z</time>
      </trkpt>
      <trkpt lat="48.618079" lon="16.721532">
        <ele>229.268668</ele>
        <time>2020-07-27T06:56:09.785Z</time>
      </trkpt>
      <trkpt lat="48.617961" lon="16.721570">
        <ele>229.256838</ele>
        <time>2020-07-27T06:56:12.799Z</time>
      </trkpt>
      <trkpt lat="48.617838" lon="16.721604">
        <ele>229.244577</ele>
        <time>2020-07-27T06:56:15.786Z</time>
      </trkpt>
      <trkpt lat="48.617718" lon="16.721642">
        <ele>229.232555</ele>
        <time>2020-07-27T06:56:18.805Z</time>
      </trkpt>
      <trkpt lat="48.617600" lon="16.721679">
        <ele>229.220739</ele>
        <time>2020-07-27T06:56:21.786Z</time>
      </trkpt>
      <trkpt lat="48.617473" lon="16.721712">
        <ele>229.208103</ele>
        <time>2020-07-27T06:56:24.805Z</time>
      </trkpt>
      <trkpt lat="48.617347" lon="16.721736">
        <ele>229.195650</ele>
        <time>2020-07-27T06:56:27.794Z</time>
      </trkpt>
      <trkpt lat="48.617216" lon="16.721752">
        <ele>229.182763</ele>
        <time>2020-07-27T06:56:30.795Z</time>
      </trkpt>
      <trkpt lat="48.617125" lon="16.721753">
        <ele>229.173840</ele>
        <time>2020-07-27T06:56:32.816Z</time>
      </trkpt>
      <trkpt lat="48.617031" lon="16.721758">
        <ele>229.164616</ele>
        <time>2020-07-27T06:56:34.817Z</time>
      </trkpt>
      <trkpt lat="48.616931" lon="16.721765">
        <ele>229.154800</ele>
        <time>2020-07-27T06:56:36.806Z</time>
      </trkpt>
      <trkpt lat="48.616832" lon="16.721770">
        <ele>229.145087</ele>
        <time>2020-07-27T06:56:38.810Z</time>
      </trkpt>
      <trkpt lat="48.616726" lon="16.721766">
        <ele>229.134690</ele>
        <time>2020-07-27T06:56:40.788Z</time>
      </trkpt>
      <trkpt lat="48.616621" lon="16.721759">
        <ele>229.125430</ele>
        <time>2020-07-27T06:56:42.789Z</time>
      </trkpt>
      <trkpt lat="48.616510" lon="16.721752">
        <ele>229.117200</ele>
        <time>2020-07-27T06:56:44.811Z</time>
      </trkpt>
      <trkpt lat="48.616392" lon="16.721750">
        <ele>229.108458</ele>
        <time>2020-07-27T06:56:46.786Z</time>
      </trkpt>
      <trkpt lat="48.616273" lon="16.721745">
        <ele>229.099639</ele>
        <time>2020-07-27T06:56:48.790Z</time>
      </trkpt>
      <trkpt lat="48.616151" lon="16.721748">
        <ele>229.090600</ele>
        <time>2020-07-27T06:56:50.776Z</time>
      </trkpt>
      <trkpt lat="48.616028" lon="16.721751">
        <ele>229.081487</ele>
        <time>2020-07-27T06:56:52.795Z</time>
      </trkpt>
      <trkpt lat="48.615902" lon="16.721757">
        <ele>229.072148</ele>
        <time>2020-07-27T06:56:54.794Z</time>
      </trkpt>
      <trkpt lat="48.615770" lon="16.721763">
        <ele>229.062365</ele>
        <time>2020-07-27T06:56:56.791Z</time>
      </trkpt>
      <trkpt lat="48.615634" lon="16.721769">
        <ele>229.052286</ele>
        <time>2020-07-27T06:56:58.810Z</time>
      </trkpt>
      <trkpt lat="48.615499" lon="16.721783">
        <ele>229.042262</ele>
        <time>2020-07-27T06:57:00.815Z</time>
      </trkpt>
      <trkpt lat="48.615363" lon="16.721791">
        <ele>229.032179</ele>
        <time>2020-07-27T06:57:02.794Z</time>
      </trkpt>
      <trkpt lat="48.615229" lon="16.721798">
        <ele>229.022247</ele>
        <time>2020-07-27T06:57:04.782Z</time>
      </trkpt>
      <trkpt lat="48.615101" lon="16.721814">
        <ele>229.012732</ele>
        <time>2020-07-27T06:57:06.798Z</time>
      </trkpt>
      <trkpt lat="48.614977" lon="16.721819">
        <ele>229.003543</ele>
        <time>2020-07-27T06:57:08.810Z</time>
      </trkpt>
      <trkpt lat="48.614854" lon="16.721827">
        <ele>229.006088</ele>
        <time>2020-07-27T06:57:10.798Z</time>
      </trkpt>
      <trkpt lat="48.614735" lon="16.721836">
        <ele>229.100687</ele>
        <time>2020-07-27T06:57:12.787Z</time>
      </trkpt>
      <trkpt lat="48.614620" lon="16.721846">
        <ele>229.192142</ele>
        <time>2020-07-27T06:57:14.812Z</time>
      </trkpt>
      <trkpt lat="48.614506" lon="16.721853">
        <ele>229.282728</ele>
        <time>2020-07-27T06:57:16.816Z</time>
      </trkpt>
      <trkpt lat="48.614398" lon="16.721859">
        <ele>229.368532</ele>
        <time>2020-07-27T06:57:18.788Z</time>
      </trkpt>
      <trkpt lat="48.614293" lon="16.721866">
        <ele>229.451979</ele>
        <time>2020-07-27T06:57:20.798Z</time>
      </trkpt>
      <trkpt lat="48.614191" lon="16.721870">
        <ele>229.532989</ele>
        <time>2020-07-27T06:57:22.800Z</time>
      </trkpt>
      <trkpt lat="48.614093" lon="16.721875">
        <ele>229.610841</ele>
        <time>2020-07-27T06:57:24.788Z</time>
      </trkpt>
      <trkpt lat="48.613998" lon="16.721880">
        <ele>229.686312</ele>
        <time>2020-07-27T06:57:26.831Z</time>
      </trkpt>
      <trkpt lat="48.613901" lon="16.721878">
        <ele>229.763333</ele>
        <time>2020-07-27T06:57:28.778Z</time>
      </trkpt>
      <trkpt lat="48.613803" lon="16.721882">
        <ele>229.841169</ele>
        <time>2020-07-27T06:57:30.791Z</time>
      </trkpt>
      <trkpt lat="48.613707" lon="16.721888">
        <ele>229.917453</ele>
        <time>2020-07-27T06:57:32.790Z</time>
      </trkpt>
      <trkpt lat="48.613610" lon="16.721905">
        <ele>229.994982</ele>
        <time>2020-07-27T06:57:34.786Z</time>
      </trkpt>
      <trkpt lat="48.613516" lon="16.721917">
        <ele>230.069879</ele>
        <time>2020-07-27T06:57:36.787Z</time>
      </trkpt>
      <trkpt lat="48.613425" lon="16.721930">
        <ele>230.142451</ele>
        <time>2020-07-27T06:57:38.785Z</time>
      </trkpt>
      <trkpt lat="48.613333" lon="16.721937">
        <ele>230.215587</ele>
        <time>2020-07-27T06:57:40.791Z</time>
      </trkpt>
      <trkpt lat="48.613240" lon="16.721939">
        <ele>230.289432</ele>
        <time>2020-07-27T06:57:42.803Z</time>
      </trkpt>
      <trkpt lat="48.613147" lon="16.721943">
        <ele>230.363299</ele>
        <time>2020-07-27T06:57:44.795Z</time>
      </trkpt>
      <trkpt lat="48.613054" lon="16.721946">
        <ele>230.427902</ele>
        <time>2020-07-27T06:57:46.789Z</time>
      </trkpt>
      <trkpt lat="48.612959" lon="16.721947">
        <ele>230.452372</ele>
        <time>2020-07-27T06:57:48.799Z</time>
      </trkpt>
      <trkpt lat="48.612867" lon="16.721946">
        <ele>230.476070</ele>
        <time>2020-07-27T06:57:50.786Z</time>
      </trkpt>
      <trkpt lat="48.612776" lon="16.721945">
        <ele>230.499510</ele>
        <time>2020-07-27T06:57:52.810Z</time>
      </trkpt>
      <trkpt lat="48.612644" lon="16.721947">
        <ele>230.533512</ele>
        <time>2020-07-27T06:57:55.801Z</time>
      </trkpt>
      <trkpt lat="48.612510" lon="16.721950">
        <ele>230.568032</ele>
        <time>2020-07-27T06:57:58.791Z</time>
      </trkpt>
      <trkpt lat="48.612416" lon="16.721955">
        <ele>230.592259</ele>
        <time>2020-07-27T06:58:00.827Z</time>
      </trkpt>
      <trkpt lat="48.612320" lon="16.721965">
        <ele>230.617045</ele>
        <time>2020-07-27T06:58:02.794Z</time>
      </trkpt>
      <trkpt lat="48.612224" lon="16.721972">
        <ele>230.641802</ele>
        <time>2020-07-27T06:58:04.801Z</time>
      </trkpt>
      <trkpt lat="48.612131" lon="16.721987">
        <ele>230.665892</ele>
        <time>2020-07-27T06:58:06.801Z</time>
      </trkpt>
      <trkpt lat="48.612036" lon="16.722001">
        <ele>230.690478</ele>
        <time>2020-07-27T06:58:08.780Z</time>
      </trkpt>
      <trkpt lat="48.611944" lon="16.722011">
        <ele>230.714236</ele>
        <time>2020-07-27T06:58:10.782Z</time>
      </trkpt>
      <trkpt lat="48.611851" lon="16.722019">
        <ele>230.738230</ele>
        <time>2020-07-27T06:58:12.790Z</time>
      </trkpt>
      <trkpt lat="48.611756" lon="16.722026">
        <ele>230.762729</ele>
        <time>2020-07-27T06:58:14.782Z</time>
      </trkpt>
      <trkpt lat="48.611656" lon="16.722031">
        <ele>230.788501</ele>
        <time>2020-07-27T06:58:16.809Z</time>
      </trkpt>
      <trkpt lat="48.611557" lon="16.722035">
        <ele>230.814010</ele>
        <time>2020-07-27T06:58:18.791Z</time>
      </trkpt>
      <trkpt lat="48.611459" lon="16.722034">
        <ele>230.839254</ele>
        <time>2020-07-27T06:58:20.789Z</time>
      </trkpt>
      <trkpt lat="48.611361" lon="16.722037">
        <ele>230.864502</ele>
        <time>2020-07-27T06:58:22.797Z</time>
      </trkpt>
      <trkpt lat="48.611227" lon="16.722034">
        <ele>230.910734</ele>
        <time>2020-07-27T06:58:25.784Z</time>
      </trkpt>
      <trkpt lat="48.611132" lon="16.722036">
        <ele>230.958568</ele>
        <time>2020-07-27T06:58:27.825Z</time>
      </trkpt>
      <trkpt lat="48.611029" lon="16.722040">
        <ele>231.010442</ele>
        <time>2020-07-27T06:58:29.845Z</time>
      </trkpt>
      <trkpt lat="48.610930" lon="16.722040">
        <ele>231.060285</ele>
        <time>2020-07-27T06:58:31.790Z</time>
      </trkpt>
      <trkpt lat="48.610823" lon="16.722030">
        <ele>231.114259</ele>
        <time>2020-07-27T06:58:33.804Z</time>
      </trkpt>
      <trkpt lat="48.610715" lon="16.722013">
        <ele>231.168927</ele>
        <time>2020-07-27T06:58:35.802Z</time>
      </trkpt>
      <trkpt lat="48.610609" lon="16.721997">
        <ele>231.222559</ele>
        <time>2020-07-27T06:58:37.799Z</time>
      </trkpt>
      <trkpt lat="48.610504" lon="16.721978">
        <ele>231.275800</ele>
        <time>2020-07-27T06:58:39.800Z</time>
      </trkpt>
      <trkpt lat="48.610400" lon="16.721955">
        <ele>231.328717</ele>
        <time>2020-07-27T06:58:41.810Z</time>
      </trkpt>
      <trkpt lat="48.610290" lon="16.721937">
        <ele>231.384421</ele>
        <time>2020-07-27T06:58:43.808Z</time>
      </trkpt>
      <trkpt lat="48.610179" lon="16.721915">
        <ele>231.440784</ele>
        <time>2020-07-27T06:58:45.792Z</time>
      </trkpt>
      <trkpt lat="48.610070" lon="16.721892">
        <ele>231.496193</ele>
        <time>2020-07-27T06:58:47.805Z</time>
      </trkpt>
      <trkpt lat="48.609963" lon="16.721867">
        <ele>231.550703</ele>
        <time>2020-07-27T06:58:49.792Z</time>
      </trkpt>
      <trkpt lat="48.609858" lon="16.721842">
        <ele>231.604218</ele>
        <time>2020-07-27T06:58:51.813Z</time>
      </trkpt>
      <trkpt lat="48.609753" lon="16.721817">
        <ele>231.657733</ele>
        <time>2020-07-27T06:58:53.822Z</time>
      </trkpt>
      <trkpt lat="48.609651" lon="16.721793">
        <ele>231.709704</ele>
        <time>2020-07-27T06:58:55.821Z</time>
      </trkpt>
      <trkpt lat="48.609550" lon="16.721768">
        <ele>231.761231</ele>
        <time>2020-07-27T06:58:57.796Z</time>
      </trkpt>
      <trkpt lat="48.609449" lon="16.721748">
        <ele>231.816774</ele>
        <time>2020-07-27T06:58:59.799Z</time>
      </trkpt>
      <trkpt lat="48.609353" lon="16.721724">
        <ele>231.876089</ele>
        <time>2020-07-27T06:59:01.794Z</time>
      </trkpt>
      <trkpt lat="48.609254" lon="16.721707">
        <ele>231.936826</ele>
        <time>2020-07-27T06:59:03.787Z</time>
      </trkpt>
      <trkpt lat="48.609158" lon="16.721691">
        <ele>231.995700</ele>
        <time>2020-07-27T06:59:05.782Z</time>
      </trkpt>
      <trkpt lat="48.609066" lon="16.721671">
        <ele>232.052359</ele>
        <time>2020-07-27T06:59:07.811Z</time>
      </trkpt>
      <trkpt lat="48.608975" lon="16.721652">
        <ele>232.108357</ele>
        <time>2020-07-27T06:59:09.824Z</time>
      </trkpt>
      <trkpt lat="48.608885" lon="16.721630">
        <ele>232.163932</ele>
        <time>2020-07-27T06:59:11.806Z</time>
      </trkpt>
      <trkpt lat="48.608795" lon="16.721612">
        <ele>232.219273</ele>
        <time>2020-07-27T06:59:13.791Z</time>
      </trkpt>
      <trkpt lat="48.608669" lon="16.721584">
        <ele>232.296905</ele>
        <time>2020-07-27T06:59:16.799Z</time>
      </trkpt>
      <trkpt lat="48.608541" lon="16.721558">
        <ele>232.375633</ele>
        <time>2020-07-27T06:59:19.818Z</time>
      </trkpt>
      <trkpt lat="48.608413" lon="16.721534">
        <ele>232.454258</ele>
        <time>2020-07-27T06:59:22.790Z</time>
      </trkpt>
      <trkpt lat="48.608283" lon="16.721512">
        <ele>232.533999</ele>
        <time>2020-07-27T06:59:25.792Z</time>
      </trkpt>
      <trkpt lat="48.608191" lon="16.721485">
        <ele>232.591127</ele>
        <time>2020-07-27T06:59:27.786Z</time>
      </trkpt>
      <trkpt lat="48.608098" lon="16.721456">
        <ele>232.649011</ele>
        <time>2020-07-27T06:59:29.794Z</time>
      </trkpt>
      <trkpt lat="48.608003" lon="16.721439">
        <ele>232.707326</ele>
        <time>2020-07-27T06:59:31.797Z</time>
      </trkpt>
      <trkpt lat="48.607904" lon="16.721439">
        <ele>232.767675</ele>
        <time>2020-07-27T06:59:33.823Z</time>
      </trkpt>
      <trkpt lat="48.607794" lon="16.721443">
        <ele>232.834749</ele>
        <time>2020-07-27T06:59:35.794Z</time>
      </trkpt>
      <trkpt lat="48.607679" lon="16.721450">
        <ele>232.880571</ele>
        <time>2020-07-27T06:59:37.789Z</time>
      </trkpt>
      <trkpt lat="48.607557" lon="16.721466">
        <ele>232.842881</ele>
        <time>2020-07-27T06:59:39.801Z</time>
      </trkpt>
      <trkpt lat="48.607431" lon="16.721485">
        <ele>232.803909</ele>
        <time>2020-07-27T06:59:41.798Z</time>
      </trkpt>
      <trkpt lat="48.607301" lon="16.721519">
        <ele>232.763304</ele>
        <time>2020-07-27T06:59:43.786Z</time>
      </trkpt>
      <trkpt lat="48.607165" lon="16.721558">
        <ele>232.720701</ele>
        <time>2020-07-27T06:59:45.793Z</time>
      </trkpt>
      <trkpt lat="48.607021" lon="16.721593">
        <ele>232.675812</ele>
        <time>2020-07-27T06:59:47.801Z</time>
      </trkpt>
      <trkpt lat="48.606869" lon="16.721623">
        <ele>232.628633</ele>
        <time>2020-07-27T06:59:49.796Z</time>
      </trkpt>
      <trkpt lat="48.606712" lon="16.721652">
        <ele>232.579953</ele>
        <time>2020-07-27T06:59:51.778Z</time>
      </trkpt>
      <trkpt lat="48.606548" lon="16.721678">
        <ele>232.529201</ele>
        <time>2020-07-27T06:59:53.803Z</time>
      </trkpt>
      <trkpt lat="48.606382" lon="16.721691">
        <ele>232.478042</ele>
        <time>2020-07-27T06:59:55.806Z</time>
      </trkpt>
      <trkpt lat="48.606211" lon="16.721691">
        <ele>232.425412</ele>
        <time>2020-07-27T06:59:57.789Z</time>
      </trkpt>
      <trkpt lat="48.606031" lon="16.721690">
        <ele>232.370011</ele>
        <time>2020-07-27T06:59:59.790Z</time>
      </trkpt>
      <trkpt lat="48.605938" lon="16.721653">
        <ele>232.340414</ele>
        <time>2020-07-27T07:00:00.803Z</time>
      </trkpt>
      <trkpt lat="48.605844" lon="16.721631">
        <ele>232.339712</ele>
        <time>2020-07-27T07:00:01.796Z</time>
      </trkpt>
      <trkpt lat="48.605749" lon="16.721613">
        <ele>232.345302</ele>
        <time>2020-07-27T07:00:02.794Z</time>
      </trkpt>
      <trkpt lat="48.605654" lon="16.721597">
        <ele>232.350884</ele>
        <time>2020-07-27T07:00:03.801Z</time>
      </trkpt>
      <trkpt lat="48.605558" lon="16.721592">
        <ele>232.356494</ele>
        <time>2020-07-27T07:00:04.783Z</time>
      </trkpt>
      <trkpt lat="48.605461" lon="16.721581">
        <ele>232.362174</ele>
        <time>2020-07-27T07:00:05.787Z</time>
      </trkpt>
      <trkpt lat="48.605366" lon="16.721572">
        <ele>232.367732</ele>
        <time>2020-07-27T07:00:06.809Z</time>
      </trkpt>
      <trkpt lat="48.605272" lon="16.721572">
        <ele>232.373221</ele>
        <time>2020-07-27T07:00:07.795Z</time>
      </trkpt>
      <trkpt lat="48.605178" lon="16.721559">
        <ele>232.378733</ele>
        <time>2020-07-27T07:00:08.788Z</time>
      </trkpt>
      <trkpt lat="48.605085" lon="16.721555">
        <ele>232.384166</ele>
        <time>2020-07-27T07:00:09.775Z</time>
      </trkpt>
      <trkpt lat="48.604993" lon="16.721560">
        <ele>232.389542</ele>
        <time>2020-07-27T07:00:10.805Z</time>
      </trkpt>
      <trkpt lat="48.604902" lon="16.721559">
        <ele>232.394856</ele>
        <time>2020-07-27T07:00:11.795Z</time>
      </trkpt>
      <trkpt lat="48.604724" lon="16.721543">
        <ele>232.405269</ele>
        <time>2020-07-27T07:00:13.788Z</time>
      </trkpt>
      <trkpt lat="48.604566" lon="16.721452">
        <ele>232.415142</ele>
        <time>2020-07-27T07:00:15.786Z</time>
      </trkpt>
      <trkpt lat="48.604455" lon="16.721258">
        <ele>232.425048</ele>
        <time>2020-07-27T07:00:17.778Z</time>
      </trkpt>
      <trkpt lat="48.604351" lon="16.721058">
        <ele>232.434873</ele>
        <time>2020-07-27T07:00:19.781Z</time>
      </trkpt>
      <trkpt lat="48.604247" lon="16.720867">
        <ele>232.440261</ele>
        <time>2020-07-27T07:00:21.790Z</time>
      </trkpt>
      <trkpt lat="48.604142" lon="16.720678">
        <ele>232.440428</ele>
        <time>2020-07-27T07:00:23.814Z</time>
      </trkpt>
      <trkpt lat="48.604051" lon="16.720488">
        <ele>232.440586</ele>
        <time>2020-07-27T07:00:25.815Z</time>
      </trkpt>
      <trkpt lat="48.603962" lon="16.720309">
        <ele>232.440737</ele>
        <time>2020-07-27T07:00:27.792Z</time>
      </trkpt>
      <trkpt lat="48.603885" lon="16.720128">
        <ele>232.440882</ele>
        <time>2020-07-27T07:00:29.805Z</time>
      </trkpt>
      <trkpt lat="48.603801" lon="16.719961">
        <ele>232.441023</ele>
        <time>2020-07-27T07:00:31.792Z</time>
      </trkpt>
      <trkpt lat="48.603736" lon="16.719786">
        <ele>232.441158</ele>
        <time>2020-07-27T07:00:33.786Z</time>
      </trkpt>
      <trkpt lat="48.603689" lon="16.719608">
        <ele>232.441288</ele>
        <time>2020-07-27T07:00:35.791Z</time>
      </trkpt>
      <trkpt lat="48.603646" lon="16.719432">
        <ele>232.441414</ele>
        <time>2020-07-27T07:00:37.824Z</time>
      </trkpt>
      <trkpt lat="48.603616" lon="16.719254">
        <ele>232.441538</ele>
        <time>2020-07-27T07:00:39.792Z</time>
      </trkpt>
      <trkpt lat="48.603591" lon="16.719077">
        <ele>232.441660</ele>
        <time>2020-07-27T07:00:41.799Z</time>
      </trkpt>
      <trkpt lat="48.603573" lon="16.718901">
        <ele>232.441780</ele>
        <time>2020-07-27T07:00:43.794Z</time>
      </trkpt>
      <trkpt lat="48.603569" lon="16.718726">
        <ele>232.441898</ele>
        <time>2020-07-27T07:00:45.785Z</time>
      </trkpt>
      <trkpt lat="48.603568" lon="16.718557">
        <ele>232.442012</ele>
        <time>2020-07-27T07:00:47.886Z</time>
      </trkpt>
      <trkpt lat="48.603564" lon="16.718390">
        <ele>232.385078</ele>
        <time>2020-07-27T07:00:49.788Z</time>
      </trkpt>
      <trkpt lat="48.603554" lon="16.718221">
        <ele>232.322436</ele>
        <time>2020-07-27T07:00:51.798Z</time>
      </trkpt>
      <trkpt lat="48.603543" lon="16.718055">
        <ele>232.260844</ele>
        <time>2020-07-27T07:00:53.795Z</time>
      </trkpt>
      <trkpt lat="48.603534" lon="16.717891">
        <ele>232.200089</ele>
        <time>2020-07-27T07:00:55.811Z</time>
      </trkpt>
      <trkpt lat="48.603523" lon="16.717730">
        <ele>232.140333</ele>
        <time>2020-07-27T07:00:57.790Z</time>
      </trkpt>
      <trkpt lat="48.603517" lon="16.717576">
        <ele>232.083380</ele>
        <time>2020-07-27T07:00:59.799Z</time>
      </trkpt>
      <trkpt lat="48.603514" lon="16.717423">
        <ele>232.026869</ele>
        <time>2020-07-27T07:01:01.800Z</time>
      </trkpt>
      <trkpt lat="48.603514" lon="16.717270">
        <ele>231.970383</ele>
        <time>2020-07-27T07:01:03.797Z</time>
      </trkpt>
      <trkpt lat="48.603510" lon="16.717120">
        <ele>231.914960</ele>
        <time>2020-07-27T07:01:05.820Z</time>
      </trkpt>
      <trkpt lat="48.603507" lon="16.716969">
        <ele>231.859187</ele>
        <time>2020-07-27T07:01:07.787Z</time>
      </trkpt>
      <trkpt lat="48.603505" lon="16.716822">
        <ele>231.804905</ele>
        <time>2020-07-27T07:01:09.811Z</time>
      </trkpt>
      <trkpt lat="48.603500" lon="16.716680">
        <ele>231.752406</ele>
        <time>2020-07-27T07:01:11.803Z</time>
      </trkpt>
      <trkpt lat="48.603461" lon="16.716553">
        <ele>231.700710</ele>
        <time>2020-07-27T07:01:13.789Z</time>
      </trkpt>
      <trkpt lat="48.603336" lon="16.716484">
        <ele>231.626418</ele>
        <time>2020-07-27T07:01:16.791Z</time>
      </trkpt>
      <trkpt lat="48.603245" lon="16.716559">
        <ele>231.568556</ele>
        <time>2020-07-27T07:01:18.783Z</time>
      </trkpt>
      <trkpt lat="48.603139" lon="16.716595">
        <ele>231.507902</ele>
        <time>2020-07-27T07:01:20.790Z</time>
      </trkpt>
      <trkpt lat="48.603038" lon="16.716610">
        <ele>231.451242</ele>
        <time>2020-07-27T07:01:22.803Z</time>
      </trkpt>
      <trkpt lat="48.602934" lon="16.716622">
        <ele>231.521085</ele>
        <time>2020-07-27T07:01:24.784Z</time>
      </trkpt>
      <trkpt lat="48.602832" lon="16.716634">
        <ele>231.627192</ele>
        <time>2020-07-27T07:01:26.791Z</time>
      </trkpt>
      <trkpt lat="48.602735" lon="16.716653">
        <ele>231.728635</ele>
        <time>2020-07-27T07:01:28.808Z</time>
      </trkpt>
      <trkpt lat="48.602634" lon="16.716669">
        <ele>231.833958</ele>
        <time>2020-07-27T07:01:30.792Z</time>
      </trkpt>
      <trkpt lat="48.602531" lon="16.716678">
        <ele>231.940961</ele>
        <time>2020-07-27T07:01:32.805Z</time>
      </trkpt>
      <trkpt lat="48.602429" lon="16.716688">
        <ele>232.046971</ele>
        <time>2020-07-27T07:01:34.780Z</time>
      </trkpt>
      <trkpt lat="48.602331" lon="16.716712">
        <ele>232.149934</ele>
        <time>2020-07-27T07:01:36.799Z</time>
      </trkpt>
      <trkpt lat="48.602237" lon="16.716730">
        <ele>232.248204</ele>
        <time>2020-07-27T07:01:38.784Z</time>
      </trkpt>
      <trkpt lat="48.602144" lon="16.716748">
        <ele>232.345444</ele>
        <time>2020-07-27T07:01:40.790Z</time>
      </trkpt>
      <trkpt lat="48.602044" lon="16.716758">
        <ele>232.449384</ele>
        <time>2020-07-27T07:01:42.785Z</time>
      </trkpt>
      <trkpt lat="48.601937" lon="16.716761">
        <ele>232.560376</ele>
        <time>2020-07-27T07:01:44.803Z</time>
      </trkpt>
      <trkpt lat="48.601827" lon="16.716761">
        <ele>232.674461</ele>
        <time>2020-07-27T07:01:46.810Z</time>
      </trkpt>
      <trkpt lat="48.601712" lon="16.716775">
        <ele>232.794117</ele>
        <time>2020-07-27T07:01:48.793Z</time>
      </trkpt>
      <trkpt lat="48.601595" lon="16.716785">
        <ele>232.915656</ele>
        <time>2020-07-27T07:01:50.792Z</time>
      </trkpt>
      <trkpt lat="48.601479" lon="16.716787">
        <ele>233.035971</ele>
        <time>2020-07-27T07:01:52.804Z</time>
      </trkpt>
      <trkpt lat="48.601366" lon="16.716804">
        <ele>233.153746</ele>
        <time>2020-07-27T07:01:54.792Z</time>
      </trkpt>
      <trkpt lat="48.601252" lon="16.716828">
        <ele>233.273119</ele>
        <time>2020-07-27T07:01:56.805Z</time>
      </trkpt>
      <trkpt lat="48.601134" lon="16.716842">
        <ele>233.329529</ele>
        <time>2020-07-27T07:01:58.801Z</time>
      </trkpt>
      <trkpt lat="48.601019" lon="16.716848">
        <ele>233.363377</ele>
        <time>2020-07-27T07:02:00.793Z</time>
      </trkpt>
      <trkpt lat="48.600898" lon="16.716858">
        <ele>233.399022</ele>
        <time>2020-07-27T07:02:02.793Z</time>
      </trkpt>
      <trkpt lat="48.600784" lon="16.716890">
        <ele>233.433127</ele>
        <time>2020-07-27T07:02:04.780Z</time>
      </trkpt>
      <trkpt lat="48.600672" lon="16.716879">
        <ele>233.466142</ele>
        <time>2020-07-27T07:02:06.784Z</time>
      </trkpt>
      <trkpt lat="48.600568" lon="16.716796">
        <ele>233.500732</ele>
        <time>2020-07-27T07:02:08.788Z</time>
      </trkpt>
      <trkpt lat="48.600464" lon="16.716722">
        <ele>233.534541</ele>
        <time>2020-07-27T07:02:10.786Z</time>
      </trkpt>
      <trkpt lat="48.600363" lon="16.716695">
        <ele>233.564711</ele>
        <time>2020-07-27T07:02:12.806Z</time>
      </trkpt>
      <trkpt lat="48.600266" lon="16.716686">
        <ele>233.593297</ele>
        <time>2020-07-27T07:02:14.785Z</time>
      </trkpt>
      <trkpt lat="48.600199" lon="16.716594">
        <ele>233.619918</ele>
        <time>2020-07-27T07:02:16.785Z</time>
      </trkpt>
      <trkpt lat="48.600181" lon="16.716441">
        <ele>233.650147</ele>
        <time>2020-07-27T07:02:18.779Z</time>
      </trkpt>
      <trkpt lat="48.600157" lon="16.716288">
        <ele>233.680735</ele>
        <time>2020-07-27T07:02:20.813Z</time>
      </trkpt>
      <trkpt lat="48.600134" lon="16.716136">
        <ele>233.711067</ele>
        <time>2020-07-27T07:02:22.809Z</time>
      </trkpt>
      <trkpt lat="48.600116" lon="16.715989">
        <ele>233.740148</ele>
        <time>2020-07-27T07:02:24.781Z</time>
      </trkpt>
      <trkpt lat="48.600107" lon="16.715781">
        <ele>233.780696</ele>
        <time>2020-07-27T07:02:27.806Z</time>
      </trkpt>
      <trkpt lat="48.600113" lon="16.715579">
        <ele>233.820029</ele>
        <time>2020-07-27T07:02:30.797Z</time>
      </trkpt>
      <trkpt lat="48.600115" lon="16.715442">
        <ele>233.850831</ele>
        <time>2020-07-27T07:02:32.800Z</time>
      </trkpt>
      <trkpt lat="48.600105" lon="16.715298">
        <ele>233.887132</ele>
        <time>2020-07-27T07:02:34.794Z</time>
      </trkpt>
      <trkpt lat="48.600091" lon="16.715153">
        <ele>233.923870</ele>
        <time>2020-07-27T07:02:36.796Z</time>
      </trkpt>
      <trkpt lat="48.600081" lon="16.715004">
        <ele>233.961418</ele>
        <time>2020-07-27T07:02:38.808Z</time>
      </trkpt>
      <trkpt lat="48.600068" lon="16.714864">
        <ele>233.996861</ele>
        <time>2020-07-27T07:02:40.798Z</time>
      </trkpt>
      <trkpt lat="48.600039" lon="16.714668">
        <ele>234.047215</ele>
        <time>2020-07-27T07:02:43.794Z</time>
      </trkpt>
      <trkpt lat="48.600013" lon="16.714462">
        <ele>234.099793</ele>
        <time>2020-07-27T07:02:46.781Z</time>
      </trkpt>
      <trkpt lat="48.599989" lon="16.714323">
        <ele>234.135810</ele>
        <time>2020-07-27T07:02:48.789Z</time>
      </trkpt>
      <trkpt lat="48.599969" lon="16.714179">
        <ele>234.172700</ele>
        <time>2020-07-27T07:02:50.795Z</time>
      </trkpt>
      <trkpt lat="48.599951" lon="16.714037">
        <ele>234.208949</ele>
        <time>2020-07-27T07:02:52.800Z</time>
      </trkpt>
      <trkpt lat="48.599920" lon="16.713838">
        <ele>234.260206</ele>
        <time>2020-07-27T07:02:55.799Z</time>
      </trkpt>
      <trkpt lat="48.599890" lon="16.713698">
        <ele>234.297102</ele>
        <time>2020-07-27T07:02:57.785Z</time>
      </trkpt>
      <trkpt lat="48.599861" lon="16.713565">
        <ele>234.332212</ele>
        <time>2020-07-27T07:02:59.807Z</time>
      </trkpt>
      <trkpt lat="48.599835" lon="16.713428">
        <ele>234.367946</ele>
        <time>2020-07-27T07:03:01.788Z</time>
      </trkpt>
      <trkpt lat="48.599807" lon="16.713288">
        <ele>234.404615</ele>
        <time>2020-07-27T07:03:03.794Z</time>
      </trkpt>
      <trkpt lat="48.599782" lon="16.713154">
        <ele>234.439522</ele>
        <time>2020-07-27T07:03:05.804Z</time>
      </trkpt>
      <trkpt lat="48.599750" lon="16.713016">
        <ele>234.476185</ele>
        <time>2020-07-27T07:03:07.785Z</time>
      </trkpt>
      <trkpt lat="48.599718" lon="16.712879">
        <ele>234.512612</ele>
        <time>2020-07-27T07:03:09.800Z</time>
      </trkpt>
      <trkpt lat="48.599686" lon="16.712744">
        <ele>234.546586</ele>
        <time>2020-07-27T07:03:11.795Z</time>
      </trkpt>
      <trkpt lat="48.599653" lon="16.712616">
        <ele>234.579043</ele>
        <time>2020-07-27T07:03:13.789Z</time>
      </trkpt>
      <trkpt lat="48.599606" lon="16.712433">
        <ele>234.625424</ele>
        <time>2020-07-27T07:03:16.827Z</time>
      </trkpt>
      <trkpt lat="48.599568" lon="16.712239">
        <ele>234.673226</ele>
        <time>2020-07-27T07:03:19.801Z</time>
      </trkpt>
      <trkpt lat="48.599549" lon="16.712054">
        <ele>234.717457</ele>
        <time>2020-07-27T07:03:22.785Z</time>
      </trkpt>
      <trkpt lat="48.599539" lon="16.711876">
        <ele>234.759662</ele>
        <time>2020-07-27T07:03:25.784Z</time>
      </trkpt>
      <trkpt lat="48.599532" lon="16.711665">
        <ele>234.809574</ele>
        <time>2020-07-27T07:03:28.794Z</time>
      </trkpt>
      <trkpt lat="48.599525" lon="16.711503">
        <ele>234.847929</ele>
        <time>2020-07-27T07:03:30.802Z</time>
      </trkpt>
      <trkpt lat="48.599529" lon="16.711337">
        <ele>234.887174</ele>
        <time>2020-07-27T07:03:32.796Z</time>
      </trkpt>
      <trkpt lat="48.599524" lon="16.711179">
        <ele>234.924545</ele>
        <time>2020-07-27T07:03:34.790Z</time>
      </trkpt>
      <trkpt lat="48.599518" lon="16.711020">
        <ele>234.962171</ele>
        <time>2020-07-27T07:03:36.785Z</time>
      </trkpt>
      <trkpt lat="48.599514" lon="16.710863">
        <ele>234.999291</ele>
        <time>2020-07-27T07:03:38.814Z</time>
      </trkpt>
      <trkpt lat="48.599510" lon="16.710708">
        <ele>235.035938</ele>
        <time>2020-07-27T07:03:40.788Z</time>
      </trkpt>
      <trkpt lat="48.599498" lon="16.710557">
        <ele>235.071869</ele>
        <time>2020-07-27T07:03:42.787Z</time>
      </trkpt>
      <trkpt lat="48.599482" lon="16.710397">
        <ele>235.110100</ele>
        <time>2020-07-27T07:03:44.774Z</time>
      </trkpt>
      <trkpt lat="48.599463" lon="16.710236">
        <ele>235.148738</ele>
        <time>2020-07-27T07:03:46.804Z</time>
      </trkpt>
      <trkpt lat="48.599445" lon="16.710086">
        <ele>235.173423</ele>
        <time>2020-07-27T07:03:48.790Z</time>
      </trkpt>
      <trkpt lat="48.599434" lon="16.709933">
        <ele>235.195056</ele>
        <time>2020-07-27T07:03:50.793Z</time>
      </trkpt>
      <trkpt lat="48.599425" lon="16.709777">
        <ele>235.217067</ele>
        <time>2020-07-27T07:03:52.794Z</time>
      </trkpt>
      <trkpt lat="48.599413" lon="16.709624">
        <ele>235.238723</ele>
        <time>2020-07-27T07:03:54.810Z</time>
      </trkpt>
      <trkpt lat="48.599401" lon="16.709475">
        <ele>235.259821</ele>
        <time>2020-07-27T07:03:56.790Z</time>
      </trkpt>
      <trkpt lat="48.599385" lon="16.709323">
        <ele>235.281456</ele>
        <time>2020-07-27T07:03:58.788Z</time>
      </trkpt>
      <trkpt lat="48.599361" lon="16.709168">
        <ele>235.303832</ele>
        <time>2020-07-27T07:04:00.779Z</time>
      </trkpt>
      <trkpt lat="48.599337" lon="16.709016">
        <ele>235.325798</ele>
        <time>2020-07-27T07:04:02.785Z</time>
      </trkpt>
      <trkpt lat="48.599308" lon="16.708869">
        <ele>235.347360</ele>
        <time>2020-07-27T07:04:04.780Z</time>
      </trkpt>
      <trkpt lat="48.599272" lon="16.708724">
        <ele>235.369130</ele>
        <time>2020-07-27T07:04:06.794Z</time>
      </trkpt>
      <trkpt lat="48.599234" lon="16.708585">
        <ele>235.390272</ele>
        <time>2020-07-27T07:04:08.834Z</time>
      </trkpt>
      <trkpt lat="48.599191" lon="16.708456">
        <ele>235.410577</ele>
        <time>2020-07-27T07:04:10.798Z</time>
      </trkpt>
      <trkpt lat="48.599150" lon="16.708328">
        <ele>235.430568</ele>
        <time>2020-07-27T07:04:12.802Z</time>
      </trkpt>
      <trkpt lat="48.599103" lon="16.708205">
        <ele>235.450536</ele>
        <time>2020-07-27T07:04:14.790Z</time>
      </trkpt>
      <trkpt lat="48.599058" lon="16.708081">
        <ele>235.470417</ele>
        <time>2020-07-27T07:04:16.816Z</time>
      </trkpt>
      <trkpt lat="48.599020" lon="16.707945">
        <ele>235.491170</ele>
        <time>2020-07-27T07:04:18.801Z</time>
      </trkpt>
      <trkpt lat="48.598988" lon="16.707807">
        <ele>235.511725</ele>
        <time>2020-07-27T07:04:20.795Z</time>
      </trkpt>
      <trkpt lat="48.598963" lon="16.707662">
        <ele>235.532788</ele>
        <time>2020-07-27T07:04:22.801Z</time>
      </trkpt>
      <trkpt lat="48.598941" lon="16.707521">
        <ele>235.541358</ele>
        <time>2020-07-27T07:04:24.818Z</time>
      </trkpt>
      <trkpt lat="48.598920" lon="16.707379">
        <ele>235.544678</ele>
        <time>2020-07-27T07:04:26.799Z</time>
      </trkpt>
      <trkpt lat="48.598899" lon="16.707242">
        <ele>235.547887</ele>
        <time>2020-07-27T07:04:28.806Z</time>
      </trkpt>
      <trkpt lat="48.598866" lon="16.707058">
        <ele>235.552237</ele>
        <time>2020-07-27T07:04:31.819Z</time>
      </trkpt>
      <trkpt lat="48.598837" lon="16.706886">
        <ele>235.556287</ele>
        <time>2020-07-27T07:04:34.787Z</time>
      </trkpt>
      <trkpt lat="48.598809" lon="16.706725">
        <ele>235.560086</ele>
        <time>2020-07-27T07:04:37.810Z</time>
      </trkpt>
      <trkpt lat="48.598775" lon="16.706554">
        <ele>235.564160</ele>
        <time>2020-07-27T07:04:40.828Z</time>
      </trkpt>
      <trkpt lat="48.598749" lon="16.706380">
        <ele>235.568230</ele>
        <time>2020-07-27T07:04:43.782Z</time>
      </trkpt>
      <trkpt lat="48.598731" lon="16.706179">
        <ele>235.572858</ele>
        <time>2020-07-27T07:04:46.785Z</time>
      </trkpt>
      <trkpt lat="48.598725" lon="16.706026">
        <ele>235.576355</ele>
        <time>2020-07-27T07:04:48.783Z</time>
      </trkpt>
      <trkpt lat="48.598718" lon="16.705872">
        <ele>235.579877</ele>
        <time>2020-07-27T07:04:50.790Z</time>
      </trkpt>
      <trkpt lat="48.598711" lon="16.705724">
        <ele>235.583263</ele>
        <time>2020-07-27T07:04:52.805Z</time>
      </trkpt>
      <trkpt lat="48.598694" lon="16.705578">
        <ele>235.586646</ele>
        <time>2020-07-27T07:04:54.822Z</time>
      </trkpt>
      <trkpt lat="48.598668" lon="16.705428">
        <ele>235.590184</ele>
        <time>2020-07-27T07:04:56.819Z</time>
      </trkpt>
      <trkpt lat="48.598635" lon="16.705288">
        <ele>235.593575</ele>
        <time>2020-07-27T07:04:58.815Z</time>
      </trkpt>
      <trkpt lat="48.598605" lon="16.705149">
        <ele>235.596911</ele>
        <time>2020-07-27T07:05:00.795Z</time>
      </trkpt>
      <trkpt lat="48.598571" lon="16.704989">
        <ele>235.600746</ele>
        <time>2020-07-27T07:05:02.796Z</time>
      </trkpt>
      <trkpt lat="48.598542" lon="16.704838">
        <ele>235.611899</ele>
        <time>2020-07-27T07:05:04.798Z</time>
      </trkpt>
      <trkpt lat="48.598516" lon="16.704692">
        <ele>235.623495</ele>
        <time>2020-07-27T07:05:06.795Z</time>
      </trkpt>
      <trkpt lat="48.598486" lon="16.704550">
        <ele>235.634927</ele>
        <time>2020-07-27T07:05:08.797Z</time>
      </trkpt>
      <trkpt lat="48.598454" lon="16.704409">
        <ele>235.646360</ele>
        <time>2020-07-27T07:05:10.780Z</time>
      </trkpt>
      <trkpt lat="48.598415" lon="16.704276">
        <ele>235.657518</ele>
        <time>2020-07-27T07:05:12.811Z</time>
      </trkpt>
      <trkpt lat="48.598344" lon="16.704111">
        <ele>235.672616</ele>
        <time>2020-07-27T07:05:15.803Z</time>
      </trkpt>
      <trkpt lat="48.598293" lon="16.703983">
        <ele>235.684076</ele>
        <time>2020-07-27T07:05:18.787Z</time>
      </trkpt>
      <trkpt lat="48.598264" lon="16.703838">
        <ele>235.695694</ele>
        <time>2020-07-27T07:05:22.784Z</time>
      </trkpt>
      <trkpt lat="48.598249" lon="16.703678">
        <ele>235.708088</ele>
        <time>2020-07-27T07:05:27.787Z</time>
      </trkpt>
      <trkpt lat="48.598231" lon="16.703517">
        <ele>235.720611</ele>
        <time>2020-07-27T07:05:32.810Z</time>
      </trkpt>
      <trkpt lat="48.598229" lon="16.703366">
        <ele>235.732194</ele>
        <time>2020-07-27T07:05:37.787Z</time>
      </trkpt>
      <trkpt lat="48.598223" lon="16.703208">
        <ele>235.744332</ele>
        <time>2020-07-27T07:05:42.797Z</time>
      </trkpt>
      <trkpt lat="48.598239" lon="16.703051">
        <ele>235.756515</ele>
        <time>2020-07-27T07:05:46.808Z</time>
      </trkpt>
      <trkpt lat="48.598235" lon="16.702891">
        <ele>235.768795</ele>
        <time>2020-07-27T07:05:49.788Z</time>
      </trkpt>
      <trkpt lat="48.598235" lon="16.702755">
        <ele>235.779225</ele>
        <time>2020-07-27T07:05:51.798Z</time>
      </trkpt>
      <trkpt lat="48.598221" lon="16.702597">
        <ele>235.791451</ele>
        <time>2020-07-27T07:05:53.805Z</time>
      </trkpt>
      <trkpt lat="48.598204" lon="16.702411">
        <ele>235.805852</ele>
        <time>2020-07-27T07:05:55.828Z</time>
      </trkpt>
      <trkpt lat="48.598195" lon="16.702221">
        <ele>235.839498</ele>
        <time>2020-07-27T07:05:57.802Z</time>
      </trkpt>
      <trkpt lat="48.598189" lon="16.702044">
        <ele>235.877172</ele>
        <time>2020-07-27T07:05:59.842Z</time>
      </trkpt>
      <trkpt lat="48.598191" lon="16.701896">
        <ele>235.908639</ele>
        <time>2020-07-27T07:06:01.793Z</time>
      </trkpt>
      <trkpt lat="48.598193" lon="16.701718">
        <ele>235.946482</ele>
        <time>2020-07-27T07:06:04.822Z</time>
      </trkpt>
      <trkpt lat="48.598197" lon="16.701564">
        <ele>235.979243</ele>
        <time>2020-07-27T07:06:07.812Z</time>
      </trkpt>
      <trkpt lat="48.598201" lon="16.701407">
        <ele>236.012641</ele>
        <time>2020-07-27T07:06:10.817Z</time>
      </trkpt>
      <trkpt lat="48.598207" lon="16.701200">
        <ele>236.056685</ele>
        <time>2020-07-27T07:06:13.787Z</time>
      </trkpt>
      <trkpt lat="48.598211" lon="16.701032">
        <ele>236.092420</ele>
        <time>2020-07-27T07:06:15.801Z</time>
      </trkpt>
      <trkpt lat="48.598214" lon="16.700841">
        <ele>236.133032</ele>
        <time>2020-07-27T07:06:17.803Z</time>
      </trkpt>
      <trkpt lat="48.598214" lon="16.700636">
        <ele>236.176609</ele>
        <time>2020-07-27T07:06:19.781Z</time>
      </trkpt>
      <trkpt lat="48.598217" lon="16.700452">
        <ele>236.215733</ele>
        <time>2020-07-27T07:06:21.807Z</time>
      </trkpt>
      <trkpt lat="48.598229" lon="16.700284">
        <ele>236.251653</ele>
        <time>2020-07-27T07:06:23.803Z</time>
      </trkpt>
      <trkpt lat="48.598245" lon="16.700147">
        <ele>236.281225</ele>
        <time>2020-07-27T07:06:25.780Z</time>
      </trkpt>
      <trkpt lat="48.598260" lon="16.700002">
        <ele>236.312422</ele>
        <time>2020-07-27T07:06:28.804Z</time>
      </trkpt>
      <trkpt lat="48.598274" lon="16.699841">
        <ele>236.346941</ele>
        <time>2020-07-27T07:06:33.820Z</time>
      </trkpt>
      <trkpt lat="48.598303" lon="16.699702">
        <ele>236.377923</ele>
        <time>2020-07-27T07:06:37.785Z</time>
      </trkpt>
      <trkpt lat="48.598348" lon="16.699559">
        <ele>236.410418</ele>
        <time>2020-07-27T07:06:41.811Z</time>
      </trkpt>
      <trkpt lat="48.598394" lon="16.699431">
        <ele>236.439861</ele>
        <time>2020-07-27T07:06:44.778Z</time>
      </trkpt>
      <trkpt lat="48.598443" lon="16.699309">
        <ele>236.468709</ele>
        <time>2020-07-27T07:06:47.798Z</time>
      </trkpt>
      <trkpt lat="48.598495" lon="16.699180">
        <ele>236.499243</ele>
        <time>2020-07-27T07:06:50.795Z</time>
      </trkpt>
      <trkpt lat="48.598549" lon="16.699037">
        <ele>236.532524</ele>
        <time>2020-07-27T07:06:53.799Z</time>
      </trkpt>
      <trkpt lat="48.598613" lon="16.698866">
        <ele>236.572236</ele>
        <time>2020-07-27T07:06:56.794Z</time>
      </trkpt>
      <trkpt lat="48.598659" lon="16.698743">
        <ele>236.600795</ele>
        <time>2020-07-27T07:06:58.813Z</time>
      </trkpt>
      <trkpt lat="48.598698" lon="16.698601">
        <ele>236.631871</ele>
        <time>2020-07-27T07:07:00.775Z</time>
      </trkpt>
      <trkpt lat="48.598724" lon="16.698453">
        <ele>236.662820</ele>
        <time>2020-07-27T07:07:02.791Z</time>
      </trkpt>
      <trkpt lat="48.598740" lon="16.698298">
        <ele>236.694526</ele>
        <time>2020-07-27T07:07:04.798Z</time>
      </trkpt>
      <trkpt lat="48.598760" lon="16.698135">
        <ele>236.728032</ele>
        <time>2020-07-27T07:07:06.797Z</time>
      </trkpt>
      <trkpt lat="48.598787" lon="16.697952">
        <ele>236.765927</ele>
        <time>2020-07-27T07:07:08.815Z</time>
      </trkpt>
      <trkpt lat="48.598810" lon="16.697742">
        <ele>236.808948</ele>
        <time>2020-07-27T07:07:10.816Z</time>
      </trkpt>
      <trkpt lat="48.598824" lon="16.697495">
        <ele>236.859052</ele>
        <time>2020-07-27T07:07:12.807Z</time>
      </trkpt>
      <trkpt lat="48.598817" lon="16.697359">
        <ele>236.886622</ele>
        <time>2020-07-27T07:07:13.800Z</time>
      </trkpt>
      <trkpt lat="48.598788" lon="16.697230">
        <ele>236.914159</ele>
        <time>2020-07-27T07:07:14.783Z</time>
      </trkpt>
      <trkpt lat="48.598756" lon="16.697103">
        <ele>236.940694</ele>
        <time>2020-07-27T07:07:15.788Z</time>
      </trkpt>
      <trkpt lat="48.598712" lon="16.696882">
        <ele>236.976738</ele>
        <time>2020-07-27T07:07:17.785Z</time>
      </trkpt>
      <trkpt lat="48.598708" lon="16.696724">
        <ele>237.001431</ele>
        <time>2020-07-27T07:07:19.796Z</time>
      </trkpt>
      <trkpt lat="48.598656" lon="16.696607">
        <ele>237.023446</ele>
        <time>2020-07-27T07:07:21.801Z</time>
      </trkpt>
      <trkpt lat="48.598577" lon="16.696521">
        <ele>237.046434</ele>
        <time>2020-07-27T07:07:23.800Z</time>
      </trkpt>
      <trkpt lat="48.598520" lon="16.696411">
        <ele>237.068258</ele>
        <time>2020-07-27T07:07:25.797Z</time>
      </trkpt>
      <trkpt lat="48.598436" lon="16.696252">
        <ele>237.100040</ele>
        <time>2020-07-27T07:07:28.795Z</time>
      </trkpt>
      <trkpt lat="48.598354" lon="16.696093">
        <ele>237.131529</ele>
        <time>2020-07-27T07:07:31.810Z</time>
      </trkpt>
      <trkpt lat="48.598311" lon="16.695971">
        <ele>237.153119</ele>
        <time>2020-07-27T07:07:33.785Z</time>
      </trkpt>
      <trkpt lat="48.598268" lon="16.695848">
        <ele>237.174847</ele>
        <time>2020-07-27T07:07:35.803Z</time>
      </trkpt>
      <trkpt lat="48.598215" lon="16.695669">
        <ele>237.205476</ele>
        <time>2020-07-27T07:07:38.791Z</time>
      </trkpt>
      <trkpt lat="48.598162" lon="16.695495">
        <ele>237.235394</ele>
        <time>2020-07-27T07:07:41.799Z</time>
      </trkpt>
      <trkpt lat="48.598114" lon="16.695324">
        <ele>237.264405</ele>
        <time>2020-07-27T07:07:44.808Z</time>
      </trkpt>
      <trkpt lat="48.598068" lon="16.695152">
        <ele>237.293380</ele>
        <time>2020-07-27T07:07:47.808Z</time>
      </trkpt>
      <trkpt lat="48.598020" lon="16.694982">
        <ele>237.322248</ele>
        <time>2020-07-27T07:07:50.787Z</time>
      </trkpt>
      <trkpt lat="48.597974" lon="16.694810">
        <ele>237.351223</ele>
        <time>2020-07-27T07:07:53.800Z</time>
      </trkpt>
      <trkpt lat="48.597935" lon="16.694613">
        <ele>237.326378</ele>
        <time>2020-07-27T07:07:56.811Z</time>
      </trkpt>
      <trkpt lat="48.597898" lon="16.694480">
        <ele>237.287986</ele>
        <time>2020-07-27T07:07:58.812Z</time>
      </trkpt>
      <trkpt lat="48.597861" lon="16.694344">
        <ele>237.248857</ele>
        <time>2020-07-27T07:08:00.794Z</time>
      </trkpt>
      <trkpt lat="48.597822" lon="16.694207">
        <ele>237.209171</ele>
        <time>2020-07-27T07:08:02.809Z</time>
      </trkpt>
      <trkpt lat="48.597774" lon="16.694073">
        <ele>237.168623</ele>
        <time>2020-07-27T07:08:04.791Z</time>
      </trkpt>
      <trkpt lat="48.597707" lon="16.693939">
        <ele>237.123925</ele>
        <time>2020-07-27T07:08:06.790Z</time>
      </trkpt>
      <trkpt lat="48.597610" lon="16.693825">
        <ele>237.074497</ele>
        <time>2020-07-27T07:08:08.789Z</time>
      </trkpt>
      <trkpt lat="48.597505" lon="16.693710">
        <ele>237.022335</ele>
        <time>2020-07-27T07:08:10.802Z</time>
      </trkpt>
      <trkpt lat="48.597401" lon="16.693587">
        <ele>236.969213</ele>
        <time>2020-07-27T07:08:12.800Z</time>
      </trkpt>
      <trkpt lat="48.597300" lon="16.693477">
        <ele>236.919135</ele>
        <time>2020-07-27T07:08:14.808Z</time>
      </trkpt>
      <trkpt lat="48.597202" lon="16.693378">
        <ele>236.871716</ele>
        <time>2020-07-27T07:08:16.817Z</time>
      </trkpt>
      <trkpt lat="48.597101" lon="16.693300">
        <ele>236.826088</ele>
        <time>2020-07-27T07:08:18.790Z</time>
      </trkpt>
      <trkpt lat="48.596992" lon="16.693243">
        <ele>236.779685</ele>
        <time>2020-07-27T07:08:20.778Z</time>
      </trkpt>
      <trkpt lat="48.596883" lon="16.693192">
        <ele>236.733779</ele>
        <time>2020-07-27T07:08:22.793Z</time>
      </trkpt>
      <trkpt lat="48.596772" lon="16.693156">
        <ele>236.688105</ele>
        <time>2020-07-27T07:08:24.782Z</time>
      </trkpt>
      <trkpt lat="48.596669" lon="16.693100">
        <ele>236.644067</ele>
        <time>2020-07-27T07:08:26.806Z</time>
      </trkpt>
      <trkpt lat="48.596575" lon="16.693002">
        <ele>236.521980</ele>
        <time>2020-07-27T07:08:28.788Z</time>
      </trkpt>
      <trkpt lat="48.596503" lon="16.692861">
        <ele>236.385440</ele>
        <time>2020-07-27T07:08:30.805Z</time>
      </trkpt>
      <trkpt lat="48.596455" lon="16.692687">
        <ele>236.240935</ele>
        <time>2020-07-27T07:08:32.789Z</time>
      </trkpt>
      <trkpt lat="48.596425" lon="16.692529">
        <ele>236.114938</ele>
        <time>2020-07-27T07:08:34.790Z</time>
      </trkpt>
      <trkpt lat="48.596417" lon="16.692372">
        <ele>235.994244</ele>
        <time>2020-07-27T07:08:36.800Z</time>
      </trkpt>
      <trkpt lat="48.596421" lon="16.692216">
        <ele>235.874582</ele>
        <time>2020-07-27T07:08:38.776Z</time>
      </trkpt>
      <trkpt lat="48.596421" lon="16.692061">
        <ele>235.755777</ele>
        <time>2020-07-27T07:08:40.785Z</time>
      </trkpt>
      <trkpt lat="48.596424" lon="16.691908">
        <ele>235.638453</ele>
        <time>2020-07-27T07:08:42.810Z</time>
      </trkpt>
      <trkpt lat="48.596427" lon="16.691752">
        <ele>235.518831</ele>
        <time>2020-07-27T07:08:44.800Z</time>
      </trkpt>
      <trkpt lat="48.596435" lon="16.691591">
        <ele>235.395079</ele>
        <time>2020-07-27T07:08:46.773Z</time>
      </trkpt>
      <trkpt lat="48.596456" lon="16.691428">
        <ele>235.267794</ele>
        <time>2020-07-27T07:08:48.786Z</time>
      </trkpt>
      <trkpt lat="48.596484" lon="16.691261">
        <ele>235.135742</ele>
        <time>2020-07-27T07:08:50.785Z</time>
      </trkpt>
      <trkpt lat="48.596509" lon="16.691088">
        <ele>235.000012</ele>
        <time>2020-07-27T07:08:52.791Z</time>
      </trkpt>
      <trkpt lat="48.596535" lon="16.690915">
        <ele>234.864029</ele>
        <time>2020-07-27T07:08:54.770Z</time>
      </trkpt>
      <trkpt lat="48.596560" lon="16.690741">
        <ele>234.727551</ele>
        <time>2020-07-27T07:08:56.791Z</time>
      </trkpt>
      <trkpt lat="48.596572" lon="16.690568">
        <ele>234.594222</ele>
        <time>2020-07-27T07:08:58.801Z</time>
      </trkpt>
      <trkpt lat="48.596560" lon="16.690387">
        <ele>234.498958</ele>
        <time>2020-07-27T07:09:00.801Z</time>
      </trkpt>
      <trkpt lat="48.596545" lon="16.690206">
        <ele>234.421337</ele>
        <time>2020-07-27T07:09:02.826Z</time>
      </trkpt>
      <trkpt lat="48.596532" lon="16.690021">
        <ele>234.342173</ele>
        <time>2020-07-27T07:09:04.795Z</time>
      </trkpt>
      <trkpt lat="48.596514" lon="16.689840">
        <ele>234.264288</ele>
        <time>2020-07-27T07:09:06.820Z</time>
      </trkpt>
      <trkpt lat="48.596499" lon="16.689663">
        <ele>234.188355</ele>
        <time>2020-07-27T07:09:08.816Z</time>
      </trkpt>
      <trkpt lat="48.596468" lon="16.689486">
        <ele>234.110442</ele>
        <time>2020-07-27T07:09:10.800Z</time>
      </trkpt>
      <trkpt lat="48.596425" lon="16.689319">
        <ele>234.034184</ele>
        <time>2020-07-27T07:09:12.791Z</time>
      </trkpt>
      <trkpt lat="48.596381" lon="16.689161">
        <ele>233.961234</ele>
        <time>2020-07-27T07:09:14.792Z</time>
      </trkpt>
      <trkpt lat="48.596336" lon="16.689010">
        <ele>233.890759</ele>
        <time>2020-07-27T07:09:16.828Z</time>
      </trkpt>
      <trkpt lat="48.596289" lon="16.688871">
        <ele>233.824329</ele>
        <time>2020-07-27T07:09:18.813Z</time>
      </trkpt>
      <trkpt lat="48.596242" lon="16.688738">
        <ele>233.760162</ele>
        <time>2020-07-27T07:09:20.793Z</time>
      </trkpt>
      <trkpt lat="48.596191" lon="16.688612">
        <ele>233.697302</ele>
        <time>2020-07-27T07:09:22.789Z</time>
      </trkpt>
      <trkpt lat="48.596139" lon="16.688486">
        <ele>233.634104</ele>
        <time>2020-07-27T07:09:24.786Z</time>
      </trkpt>
      <trkpt lat="48.596090" lon="16.688364">
        <ele>233.573367</ele>
        <time>2020-07-27T07:09:26.796Z</time>
      </trkpt>
      <trkpt lat="48.596044" lon="16.688246">
        <ele>233.515081</ele>
        <time>2020-07-27T07:09:28.778Z</time>
      </trkpt>
      <trkpt lat="48.595976" lon="16.688079">
        <ele>233.431630</ele>
        <time>2020-07-27T07:09:31.792Z</time>
      </trkpt>
      <trkpt lat="48.595907" lon="16.687914">
        <ele>233.390717</ele>
        <time>2020-07-27T07:09:34.778Z</time>
      </trkpt>
      <trkpt lat="48.595843" lon="16.687741">
        <ele>233.380047</ele>
        <time>2020-07-27T07:09:37.789Z</time>
      </trkpt>
      <trkpt lat="48.595783" lon="16.687572">
        <ele>233.369722</ele>
        <time>2020-07-27T07:09:40.821Z</time>
      </trkpt>
      <trkpt lat="48.595717" lon="16.687404">
        <ele>233.359204</ele>
        <time>2020-07-27T07:09:43.798Z</time>
      </trkpt>
      <trkpt lat="48.595651" lon="16.687234">
        <ele>233.348593</ele>
        <time>2020-07-27T07:09:46.786Z</time>
      </trkpt>
      <trkpt lat="48.595585" lon="16.687064">
        <ele>233.337982</ele>
        <time>2020-07-27T07:09:49.800Z</time>
      </trkpt>
      <trkpt lat="48.595540" lon="16.686946">
        <ele>233.330650</ele>
        <time>2020-07-27T07:09:51.802Z</time>
      </trkpt>
      <trkpt lat="48.595496" lon="16.686813">
        <ele>233.322646</ele>
        <time>2020-07-27T07:09:53.815Z</time>
      </trkpt>
      <trkpt lat="48.595449" lon="16.686676">
        <ele>233.314338</ele>
        <time>2020-07-27T07:09:55.792Z</time>
      </trkpt>
      <trkpt lat="48.595396" lon="16.686530">
        <ele>233.305373</ele>
        <time>2020-07-27T07:09:57.787Z</time>
      </trkpt>
      <trkpt lat="48.595350" lon="16.686380">
        <ele>233.296473</ele>
        <time>2020-07-27T07:09:59.800Z</time>
      </trkpt>
      <trkpt lat="48.595315" lon="16.686220">
        <ele>233.287402</ele>
        <time>2020-07-27T07:10:01.781Z</time>
      </trkpt>
      <trkpt lat="48.595284" lon="16.686061">
        <ele>233.278479</ele>
        <time>2020-07-27T07:10:03.787Z</time>
      </trkpt>
      <trkpt lat="48.595255" lon="16.685910">
        <ele>233.270015</ele>
        <time>2020-07-27T07:10:05.794Z</time>
      </trkpt>
      <trkpt lat="48.595229" lon="16.685766">
        <ele>233.261980</ele>
        <time>2020-07-27T07:10:07.790Z</time>
      </trkpt>
      <trkpt lat="48.595206" lon="16.685625">
        <ele>233.254163</ele>
        <time>2020-07-27T07:10:09.792Z</time>
      </trkpt>
      <trkpt lat="48.595189" lon="16.685480">
        <ele>233.257366</ele>
        <time>2020-07-27T07:10:11.809Z</time>
      </trkpt>
      <trkpt lat="48.595190" lon="16.685331">
        <ele>233.270617</ele>
        <time>2020-07-27T07:10:13.781Z</time>
      </trkpt>
      <trkpt lat="48.595195" lon="16.685176">
        <ele>233.284417</ele>
        <time>2020-07-27T07:10:15.806Z</time>
      </trkpt>
      <trkpt lat="48.595199" lon="16.685013">
        <ele>233.298922</ele>
        <time>2020-07-27T07:10:17.799Z</time>
      </trkpt>
      <trkpt lat="48.595200" lon="16.684843">
        <ele>233.314041</ele>
        <time>2020-07-27T07:10:19.801Z</time>
      </trkpt>
      <trkpt lat="48.595199" lon="16.684673">
        <ele>233.329159</ele>
        <time>2020-07-27T07:10:21.803Z</time>
      </trkpt>
      <trkpt lat="48.595205" lon="16.684498">
        <ele>233.344742</ele>
        <time>2020-07-27T07:10:23.796Z</time>
      </trkpt>
      <trkpt lat="48.595212" lon="16.684325">
        <ele>233.360155</ele>
        <time>2020-07-27T07:10:25.791Z</time>
      </trkpt>
      <trkpt lat="48.595216" lon="16.684160">
        <ele>233.374838</ele>
        <time>2020-07-27T07:10:27.785Z</time>
      </trkpt>
      <trkpt lat="48.595214" lon="16.683987">
        <ele>233.390225</ele>
        <time>2020-07-27T07:10:29.792Z</time>
      </trkpt>
      <trkpt lat="48.595218" lon="16.683816">
        <ele>233.405441</ele>
        <time>2020-07-27T07:10:31.794Z</time>
      </trkpt>
      <trkpt lat="48.595220" lon="16.683645">
        <ele>233.420650</ele>
        <time>2020-07-27T07:10:33.785Z</time>
      </trkpt>
      <trkpt lat="48.595223" lon="16.683472">
        <ele>233.436040</ele>
        <time>2020-07-27T07:10:35.799Z</time>
      </trkpt>
      <trkpt lat="48.595225" lon="16.683307">
        <ele>233.450715</ele>
        <time>2020-07-27T07:10:37.792Z</time>
      </trkpt>
      <trkpt lat="48.595217" lon="16.683146">
        <ele>233.465073</ele>
        <time>2020-07-27T07:10:39.787Z</time>
      </trkpt>
      <trkpt lat="48.595205" lon="16.682984">
        <ele>233.479569</ele>
        <time>2020-07-27T07:10:41.811Z</time>
      </trkpt>
      <trkpt lat="48.595178" lon="16.682823">
        <ele>233.494034</ele>
        <time>2020-07-27T07:10:43.800Z</time>
      </trkpt>
      <trkpt lat="48.595142" lon="16.682666">
        <ele>233.506618</ele>
        <time>2020-07-27T07:10:45.797Z</time>
      </trkpt>
      <trkpt lat="48.595102" lon="16.682512">
        <ele>233.519147</ele>
        <time>2020-07-27T07:10:47.789Z</time>
      </trkpt>
      <trkpt lat="48.595057" lon="16.682362">
        <ele>233.531621</ele>
        <time>2020-07-27T07:10:49.785Z</time>
      </trkpt>
      <trkpt lat="48.595011" lon="16.682215">
        <ele>233.543937</ele>
        <time>2020-07-27T07:10:51.805Z</time>
      </trkpt>
      <trkpt lat="48.594965" lon="16.682077">
        <ele>233.555640</ele>
        <time>2020-07-27T07:10:53.816Z</time>
      </trkpt>
      <trkpt lat="48.594919" lon="16.681946">
        <ele>233.566873</ele>
        <time>2020-07-27T07:10:55.804Z</time>
      </trkpt>
      <trkpt lat="48.594880" lon="16.681816">
        <ele>233.577683</ele>
        <time>2020-07-27T07:10:57.804Z</time>
      </trkpt>
      <trkpt lat="48.594853" lon="16.681686">
        <ele>233.588003</ele>
        <time>2020-07-27T07:10:59.800Z</time>
      </trkpt>
      <trkpt lat="48.594830" lon="16.681540">
        <ele>233.599369</ele>
        <time>2020-07-27T07:11:01.792Z</time>
      </trkpt>
      <trkpt lat="48.594822" lon="16.681373">
        <ele>233.612049</ele>
        <time>2020-07-27T07:11:03.800Z</time>
      </trkpt>
      <trkpt lat="48.594814" lon="16.681201">
        <ele>233.625107</ele>
        <time>2020-07-27T07:11:05.796Z</time>
      </trkpt>
      <trkpt lat="48.594808" lon="16.681022">
        <ele>233.638681</ele>
        <time>2020-07-27T07:11:07.800Z</time>
      </trkpt>
      <trkpt lat="48.594797" lon="16.680840">
        <ele>233.652521</ele>
        <time>2020-07-27T07:11:09.810Z</time>
      </trkpt>
      <trkpt lat="48.594787" lon="16.680652">
        <ele>233.666805</ele>
        <time>2020-07-27T07:11:11.802Z</time>
      </trkpt>
      <trkpt lat="48.594778" lon="16.680463">
        <ele>233.681155</ele>
        <time>2020-07-27T07:11:13.800Z</time>
      </trkpt>
      <trkpt lat="48.594767" lon="16.680276">
        <ele>233.695373</ele>
        <time>2020-07-27T07:11:15.813Z</time>
      </trkpt>
      <trkpt lat="48.594758" lon="16.680094">
        <ele>233.647923</ele>
        <time>2020-07-27T07:11:17.793Z</time>
      </trkpt>
      <trkpt lat="48.594737" lon="16.679913">
        <ele>233.584062</ele>
        <time>2020-07-27T07:11:19.819Z</time>
      </trkpt>
      <trkpt lat="48.594703" lon="16.679736">
        <ele>233.520010</ele>
        <time>2020-07-27T07:11:21.792Z</time>
      </trkpt>
      <trkpt lat="48.594656" lon="16.679571">
        <ele>233.457578</ele>
        <time>2020-07-27T07:11:23.817Z</time>
      </trkpt>
      <trkpt lat="48.594613" lon="16.679415">
        <ele>233.398845</ele>
        <time>2020-07-27T07:11:25.775Z</time>
      </trkpt>
      <trkpt lat="48.594576" lon="16.679255">
        <ele>233.339942</ele>
        <time>2020-07-27T07:11:27.799Z</time>
      </trkpt>
      <trkpt lat="48.594534" lon="16.679112">
        <ele>233.285567</ele>
        <time>2020-07-27T07:11:29.798Z</time>
      </trkpt>
      <trkpt lat="48.594495" lon="16.678965">
        <ele>233.230525</ele>
        <time>2020-07-27T07:11:31.803Z</time>
      </trkpt>
      <trkpt lat="48.594460" lon="16.678812">
        <ele>233.174264</ele>
        <time>2020-07-27T07:11:33.781Z</time>
      </trkpt>
      <trkpt lat="48.594430" lon="16.678659">
        <ele>233.118807</ele>
        <time>2020-07-27T07:11:35.787Z</time>
      </trkpt>
      <trkpt lat="48.594402" lon="16.678511">
        <ele>233.065311</ele>
        <time>2020-07-27T07:11:37.799Z</time>
      </trkpt>
      <trkpt lat="48.594380" lon="16.678362">
        <ele>233.012256</ele>
        <time>2020-07-27T07:11:39.818Z</time>
      </trkpt>
      <trkpt lat="48.594364" lon="16.678221">
        <ele>232.962540</ele>
        <time>2020-07-27T07:11:41.778Z</time>
      </trkpt>
      <trkpt lat="48.594361" lon="16.678070">
        <ele>232.910041</ele>
        <time>2020-07-27T07:11:43.788Z</time>
      </trkpt>
      <trkpt lat="48.594353" lon="16.677923">
        <ele>232.858783</ele>
        <time>2020-07-27T07:11:45.781Z</time>
      </trkpt>
      <trkpt lat="48.594344" lon="16.677782">
        <ele>232.809555</ele>
        <time>2020-07-27T07:11:47.779Z</time>
      </trkpt>
      <trkpt lat="48.594342" lon="16.677637">
        <ele>232.759154</ele>
        <time>2020-07-27T07:11:49.785Z</time>
      </trkpt>
      <trkpt lat="48.594345" lon="16.677477">
        <ele>232.859804</ele>
        <time>2020-07-27T07:11:51.783Z</time>
      </trkpt>
      <trkpt lat="48.594344" lon="16.677316">
        <ele>232.980062</ele>
        <time>2020-07-27T07:11:53.777Z</time>
      </trkpt>
      <trkpt lat="48.594339" lon="16.677145">
        <ele>233.107908</ele>
        <time>2020-07-27T07:11:55.768Z</time>
      </trkpt>
      <trkpt lat="48.594336" lon="16.676970">
        <ele>233.238660</ele>
        <time>2020-07-27T07:11:57.797Z</time>
      </trkpt>
      <trkpt lat="48.594328" lon="16.676805">
        <ele>233.362231</ele>
        <time>2020-07-27T07:11:59.801Z</time>
      </trkpt>
      <trkpt lat="48.594314" lon="16.676652">
        <ele>233.477597</ele>
        <time>2020-07-27T07:12:01.772Z</time>
      </trkpt>
      <trkpt lat="48.594304" lon="16.676498">
        <ele>233.593173</ele>
        <time>2020-07-27T07:12:03.799Z</time>
      </trkpt>
      <trkpt lat="48.594293" lon="16.676359">
        <ele>233.697734</ele>
        <time>2020-07-27T07:12:05.791Z</time>
      </trkpt>
      <trkpt lat="48.594282" lon="16.676223">
        <ele>233.800071</ele>
        <time>2020-07-27T07:12:07.773Z</time>
      </trkpt>
      <trkpt lat="48.594273" lon="16.676077">
        <ele>233.909592</ele>
        <time>2020-07-27T07:12:09.796Z</time>
      </trkpt>
      <trkpt lat="48.594265" lon="16.675931">
        <ele>234.019014</ele>
        <time>2020-07-27T07:12:11.807Z</time>
      </trkpt>
      <trkpt lat="48.594251" lon="16.675784">
        <ele>234.129943</ele>
        <time>2020-07-27T07:12:13.783Z</time>
      </trkpt>
      <trkpt lat="48.594236" lon="16.675629">
        <ele>234.246946</ele>
        <time>2020-07-27T07:12:15.791Z</time>
      </trkpt>
      <trkpt lat="48.594215" lon="16.675467">
        <ele>234.370248</ele>
        <time>2020-07-27T07:12:17.789Z</time>
      </trkpt>
      <trkpt lat="48.594190" lon="16.675300">
        <ele>234.498137</ele>
        <time>2020-07-27T07:12:19.815Z</time>
      </trkpt>
      <trkpt lat="48.594166" lon="16.675133">
        <ele>234.625782</ele>
        <time>2020-07-27T07:12:21.794Z</time>
      </trkpt>
      <trkpt lat="48.594140" lon="16.674956">
        <ele>234.761206</ele>
        <time>2020-07-27T07:12:23.798Z</time>
      </trkpt>
      <trkpt lat="48.594113" lon="16.674777">
        <ele>234.852758</ele>
        <time>2020-07-27T07:12:25.788Z</time>
      </trkpt>
      <trkpt lat="48.594085" lon="16.674600">
        <ele>234.934326</ele>
        <time>2020-07-27T07:12:27.780Z</time>
      </trkpt>
      <trkpt lat="48.594058" lon="16.674425">
        <ele>235.014866</ele>
        <time>2020-07-27T07:12:29.798Z</time>
      </trkpt>
      <trkpt lat="48.594030" lon="16.674255">
        <ele>235.093386</ele>
        <time>2020-07-27T07:12:31.789Z</time>
      </trkpt>
      <trkpt lat="48.594003" lon="16.674098">
        <ele>235.166092</ele>
        <time>2020-07-27T07:12:33.790Z</time>
      </trkpt>
      <trkpt lat="48.593975" lon="16.673947">
        <ele>235.236379</ele>
        <time>2020-07-27T07:12:35.801Z</time>
      </trkpt>
      <trkpt lat="48.593941" lon="16.673794">
        <ele>235.308720</ele>
        <time>2020-07-27T07:12:37.798Z</time>
      </trkpt>
      <trkpt lat="48.593904" lon="16.673645">
        <ele>235.380053</ele>
        <time>2020-07-27T07:12:39.798Z</time>
      </trkpt>
      <trkpt lat="48.593867" lon="16.673495">
        <ele>235.451806</ele>
        <time>2020-07-27T07:12:41.779Z</time>
      </trkpt>
      <trkpt lat="48.593837" lon="16.673342">
        <ele>235.523330</ele>
        <time>2020-07-27T07:12:43.777Z</time>
      </trkpt>
      <trkpt lat="48.593808" lon="16.673193">
        <ele>235.592943</ele>
        <time>2020-07-27T07:12:45.809Z</time>
      </trkpt>
      <trkpt lat="48.593788" lon="16.673041">
        <ele>235.662404</ele>
        <time>2020-07-27T07:12:47.778Z</time>
      </trkpt>
      <trkpt lat="48.593774" lon="16.672889">
        <ele>235.731187</ele>
        <time>2020-07-27T07:12:49.789Z</time>
      </trkpt>
      <trkpt lat="48.593763" lon="16.672737">
        <ele>235.799720</ele>
        <time>2020-07-27T07:12:51.793Z</time>
      </trkpt>
      <trkpt lat="48.593758" lon="16.672586">
        <ele>235.867482</ele>
        <time>2020-07-27T07:12:53.812Z</time>
      </trkpt>
      <trkpt lat="48.593781" lon="16.672439">
        <ele>235.935185</ele>
        <time>2020-07-27T07:12:55.772Z</time>
      </trkpt>
      <trkpt lat="48.593825" lon="16.672293">
        <ele>236.003996</ele>
        <time>2020-07-27T07:12:57.820Z</time>
      </trkpt>
      <trkpt lat="48.593825" lon="16.672150">
        <ele>236.016663</ele>
        <time>2020-07-27T07:12:59.773Z</time>
      </trkpt>
      <trkpt lat="48.593807" lon="16.672005">
        <ele>236.029731</ele>
        <time>2020-07-27T07:13:01.776Z</time>
      </trkpt>
      <trkpt lat="48.593786" lon="16.671854">
        <ele>236.043399</ele>
        <time>2020-07-27T07:13:03.806Z</time>
      </trkpt>
      <trkpt lat="48.593762" lon="16.671703">
        <ele>236.057155</ele>
        <time>2020-07-27T07:13:05.787Z</time>
      </trkpt>
      <trkpt lat="48.593725" lon="16.671551">
        <ele>236.071502</ele>
        <time>2020-07-27T07:13:07.791Z</time>
      </trkpt>
      <trkpt lat="48.593684" lon="16.671391">
        <ele>236.086701</ele>
        <time>2020-07-27T07:13:09.838Z</time>
      </trkpt>
      <trkpt lat="48.593649" lon="16.671228">
        <ele>236.101882</ele>
        <time>2020-07-27T07:13:11.806Z</time>
      </trkpt>
      <trkpt lat="48.593630" lon="16.671063">
        <ele>236.116717</ele>
        <time>2020-07-27T07:13:13.793Z</time>
      </trkpt>
      <trkpt lat="48.593615" lon="16.670888">
        <ele>236.132348</ele>
        <time>2020-07-27T07:13:15.789Z</time>
      </trkpt>
      <trkpt lat="48.593596" lon="16.670718">
        <ele>236.147620</ele>
        <time>2020-07-27T07:13:17.788Z</time>
      </trkpt>
      <trkpt lat="48.593561" lon="16.670557">
        <ele>236.162632</ele>
        <time>2020-07-27T07:13:19.790Z</time>
      </trkpt>
      <trkpt lat="48.593521" lon="16.670393">
        <ele>236.178115</ele>
        <time>2020-07-27T07:13:21.787Z</time>
      </trkpt>
      <trkpt lat="48.593463" lon="16.670245">
        <ele>236.193353</ele>
        <time>2020-07-27T07:13:23.806Z</time>
      </trkpt>
      <trkpt lat="48.593394" lon="16.670115">
        <ele>236.208118</ele>
        <time>2020-07-27T07:13:25.784Z</time>
      </trkpt>
      <trkpt lat="48.593340" lon="16.669978">
        <ele>236.222245</ele>
        <time>2020-07-27T07:13:27.788Z</time>
      </trkpt>
      <trkpt lat="48.593288" lon="16.669846">
        <ele>236.235854</ele>
        <time>2020-07-27T07:13:29.780Z</time>
      </trkpt>
      <trkpt lat="48.593232" lon="16.669721">
        <ele>236.247295</ele>
        <time>2020-07-27T07:13:31.789Z</time>
      </trkpt>
      <trkpt lat="48.593181" lon="16.669601">
        <ele>236.255149</ele>
        <time>2020-07-27T07:13:33.787Z</time>
      </trkpt>
      <trkpt lat="48.593134" lon="16.669481">
        <ele>236.262827</ele>
        <time>2020-07-27T07:13:35.791Z</time>
      </trkpt>
      <trkpt lat="48.593073" lon="16.669315">
        <ele>236.273283</ele>
        <time>2020-07-27T07:13:38.784Z</time>
      </trkpt>
      <trkpt lat="48.593032" lon="16.669149">
        <ele>236.283039</ele>
        <time>2020-07-27T07:13:41.790Z</time>
      </trkpt>
      <trkpt lat="48.592981" lon="16.668991">
        <ele>236.292719</ele>
        <time>2020-07-27T07:13:44.790Z</time>
      </trkpt>
      <trkpt lat="48.592929" lon="16.668840">
        <ele>236.302093</ele>
        <time>2020-07-27T07:13:47.803Z</time>
      </trkpt>
      <trkpt lat="48.592875" lon="16.668691">
        <ele>236.311447</ele>
        <time>2020-07-27T07:13:50.795Z</time>
      </trkpt>
      <trkpt lat="48.592814" lon="16.668542">
        <ele>236.321096</ele>
        <time>2020-07-27T07:13:53.776Z</time>
      </trkpt>
      <trkpt lat="48.592745" lon="16.668388">
        <ele>236.331337</ele>
        <time>2020-07-27T07:13:56.796Z</time>
      </trkpt>
      <trkpt lat="48.592681" lon="16.668225">
        <ele>236.341774</ele>
        <time>2020-07-27T07:13:59.803Z</time>
      </trkpt>
      <trkpt lat="48.592603" lon="16.668051">
        <ele>236.353347</ele>
        <time>2020-07-27T07:14:02.790Z</time>
      </trkpt>
      <trkpt lat="48.592531" lon="16.667929">
        <ele>236.362350</ele>
        <time>2020-07-27T07:14:04.779Z</time>
      </trkpt>
      <trkpt lat="48.592444" lon="16.667801">
        <ele>236.372456</ele>
        <time>2020-07-27T07:14:06.801Z</time>
      </trkpt>
      <trkpt lat="48.592348" lon="16.667667">
        <ele>236.383332</ele>
        <time>2020-07-27T07:14:08.806Z</time>
      </trkpt>
      <trkpt lat="48.592239" lon="16.667554">
        <ele>236.392200</ele>
        <time>2020-07-27T07:14:10.826Z</time>
      </trkpt>
      <trkpt lat="48.592135" lon="16.667454">
        <ele>236.357202</ele>
        <time>2020-07-27T07:14:12.812Z</time>
      </trkpt>
      <trkpt lat="48.592041" lon="16.667360">
        <ele>236.325201</ele>
        <time>2020-07-27T07:14:14.801Z</time>
      </trkpt>
      <trkpt lat="48.591957" lon="16.667275">
        <ele>236.296499</ele>
        <time>2020-07-27T07:14:16.783Z</time>
      </trkpt>
      <trkpt lat="48.591880" lon="16.667191">
        <ele>236.269537</ele>
        <time>2020-07-27T07:14:18.786Z</time>
      </trkpt>
      <trkpt lat="48.591772" lon="16.667088">
        <ele>236.233279</ele>
        <time>2020-07-27T07:14:21.812Z</time>
      </trkpt>
      <trkpt lat="48.591662" lon="16.667004">
        <ele>236.198286</ele>
        <time>2020-07-27T07:14:24.775Z</time>
      </trkpt>
      <trkpt lat="48.591583" lon="16.666935">
        <ele>236.172379</ele>
        <time>2020-07-27T07:14:26.768Z</time>
      </trkpt>
      <trkpt lat="48.591494" lon="16.666860">
        <ele>236.143447</ele>
        <time>2020-07-27T07:14:28.800Z</time>
      </trkpt>
      <trkpt lat="48.591400" lon="16.666780">
        <ele>236.112817</ele>
        <time>2020-07-27T07:14:30.800Z</time>
      </trkpt>
      <trkpt lat="48.591304" lon="16.666690">
        <ele>236.080742</ele>
        <time>2020-07-27T07:14:32.795Z</time>
      </trkpt>
      <trkpt lat="48.591211" lon="16.666575">
        <ele>236.046626</ele>
        <time>2020-07-27T07:14:34.822Z</time>
      </trkpt>
      <trkpt lat="48.591123" lon="16.666438">
        <ele>236.010759</ele>
        <time>2020-07-27T07:14:36.788Z</time>
      </trkpt>
      <trkpt lat="48.591059" lon="16.666257">
        <ele>235.972212</ele>
        <time>2020-07-27T07:14:38.775Z</time>
      </trkpt>
      <trkpt lat="48.591012" lon="16.666063">
        <ele>235.933408</ele>
        <time>2020-07-27T07:14:40.796Z</time>
      </trkpt>
      <trkpt lat="48.590957" lon="16.665877">
        <ele>235.895142</ele>
        <time>2020-07-27T07:14:42.790Z</time>
      </trkpt>
      <trkpt lat="48.590902" lon="16.665689">
        <ele>235.900801</ele>
        <time>2020-07-27T07:14:44.835Z</time>
      </trkpt>
      <trkpt lat="48.590846" lon="16.665499">
        <ele>235.926787</ele>
        <time>2020-07-27T07:14:46.789Z</time>
      </trkpt>
      <trkpt lat="48.590789" lon="16.665306">
        <ele>235.953192</ele>
        <time>2020-07-27T07:14:48.806Z</time>
      </trkpt>
      <trkpt lat="48.590727" lon="16.665115">
        <ele>235.979771</ele>
        <time>2020-07-27T07:14:50.798Z</time>
      </trkpt>
      <trkpt lat="48.590666" lon="16.664928">
        <ele>236.005818</ele>
        <time>2020-07-27T07:14:52.780Z</time>
      </trkpt>
      <trkpt lat="48.590610" lon="16.664743">
        <ele>236.031234</ele>
        <time>2020-07-27T07:14:54.800Z</time>
      </trkpt>
      <trkpt lat="48.590557" lon="16.664559">
        <ele>236.056305</ele>
        <time>2020-07-27T07:14:56.782Z</time>
      </trkpt>
      <trkpt lat="48.590502" lon="16.664381">
        <ele>236.080849</ele>
        <time>2020-07-27T07:14:58.793Z</time>
      </trkpt>
      <trkpt lat="48.590453" lon="16.664211">
        <ele>236.104015</ele>
        <time>2020-07-27T07:15:00.791Z</time>
      </trkpt>
      <trkpt lat="48.590402" lon="16.664044">
        <ele>236.126994</ele>
        <time>2020-07-27T07:15:02.810Z</time>
      </trkpt>
      <trkpt lat="48.590352" lon="16.663881">
        <ele>236.149440</ele>
        <time>2020-07-27T07:15:04.818Z</time>
      </trkpt>
      <trkpt lat="48.590300" lon="16.663721">
        <ele>236.171710</ele>
        <time>2020-07-27T07:15:06.809Z</time>
      </trkpt>
      <trkpt lat="48.590249" lon="16.663565">
        <ele>236.193449</ele>
        <time>2020-07-27T07:15:08.793Z</time>
      </trkpt>
      <trkpt lat="48.590201" lon="16.663414">
        <ele>236.214378</ele>
        <time>2020-07-27T07:15:10.791Z</time>
      </trkpt>
      <trkpt lat="48.590154" lon="16.663259">
        <ele>236.196871</ele>
        <time>2020-07-27T07:15:12.808Z</time>
      </trkpt>
      <trkpt lat="48.590111" lon="16.663099">
        <ele>236.153299</ele>
        <time>2020-07-27T07:15:14.799Z</time>
      </trkpt>
      <trkpt lat="48.590067" lon="16.662941">
        <ele>236.110049</ele>
        <time>2020-07-27T07:15:16.795Z</time>
      </trkpt>
      <trkpt lat="48.590022" lon="16.662782">
        <ele>236.066417</ele>
        <time>2020-07-27T07:15:18.781Z</time>
      </trkpt>
      <trkpt lat="48.589977" lon="16.662622">
        <ele>236.022552</ele>
        <time>2020-07-27T07:15:20.808Z</time>
      </trkpt>
      <trkpt lat="48.589929" lon="16.662472">
        <ele>235.980513</ele>
        <time>2020-07-27T07:15:22.797Z</time>
      </trkpt>
      <trkpt lat="48.589888" lon="16.662315">
        <ele>235.937927</ele>
        <time>2020-07-27T07:15:24.783Z</time>
      </trkpt>
      <trkpt lat="48.589856" lon="16.662161">
        <ele>235.897202</ele>
        <time>2020-07-27T07:15:26.795Z</time>
      </trkpt>
      <trkpt lat="48.589825" lon="16.662020">
        <ele>235.859716</ele>
        <time>2020-07-27T07:15:28.783Z</time>
      </trkpt>
      <trkpt lat="48.589799" lon="16.661885">
        <ele>235.824242</ele>
        <time>2020-07-27T07:15:30.793Z</time>
      </trkpt>
      <trkpt lat="48.589772" lon="16.661690">
        <ele>235.773978</ele>
        <time>2020-07-27T07:15:33.791Z</time>
      </trkpt>
      <trkpt lat="48.589766" lon="16.661505">
        <ele>235.727248</ele>
        <time>2020-07-27T07:15:36.802Z</time>
      </trkpt>
      <trkpt lat="48.589772" lon="16.661316">
        <ele>235.679510</ele>
        <time>2020-07-27T07:15:39.792Z</time>
      </trkpt>
      <trkpt lat="48.589795" lon="16.661131">
        <ele>235.632019</ele>
        <time>2020-07-27T07:15:42.780Z</time>
      </trkpt>
      <trkpt lat="48.589817" lon="16.660951">
        <ele>235.585838</ele>
        <time>2020-07-27T07:15:45.795Z</time>
      </trkpt>
      <trkpt lat="48.589801" lon="16.660775">
        <ele>235.541017</ele>
        <time>2020-07-27T07:15:48.785Z</time>
      </trkpt>
      <trkpt lat="48.589715" lon="16.660616">
        <ele>235.424692</ele>
        <time>2020-07-27T07:15:51.812Z</time>
      </trkpt>
      <trkpt lat="48.589625" lon="16.660487">
        <ele>235.313257</ele>
        <time>2020-07-27T07:15:53.777Z</time>
      </trkpt>
      <trkpt lat="48.589530" lon="16.660339">
        <ele>235.190686</ele>
        <time>2020-07-27T07:15:55.796Z</time>
      </trkpt>
      <trkpt lat="48.589437" lon="16.660189">
        <ele>235.068495</ele>
        <time>2020-07-27T07:15:57.798Z</time>
      </trkpt>
      <trkpt lat="48.589356" lon="16.660032">
        <ele>234.950156</ele>
        <time>2020-07-27T07:15:59.789Z</time>
      </trkpt>
      <trkpt lat="48.589287" lon="16.659865">
        <ele>234.833129</ele>
        <time>2020-07-27T07:16:01.808Z</time>
      </trkpt>
      <trkpt lat="48.589222" lon="16.659703">
        <ele>234.720517</ele>
        <time>2020-07-27T07:16:03.791Z</time>
      </trkpt>
      <trkpt lat="48.589157" lon="16.659542">
        <ele>234.608413</ele>
        <time>2020-07-27T07:16:05.791Z</time>
      </trkpt>
      <trkpt lat="48.589093" lon="16.659380">
        <ele>234.496264</ele>
        <time>2020-07-27T07:16:07.782Z</time>
      </trkpt>
      <trkpt lat="48.589032" lon="16.659220">
        <ele>234.386504</ele>
        <time>2020-07-27T07:16:09.795Z</time>
      </trkpt>
      <trkpt lat="48.588975" lon="16.659059">
        <ele>234.277971</ele>
        <time>2020-07-27T07:16:11.801Z</time>
      </trkpt>
      <trkpt lat="48.588924" lon="16.658898">
        <ele>234.171875</ele>
        <time>2020-07-27T07:16:13.800Z</time>
      </trkpt>
      <trkpt lat="48.588880" lon="16.658735">
        <ele>234.067241</ele>
        <time>2020-07-27T07:16:15.793Z</time>
      </trkpt>
      <trkpt lat="48.588842" lon="16.658570">
        <ele>233.963400</ele>
        <time>2020-07-27T07:16:17.808Z</time>
      </trkpt>
      <trkpt lat="48.588811" lon="16.658405">
        <ele>233.928314</ele>
        <time>2020-07-27T07:16:19.813Z</time>
      </trkpt>
      <trkpt lat="48.588783" lon="16.658241">
        <ele>233.941373</ele>
        <time>2020-07-27T07:16:21.793Z</time>
      </trkpt>
      <trkpt lat="48.588758" lon="16.658084">
        <ele>233.953824</ele>
        <time>2020-07-27T07:16:23.796Z</time>
      </trkpt>
      <trkpt lat="48.588730" lon="16.657919">
        <ele>233.966958</ele>
        <time>2020-07-27T07:16:25.812Z</time>
      </trkpt>
      <trkpt lat="48.588702" lon="16.657755">
        <ele>233.980017</ele>
        <time>2020-07-27T07:16:27.807Z</time>
      </trkpt>
      <trkpt lat="48.588676" lon="16.657593">
        <ele>233.992870</ele>
        <time>2020-07-27T07:16:29.784Z</time>
      </trkpt>
      <trkpt lat="48.588659" lon="16.657431">
        <ele>234.005517</ele>
        <time>2020-07-27T07:16:31.799Z</time>
      </trkpt>
      <trkpt lat="48.588648" lon="16.657273">
        <ele>234.017767</ele>
        <time>2020-07-27T07:16:33.807Z</time>
      </trkpt>
      <trkpt lat="48.588641" lon="16.657116">
        <ele>234.029899</ele>
        <time>2020-07-27T07:16:35.808Z</time>
      </trkpt>
      <trkpt lat="48.588635" lon="16.656957">
        <ele>234.042179</ele>
        <time>2020-07-27T07:16:37.802Z</time>
      </trkpt>
      <trkpt lat="48.588627" lon="16.656799">
        <ele>234.054396</ele>
        <time>2020-07-27T07:16:39.794Z</time>
      </trkpt>
      <trkpt lat="48.588621" lon="16.656641">
        <ele>234.066599</ele>
        <time>2020-07-27T07:16:41.798Z</time>
      </trkpt>
      <trkpt lat="48.588617" lon="16.656486">
        <ele>234.078559</ele>
        <time>2020-07-27T07:16:43.807Z</time>
      </trkpt>
      <trkpt lat="48.588610" lon="16.656335">
        <ele>234.090230</ele>
        <time>2020-07-27T07:16:45.796Z</time>
      </trkpt>
      <trkpt lat="48.588604" lon="16.656183">
        <ele>234.101970</ele>
        <time>2020-07-27T07:16:47.803Z</time>
      </trkpt>
      <trkpt lat="48.588598" lon="16.656026">
        <ele>234.114096</ele>
        <time>2020-07-27T07:16:49.797Z</time>
      </trkpt>
      <trkpt lat="48.588590" lon="16.655867">
        <ele>234.126390</ele>
        <time>2020-07-27T07:16:51.783Z</time>
      </trkpt>
      <trkpt lat="48.588578" lon="16.655709">
        <ele>234.129120</ele>
        <time>2020-07-27T07:16:53.803Z</time>
      </trkpt>
      <trkpt lat="48.588565" lon="16.655554">
        <ele>234.127429</ele>
        <time>2020-07-27T07:16:55.807Z</time>
      </trkpt>
      <trkpt lat="48.588555" lon="16.655404">
        <ele>234.125796</ele>
        <time>2020-07-27T07:16:57.793Z</time>
      </trkpt>
      <trkpt lat="48.588545" lon="16.655254">
        <ele>234.124164</ele>
        <time>2020-07-27T07:16:59.781Z</time>
      </trkpt>
      <trkpt lat="48.588540" lon="16.655105">
        <ele>234.122548</ele>
        <time>2020-07-27T07:17:01.791Z</time>
      </trkpt>
      <trkpt lat="48.588533" lon="16.654953">
        <ele>234.120899</ele>
        <time>2020-07-27T07:17:03.802Z</time>
      </trkpt>
      <trkpt lat="48.588525" lon="16.654800">
        <ele>234.119237</ele>
        <time>2020-07-27T07:17:05.794Z</time>
      </trkpt>
      <trkpt lat="48.588510" lon="16.654644">
        <ele>234.117530</ele>
        <time>2020-07-27T07:17:07.774Z</time>
      </trkpt>
      <trkpt lat="48.588494" lon="16.654493">
        <ele>234.115874</ele>
        <time>2020-07-27T07:17:09.778Z</time>
      </trkpt>
      <trkpt lat="48.588474" lon="16.654345">
        <ele>234.114238</ele>
        <time>2020-07-27T07:17:11.774Z</time>
      </trkpt>
      <trkpt lat="48.588447" lon="16.654195">
        <ele>234.112555</ele>
        <time>2020-07-27T07:17:13.793Z</time>
      </trkpt>
      <trkpt lat="48.588409" lon="16.654039">
        <ele>234.110755</ele>
        <time>2020-07-27T07:17:15.806Z</time>
      </trkpt>
      <trkpt lat="48.588366" lon="16.653888">
        <ele>234.108975</ele>
        <time>2020-07-27T07:17:17.815Z</time>
      </trkpt>
      <trkpt lat="48.588323" lon="16.653738">
        <ele>234.107205</ele>
        <time>2020-07-27T07:17:19.794Z</time>
      </trkpt>
      <trkpt lat="48.588278" lon="16.653590">
        <ele>234.105441</ele>
        <time>2020-07-27T07:17:21.779Z</time>
      </trkpt>
      <trkpt lat="48.588232" lon="16.653447">
        <ele>234.103719</ele>
        <time>2020-07-27T07:17:23.791Z</time>
      </trkpt>
      <trkpt lat="48.588186" lon="16.653309">
        <ele>234.102046</ele>
        <time>2020-07-27T07:17:25.799Z</time>
      </trkpt>
      <trkpt lat="48.588142" lon="16.653181">
        <ele>234.098392</ele>
        <time>2020-07-27T07:17:27.793Z</time>
      </trkpt>
      <trkpt lat="48.588089" lon="16.653017">
        <ele>234.085149</ele>
        <time>2020-07-27T07:17:30.792Z</time>
      </trkpt>
      <trkpt lat="48.588026" lon="16.652870">
        <ele>234.072441</ele>
        <time>2020-07-27T07:17:33.804Z</time>
      </trkpt>
      <trkpt lat="48.587925" lon="16.652734">
        <ele>234.057605</ele>
        <time>2020-07-27T07:17:36.788Z</time>
      </trkpt>
      <trkpt lat="48.587850" lon="16.652633">
        <ele>234.046589</ele>
        <time>2020-07-27T07:17:38.778Z</time>
      </trkpt>
      <trkpt lat="48.587775" lon="16.652523">
        <ele>234.035127</ele>
        <time>2020-07-27T07:17:40.802Z</time>
      </trkpt>
      <trkpt lat="48.587699" lon="16.652412">
        <ele>234.023536</ele>
        <time>2020-07-27T07:17:42.795Z</time>
      </trkpt>
      <trkpt lat="48.587625" lon="16.652296">
        <ele>234.011844</ele>
        <time>2020-07-27T07:17:44.793Z</time>
      </trkpt>
      <trkpt lat="48.587549" lon="16.652178">
        <ele>233.999895</ele>
        <time>2020-07-27T07:17:46.818Z</time>
      </trkpt>
      <trkpt lat="48.587475" lon="16.652052">
        <ele>233.987670</ele>
        <time>2020-07-27T07:17:48.804Z</time>
      </trkpt>
      <trkpt lat="48.587400" lon="16.651928">
        <ele>233.975479</ele>
        <time>2020-07-27T07:17:50.793Z</time>
      </trkpt>
      <trkpt lat="48.587324" lon="16.651800">
        <ele>233.962999</ele>
        <time>2020-07-27T07:17:52.788Z</time>
      </trkpt>
      <trkpt lat="48.587248" lon="16.651674">
        <ele>233.950628</ele>
        <time>2020-07-27T07:17:54.787Z</time>
      </trkpt>
      <trkpt lat="48.587167" lon="16.651550">
        <ele>233.937984</ele>
        <time>2020-07-27T07:17:56.818Z</time>
      </trkpt>
      <trkpt lat="48.587083" lon="16.651422">
        <ele>233.924902</ele>
        <time>2020-07-27T07:17:58.799Z</time>
      </trkpt>
      <trkpt lat="48.586998" lon="16.651285">
        <ele>233.911274</ele>
        <time>2020-07-27T07:18:00.787Z</time>
      </trkpt>
      <trkpt lat="48.586921" lon="16.651152">
        <ele>233.898514</ele>
        <time>2020-07-27T07:18:02.828Z</time>
      </trkpt>
      <trkpt lat="48.586850" lon="16.651032">
        <ele>233.886979</ele>
        <time>2020-07-27T07:18:04.800Z</time>
      </trkpt>
      <trkpt lat="48.586773" lon="16.650917">
        <ele>233.875256</ele>
        <time>2020-07-27T07:18:06.792Z</time>
      </trkpt>
      <trkpt lat="48.586687" lon="16.650814">
        <ele>233.863372</ele>
        <time>2020-07-27T07:18:08.807Z</time>
      </trkpt>
      <trkpt lat="48.586597" lon="16.650719">
        <ele>233.851483</ele>
        <time>2020-07-27T07:18:10.812Z</time>
      </trkpt>
      <trkpt lat="48.586507" lon="16.650628">
        <ele>233.839756</ele>
        <time>2020-07-27T07:18:12.821Z</time>
      </trkpt>
      <trkpt lat="48.586412" lon="16.650551">
        <ele>233.828080</ele>
        <time>2020-07-27T07:18:14.814Z</time>
      </trkpt>
      <trkpt lat="48.586319" lon="16.650472">
        <ele>233.816526</ele>
        <time>2020-07-27T07:18:16.810Z</time>
      </trkpt>
      <trkpt lat="48.586223" lon="16.650398">
        <ele>233.804855</ele>
        <time>2020-07-27T07:18:18.793Z</time>
      </trkpt>
      <trkpt lat="48.586126" lon="16.650325">
        <ele>233.793119</ele>
        <time>2020-07-27T07:18:20.806Z</time>
      </trkpt>
      <trkpt lat="48.586028" lon="16.650252">
        <ele>233.781286</ele>
        <time>2020-07-27T07:18:22.790Z</time>
      </trkpt>
      <trkpt lat="48.585927" lon="16.650180">
        <ele>233.769191</ele>
        <time>2020-07-27T07:18:24.807Z</time>
      </trkpt>
      <trkpt lat="48.585822" lon="16.650103">
        <ele>233.756551</ele>
        <time>2020-07-27T07:18:26.790Z</time>
      </trkpt>
      <trkpt lat="48.585717" lon="16.650021">
        <ele>233.743750</ele>
        <time>2020-07-27T07:18:28.781Z</time>
      </trkpt>
      <trkpt lat="48.585616" lon="16.649940">
        <ele>233.731367</ele>
        <time>2020-07-27T07:18:30.799Z</time>
      </trkpt>
      <trkpt lat="48.585513" lon="16.649864">
        <ele>233.718953</ele>
        <time>2020-07-27T07:18:32.793Z</time>
      </trkpt>
      <trkpt lat="48.585415" lon="16.649786">
        <ele>233.708756</ele>
        <time>2020-07-27T07:18:34.797Z</time>
      </trkpt>
      <trkpt lat="48.585320" lon="16.649706">
        <ele>233.708756</ele>
        <time>2020-07-27T07:18:36.804Z</time>
      </trkpt>
      <trkpt lat="48.585232" lon="16.649615">
        <ele>233.708756</ele>
        <time>2020-07-27T07:18:38.790Z</time>
      </trkpt>
      <trkpt lat="48.585144" lon="16.649525">
        <ele>233.708756</ele>
        <time>2020-07-27T07:18:40.782Z</time>
      </trkpt>
      <trkpt lat="48.585057" lon="16.649434">
        <ele>233.708756</ele>
        <time>2020-07-27T07:18:42.792Z</time>
      </trkpt>
      <trkpt lat="48.584974" lon="16.649337">
        <ele>233.708756</ele>
        <time>2020-07-27T07:18:44.785Z</time>
      </trkpt>
      <trkpt lat="48.584891" lon="16.649236">
        <ele>233.708756</ele>
        <time>2020-07-27T07:18:46.794Z</time>
      </trkpt>
      <trkpt lat="48.584812" lon="16.649125">
        <ele>233.708756</ele>
        <time>2020-07-27T07:18:48.813Z</time>
      </trkpt>
      <trkpt lat="48.584741" lon="16.649007">
        <ele>233.708756</ele>
        <time>2020-07-27T07:18:50.810Z</time>
      </trkpt>
      <trkpt lat="48.584674" lon="16.648886">
        <ele>233.708756</ele>
        <time>2020-07-27T07:18:52.818Z</time>
      </trkpt>
      <trkpt lat="48.584602" lon="16.648768">
        <ele>233.708756</ele>
        <time>2020-07-27T07:18:54.801Z</time>
      </trkpt>
      <trkpt lat="48.584515" lon="16.648674">
        <ele>233.708756</ele>
        <time>2020-07-27T07:18:56.783Z</time>
      </trkpt>
      <trkpt lat="48.584408" lon="16.648686">
        <ele>233.708756</ele>
        <time>2020-07-27T07:18:58.790Z</time>
      </trkpt>
      <trkpt lat="48.584305" lon="16.648773">
        <ele>233.708756</ele>
        <time>2020-07-27T07:19:00.818Z</time>
      </trkpt>
      <trkpt lat="48.584205" lon="16.648878">
        <ele>233.708756</ele>
        <time>2020-07-27T07:19:02.812Z</time>
      </trkpt>
      <trkpt lat="48.584106" lon="16.648983">
        <ele>233.708756</ele>
        <time>2020-07-27T07:19:04.790Z</time>
      </trkpt>
      <trkpt lat="48.584008" lon="16.649077">
        <ele>233.708756</ele>
        <time>2020-07-27T07:19:06.779Z</time>
      </trkpt>
      <trkpt lat="48.583914" lon="16.649076">
        <ele>233.708756</ele>
        <time>2020-07-27T07:19:09.779Z</time>
      </trkpt>
      <trkpt lat="48.583910" lon="16.649060">
        <ele>233.708756</ele>
        <time>2020-07-27T07:19:26.373Z</time>
      </trkpt>
    </trkseg>
  </trk>
</gpx>